# Wetter Temperatur Luftdruck Luftfeuchtigkeit Sichtweite Windgeschwindigkeit Windrichtung Zeit
1 Fog 9 1014 100 150 1.5 0 09:58 29.01.2020
2 Fog 9 1014 100 150 1.5 0 09:40 29.01.2020
3 Fog 8 1014 100 150 1.5 0 09:20 29.01.2020
4 Clouds 8 1014 93 10000 2.6 110 08:56 29.01.2020
5 Fog 8 1014 93 50 1 0 08:38 29.01.2020
6 Fog 8 1014 93 50 1 0 08:38 29.01.2020
7 Fog 7 1014 93 50 1 0 08:18 29.01.2020
8 Clouds 7 1013 93 10000 2.6 100 07:43 29.01.2020
9 Clouds 7 1013 87 10000 2.1 130 07:23 29.01.2020
10 Clouds 7 1013 93 10000 2.6 110 06:38 29.01.2020
11 Clouds 7 1013 93 10000 2.1 120 06:20 29.01.2020
12 Clouds 8 1013 93 10000 1.5 100 05:54 29.01.2020
13 Clouds 8 1013 93 10000 2.1 110 05:35 29.01.2020
14 Clouds 8 1013 93 10000 2.1 140 04:39 29.01.2020
15 Clouds 9 1012 93 10000 2.6 120 04:18 29.01.2020
16 Clouds 10 1012 87 10000 2.6 230 02:40 29.01.2020
17 Clouds 11 1012 76 10000 3.6 290 01:34 29.01.2020
18 Clouds 11 1013 87 10000 2.6 240 00:39 29.01.2020
19 Clouds 11 1012 76 10000 5.1 290 00:21 29.01.2020
20 Clouds 11 1013 81 10000 2.6 180 23:41 28.01.2020
21 Clouds 12 1013 76 10000 2.6 180 23:20 28.01.2020
22 Clouds 12 1013 81 10000 2.6 190 22:56 28.01.2020
23 Clouds 12 1013 82 10000 4.1 190 22:37 28.01.2020
24 Clouds 12 1013 82 10000 4.1 190 22:18 28.01.2020
25 Clouds 12 1013 82 10000 4.1 190 22:18 28.01.2020
26 Clouds 12 1013 82 10000 3.6 170 21:39 28.01.2020
27 Clouds 12 1013 82 10000 5.1 160 21:20 28.01.2020
28 Clouds 12 1013 82 10000 4.6 160 20:46 28.01.2020
29 Clouds 12 1013 82 10000 5.1 160 20:27 28.01.2020
30 Clouds 12 1014 82 10000 3.6 170 19:58 28.01.2020
31 Rain 12 1014 82 10000 3.6 160 19:38 28.01.2020
32 Rain 12 1014 82 10000 3.6 160 19:19 28.01.2020
33 Rain 12 1014 82 10000 3.6 170 18:54 28.01.2020
34 Clouds 12 1014 76 10000 4.1 160 18:36 28.01.2020
35 Clouds 12 1014 76 10000 4.1 160 18:36 28.01.2020
36 Clouds 12 1014 76 10000 4.1 160 18:18 28.01.2020
37 Clouds 12 1014 76 10000 4.1 160 17:55 28.01.2020
38 Clouds 12 1014 87 9000 3.1 160 17:36 28.01.2020
39 Clouds 12 1014 87 9000 3.1 160 17:18 28.01.2020
40 Clouds 12 1014 76 10000 3.1 170 16:44 28.01.2020
41 Clouds 12 1014 76 9000 3.1 180 16:26 28.01.2020
42 Clouds 12 1014 82 10000 4.1 160 15:59 28.01.2020
43 Clouds 12 1014 82 10000 4.1 160 15:40 28.01.2020
44 Rain 12 1015 82 7000 2.6 170 15:18 28.01.2020
45 Rain 12 1016 93 4000 2.1 40 14:44 28.01.2020
46 Clouds 12 1015 82 10000 2.1 180 14:20 28.01.2020
47 Clouds 12 1016 82 9000 3.1 190 13:43 28.01.2020
48 Clouds 12 1016 82 9000 3.1 190 13:25 28.01.2020
49 Rain 12 1016 81 10000 3.1 180 12:56 28.01.2020
50 Rain 12 1017 82 6000 2.6 160 12:38 28.01.2020
51 Rain 12 1017 82 6000 2.6 160 12:20 28.01.2020
52 Clouds 12 1017 76 10000 3.6 170 11:41 28.01.2020
53 Clouds 12 1017 76 10000 3.6 170 11:41 28.01.2020
54 Clouds 12 1017 87 9000 1.5 0 11:22 28.01.2020
55 Clouds 12 1017 81 10000 3.6 180 10:55 28.01.2020
56 Clouds 11 1017 81 9000 1.5 0 10:36 28.01.2020
57 Clouds 11 1017 81 9000 1.5 0 10:18 28.01.2020
58 Clouds 11 1017 76 10000 3.6 160 09:42 28.01.2020
59 Clouds 11 1017 93 9000 1.5 0 09:20 28.01.2020
60 Clouds 10 1017 81 10000 3.1 150 08:46 28.01.2020
61 Clouds 10 1017 100 9000 2.1 150 08:26 28.01.2020
62 Clouds 10 1017 87 10000 2.1 170 07:56 28.01.2020
63 Clouds 10 1017 87 10000 2.1 160 07:34 28.01.2020
64 Clouds 10 1018 87 10000 2.1 180 06:48 28.01.2020
65 Clouds 10 1018 87 10000 2.1 180 06:25 28.01.2020
66 Clouds 10 1017 93 10000 3.1 160 05:40 28.01.2020
67 Rain 10 1018 93 10000 2.1 180 05:21 28.01.2020
68 Clouds 10 1018 87 10000 2.1 170 03:49 28.01.2020
69 Clouds 10 1019 87 10000 2.1 150 02:48 28.01.2020
70 Clouds 10 1019 87 10000 2.1 160 02:25 28.01.2020
71 Clouds 10 1019 93 10000 2.1 160 01:55 28.01.2020
72 Clouds 10 1019 93 10000 2.1 190 01:22 28.01.2020
73 Clouds 10 1019 93 10000 2.6 170 00:45 28.01.2020
74 Rain 10 1020 93 7000 2.1 180 00:22 28.01.2020
75 Clouds 10 1020 93 10000 2.6 170 23:44 27.01.2020
76 Clouds 10 1020 93 10000 3.1 170 23:20 27.01.2020
77 Clouds 10 1020 87 10000 2.6 170 22:45 27.01.2020
78 Rain 10 1020 93 7000 2.6 170 22:20 27.01.2020
79 Rain 10 1020 93 7000 2.6 170 22:20 27.01.2020
80 Rain 10 1020 93 8000 2.6 170 21:58 27.01.2020
81 Clouds 10 1020 87 10000 2.6 140 21:39 27.01.2020
82 Clouds 10 1020 87 10000 2.6 140 21:19 27.01.2020
83 Rain 10 1020 87 10000 1 0 20:57 27.01.2020
84 Clouds 10 1020 81 10000 2.6 220 20:38 27.01.2020
85 Clouds 10 1020 81 10000 2.6 220 20:19 27.01.2020
86 Clouds 10 1020 87 9000 2.6 140 19:56 27.01.2020
87 Clouds 10 1020 87 10000 2.1 150 19:38 27.01.2020
88 Clouds 10 1020 87 10000 2.1 150 19:19 27.01.2020
89 Clouds 11 1020 87 10000 2.1 170 18:40 27.01.2020
90 Rain 11 1020 87 10000 1 0 18:21 27.01.2020
91 Rain 11 1020 76 10000 1.5 200 17:58 27.01.2020
92 Clouds 11 1020 66 10000 1.5 210 17:38 27.01.2020
93 Clouds 12 1020 66 10000 1.5 210 17:19 27.01.2020
94 Clouds 12 1020 66 10000 1.5 210 16:56 27.01.2020
95 Clouds 13 1020 58 10000 2.6 240 16:37 27.01.2020
96 Clouds 14 1020 58 10000 2.6 240 16:19 27.01.2020
97 Clouds 14 1020 71 10000 2.6 250 15:41 27.01.2020
98 Clouds 14 1020 62 10000 1 0 15:20 27.01.2020
99 Clouds 14 1020 62 10000 1 0 14:57 27.01.2020
100 Clouds 14 1020 62 10000 1 0 14:39 27.01.2020
101 Clouds 14 1020 58 10000 1 0 14:20 27.01.2020
102 Clouds 14 1020 67 10000 1.5 0 13:42 27.01.2020
103 Clouds 14 1021 66 10000 0.72 188 13:23 27.01.2020
104 Clouds 13 1021 71 10000 1.5 330 12:58 27.01.2020
105 Clouds 13 1022 71 6000 0.81 175 12:39 27.01.2020
106 Clouds 13 1022 71 6000 0.81 175 12:21 27.01.2020
107 Clouds 12 1021 71 10000 1.5 320 11:43 27.01.2020
108 Clouds 11 1021 76 10000 2.1 70 11:22 27.01.2020
109 Clouds 10 1022 87 10000 2.1 360 10:56 27.01.2020
110 Clouds 10 1022 87 10000 2.1 360 10:38 27.01.2020
111 Fog 8 1022 100 300 2.1 0 10:20 27.01.2020
112 Fog 7 1021 87 10000 1 0 09:39 27.01.2020
113 Clouds 7 1021 93 10000 1 0 09:19 27.01.2020
114 Fog 6 1021 93 10000 1 0 08:55 27.01.2020
115 Fog 6 1021 100 50 2.6 360 08:37 27.01.2020
116 Fog 5 1021 100 50 2.6 360 08:18 27.01.2020
117 Fog 5 1020 93 7000 0.5 0 07:45 27.01.2020
118 Clear 5 1020 93 7000 1.5 80 07:25 27.01.2020
119 Mist 5 1020 93 3000 0.5 0 06:37 27.01.2020
120 Mist 5 1020 100 3000 1 0 05:43 27.01.2020
121 Mist 6 1020 93 5000 1 0 04:37 27.01.2020
122 Clear 5 1020 93 6000 1.93 6 03:35 27.01.2020
123 Clear 6 1020 100 10000 2.1 90 01:54 27.01.2020
124 Clear 6 1020 87 6000 1.5 90 01:25 27.01.2020
125 Clear 6 1020 87 7000 1.5 80 00:41 27.01.2020
126 Clear 6 1020 87 7000 1.5 80 00:21 27.01.2020
127 Clear 7 1020 87 10000 1.5 90 23:43 26.01.2020
128 Clear 7 1020 87 10000 1.5 90 23:22 26.01.2020
129 Clear 7 1020 93 10000 2.1 100 22:58 26.01.2020
130 Clear 7 1019 93 10000 2.1 100 22:38 26.01.2020
131 Clear 7 1019 93 10000 2.1 100 22:20 26.01.2020
132 Clouds 7 1019 93 10000 1.5 100 21:57 26.01.2020
133 Clouds 8 1019 87 10000 1 100 21:39 26.01.2020
134 Clouds 8 1019 87 10000 1 100 21:20 26.01.2020
135 Clouds 8 1019 87 10000 1 0 20:57 26.01.2020
136 Clouds 8 1019 87 10000 0.5 0 20:38 26.01.2020
137 Clouds 8 1019 87 10000 0.5 0 20:38 26.01.2020
138 Clouds 8 1019 87 10000 0.5 0 20:19 26.01.2020
139 Clouds 8 1019 87 10000 0.5 0 20:19 26.01.2020
140 Clouds 8 1019 87 10000 0.5 0 19:57 26.01.2020
141 Clouds 8 1019 87 10000 0.5 0 19:38 26.01.2020
142 Clouds 9 1019 81 10000 0.5 0 19:19 26.01.2020
143 Clouds 9 1019 81 10000 0.5 0 19:19 26.01.2020
144 Clouds 9 1019 76 10000 1.5 260 18:55 26.01.2020
145 Clouds 9 1019 76 10000 1.5 260 18:55 26.01.2020
146 Clouds 10 1019 76 10000 2.1 260 18:36 26.01.2020
147 Clouds 10 1019 76 10000 2.1 260 18:18 26.01.2020
148 Clouds 10 1019 76 10000 2.1 260 18:18 26.01.2020
149 Clouds 11 1018 71 10000 2.1 270 17:55 26.01.2020
150 Clouds 11 1019 71 10000 2.1 360 17:36 26.01.2020
151 Clouds 12 1019 71 10000 2.1 360 17:18 26.01.2020
152 Clouds 12 1018 71 10000 3.1 250 16:55 26.01.2020
153 Clouds 12 1018 67 10000 2.1 350 16:37 26.01.2020
154 Clouds 13 1018 67 10000 2.1 350 16:18 26.01.2020
155 Clouds 13 1015 70 0 1.09 298 15:42 26.01.2020
156 Clouds 13 1015 70 0 1.09 298 15:19 26.01.2020
157 Clouds 13 1015 71 0 1.09 298 14:55 26.01.2020
158 Clouds 13 1015 71 0 1.09 298 14:37 26.01.2020
159 Clouds 13 1015 72 0 0.9 314 14:18 26.01.2020
160 Clouds 13 1016 72 0 0.9 314 13:39 26.01.2020
161 Clouds 13 1034 69 0 2.68 273 13:18 26.01.2020
162 Clouds 12 1016 73 0 0.68 336 12:43 26.01.2020
163 Clouds 12 1016 73 0 0.68 336 12:43 26.01.2020
164 Clouds 12 1016 73 0 0.68 336 12:43 26.01.2020
165 Clouds 12 1016 75 0 0.68 336 12:25 26.01.2020
166 Clouds 12 1017 77 0 0.68 336 11:59 26.01.2020
167 Clouds 11 1017 77 0 0.68 336 11:40 26.01.2020
168 Fog 10 1021 100 400 2.1 15 11:19 26.01.2020
169 Fog 9 1021 100 400 2.1 15 10:59 26.01.2020
170 Clouds 9 1020 93 8000 1.5 20 10:39 26.01.2020
171 Fog 9 1021 100 400 2.1 15 10:21 26.01.2020
172 Clouds 9 1020 93 8000 1 0 09:59 26.01.2020
173 Clouds 9 1020 93 8000 1 0 09:41 26.01.2020
174 Clouds 8 1020 93 8000 0.5 0 09:22 26.01.2020
175 Clouds 8 1020 93 8000 1.5 340 08:45 26.01.2020
176 Clouds 7 1020 100 8000 0.5 0 08:24 26.01.2020
177 Clouds 8 1020 93 8000 1.5 20 07:59 26.01.2020
178 Clouds 7 1020 93 8000 1.5 20 07:41 26.01.2020
179 Clouds 7 1020 93 10000 1 0 07:22 26.01.2020
180 Clouds 8 1019 93 10000 1 0 06:32 26.01.2020
181 Clouds 8 1020 87 10000 2.1 90 05:35 26.01.2020
182 Clear 8 1020 87 10000 2.1 70 04:52 26.01.2020
183 Clear 8 1021 93 10000 2.1 60 02:59 26.01.2020
184 Clouds 8 1021 87 10000 1.5 40 01:59 26.01.2020
185 Clouds 8 1021 87 10000 0.5 0 01:38 26.01.2020
186 Clouds 8 1021 87 10000 0.5 0 01:19 26.01.2020
187 Clouds 8 1022 87 10000 0.5 0 00:39 26.01.2020
188 Clouds 9 1022 87 10000 0.5 0 00:20 26.01.2020
189 Clouds 8 1022 87 10000 0.5 0 00:20 26.01.2020
190 Clouds 9 1022 87 10000 0.5 0 00:20 26.01.2020
191 Clouds 9 1019 83 0 1.82 45 23:37 25.01.2020
192 Clouds 8 1019 83 0 1.49 78 23:19 25.01.2020
193 Clouds 9 1019 83 0 1.49 78 22:43 25.01.2020
194 Clouds 9 1019 83 0 1.49 78 22:43 25.01.2020
195 Clouds 9 1019 82 0 1.49 78 22:20 25.01.2020
196 Clouds 9 1019 82 0 1.49 78 21:57 25.01.2020
197 Clouds 9 1019 82 0 1.49 78 21:39 25.01.2020
198 Clouds 10 1022 87 0 1.49 78 21:21 25.01.2020
199 Clouds 10 1022 87 0 1.49 78 20:45 25.01.2020
200 Clear 11 1022 82 0 1.08 175 20:26 25.01.2020
201 Clear 10 1019 83 0 1.08 175 19:57 25.01.2020
202 Rain 10 1019 82 0 1.34 158 19:38 25.01.2020
203 Clear 10 1005 69 0 1.08 175 19:19 25.01.2020
204 Clear 10 1005 67 0 1.08 175 18:56 25.01.2020
205 Clear 11 1034 85 0 1.08 175 18:37 25.01.2020
206 Clear 11 1034 85 0 1.08 175 18:18 25.01.2020
207 Clear 11 1034 84 0 1.08 175 17:39 25.01.2020
208 Rain 12 1018 78 0 0.89 90 17:19 25.01.2020
209 Rain 12 1018 78 0 0.45 90 16:56 25.01.2020
210 Rain 13 1018 77 0 0.45 90 16:38 25.01.2020
211 Rain 13 1019 77 0 0.45 90 16:19 25.01.2020
212 Rain 13 1018 76 0 0.89 90 15:42 25.01.2020
213 Rain 13 1018 74 0 0.89 90 15:24 25.01.2020
214 Rain 14 1018 75 0 0.89 90 14:57 25.01.2020
215 Rain 14 1018 74 0 0.89 90 14:39 25.01.2020
216 Rain 14 1034 82 0 3.13 140 14:18 25.01.2020
217 Rain 13 1019 75 0 1.79 90 13:40 25.01.2020
218 Rain 13 1019 75 0 0.89 90 13:22 25.01.2020
219 Clouds 13 1023 71 10000 4.6 150 12:43 25.01.2020
220 Clouds 13 1023 71 10000 4.6 150 12:43 25.01.2020
221 Clouds 12 1023 71 10000 4.6 150 12:21 25.01.2020
222 Clouds 12 1023 71 10000 4.6 150 11:45 25.01.2020
223 Clouds 12 1023 71 10000 4.6 150 11:45 25.01.2020
224 Clouds 12 1024 87 10000 4.1 120 11:21 25.01.2020
225 Clouds 12 1024 87 10000 4.1 120 11:21 25.01.2020
226 Clouds 11 1023 82 10000 4.6 140 10:57 25.01.2020
227 Clouds 11 1023 82 10000 4.6 140 10:39 25.01.2020
228 Clouds 11 1023 87 9000 4.1 120 10:20 25.01.2020
229 Rain 10 1023 81 5000 5.7 150 09:41 25.01.2020
230 Clouds 10 1023 87 8000 2.6 120 09:22 25.01.2020
231 Clouds 10 1022 87 8000 4.6 150 08:44 25.01.2020
232 Rain 10 1023 87 6000 3.6 120 08:21 25.01.2020
233 Clouds 10 1022 76 8000 5.7 140 07:42 25.01.2020
234 Clouds 10 1022 76 8000 5.7 140 07:42 25.01.2020
235 Clouds 10 1022 76 10000 6.7 140 06:45 25.01.2020
236 Clouds 10 1022 76 10000 6.7 150 06:25 25.01.2020
237 Rain 10 1022 76 10000 6.2 140 05:45 25.01.2020
238 Rain 10 1022 71 10000 6.2 150 04:26 25.01.2020
239 Rain 10 1022 66 10000 5.1 160 03:50 25.01.2020
240 Rain 10 1023 66 10000 5.1 160 02:53 25.01.2020
241 Rain 10 1023 76 10000 4.1 150 01:59 25.01.2020
242 Rain 10 1023 76 10000 4.1 150 01:59 25.01.2020
243 Rain 10 1023 66 10000 4.6 150 01:37 25.01.2020
244 Rain 10 1023 66 10000 4.6 150 01:37 25.01.2020
245 Clouds 11 1023 66 10000 5.1 160 00:42 25.01.2020
246 Clouds 11 1024 66 10000 5.1 150 00:23 25.01.2020
247 Clouds 11 1024 62 10000 3.1 160 23:57 24.01.2020
248 Clouds 11 1024 62 10000 3.1 160 23:38 24.01.2020
249 Clouds 11 1024 62 10000 3.6 150 23:20 24.01.2020
250 Clouds 11 1024 62 10000 2.6 140 22:42 24.01.2020
251 Clouds 11 1024 62 10000 2.6 140 22:24 24.01.2020
252 Clouds 11 1024 71 10000 1.5 110 21:42 24.01.2020
253 Clouds 11 1024 71 10000 1.5 90 21:20 24.01.2020
254 Clouds 11 1025 71 10000 1 0 20:56 24.01.2020
255 Clouds 11 1025 66 10000 2.6 260 20:37 24.01.2020
256 Clouds 11 1025 66 10000 2.6 260 20:18 24.01.2020
257 Clouds 11 1024 66 10000 4.1 130 19:55 24.01.2020
258 Clouds 11 1024 66 10000 4.6 130 19:37 24.01.2020
259 Clouds 11 1024 66 10000 4.6 130 19:19 24.01.2020
260 Clouds 11 1025 66 10000 3.6 160 18:42 24.01.2020
261 Clouds 11 1025 66 10000 3.1 170 18:22 24.01.2020
262 Clouds 11 1025 66 10000 3.1 160 17:46 24.01.2020
263 Clouds 12 1025 71 6000 3.6 160 17:23 24.01.2020
264 Clouds 12 1025 71 10000 3.6 160 16:58 24.01.2020
265 Clouds 12 1025 76 6000 1.5 0 16:39 24.01.2020
266 Clouds 12 1025 76 6000 1.5 0 16:19 24.01.2020
267 Clouds 12 1025 71 10000 2.1 140 15:42 24.01.2020
268 Clouds 12 1026 81 6000 1 0 15:22 24.01.2020
269 Clouds 13 1025 66 9000 3.1 170 14:55 24.01.2020
270 Mist 13 1026 76 5000 1 0 14:37 24.01.2020
271 Mist 13 1026 76 5000 1 0 14:19 24.01.2020
272 Clouds 13 1026 62 9000 2.6 160 13:41 24.01.2020
273 Mist 13 1027 76 5000 1.5 0 13:22 24.01.2020
274 Mist 13 1027 76 5000 1.5 0 13:22 24.01.2020
275 Clouds 12 1026 62 9000 3.1 130 12:43 24.01.2020
276 Clear 12 1027 81 6000 2.6 340 12:21 24.01.2020
277 Clouds 11 1027 66 8000 3.1 150 11:45 24.01.2020
278 Clear 11 1028 87 6000 2.6 350 11:19 24.01.2020
279 Clouds 10 1027 71 7000 3.1 160 10:58 24.01.2020
280 Clouds 9 1027 71 7000 3.1 160 10:40 24.01.2020
281 Mist 8 1028 100 5000 3.1 360 10:19 24.01.2020
282 Clouds 8 1027 81 8000 1.5 330 09:41 24.01.2020
283 Mist 7 1028 100 4000 3.1 350 09:23 24.01.2020
284 Clouds 6 1027 86 6000 0.5 0 08:41 24.01.2020
285 Mist 5 1028 100 2000 2.1 350 08:21 24.01.2020
286 Clouds 5 1026 93 6000 2.1 120 07:59 24.01.2020
287 Clouds 5 1026 93 6000 2.1 120 07:41 24.01.2020
288 Clear 5 1026 87 6000 2.1 110 06:55 24.01.2020
289 Clear 5 1026 87 8000 2.1 130 06:35 24.01.2020
290 Clear 5 1026 81 8000 2.6 130 05:59 24.01.2020
291 Clear 5 1026 81 8000 1.5 120 05:20 24.01.2020
292 Clear 5 1027 93 8000 0.5 0 02:56 24.01.2020
293 Clear 5 1027 93 8000 0.5 0 02:38 24.01.2020
294 Clear 5 1027 93 8000 1 350 02:18 24.01.2020
295 Clear 5 1027 86 8000 1 120 01:37 24.01.2020
296 Clear 6 1027 86 8000 1 0 00:39 24.01.2020
297 Clear 6 1027 81 8000 1.5 90 23:58 23.01.2020
298 Clear 6 1027 81 8000 2.1 90 23:40 23.01.2020
299 Clear 6 1027 81 8000 2.1 90 23:21 23.01.2020
300 Clear 7 1027 81 7000 2.1 100 22:55 23.01.2020
301 Clear 7 1027 81 7000 2.1 100 22:55 23.01.2020
302 Clear 7 1027 81 7000 2.1 80 22:36 23.01.2020
303 Clear 7 1027 81 7000 2.1 80 22:36 23.01.2020
304 Clear 7 1027 81 7000 2.1 80 22:18 23.01.2020
305 Clear 7 1027 81 7000 2.1 80 22:18 23.01.2020
306 Clear 7 1027 81 7000 2.1 100 21:54 23.01.2020
307 Clear 7 1027 81 7000 2.1 100 21:36 23.01.2020
308 Clear 7 1027 81 7000 2.1 100 21:18 23.01.2020
309 Clear 8 1027 87 7000 1.5 110 20:40 23.01.2020
310 Clear 8 1027 81 7000 2.1 120 20:22 23.01.2020
311 Clear 8 1027 81 7000 1.5 110 19:57 23.01.2020
312 Clear 8 1027 81 7000 1.5 110 19:38 23.01.2020
313 Clear 8 1027 81 7000 1.5 110 19:38 23.01.2020
314 Clear 9 1027 81 10000 2.1 120 19:20 23.01.2020
315 Clear 9 1027 76 10000 1 130 18:56 23.01.2020
316 Clear 9 1027 71 10000 1 170 18:37 23.01.2020
317 Clear 10 1027 71 10000 1 170 18:19 23.01.2020
318 Clear 11 1027 66 10000 0.5 0 17:44 23.01.2020
319 Clear 12 1027 58 10000 0.09 91 17:21 23.01.2020
320 Clear 13 1027 58 10000 1 0 16:58 23.01.2020
321 Clear 14 1027 54 10000 1 0 16:38 23.01.2020
322 Clear 14 1027 54 10000 1 0 16:19 23.01.2020
323 Clear 14 1027 62 10000 1.5 340 15:57 23.01.2020
324 Clear 15 1027 54 10000 1 0 15:38 23.01.2020
325 Clear 15 1027 54 10000 1 0 15:19 23.01.2020
326 Clear 15 1027 58 10000 1 0 14:57 23.01.2020
327 Clear 15 1027 58 10000 1 0 14:39 23.01.2020
328 Clear 15 1028 62 8000 0.5 0 14:21 23.01.2020
329 Clear 14 1028 62 10000 1.5 360 13:45 23.01.2020
330 Clear 14 1029 66 10000 1 0 13:21 23.01.2020
331 Clear 14 1029 66 10000 2.1 30 12:56 23.01.2020
332 Clear 13 1030 76 10000 2.6 350 12:38 23.01.2020
333 Clear 13 1030 76 10000 2.6 350 12:20 23.01.2020
334 Clear 12 1029 71 10000 2.6 20 11:43 23.01.2020
335 Clear 12 1030 93 8000 2.6 340 11:24 23.01.2020
336 Clear 10 1030 81 10000 2.6 10 10:58 23.01.2020
337 Mist 10 1031 100 5000 2.1 360 10:40 23.01.2020
338 Mist 9 1031 100 5000 2.1 360 10:18 23.01.2020
339 Clear 8 1030 93 10000 1.5 340 09:41 23.01.2020
340 Clear 8 1030 93 10000 1.5 340 09:41 23.01.2020
341 Fog 7 1031 100 0 1 0 09:21 23.01.2020
342 Clear 6 1029 93 7000 2.1 10 08:56 23.01.2020
343 Clear 5 1029 93 7000 2.1 10 08:37 23.01.2020
344 Fog 4 1030 100 200 2.6 360 08:18 23.01.2020
345 Fog 4 1029 93 8000 1.5 20 07:37 23.01.2020
346 Fog 4 1029 93 8000 1.5 20 07:18 23.01.2020
347 Fog 5 1028 93 300 1.5 10 06:44 23.01.2020
348 Fog 5 1028 93 8000 1.5 20 06:18 23.01.2020
349 Clear 5 1028 93 10000 0.5 0 04:25 23.01.2020
350 Clear 5 1029 87 10000 2.6 70 03:23 23.01.2020
351 Clear 6 1030 87 10000 1.5 110 01:53 23.01.2020
352 Clear 6 1030 87 10000 1.5 90 00:44 23.01.2020
353 Clear 6 1030 87 10000 2.6 110 00:22 23.01.2020
354 Clear 6 1030 81 10000 2.6 90 23:46 22.01.2020
355 Mist 6 1030 87 5000 2.1 100 23:28 22.01.2020
356 Clear 7 1030 81 6000 1 0 22:43 22.01.2020
357 Clear 7 1030 87 6000 2.6 100 22:25 22.01.2020
358 Clear 7 1030 93 6000 2.1 110 21:58 22.01.2020
359 Clear 7 1030 93 6000 2.6 110 21:36 22.01.2020
360 Clear 7 1030 93 6000 2.6 110 21:36 22.01.2020
361 Clear 7 1030 93 6000 2.6 110 21:18 22.01.2020
362 Clear 8 1030 87 6000 2.1 120 20:42 22.01.2020
363 Clear 8 1030 87 6000 2.1 120 20:23 22.01.2020
364 Clear 8 1030 87 8000 2.1 130 19:59 22.01.2020
365 Clear 9 1030 87 8000 2.1 130 19:41 22.01.2020
366 Clear 9 1030 87 10000 2.6 130 19:21 22.01.2020
367 Clear 9 1030 87 10000 1.5 150 18:58 22.01.2020
368 Clear 9 1030 87 10000 1.5 150 18:39 22.01.2020
369 Clear 10 1030 81 10000 1.5 210 18:21 22.01.2020
370 Clear 10 1030 66 10000 0.5 0 17:57 22.01.2020
371 Clear 11 1031 58 10000 0.86 303 17:39 22.01.2020
372 Clear 12 1031 58 10000 0.27 234 17:19 22.01.2020
373 Clear 13 1030 58 10000 2.1 310 16:54 22.01.2020
374 Clear 14 1031 51 10000 0.27 234 16:36 22.01.2020
375 Clear 14 1031 51 10000 0.27 234 16:18 22.01.2020
376 Clear 14 1031 58 10000 1.5 290 15:41 22.01.2020
377 Clear 15 1032 48 10000 0.27 234 15:23 22.01.2020
378 Clear 15 1031 51 10000 0.5 0 14:58 22.01.2020
379 Clear 14 1032 58 10000 1 0 14:37 22.01.2020
380 Clouds 14 1032 58 10000 1 0 14:19 22.01.2020
381 Clouds 14 1032 58 10000 1 0 13:56 22.01.2020
382 Clouds 14 1032 58 10000 1 0 13:56 22.01.2020
383 Clouds 14 1033 54 10000 0.73 26 13:37 22.01.2020
384 Clouds 14 1033 54 10000 0.74 32 13:19 22.01.2020
385 Clouds 13 1033 58 10000 1.5 350 12:56 22.01.2020
386 Clouds 13 1033 58 10000 1.5 350 12:37 22.01.2020
387 Clouds 13 1035 66 10000 1.5 0 12:18 22.01.2020
388 Clouds 13 1034 66 10000 2.1 360 11:56 22.01.2020
389 Clouds 12 1034 66 10000 2.1 360 11:38 22.01.2020
390 Clouds 11 1035 75 10000 2.1 10 11:19 22.01.2020
391 Clouds 10 1034 70 10000 1.5 20 10:44 22.01.2020
392 Clouds 9 1035 70 10000 1.5 0 10:21 22.01.2020
393 Clouds 8 1034 80 10000 2.1 10 09:45 22.01.2020
394 Clouds 8 1035 93 10000 1.5 0 09:26 22.01.2020
395 Clouds 6 1034 86 10000 3.1 10 08:59 22.01.2020
396 Clouds 6 1034 86 10000 3.1 10 08:40 22.01.2020
397 Clouds 4 1035 93 10000 1.5 0 08:21 22.01.2020
398 Clouds 4 1034 76 10000 1 0 07:58 22.01.2020
399 Clouds 4 1034 76 10000 1 0 07:58 22.01.2020
400 Clouds 5 1034 80 10000 4.1 30 07:40 22.01.2020
401 Clouds 4 1034 80 10000 4.1 30 07:21 22.01.2020
402 Clouds 4 1034 80 10000 2.6 20 06:31 22.01.2020
403 Clouds 5 1034 80 10000 2.1 20 05:41 22.01.2020
404 Clouds 5 1035 86 10000 2.6 360 04:20 22.01.2020
405 Clouds 5 1035 80 10000 1.5 30 03:23 22.01.2020
406 Clouds 5 1035 80 10000 1.5 30 03:23 22.01.2020
407 Clouds 5 1035 75 10000 2.1 10 02:27 22.01.2020
408 Clouds 7 1035 61 10000 2.6 80 00:46 22.01.2020
409 Clouds 7 1035 61 10000 2.6 70 00:26 22.01.2020
410 Clouds 7 1035 61 10000 3.1 80 23:39 21.01.2020
411 Clouds 7 1035 61 10000 2.1 100 23:21 21.01.2020
412 Clouds 7 1035 61 10000 2.1 120 22:59 21.01.2020
413 Clouds 7 1035 61 10000 2.1 120 22:39 21.01.2020
414 Clouds 8 1035 65 10000 1 0 22:20 21.01.2020
415 Clouds 8 1035 61 10000 1.5 110 21:56 21.01.2020
416 Clouds 8 1035 61 10000 1.5 110 21:38 21.01.2020
417 Clouds 8 1035 70 10000 1 0 21:19 21.01.2020
418 Clouds 8 1035 65 10000 1.5 110 20:56 21.01.2020
419 Clouds 8 1035 70 10000 1 0 20:37 21.01.2020
420 Clouds 8 1035 70 10000 1 0 20:18 21.01.2020
421 Clouds 8 1035 70 10000 1 0 20:18 21.01.2020
422 Clouds 9 1035 53 10000 1 0 19:56 21.01.2020
423 Clouds 9 1035 57 10000 1.5 60 19:37 21.01.2020
424 Clouds 9 1035 57 10000 1.5 60 19:37 21.01.2020
425 Clouds 9 1035 57 10000 1.5 60 19:18 21.01.2020
426 Clouds 9 1035 61 10000 1.5 40 18:55 21.01.2020
427 Clouds 9 1035 61 10000 2.6 40 18:36 21.01.2020
428 Clouds 9 1035 61 10000 2.6 40 18:18 21.01.2020
429 Clouds 11 1035 50 10000 1.5 0 17:42 21.01.2020
430 Clouds 11 1035 50 10000 1.5 0 17:19 21.01.2020
431 Clouds 11 1035 54 10000 2.6 10 16:57 21.01.2020
432 Clouds 12 1036 50 10000 2.6 40 16:36 21.01.2020
433 Clouds 12 1036 50 10000 2.6 40 16:36 21.01.2020
434 Clouds 12 1036 50 10000 2.6 40 16:18 21.01.2020
435 Clouds 13 1036 50 10000 2.6 30 15:40 21.01.2020
436 Clouds 13 1036 50 10000 2.6 30 15:20 21.01.2020
437 Clouds 13 1035 44 10000 4.1 350 14:57 21.01.2020
438 Clouds 13 1036 54 10000 1 0 14:37 21.01.2020
439 Clouds 13 1036 54 10000 1 0 14:18 21.01.2020
440 Clouds 13 1036 47 10000 3.1 350 13:39 21.01.2020
441 Clouds 13 1037 54 10000 3.1 30 13:18 21.01.2020
442 Clouds 13 1037 44 10000 3.1 340 12:43 21.01.2020
443 Clouds 12 1038 57 10000 3.6 30 12:25 21.01.2020
444 Clouds 12 1037 46 10000 3.1 360 11:57 21.01.2020
445 Clouds 12 1037 46 10000 3.1 360 11:38 21.01.2020
446 Clouds 11 1039 61 10000 2.6 20 11:19 21.01.2020
447 Clouds 9 1037 50 10000 4.1 60 10:44 21.01.2020
448 Clouds 9 1039 81 10000 1 0 10:23 21.01.2020
449 Clouds 8 1037 67 10000 3.1 20 09:59 21.01.2020
450 Clouds 7 1037 67 10000 3.1 20 09:40 21.01.2020
451 Clouds 7 1038 93 10000 1 0 09:21 21.01.2020
452 Clouds 6 1037 60 10000 3.6 10 08:47 21.01.2020
453 Clouds 5 1038 93 10000 1 0 08:27 21.01.2020
454 Clouds 5 1036 65 10000 4.1 20 07:56 21.01.2020
455 Clouds 5 1036 65 10000 4.1 30 07:37 21.01.2020
456 Clouds 5 1036 65 10000 4.1 30 07:19 21.01.2020
457 Clouds 5 1036 65 10000 4.6 20 06:44 21.01.2020
458 Clouds 5 1036 60 10000 4.1 20 06:23 21.01.2020
459 Clear 5 1037 81 10000 3.6 20 05:41 21.01.2020
460 Clear 5 1037 87 10000 4.6 10 04:39 21.01.2020
461 Clear 5 1037 87 10000 4.6 10 04:39 21.01.2020
462 Clouds 6 1036 45 10000 5.7 60 02:34 21.01.2020
463 Clouds 7 1036 45 10000 4.1 60 01:37 21.01.2020
464 Clouds 7 1036 45 10000 3.6 40 00:52 21.01.2020
465 Clouds 7 1036 45 10000 4.6 30 00:29 21.01.2020
466 Clouds 7 1036 49 10000 4.1 40 23:57 20.01.2020
467 Clouds 7 1036 49 10000 4.1 40 23:36 20.01.2020
468 Clouds 7 1036 49 10000 4.1 40 23:18 20.01.2020
469 Clouds 7 1036 45 10000 4.6 40 22:55 20.01.2020
470 Clouds 8 1036 49 10000 5.1 30 22:36 20.01.2020
471 Clouds 8 1036 49 10000 5.1 30 22:18 20.01.2020
472 Clouds 8 1035 49 10000 5.1 30 21:55 20.01.2020
473 Clouds 8 1035 49 10000 5.1 50 21:36 20.01.2020
474 Clouds 8 1035 49 10000 5.1 50 21:18 20.01.2020
475 Clouds 8 1035 46 10000 5.7 60 20:43 20.01.2020
476 Clouds 8 1035 46 10000 5.7 60 20:20 20.01.2020
477 Clouds 8 1034 46 10000 4.6 40 19:59 20.01.2020
478 Clouds 8 1034 46 10000 4.6 40 19:59 20.01.2020
479 Clouds 8 1034 46 10000 4.6 40 19:41 20.01.2020
480 Clouds 8 1034 64 10000 4.1 60 19:19 20.01.2020
481 Clouds 9 1034 64 10000 4.1 30 18:56 20.01.2020
482 Clouds 9 1033 64 10000 5.1 30 18:38 20.01.2020
483 Clouds 9 1033 64 10000 5.1 30 18:19 20.01.2020
484 Clouds 10 1033 64 10000 5.7 20 17:39 20.01.2020
485 Clouds 10 1034 53 10000 3.6 20 17:19 20.01.2020
486 Clouds 10 1033 59 10000 3.6 20 16:47 20.01.2020
487 Clouds 10 1033 59 10000 3.6 20 16:47 20.01.2020
488 Clouds 10 1034 50 10000 3.6 20 16:26 20.01.2020
489 Clouds 11 1033 59 10000 5.1 20 15:59 20.01.2020
490 Clouds 11 1033 59 10000 5.1 20 15:59 20.01.2020
491 Clouds 11 1034 50 10000 4.6 30 15:40 20.01.2020
492 Clouds 11 1034 50 10000 4.6 30 15:22 20.01.2020
493 Clouds 11 1033 50 10000 3.1 20 14:59 20.01.2020
494 Clouds 11 1033 50 10000 3.1 20 14:40 20.01.2020
495 Clouds 11 1033 50 10000 5.7 20 14:21 20.01.2020
496 Clouds 11 1033 56 10000 4.6 20 13:56 20.01.2020
497 Clouds 11 1033 56 10000 4.6 20 13:38 20.01.2020
498 Clouds 11 1033 56 10000 4.6 20 13:38 20.01.2020
499 Clouds 11 1033 53 10000 6.2 30 13:18 20.01.2020
500 Clouds 11 1033 53 10000 3.1 20 12:42 20.01.2020
501 Clouds 11 1033 53 10000 3.1 20 12:23 20.01.2020
502 Clouds 10 1032 57 10000 3.6 40 11:55 20.01.2020
503 Clouds 10 1033 57 10000 4.1 30 11:36 20.01.2020
504 Clouds 10 1033 57 10000 4.1 30 11:18 20.01.2020
505 Clouds 10 1032 71 10000 4.1 30 10:46 20.01.2020
506 Clouds 9 1032 57 10000 4.1 20 10:20 20.01.2020
507 Clouds 9 1031 46 10000 5.7 30 09:42 20.01.2020
508 Clouds 8 1032 57 10000 3.1 20 09:24 20.01.2020
509 Clouds 8 1031 49 10000 3.1 30 08:56 20.01.2020
510 Clouds 8 1032 61 10000 2.1 50 08:34 20.01.2020
511 Clouds 8 1030 49 10000 3.6 30 07:59 20.01.2020
512 Clouds 8 1030 49 10000 3.6 30 07:41 20.01.2020
513 Clouds 8 1030 45 10000 4.1 30 07:21 20.01.2020
514 Clouds 8 1029 43 10000 4.6 60 06:42 20.01.2020
515 Clouds 8 1029 43 10000 4.1 70 06:21 20.01.2020
516 Clouds 8 1029 49 10000 2.6 40 05:38 20.01.2020
517 Clouds 8 1029 49 10000 3.6 20 05:19 20.01.2020
518 Clouds 8 1028 49 10000 4.6 40 04:23 20.01.2020
519 Clouds 8 1027 78 10000 4.6 70 01:59 20.01.2020
520 Clouds 8 1027 78 10000 4.6 70 01:40 20.01.2020
521 Clouds 9 1027 79 10000 5.1 70 01:18 20.01.2020
522 Clouds 9 1027 79 10000 5.7 60 00:42 20.01.2020
523 Clouds 8 1027 79 10000 5.7 40 00:20 20.01.2020
524 Clouds 8 1026 79 10000 7.7 60 23:38 19.01.2020
525 Clouds 9 1026 76 10000 7.7 60 23:19 19.01.2020
526 Clouds 9 1026 76 10000 5.7 40 22:56 19.01.2020
527 Clouds 9 1026 61 10000 3.6 360 22:37 19.01.2020
528 Clouds 9 1026 61 10000 3.6 360 22:19 19.01.2020
529 Clouds 9 1025 57 10000 2.6 10 21:56 19.01.2020
530 Clouds 9 1025 57 10000 4.1 50 21:38 19.01.2020
531 Clouds 9 1025 57 10000 4.1 50 21:19 19.01.2020
532 Clouds 9 1025 61 10000 3.6 40 20:56 19.01.2020
533 Clouds 9 1025 62 10000 3.6 90 20:38 19.01.2020
534 Rain 10 1025 62 10000 3.6 90 20:19 19.01.2020
535 Rain 10 1025 62 10000 2.6 60 19:55 19.01.2020
536 Clouds 10 1025 76 10000 1.5 110 19:37 19.01.2020
537 Clouds 10 1025 76 10000 1.5 110 19:19 19.01.2020
538 Clouds 10 1024 71 10000 1.5 70 18:55 19.01.2020
539 Clouds 10 1024 71 10000 1.5 80 18:37 19.01.2020
540 Clouds 10 1024 71 10000 1.5 80 18:19 19.01.2020
541 Clouds 10 1023 71 10000 1.5 80 17:57 19.01.2020
542 Clouds 10 1023 71 10000 1.5 80 17:57 19.01.2020
543 Clouds 10 1023 71 10000 1.5 80 17:38 19.01.2020
544 Clouds 11 1023 71 10000 1 0 17:20 19.01.2020
545 Clouds 11 1023 66 10000 2.6 30 16:57 19.01.2020
546 Clouds 12 1023 66 10000 1.21 296 16:37 19.01.2020
547 Clouds 12 1023 66 10000 1.21 296 16:19 19.01.2020
548 Clouds 12 1022 62 10000 3.1 30 15:56 19.01.2020
549 Clouds 12 1022 66 10000 1.5 0 15:37 19.01.2020
550 Clouds 12 1022 66 10000 1.5 0 15:19 19.01.2020
551 Clouds 12 1021 66 10000 2.6 10 14:56 19.01.2020
552 Clouds 13 1022 66 10000 1.21 296 14:37 19.01.2020
553 Clouds 13 1022 66 10000 0.92 40 14:18 19.01.2020
554 Clouds 12 1021 71 10000 2.6 30 13:54 19.01.2020
555 Clouds 12 1022 76 10000 1.5 0 13:36 19.01.2020
556 Clouds 12 1022 76 10000 1.5 0 13:18 19.01.2020
557 Clouds 11 1022 76 10000 1.5 0 12:42 19.01.2020
558 Clouds 11 1022 87 10000 2.6 40 12:23 19.01.2020
559 Clouds 10 1022 81 10000 1.5 320 11:57 19.01.2020
560 Clouds 10 1022 81 10000 1.5 320 11:39 19.01.2020
561 Clouds 9 1023 87 10000 2.1 90 11:19 19.01.2020
562 Clear 9 1022 81 10000 1.5 10 10:54 19.01.2020
563 Clear 8 1022 93 10000 3.6 30 10:36 19.01.2020
564 Clear 8 1022 93 10000 3.6 30 10:18 19.01.2020
565 Clear 6 1022 81 10000 1.5 0 09:41 19.01.2020
566 Clear 6 1022 81 10000 1.5 0 09:23 19.01.2020
567 Clouds 6 1021 93 8000 3.1 30 08:56 19.01.2020
568 Clouds 6 1021 93 8000 3.1 30 08:38 19.01.2020
569 Clear 5 1021 100 10000 2.54 12 08:19 19.01.2020
570 Clouds 5 1020 93 7000 3.1 20 07:30 19.01.2020
571 Clear 5 1020 87 10000 2.6 20 06:56 19.01.2020
572 Mist 5 1020 93 5000 3.6 20 06:25 19.01.2020
573 Mist 6 1020 93 4000 2.6 30 04:41 19.01.2020
574 Mist 7 1021 93 2500 2.1 20 02:37 19.01.2020
575 Mist 7 1021 93 2500 2.1 20 02:19 19.01.2020
576 Clouds 7 1020 87 10000 2.6 30 01:24 19.01.2020
577 Clouds 7 1020 93 10000 1.5 60 00:45 19.01.2020
578 Clouds 7 1020 93 10000 1.5 140 00:27 19.01.2020
579 Clouds 6 1020 93 10000 1.5 140 23:55 18.01.2020
580 Clouds 7 1020 93 10000 1 0 23:36 18.01.2020
581 Clouds 7 1020 93 10000 1 0 23:18 18.01.2020
582 Clouds 7 1020 93 10000 1 0 23:18 18.01.2020
583 Clouds 7 1020 93 10000 2.1 130 22:54 18.01.2020
584 Clouds 7 1020 93 10000 1.5 160 22:36 18.01.2020
585 Clouds 7 1020 93 10000 1.5 160 22:18 18.01.2020
586 Clouds 7 1020 93 10000 1 0 21:56 18.01.2020
587 Clouds 7 1020 87 10000 1 180 21:36 18.01.2020
588 Clouds 8 1020 87 10000 1 180 21:18 18.01.2020
589 Clouds 8 1020 93 10000 2.1 120 20:41 18.01.2020
590 Clouds 8 1020 87 10000 1 0 20:20 18.01.2020
591 Clouds 8 1020 87 10000 1 160 19:54 18.01.2020
592 Clouds 8 1020 87 10000 1.5 130 19:36 18.01.2020
593 Clouds 8 1020 87 10000 1.5 130 19:18 18.01.2020
594 Clouds 8 1020 93 10000 1.5 150 18:40 18.01.2020
595 Clouds 8 1020 93 10000 1.5 150 18:40 18.01.2020
596 Clouds 9 1020 87 10000 1 160 18:21 18.01.2020
597 Clouds 9 1020 87 10000 1.5 140 17:41 18.01.2020
598 Clouds 9 1020 87 10000 1.5 0 17:21 18.01.2020
599 Rain 10 1020 87 10000 1 270 16:57 18.01.2020
600 Clouds 10 1020 87 9000 1 0 16:39 18.01.2020
601 Clouds 10 1020 87 9000 1 0 16:39 18.01.2020
602 Clouds 10 1020 87 9000 1 0 16:21 18.01.2020
603 Rain 10 1020 87 10000 1.5 140 15:57 18.01.2020
604 Rain 10 1020 87 10000 1.5 140 15:39 18.01.2020
605 Clouds 10 1020 87 8000 0.74 152 15:20 18.01.2020
606 Rain 10 1020 87 6000 0.5 0 14:42 18.01.2020
607 Rain 10 1020 87 6000 0.5 0 14:20 18.01.2020
608 Clouds 10 1020 76 10000 3.1 170 13:58 18.01.2020
609 Clouds 10 1020 76 10000 3.1 170 13:39 18.01.2020
610 Rain 11 1020 81 4000 3.6 100 13:20 18.01.2020
611 Clouds 10 1020 76 10000 3.6 150 12:54 18.01.2020
612 Clouds 10 1020 76 10000 3.6 150 12:54 18.01.2020
613 Clouds 10 1021 81 8000 4.1 120 12:36 18.01.2020
614 Clouds 10 1021 81 8000 4.1 120 12:18 18.01.2020
615 Clouds 9 1021 76 10000 5.1 140 11:43 18.01.2020
616 Clouds 9 1022 93 8000 4.1 120 11:21 18.01.2020
617 Rain 9 1021 81 10000 4.1 150 10:43 18.01.2020
618 Rain 8 1021 93 8000 6.7 90 10:22 18.01.2020
619 Rain 8 1021 81 8000 4.1 150 09:57 18.01.2020
620 Rain 8 1021 81 8000 4.1 150 09:39 18.01.2020
621 Rain 8 1022 93 3000 3.1 140 09:19 18.01.2020
622 Rain 8 1021 81 7000 3.1 140 08:42 18.01.2020
623 Rain 8 1022 93 3000 3.1 130 08:20 18.01.2020
624 Rain 7 1022 87 9000 1 150 07:59 18.01.2020
625 Rain 8 1022 81 10000 3.6 150 07:39 18.01.2020
626 Rain 7 1022 87 10000 4.1 140 06:52 18.01.2020
627 Clouds 7 1022 87 10000 3.6 160 06:33 18.01.2020
628 Rain 7 1022 81 10000 4.6 190 05:52 18.01.2020
629 Clouds 7 1022 81 10000 3.6 140 04:25 18.01.2020
630 Clouds 7 1024 81 10000 2.1 100 02:34 18.01.2020
631 Clouds 7 1024 81 10000 2.6 110 01:40 18.01.2020
632 Clouds 7 1024 81 10000 2.1 110 00:39 18.01.2020
633 Clouds 7 1025 81 10000 3.1 90 00:19 18.01.2020
634 Clouds 7 1025 81 10000 3.1 100 23:58 17.01.2020
635 Clouds 7 1025 81 10000 3.1 100 23:38 17.01.2020
636 Clouds 7 1025 75 10000 2.6 100 23:18 17.01.2020
637 Clouds 6 1025 81 10000 2.1 100 22:41 17.01.2020
638 Clouds 7 1025 75 10000 1.5 100 22:19 17.01.2020
639 Clouds 7 1026 81 10000 2.1 110 21:55 17.01.2020
640 Clouds 7 1026 87 10000 2.6 110 21:37 17.01.2020
641 Clouds 7 1026 87 10000 2.6 110 21:19 17.01.2020
642 Clouds 8 1026 81 10000 1 0 20:41 17.01.2020
643 Clouds 8 1026 81 10000 1 0 20:21 17.01.2020
644 Clouds 8 1026 87 10000 1 0 19:58 17.01.2020
645 Clouds 8 1026 87 10000 1 0 19:38 17.01.2020
646 Clouds 8 1026 87 10000 1 0 19:20 17.01.2020
647 Clouds 9 1025 87 10000 1.5 120 18:58 17.01.2020
648 Clouds 9 1025 87 10000 1.5 120 18:39 17.01.2020
649 Clouds 9 1025 76 9000 0.5 0 18:21 17.01.2020
650 Clouds 10 1025 81 10000 2.1 270 17:40 17.01.2020
651 Clouds 11 1025 66 10000 2.6 260 17:22 17.01.2020
652 Clouds 11 1025 66 10000 2.1 270 16:57 17.01.2020
653 Clouds 12 1025 66 10000 3.6 270 16:38 17.01.2020
654 Clouds 12 1025 66 10000 3.6 270 16:19 17.01.2020
655 Clouds 13 1025 54 10000 2.1 330 15:45 17.01.2020
656 Clouds 13 1025 54 10000 0.7 344 15:26 17.01.2020
657 Clouds 13 1025 54 10000 2.1 330 14:45 17.01.2020
658 Clouds 13 1026 58 10000 1 0 14:27 17.01.2020
659 Clouds 12 1026 53 10000 2.1 10 13:58 17.01.2020
660 Clouds 12 1026 53 10000 2.1 10 13:58 17.01.2020
661 Clouds 12 1027 66 10000 1 0 13:38 17.01.2020
662 Clouds 12 1027 66 10000 1 0 13:19 17.01.2020
663 Clouds 12 1027 57 10000 2.1 360 12:44 17.01.2020
664 Clouds 11 1028 70 10000 1 0 12:22 17.01.2020
665 Clouds 10 1028 93 10000 1.5 0 11:40 17.01.2020
666 Clouds 9 1028 93 10000 1.5 0 11:19 17.01.2020
667 Clouds 8 1028 81 10000 2.6 70 10:44 17.01.2020
668 Clouds 7 1028 100 10000 0.5 0 10:23 17.01.2020
669 Clouds 7 1027 80 10000 1.5 360 09:58 17.01.2020
670 Clouds 7 1027 80 10000 1.5 360 09:40 17.01.2020
671 Clouds 6 1027 69 10000 1 20 09:20 17.01.2020
672 Clouds 4 1027 69 10000 2.1 70 08:45 17.01.2020
673 Fog 3 1028 100 1500 1.74 19 08:25 17.01.2020
674 Clouds 2 1027 80 10000 2.1 340 07:55 17.01.2020
675 Clouds 3 1027 86 10000 2.6 60 07:32 17.01.2020
676 Clouds 3 1027 86 10000 2.6 60 07:32 17.01.2020
677 Clouds 3 1027 86 10000 1 0 06:59 17.01.2020
678 Clouds 3 1027 86 10000 2.1 30 06:41 17.01.2020
679 Clouds 3 1027 93 10000 1 0 05:56 17.01.2020
680 Clouds 3 1005 100 0 2.04 11 03:39 17.01.2020
681 Clouds 3 1005 99 0 2.04 11 02:53 17.01.2020
682 Clouds 4 1005 99 0 2.05 7 01:47 17.01.2020
683 Clouds 3 1005 99 0 2.05 7 01:29 17.01.2020
684 Clouds 4 1005 98 0 2.05 5 00:51 17.01.2020
685 Clear 4 1028 93 10000 2.1 30 00:28 17.01.2020
686 Clouds 5 1028 81 10000 2.6 90 23:46 16.01.2020
687 Clouds 5 1028 81 10000 2.6 90 23:26 16.01.2020
688 Clouds 5 1028 81 10000 2.6 80 22:58 16.01.2020
689 Clouds 5 1028 81 10000 2.6 80 22:40 16.01.2020
690 Clouds 6 1028 81 10000 2.6 90 22:20 16.01.2020
691 Clouds 6 1028 81 10000 2.1 90 21:55 16.01.2020
692 Clouds 6 1028 75 10000 2.1 100 21:37 16.01.2020
693 Clouds 6 1028 75 10000 2.1 100 21:18 16.01.2020
694 Clouds 6 1028 75 10000 2.1 100 20:56 16.01.2020
695 Clouds 6 1028 75 10000 2.1 100 20:36 16.01.2020
696 Clouds 6 1028 75 10000 2.1 100 20:18 16.01.2020
697 Clouds 7 1028 70 10000 2.1 100 19:41 16.01.2020
698 Clouds 7 1028 75 10000 2.6 100 19:22 16.01.2020
699 Clouds 7 1028 70 10000 2.6 100 18:58 16.01.2020
700 Clouds 8 1028 70 10000 2.6 100 18:39 16.01.2020
701 Clouds 8 1028 70 10000 2.1 110 18:21 16.01.2020
702 Clouds 9 1028 61 10000 0.5 0 17:59 16.01.2020
703 Clouds 9 1028 61 10000 0.5 0 17:41 16.01.2020
704 Clouds 10 1028 71 10000 1 0 17:21 16.01.2020
705 Clouds 11 1028 57 10000 2.6 360 16:56 16.01.2020
706 Clouds 11 1028 66 10000 0.5 0 16:36 16.01.2020
707 Clouds 12 1028 66 10000 0.5 0 16:18 16.01.2020
708 Clouds 12 1028 58 10000 3.1 350 15:42 16.01.2020
709 Clouds 12 1028 62 10000 1.5 0 15:21 16.01.2020
710 Clouds 12 1028 57 10000 3.1 340 14:45 16.01.2020
711 Clouds 12 1029 66 10000 2.1 340 14:24 16.01.2020
712 Clouds 12 1029 53 10000 3.1 360 13:57 16.01.2020
713 Clouds 12 1029 53 10000 3.1 360 13:39 16.01.2020
714 Clouds 12 1030 66 10000 2.1 10 13:21 16.01.2020
715 Clouds 12 1029 57 10000 2.6 10 12:43 16.01.2020
716 Clouds 12 1030 71 10000 0.5 0 12:25 16.01.2020
717 Clouds 11 1030 57 10000 2.6 10 11:54 16.01.2020
718 Clouds 10 1031 81 10000 1 0 11:36 16.01.2020
719 Clouds 9 1031 81 10000 1 0 11:18 16.01.2020
720 Clouds 8 1031 100 10000 0.5 0 10:38 16.01.2020
721 Clouds 7 1031 100 10000 0.5 0 10:20 16.01.2020
722 Clouds 7 1030 80 10000 1.5 30 09:56 16.01.2020
723 Clouds 6 1030 70 10000 3.1 30 09:37 16.01.2020
724 Clouds 5 1030 70 10000 3.1 30 09:19 16.01.2020
725 Clouds 4 1030 70 10000 2.6 30 08:49 16.01.2020
726 Clouds 3 1029 80 9000 1 0 08:29 16.01.2020
727 Clouds 3 1029 80 9000 2.1 40 07:57 16.01.2020
728 Clouds 3 1029 83 10000 3.1 50 07:37 16.01.2020
729 Clouds 2 1029 83 10000 3.1 50 07:18 16.01.2020
730 Clouds 3 1029 83 10000 2.1 360 06:42 16.01.2020
731 Clouds 3 1029 83 10000 1 50 05:58 16.01.2020
732 Clouds 3 1029 83 10000 1 50 05:40 16.01.2020
733 Clouds 3 1029 84 10000 1 0 04:37 16.01.2020
734 Clouds 3 1030 84 8000 1 0 03:28 16.01.2020
735 Clouds 4 1029 84 10000 1.5 330 02:42 16.01.2020
736 Clouds 4 1029 75 10000 1 0 00:53 16.01.2020
737 Clouds 4 1029 80 10000 2.1 90 00:24 16.01.2020
738 Clouds 4 1029 80 10000 2.6 100 23:50 15.01.2020
739 Clouds 5 1029 80 10000 2.1 100 23:23 15.01.2020
740 Clouds 4 1029 80 10000 2.6 110 22:57 15.01.2020
741 Clouds 5 1029 80 10000 2.6 110 22:39 15.01.2020
742 Clouds 5 1029 80 10000 2.6 110 22:19 15.01.2020
743 Clouds 5 1029 75 10000 2.1 100 21:57 15.01.2020
744 Clouds 5 1029 75 10000 2.1 100 21:38 15.01.2020
745 Clouds 6 1029 75 10000 2.1 110 21:20 15.01.2020
746 Clouds 5 1029 75 10000 2.6 110 20:58 15.01.2020
747 Clouds 5 1029 75 10000 2.6 110 20:58 15.01.2020
748 Clouds 5 1029 75 10000 2.6 110 20:58 15.01.2020
749 Clouds 6 1029 75 10000 2.6 110 20:40 15.01.2020
750 Clear 6 1029 75 10000 2.6 100 20:20 15.01.2020
751 Clear 6 1029 70 10000 2.1 100 19:55 15.01.2020
752 Clear 7 1029 70 10000 1.5 150 19:37 15.01.2020
753 Clear 6 1029 70 10000 1.5 150 19:19 15.01.2020
754 Clear 8 1029 70 10000 2.1 110 18:56 15.01.2020
755 Clear 8 1029 70 10000 2.1 110 18:56 15.01.2020
756 Clear 8 1029 70 10000 2.1 110 18:38 15.01.2020
757 Clear 8 1028 61 10000 1.5 110 18:19 15.01.2020
758 Clear 9 1028 53 10000 0.5 0 17:57 15.01.2020
759 Clear 10 1028 43 10000 1.5 0 17:38 15.01.2020
760 Clear 11 1028 43 10000 1.5 0 17:19 15.01.2020
761 Clear 12 1028 53 10000 2.1 330 16:41 15.01.2020
762 Clear 12 1028 38 10000 0.5 0 16:22 15.01.2020
763 Clear 13 1028 43 10000 1.5 0 15:58 15.01.2020
764 Clear 13 1028 44 10000 1 0 15:39 15.01.2020
765 Clear 13 1028 44 10000 1 0 15:20 15.01.2020
766 Clear 13 1028 47 10000 0.5 0 14:43 15.01.2020
767 Clear 13 1028 54 10000 1 0 14:21 15.01.2020
768 Clear 12 1028 54 10000 1 0 13:55 15.01.2020
769 Clear 13 1029 62 10000 1 0 13:37 15.01.2020
770 Clear 12 1029 62 10000 1 0 13:18 15.01.2020
771 Clear 12 1029 57 10000 1 0 12:41 15.01.2020
772 Clear 12 1030 66 10000 1 0 12:20 15.01.2020
773 Clear 11 1029 66 10000 1 0 11:58 15.01.2020
774 Clear 10 1030 87 10000 1 0 11:38 15.01.2020
775 Clear 10 1030 87 10000 1 0 11:19 15.01.2020
776 Clear 9 1029 75 10000 1 350 10:46 15.01.2020
777 Clear 8 1030 93 8000 1.5 0 10:28 15.01.2020
778 Clear 7 1029 80 10000 2.1 10 09:54 15.01.2020
779 Clear 7 1028 67 10000 1.5 360 09:36 15.01.2020
780 Clear 6 1028 67 10000 1.5 360 09:18 15.01.2020
781 Clear 5 1028 67 10000 1.5 10 08:41 15.01.2020
782 Clear 3 1028 67 10000 1.5 40 08:23 15.01.2020
783 Clear 3 1029 93 10000 2.6 80 07:53 15.01.2020
784 Clear 3 1028 82 10000 2.1 30 07:32 15.01.2020
785 Clear 3 1028 82 10000 2.1 30 06:47 15.01.2020
786 Clear 3 1028 82 10000 2.1 10 06:21 15.01.2020
787 Clear 3 1028 93 10000 2.1 360 04:45 15.01.2020
788 Clear 4 1028 81 10000 1 0 02:39 15.01.2020
789 Clear 4 1028 75 10000 2.6 100 01:28 15.01.2020
790 Clear 4 1028 75 10000 2.6 100 01:28 15.01.2020
791 Clear 4 1028 75 10000 2.6 100 00:59 15.01.2020
792 Clear 4 1028 81 10000 3.1 100 00:36 15.01.2020
793 Clear 4 1028 81 10000 3.1 100 00:18 15.01.2020
794 Clear 4 1028 80 10000 2.6 100 23:45 14.01.2020
795 Clear 5 1028 86 10000 2.1 100 23:24 14.01.2020
796 Clear 5 1028 80 10000 2.1 30 22:41 14.01.2020
797 Clear 5 1027 81 10000 2.1 110 22:19 14.01.2020
798 Clear 6 1027 75 10000 2.6 100 21:59 14.01.2020
799 Clear 6 1027 75 10000 2.6 100 21:40 14.01.2020
800 Clear 6 1027 75 10000 2.6 100 21:22 14.01.2020
801 Clear 6 1027 75 10000 2.6 110 20:59 14.01.2020
802 Clear 6 1027 70 10000 2.6 110 20:40 14.01.2020
803 Clouds 7 1027 70 10000 2.6 110 20:20 14.01.2020
804 Clouds 6 1027 70 10000 2.6 110 19:56 14.01.2020
805 Clouds 7 1027 75 10000 1.5 80 19:38 14.01.2020
806 Clouds 7 1027 75 10000 1.5 80 19:18 14.01.2020
807 Clouds 7 1027 70 10000 2.1 110 18:56 14.01.2020
808 Clouds 8 1026 61 10000 0.5 0 18:37 14.01.2020
809 Clouds 9 1026 61 10000 0.5 0 18:18 14.01.2020
810 Clouds 9 1026 62 10000 1 0 17:38 14.01.2020
811 Clouds 10 1026 62 10000 1 0 17:19 14.01.2020
812 Clear 11 1026 54 10000 1.5 310 16:55 14.01.2020
813 Clouds 12 1026 47 10000 1.31 26 16:37 14.01.2020
814 Clouds 12 1026 47 10000 1.31 26 16:19 14.01.2020
815 Clear 13 1025 50 10000 2.1 320 15:43 14.01.2020
816 Clouds 13 1026 54 10000 1 0 15:19 14.01.2020
817 Clear 13 1025 54 10000 2.1 280 14:47 14.01.2020
818 Clear 13 1025 54 10000 2.1 280 14:47 14.01.2020
819 Clouds 13 1026 62 10000 1.19 43 14:23 14.01.2020
820 Clouds 13 1025 47 10000 1.5 10 13:59 14.01.2020
821 Clouds 13 1025 47 10000 1.5 10 13:41 14.01.2020
822 Clouds 12 1026 66 10000 1.5 0 13:19 14.01.2020
823 Clouds 12 1026 66 10000 0.5 0 12:43 14.01.2020
824 Clouds 11 1027 76 10000 2.1 360 12:24 14.01.2020
825 Clouds 10 1027 76 10000 1.5 350 11:58 14.01.2020
826 Clouds 10 1027 76 10000 1.5 350 11:40 14.01.2020
827 Clouds 10 1027 87 8000 1.5 0 11:22 14.01.2020
828 Clouds 9 1026 81 10000 1 350 10:56 14.01.2020
829 Clouds 8 1027 100 8000 2.1 360 10:37 14.01.2020
830 Clouds 8 1027 100 8000 2.1 360 10:19 14.01.2020
831 Clouds 7 1026 81 10000 1 0 09:43 14.01.2020
832 Clouds 6 1026 80 10000 2.1 10 09:24 14.01.2020
833 Clouds 6 1025 86 10000 1.5 20 08:58 14.01.2020
834 Clouds 5 1025 86 10000 1 350 08:39 14.01.2020
835 Mist 4 1026 100 5000 2.06 9 08:20 14.01.2020
836 Clouds 5 1025 80 10000 2.6 60 07:51 14.01.2020
837 Clouds 5 1025 80 10000 1.5 360 07:18 14.01.2020
838 Clouds 5 1025 86 10000 1 0 06:42 14.01.2020
839 Clouds 5 1025 86 10000 1.5 10 05:57 14.01.2020
840 Clouds 5 1025 80 10000 1 0 04:49 14.01.2020
841 Clouds 5 1025 93 10000 1 30 03:45 14.01.2020
842 Clouds 6 1024 75 10000 2.1 100 02:33 14.01.2020
843 Clouds 6 1025 75 10000 2.1 100 01:19 14.01.2020
844 Clouds 6 1025 75 10000 2.6 100 00:47 14.01.2020
845 Clouds 6 1025 75 10000 2.6 100 00:21 14.01.2020
846 Clouds 6 1025 81 10000 2.6 100 23:44 13.01.2020
847 Clouds 6 1025 75 10000 2.6 110 23:19 13.01.2020
848 Clouds 5 1025 81 10000 2.6 100 22:57 13.01.2020
849 Clouds 5 1025 81 10000 2.6 100 22:39 13.01.2020
850 Clouds 6 1025 70 10000 2.6 100 22:19 13.01.2020
851 Clouds 6 1025 75 10000 2.6 110 21:55 13.01.2020
852 Clouds 5 1025 81 10000 2.1 100 21:36 13.01.2020
853 Clouds 5 1025 81 10000 2.1 100 21:18 13.01.2020
854 Clouds 6 1024 75 10000 2.6 110 20:55 13.01.2020
855 Clouds 6 1025 75 10000 2.6 110 20:37 13.01.2020
856 Clouds 6 1025 75 10000 2.6 110 20:37 13.01.2020
857 Clear 6 1025 75 10000 2.6 110 20:19 13.01.2020
858 Clear 6 1025 75 10000 2.6 110 20:19 13.01.2020
859 Clear 6 1025 75 10000 2.1 100 19:41 13.01.2020
860 Clear 6 1025 75 10000 2.1 100 19:20 13.01.2020
861 Clear 7 1024 75 10000 2.1 100 18:58 13.01.2020
862 Clear 8 1024 70 10000 2.6 120 18:38 13.01.2020
863 Clear 8 1024 70 10000 2.6 120 18:19 13.01.2020
864 Clear 9 1024 66 10000 1 0 17:58 13.01.2020
865 Clear 9 1024 66 10000 1 0 17:39 13.01.2020
866 Clouds 10 1024 61 10000 1 0 17:20 13.01.2020
867 Clear 11 1022 54 0 0.61 306 16:42 13.01.2020
868 Clear 11 1022 55 0 0.61 306 16:23 13.01.2020
869 Clear 12 1022 54 0 0.61 306 15:59 13.01.2020
870 Clear 12 1022 54 0 0.61 306 15:41 13.01.2020
871 Clear 13 1022 53 0 0.45 225 15:21 13.01.2020
872 Clear 13 1022 54 0 0.89 225 14:43 13.01.2020
873 Clear 13 1022 54 0 0.45 270 14:24 13.01.2020
874 Clear 13 1022 51 0 1.08 45 13:59 13.01.2020
875 Clear 13 1022 53 0 0.89 337 13:40 13.01.2020
876 Clear 13 1022 56 0 0.89 22 13:22 13.01.2020
877 Clear 12 1023 57 0 1.11 43 12:57 13.01.2020
878 Clouds 12 1026 66 10000 2.1 310 12:39 13.01.2020
879 Clouds 11 1026 66 10000 2.1 310 12:21 13.01.2020
880 Clear 11 1027 81 10000 2.6 360 11:40 13.01.2020
881 Clear 10 1027 81 10000 2.6 360 11:20 13.01.2020
882 Clear 10 1027 81 10000 2.6 360 11:20 13.01.2020
883 Clear 9 1026 70 10000 2.1 350 10:58 13.01.2020
884 Clear 8 1027 93 10000 1.5 0 10:39 13.01.2020
885 Clear 7 1027 93 10000 1.5 0 10:20 13.01.2020
886 Clear 7 1027 93 10000 1.5 0 10:20 13.01.2020
887 Clouds 6 1026 80 10000 1 0 09:59 13.01.2020
888 Clouds 6 1026 80 10000 1 0 09:40 13.01.2020
889 Clouds 5 1027 71 10000 2.1 10 09:21 13.01.2020
890 Clear 4 1025 71 10000 2.1 20 08:41 13.01.2020
891 Clouds 2 1026 84 10000 2.6 350 08:20 13.01.2020
892 Clear 2 1025 86 10000 2.1 10 07:48 13.01.2020
893 Clear 2 1025 84 9000 2.1 360 07:27 13.01.2020
894 Clear 3 1025 84 8000 1.5 340 06:43 13.01.2020
895 Clear 3 1025 93 10000 0.5 0 06:22 13.01.2020
896 Clear 3 1025 86 10000 2.1 340 05:27 13.01.2020
897 Clear 4 1025 83 10000 1 0 03:57 13.01.2020
898 Clear 4 1025 80 10000 1 360 03:25 13.01.2020
899 Clear 4 1025 80 10000 1.5 360 02:47 13.01.2020
900 Clear 4 1025 83 10000 1 0 02:28 13.01.2020
901 Clear 4 1025 83 10000 1.5 130 01:21 13.01.2020
902 Clear 5 1025 83 10000 1.5 340 00:41 13.01.2020
903 Clear 5 1025 83 10000 2.1 50 00:23 13.01.2020
904 Clear 5 1025 70 10000 2.1 100 23:54 12.01.2020
905 Clear 6 1025 70 10000 2.6 90 23:36 12.01.2020
906 Clear 5 1025 70 10000 2.6 90 23:18 12.01.2020
907 Clear 5 1025 75 10000 1.5 100 22:42 12.01.2020
908 Clear 5 1025 70 10000 2.1 80 22:23 12.01.2020
909 Clear 5 1025 70 10000 2.6 80 21:57 12.01.2020
910 Clear 5 1025 70 10000 2.6 80 21:38 12.01.2020
911 Clear 6 1025 70 10000 3.1 90 21:19 12.01.2020
912 Clear 6 1025 75 10000 2.1 100 20:56 12.01.2020
913 Clear 6 1025 75 10000 2.1 100 20:38 12.01.2020
914 Clear 7 1025 75 10000 2.6 100 20:20 12.01.2020
915 Clear 7 1025 75 10000 2.1 90 19:56 12.01.2020
916 Clear 8 1025 70 10000 2.1 100 19:37 12.01.2020
917 Clear 8 1025 70 10000 2.1 100 19:18 12.01.2020
918 Clear 8 1025 70 10000 1 0 18:57 12.01.2020
919 Clear 8 1025 70 10000 1 0 18:57 12.01.2020
920 Clear 8 1025 70 10000 1 0 18:39 12.01.2020
921 Clear 8 1025 66 10000 1 0 18:21 12.01.2020
922 Clear 9 1024 61 10000 1.5 260 17:54 12.01.2020
923 Clear 10 1025 54 10000 2.1 10 17:36 12.01.2020
924 Clear 11 1025 54 10000 2.1 10 17:18 12.01.2020
925 Clear 12 1024 54 10000 1.5 10 16:40 12.01.2020
926 Clear 13 1024 47 10000 2.1 350 16:21 12.01.2020
927 Clear 13 1024 47 10000 2.1 350 16:21 12.01.2020
928 Clear 13 1024 50 10000 2.1 350 15:58 12.01.2020
929 Clear 14 1024 54 10000 1 0 15:39 12.01.2020
930 Clear 14 1024 54 10000 1 0 15:21 12.01.2020
931 Clear 13 1024 50 10000 2.1 20 14:44 12.01.2020
932 Clear 13 1025 58 10000 1 0 14:25 12.01.2020
933 Clear 13 1025 58 10000 2.6 10 13:58 12.01.2020
934 Clear 12 1025 58 10000 2.6 10 13:40 12.01.2020
935 Clear 12 1026 62 10000 1.5 0 13:22 12.01.2020
936 Clear 12 1025 61 10000 2.6 360 12:57 12.01.2020
937 Clear 12 1026 76 10000 1.6 10 12:38 12.01.2020
938 Clear 12 1026 76 10000 1.6 10 12:19 12.01.2020
939 Clear 11 1027 87 10000 0.5 0 11:42 12.01.2020
940 Clear 10 1027 87 10000 0.5 0 11:22 12.01.2020
941 Clear 9 1026 75 10000 4.1 10 10:58 12.01.2020
942 Clear 9 1026 75 10000 4.1 10 10:40 12.01.2020
943 Mist 8 1027 100 5000 2.35 15 10:20 12.01.2020
944 Clear 8 1026 75 10000 1.5 30 09:43 12.01.2020
945 Clear 7 1026 80 10000 2.6 30 09:24 12.01.2020
946 Clear 6 1026 72 10000 3.1 60 08:57 12.01.2020
947 Clear 5 1026 72 10000 3.1 60 08:38 12.01.2020
948 Clear 4 1026 83 10000 3.6 40 08:19 12.01.2020
949 Clear 4 1026 83 10000 1.5 30 07:38 12.01.2020
950 Clear 4 1026 83 10000 1.5 30 07:19 12.01.2020
951 Clear 4 1025 83 10000 2.1 10 06:41 12.01.2020
952 Clear 4 1025 83 10000 2.1 360 05:58 12.01.2020
953 Clear 4 1025 100 10000 5.1 10 05:20 12.01.2020
954 Clear 4 1026 80 10000 2.1 70 03:44 12.01.2020
955 Clear 5 1025 75 10000 2.1 60 02:55 12.01.2020
956 Clear 5 1025 70 10000 3.1 70 02:30 12.01.2020
957 Clear 5 1025 70 10000 2.6 70 01:40 12.01.2020
958 Clear 5 1025 86 10000 2.1 50 01:21 12.01.2020
959 Clear 6 1025 86 10000 1.5 60 00:40 12.01.2020
960 Clear 5 1025 86 10000 1.5 30 00:18 12.01.2020
961 Clear 6 1025 86 7000 1 0 23:41 11.01.2020
962 Clear 6 1025 86 9000 1 0 23:19 11.01.2020
963 Clear 5 1025 81 9000 2.6 10 22:57 11.01.2020
964 Clear 5 1024 81 10000 3.1 110 22:38 11.01.2020
965 Clear 6 1024 81 10000 3.1 110 22:20 11.01.2020
966 Clear 6 1024 81 10000 2.6 100 21:54 11.01.2020
967 Clear 6 1024 81 10000 3.1 100 21:36 11.01.2020
968 Clear 6 1024 81 10000 3.1 100 21:18 11.01.2020
969 Clear 6 1024 75 10000 2.6 90 20:40 11.01.2020
970 Clear 6 1024 75 10000 2.6 90 20:20 11.01.2020
971 Clear 7 1024 75 10000 2.1 90 19:58 11.01.2020
972 Clear 7 1024 75 10000 2.1 90 19:38 11.01.2020
973 Clear 7 1024 81 10000 2.1 90 19:20 11.01.2020
974 Clear 7 1024 81 10000 2.1 100 18:56 11.01.2020
975 Clear 7 1024 75 10000 2.1 120 18:37 11.01.2020
976 Clear 8 1024 75 10000 2.1 120 18:19 11.01.2020
977 Clear 8 1023 66 10000 1 90 17:57 11.01.2020
978 Clear 9 1026 66 10000 1.29 9 17:39 11.01.2020
979 Clear 11 1026 66 10000 0.61 32 17:18 11.01.2020
980 Clear 12 1023 62 10000 1.5 30 16:44 11.01.2020
981 Clear 12 1023 66 10000 0.61 32 16:25 11.01.2020
982 Clear 13 1023 62 10000 1.5 20 15:57 11.01.2020
983 Clear 13 1024 58 10000 1 0 15:39 11.01.2020
984 Clear 13 1024 58 10000 1 0 15:20 11.01.2020
985 Clear 13 1023 62 10000 2.1 30 14:46 11.01.2020
986 Clear 13 1024 62 10000 2.1 350 14:25 11.01.2020
987 Clear 13 1024 66 10000 2.1 360 13:58 11.01.2020
988 Clear 13 1025 66 10000 2.6 360 13:38 11.01.2020
989 Clear 13 1025 66 10000 2.6 360 13:20 11.01.2020
990 Clear 12 1025 66 10000 2.1 20 12:56 11.01.2020
991 Clear 12 1026 76 10000 1.5 0 12:37 11.01.2020
992 Clear 12 1026 76 10000 1.5 0 12:19 11.01.2020
993 Clouds 11 1025 70 10000 2.1 360 11:42 11.01.2020
994 Clear 10 1026 87 10000 1.5 0 11:24 11.01.2020
995 Clear 9 1025 75 10000 2.6 340 10:46 11.01.2020
996 Clear 8 1026 100 10000 0.5 0 10:25 11.01.2020
997 Clear 8 1025 70 10000 1 0 09:43 11.01.2020
998 Clear 7 1025 70 10000 3.6 50 09:21 11.01.2020
999 Clear 7 1025 70 10000 3.6 50 09:21 11.01.2020
1000 Clear 6 1025 80 10000 2.1 40 08:57 11.01.2020
1001 Clear 5 1025 80 10000 2.1 60 08:38 11.01.2020
1002 Clear 4 1025 80 10000 2.1 60 08:19 11.01.2020
1003 Clear 3 1025 86 10000 2.6 70 07:42 11.01.2020
1004 Clear 3 1025 93 10000 3.1 10 07:24 11.01.2020
1005 Clear 4 1024 86 10000 2.6 50 06:43 11.01.2020
1006 Clear 4 1024 86 10000 1.5 80 05:29 11.01.2020
1007 Clear 4 1025 80 10000 2.1 10 04:40 11.01.2020
1008 Clear 4 1025 80 10000 2.1 10 04:21 11.01.2020
1009 Clear 4 1025 86 10000 2.1 30 02:46 11.01.2020
1010 Clear 5 1025 86 10000 1.5 360 01:47 11.01.2020
1011 Clear 5 1025 86 10000 1.5 30 01:27 11.01.2020
1012 Clear 5 1025 80 10000 1 0 00:52 11.01.2020
1013 Clear 6 1025 75 10000 2.6 80 00:25 11.01.2020
1014 Clear 6 1025 75 10000 1.5 80 23:58 10.01.2020
1015 Clear 6 1025 75 10000 1.5 80 23:39 10.01.2020
1016 Clear 6 1025 81 7000 1 0 23:20 10.01.2020
1017 Clear 6 1025 75 7000 2.6 70 22:41 10.01.2020
1018 Clear 6 1025 75 7000 2.6 70 22:22 10.01.2020
1019 Clear 6 1025 75 7000 2.1 80 21:59 10.01.2020
1020 Clear 6 1025 75 7000 2.1 80 21:41 10.01.2020
1021 Clear 7 1024 75 10000 2.6 110 21:20 10.01.2020
1022 Clear 7 1024 75 10000 2.6 100 20:57 10.01.2020
1023 Clear 7 1024 81 10000 2.1 90 20:38 10.01.2020
1024 Clear 7 1024 81 10000 2.1 90 20:38 10.01.2020
1025 Clouds 7 1024 81 10000 2.1 90 20:20 10.01.2020
1026 Clouds 7 1024 81 10000 1.5 90 19:41 10.01.2020
1027 Clouds 8 1024 75 10000 2.1 100 19:21 10.01.2020
1028 Clouds 8 1024 70 10000 1.5 140 18:57 10.01.2020
1029 Clouds 8 1024 66 10000 1 0 18:39 10.01.2020
1030 Clouds 9 1024 66 10000 1 0 18:18 10.01.2020
1031 Clouds 10 1024 57 10000 1 60 17:56 10.01.2020
1032 Clouds 10 1024 58 10000 1 0 17:38 10.01.2020
1033 Clouds 10 1024 58 10000 1 0 17:38 10.01.2020
1034 Clouds 10 1024 58 10000 1 0 17:19 10.01.2020
1035 Clouds 10 1024 58 10000 1 0 17:19 10.01.2020
1036 Clouds 12 1024 50 10000 1.5 320 16:43 10.01.2020
1037 Clouds 13 1024 51 10000 1 0 16:21 10.01.2020
1038 Clouds 13 1024 50 10000 2.1 300 15:58 10.01.2020
1039 Clouds 13 1025 54 10000 1.13 325 15:39 10.01.2020
1040 Clouds 13 1025 54 10000 1.13 325 15:20 10.01.2020
1041 Clouds 14 1024 50 10000 2.1 320 14:59 10.01.2020
1042 Clouds 14 1025 58 10000 1.5 0 14:40 10.01.2020
1043 Clouds 13 1025 58 10000 1.5 0 14:19 10.01.2020
1044 Clouds 13 1024 54 10000 2.6 320 13:57 10.01.2020
1045 Clouds 13 1025 58 10000 3.1 50 13:38 10.01.2020
1046 Clouds 13 1025 58 10000 3.1 50 13:19 10.01.2020
1047 Clear 12 1025 58 10000 2.1 10 12:56 10.01.2020
1048 Clouds 12 1026 61 10000 1.5 0 12:38 10.01.2020
1049 Clouds 12 1026 61 10000 1.5 0 12:18 10.01.2020
1050 Clear 11 1026 66 10000 2.1 30 11:42 10.01.2020
1051 Clouds 10 1027 70 10000 2.1 350 11:22 10.01.2020
1052 Clear 9 1026 81 10000 2.6 330 10:59 10.01.2020
1053 Clouds 8 1027 86 10000 1.5 0 10:38 10.01.2020
1054 Clouds 8 1027 86 10000 1.5 0 10:20 10.01.2020
1055 Clear 8 1026 81 10000 1.5 40 09:48 10.01.2020
1056 Clouds 7 1026 86 10000 2.1 330 09:27 10.01.2020
1057 Clouds 5 1026 93 10000 1.5 0 08:59 10.01.2020
1058 Clouds 4 1027 69 10000 1 0 08:39 10.01.2020
1059 Clouds 3 1027 79 10000 1 0 08:20 10.01.2020
1060 Clouds 4 1026 81 10000 2.6 90 07:44 10.01.2020
1061 Clouds 4 1026 87 10000 3.6 80 07:22 10.01.2020
1062 Clouds 4 1026 93 10000 1 0 06:43 10.01.2020
1063 Clear 3 1026 93 10000 1.5 70 06:24 10.01.2020
1064 Clouds 3 1026 80 10000 2.6 90 05:33 10.01.2020
1065 Clear 3 1027 78 10000 1 0 03:34 10.01.2020
1066 Clear 3 1027 78 10000 1 0 03:34 10.01.2020
1067 Clear 3 1027 78 10000 1 0 02:57 10.01.2020
1068 Clear 4 1027 86 10000 0.5 0 02:36 10.01.2020
1069 Clear 4 1027 80 10000 2.6 100 01:34 10.01.2020
1070 Clear 3 1027 80 10000 3.1 90 00:56 10.01.2020
1071 Clear 4 1027 80 10000 3.1 90 00:38 10.01.2020
1072 Clear 4 1027 80 10000 2.6 100 23:57 09.01.2020
1073 Clear 4 1027 80 10000 2.6 100 23:57 09.01.2020
1074 Clear 4 1028 80 10000 3.1 100 23:37 09.01.2020
1075 Clear 4 1028 80 10000 3.1 100 23:19 09.01.2020
1076 Clear 4 1028 80 10000 2.6 100 22:57 09.01.2020
1077 Clear 5 1027 86 10000 3.1 100 22:37 09.01.2020
1078 Clear 5 1027 86 10000 3.1 100 22:18 09.01.2020
1079 Clear 5 1028 86 10000 2.6 110 21:56 09.01.2020
1080 Clear 5 1028 80 10000 2.6 110 21:37 09.01.2020
1081 Clear 5 1028 80 10000 2.6 110 21:37 09.01.2020
1082 Clear 5 1028 80 10000 2.6 110 21:37 09.01.2020
1083 Clear 5 1028 80 10000 2.6 110 21:37 09.01.2020
1084 Clear 5 1028 80 10000 2.6 110 21:18 09.01.2020
1085 Clear 6 1028 80 10000 2.6 110 20:56 09.01.2020
1086 Clear 6 1028 80 10000 2.6 110 20:38 09.01.2020
1087 Clear 6 1027 70 10000 2.6 110 20:19 09.01.2020
1088 Clear 7 1027 70 10000 2.6 110 19:54 09.01.2020
1089 Clear 7 1027 70 10000 2.6 110 19:36 09.01.2020
1090 Clear 7 1027 70 10000 2.1 100 19:18 09.01.2020
1091 Clear 7 1027 70 10000 2.1 130 18:41 09.01.2020
1092 Clear 8 1027 65 10000 1 0 18:22 09.01.2020
1093 Clear 8 1027 65 10000 1 0 17:58 09.01.2020
1094 Clear 9 1027 53 10000 1 0 17:40 09.01.2020
1095 Clear 10 1027 50 10000 1 30 17:18 09.01.2020
1096 Clear 10 1027 50 10000 1 30 17:18 09.01.2020
1097 Clear 11 1027 50 10000 1.5 340 16:47 09.01.2020
1098 Clear 12 1027 46 10000 2.1 350 16:22 09.01.2020
1099 Clear 12 1027 59 10000 2.1 320 15:44 09.01.2020
1100 Clear 13 1027 59 10000 2.1 360 15:25 09.01.2020
1101 Clear 13 1027 59 10000 2.1 360 14:59 09.01.2020
1102 Clear 13 1027 59 10000 1.5 320 14:41 09.01.2020
1103 Clear 12 1027 40 10000 1.5 310 14:21 09.01.2020
1104 Clear 12 1027 40 10000 1.5 310 13:57 09.01.2020
1105 Clear 12 1028 50 10000 1.5 340 13:39 09.01.2020
1106 Clear 12 1028 50 10000 1.5 310 13:20 09.01.2020
1107 Clear 11 1028 50 10000 1.5 310 12:58 09.01.2020
1108 Clear 12 1028 50 10000 1 0 12:38 09.01.2020
1109 Clear 11 1029 50 10000 1.5 320 12:19 09.01.2020
1110 Clear 10 1029 57 10000 1 0 11:43 09.01.2020
1111 Clear 9 1029 57 10000 1 0 11:25 09.01.2020
1112 Clear 9 1029 57 10000 1 0 11:25 09.01.2020
1113 Clear 8 1029 64 10000 1.5 10 10:59 09.01.2020
1114 Clear 7 1029 65 10000 2.6 20 10:41 09.01.2020
1115 Clear 6 1029 64 10000 2.1 10 10:22 09.01.2020
1116 Clear 6 1029 74 10000 2.1 10 09:49 09.01.2020
1117 Clear 6 1029 74 10000 2.1 10 09:25 09.01.2020
1118 Clear 4 1029 74 10000 1.5 10 08:59 09.01.2020
1119 Clear 4 1029 80 10000 1.5 10 08:40 09.01.2020
1120 Clear 3 1029 86 10000 1 110 08:22 09.01.2020
1121 Clear 3 1029 86 10000 1 110 07:55 09.01.2020
1122 Clear 2 1029 80 10000 1.5 360 07:35 09.01.2020
1123 Clear 3 1029 80 10000 1 0 06:54 09.01.2020
1124 Clear 3 1029 80 10000 1 0 06:32 09.01.2020
1125 Clear 3 1028 78 10000 1 0 05:52 09.01.2020
1126 Clear 3 1028 78 10000 1 0 05:28 09.01.2020
1127 Clear 3 1028 74 10000 0.5 80 04:41 09.01.2020
1128 Clear 3 1029 80 10000 1 0 03:28 09.01.2020
1129 Clear 3 1029 80 10000 1 0 02:47 09.01.2020
1130 Clear 4 1029 69 10000 1 0 01:42 09.01.2020
1131 Clear 4 1029 83 10000 2.1 90 01:18 09.01.2020
1132 Clear 4 1029 83 10000 2.1 100 00:39 09.01.2020
1133 Clear 4 1029 65 10000 2.6 100 00:19 09.01.2020
1134 Clear 5 1029 65 10000 2.6 90 23:41 08.01.2020
1135 Clear 5 1029 65 10000 2.1 100 23:23 08.01.2020
1136 Clear 5 1029 65 10000 2.1 100 22:56 08.01.2020
1137 Clear 5 1029 65 10000 2.6 90 22:38 08.01.2020
1138 Clear 5 1029 65 10000 1.5 90 22:19 08.01.2020
1139 Clear 6 1029 65 10000 1.5 90 21:55 08.01.2020
1140 Clear 5 1029 60 10000 2.6 100 21:37 08.01.2020
1141 Clear 6 1029 83 10000 3.1 110 21:18 08.01.2020
1142 Clear 6 1029 83 10000 3.1 110 20:41 08.01.2020
1143 Clear 6 1029 60 10000 3.1 100 20:21 08.01.2020
1144 Clear 6 1029 60 10000 3.1 100 19:59 08.01.2020
1145 Clear 6 1029 60 10000 2.6 110 19:38 08.01.2020
1146 Clear 7 1029 78 10000 2.6 110 19:20 08.01.2020
1147 Clear 7 1029 78 10000 2.6 110 18:58 08.01.2020
1148 Clear 7 1029 78 10000 2.6 110 18:39 08.01.2020
1149 Clear 9 1028 78 10000 2.1 120 18:19 08.01.2020
1150 Clear 9 1028 78 10000 2.1 120 17:57 08.01.2020
1151 Clear 9 1028 78 10000 1.5 150 17:38 08.01.2020
1152 Clear 10 1028 43 10000 0.5 0 17:19 08.01.2020
1153 Clear 10 1028 43 10000 0.5 0 17:19 08.01.2020
1154 Clear 11 1028 43 10000 0.5 0 16:56 08.01.2020
1155 Clear 12 1028 40 10000 1 0 16:38 08.01.2020
1156 Clear 13 1028 40 10000 2.1 320 16:19 08.01.2020
1157 Clear 14 1027 37 10000 2.1 340 15:45 08.01.2020
1158 Clear 13 1027 37 10000 2.1 330 15:22 08.01.2020
1159 Clear 13 1027 37 10000 2.1 330 14:59 08.01.2020
1160 Clear 13 1027 40 10000 1.5 360 14:40 08.01.2020
1161 Clear 13 1027 46 10000 2.1 350 14:21 08.01.2020
1162 Clear 12 1027 50 10000 3.1 350 13:42 08.01.2020
1163 Clear 12 1027 53 10000 2.6 10 13:22 08.01.2020
1164 Clear 12 1027 53 10000 2.6 10 12:55 08.01.2020
1165 Clear 12 1028 57 10000 1.5 350 12:37 08.01.2020
1166 Clear 11 1028 53 10000 3.1 350 12:18 08.01.2020
1167 Clear 11 1028 53 10000 1.5 350 11:48 08.01.2020
1168 Clear 11 1028 53 10000 1.5 350 11:48 08.01.2020
1169 Clear 9 1028 62 10000 1.5 360 11:19 08.01.2020
1170 Clear 9 1028 62 10000 1.5 360 10:59 08.01.2020
1171 Clear 9 1028 62 10000 2.6 350 10:40 08.01.2020
1172 Clear 7 1027 60 10000 2.1 350 10:21 08.01.2020
1173 Clear 8 1027 65 10000 2.6 340 09:43 08.01.2020
1174 Clear 6 1027 60 10000 2.6 80 09:20 08.01.2020
1175 Clear 6 1027 60 10000 2.6 80 08:59 08.01.2020
1176 Clear 5 1027 64 10000 3.1 40 08:41 08.01.2020
1177 Clouds 4 1027 69 10000 3.1 20 08:22 08.01.2020
1178 Clouds 4 1026 64 10000 3.6 30 07:58 08.01.2020
1179 Clouds 4 1026 64 10000 3.6 30 07:39 08.01.2020
1180 Clouds 4 1026 74 10000 2.6 30 07:18 08.01.2020
1181 Clouds 4 1025 80 10000 1 0 06:41 08.01.2020
1182 Clouds 5 1025 74 10000 1 0 05:56 08.01.2020
1183 Clouds 4 1025 70 10000 2.1 360 05:26 08.01.2020
1184 Clouds 5 1025 67 10000 1.5 10 04:36 08.01.2020
1185 Clouds 4 1025 67 8000 2.6 10 02:46 08.01.2020
1186 Clouds 4 1025 67 8000 2.6 10 02:28 08.01.2020
1187 Clouds 4 1025 70 8000 2.1 80 01:57 08.01.2020
1188 Clouds 4 1024 71 7000 2.6 110 01:32 08.01.2020
1189 Clouds 4 1024 74 6000 1 0 00:51 08.01.2020
1190 Clouds 4 1024 69 7000 1.5 90 00:22 08.01.2020
1191 Clouds 4 1024 69 7000 2.1 30 23:46 07.01.2020
1192 Clouds 4 1024 74 10000 1.5 30 23:21 07.01.2020
1193 Clouds 4 1024 69 10000 1.5 90 22:43 07.01.2020
1194 Clouds 4 1024 69 10000 1 0 22:21 07.01.2020
1195 Clouds 4 1024 69 10000 1 0 21:59 07.01.2020
1196 Clouds 4 1024 69 10000 2.1 100 21:41 07.01.2020
1197 Clouds 4 1024 65 10000 2.1 100 21:21 07.01.2020
1198 Clouds 4 1024 65 10000 2.1 100 21:21 07.01.2020
1199 Clouds 4 1024 65 10000 2.1 100 20:58 07.01.2020
1200 Clouds 5 1024 66 10000 2.1 90 20:39 07.01.2020
1201 Clouds 5 1024 55 10000 2.1 100 20:21 07.01.2020
1202 Clouds 5 1024 55 10000 2.1 100 19:57 07.01.2020
1203 Clouds 5 1024 55 10000 2.1 100 19:37 07.01.2020
1204 Clouds 5 1024 75 10000 1 0 19:19 07.01.2020
1205 Clouds 5 1024 75 10000 1 0 19:19 07.01.2020
1206 Clouds 6 1024 75 10000 1 0 18:56 07.01.2020
1207 Clouds 5 1024 55 10000 1 100 18:37 07.01.2020
1208 Clouds 7 1024 70 10000 1 0 18:18 07.01.2020
1209 Clouds 7 1024 55 10000 1.5 70 17:42 07.01.2020
1210 Clouds 8 1024 52 10000 1 0 17:23 07.01.2020
1211 Clouds 8 1024 52 10000 1 0 16:58 07.01.2020
1212 Clouds 9 1024 49 10000 1.5 280 16:39 07.01.2020
1213 Clouds 9 1024 49 10000 1 0 16:20 07.01.2020
1214 Clouds 10 1024 49 10000 1 0 15:59 07.01.2020
1215 Clouds 10 1024 49 10000 1.5 280 15:41 07.01.2020
1216 Clouds 10 1024 49 10000 2.1 320 15:23 07.01.2020
1217 Clouds 10 1024 49 10000 2.1 320 14:57 07.01.2020
1218 Clouds 10 1024 49 10000 1 0 14:37 07.01.2020
1219 Clouds 10 1024 37 10000 1.5 40 14:19 07.01.2020
1220 Clouds 10 1024 37 10000 1.5 40 14:19 07.01.2020
1221 Clouds 10 1025 37 10000 2.1 360 13:40 07.01.2020
1222 Clouds 10 1025 36 10000 1 0 13:20 07.01.2020
1223 Clouds 10 1025 36 10000 1 0 12:54 07.01.2020
1224 Clouds 10 1025 52 10000 0.5 0 12:36 07.01.2020
1225 Clouds 9 1026 52 10000 2.1 10 12:18 07.01.2020
1226 Clouds 9 1026 48 10000 1.5 10 11:41 07.01.2020
1227 Clear 7 1026 52 10000 1 0 11:21 07.01.2020
1228 Clear 6 1026 55 10000 1 0 10:43 07.01.2020
1229 Clear 5 1026 48 10000 2.1 350 10:24 07.01.2020
1230 Clear 5 1026 48 10000 2.1 350 09:59 07.01.2020
1231 Clear 5 1025 59 10000 1.5 360 09:38 07.01.2020
1232 Clear 4 1025 64 10000 0.5 0 09:20 07.01.2020
1233 Clear 3 1025 64 10000 1 0 08:47 07.01.2020
1234 Clear 3 1025 64 10000 1 0 08:27 07.01.2020
1235 Clear 1 1025 59 10000 1 0 07:55 07.01.2020
1236 Clear 1 1025 59 10000 1.5 80 07:34 07.01.2020
1237 Clear 2 1025 59 10000 1.5 40 06:54 07.01.2020
1238 Clear 2 1025 59 10000 1.5 40 06:35 07.01.2020
1239 Clear 2 1025 59 10000 2.6 50 05:58 07.01.2020
1240 Clear 2 1025 59 10000 2.6 30 05:38 07.01.2020
1241 Clear 2 1025 59 10000 2.1 30 03:44 07.01.2020
1242 Clear 2 1026 59 10000 1.5 40 02:25 07.01.2020
1243 Clear 3 1026 59 10000 3.6 50 01:57 07.01.2020
1244 Clear 3 1026 59 10000 2.1 30 01:34 07.01.2020
1245 Clear 3 1026 59 10000 2.6 50 00:40 07.01.2020
1246 Clear 3 1026 64 10000 2.6 20 00:20 07.01.2020
1247 Clear 3 1026 55 10000 1.5 40 23:55 06.01.2020
1248 Clear 3 1026 55 10000 1.5 40 23:36 06.01.2020
1249 Clear 4 1026 59 10000 1 0 23:18 06.01.2020
1250 Clear 4 1026 59 10000 1 0 23:18 06.01.2020
1251 Clear 4 1026 55 10000 2.1 50 22:43 06.01.2020
1252 Clear 4 1026 55 10000 2.1 50 22:23 06.01.2020
1253 Clear 4 1026 55 10000 2.6 80 21:58 06.01.2020
1254 Clear 4 1026 52 10000 2.6 60 21:39 06.01.2020
1255 Clear 4 1025 52 10000 3.6 50 21:20 06.01.2020
1256 Clear 4 1025 52 10000 3.6 50 21:20 06.01.2020
1257 Clear 4 1025 52 10000 3.6 50 21:20 06.01.2020
1258 Clear 4 1025 52 10000 3.6 50 21:20 06.01.2020
1259 Clear 4 1025 52 10000 3.6 50 20:57 06.01.2020
1260 Clear 5 1026 48 10000 2.1 50 20:38 06.01.2020
1261 Clear 5 1026 48 10000 3.1 20 20:20 06.01.2020
1262 Clear 5 1026 48 10000 3.1 20 19:56 06.01.2020
1263 Clear 5 1026 48 10000 3.1 20 19:38 06.01.2020
1264 Clear 6 1026 45 10000 2.6 40 19:20 06.01.2020
1265 Clear 6 1026 45 10000 1 0 18:47 06.01.2020
1266 Clear 7 1026 39 10000 1 0 18:22 06.01.2020
1267 Clear 7 1026 39 10000 1 0 17:58 06.01.2020
1268 Clear 7 1025 39 10000 3.1 20 17:38 06.01.2020
1269 Clear 9 1025 39 10000 2.6 350 17:18 06.01.2020
1270 Clear 9 1025 39 10000 2.6 350 17:18 06.01.2020
1271 Clear 10 1025 37 10000 3.6 360 16:44 06.01.2020
1272 Clear 11 1025 37 10000 3.6 360 16:25 06.01.2020
1273 Clear 11 1025 32 10000 3.6 360 15:59 06.01.2020
1274 Clear 11 1025 32 10000 4.6 10 15:39 06.01.2020
1275 Clear 11 1025 34 10000 4.6 360 15:19 06.01.2020
1276 Clear 11 1025 34 10000 4.6 360 14:57 06.01.2020
1277 Clear 11 1025 32 10000 4.1 360 14:39 06.01.2020
1278 Clear 11 1025 32 10000 4.6 10 14:18 06.01.2020
1279 Clear 11 1026 37 10000 4.6 10 13:42 06.01.2020
1280 Clear 10 1026 37 10000 6.7 20 13:22 06.01.2020
1281 Clear 10 1026 37 10000 6.7 20 12:59 06.01.2020
1282 Clear 10 1026 42 10000 5.7 20 12:41 06.01.2020
1283 Clear 10 1027 49 10000 4.1 20 12:20 06.01.2020
1284 Clear 9 1027 49 10000 4.1 20 11:56 06.01.2020
1285 Clear 9 1027 49 10000 3.6 40 11:38 06.01.2020
1286 Clear 7 1028 52 10000 4.6 30 11:20 06.01.2020
1287 Clear 7 1028 52 10000 4.6 30 11:20 06.01.2020
1288 Clear 7 1028 52 10000 4.6 30 10:42 06.01.2020
1289 Clear 7 1028 52 10000 4.1 20 10:21 06.01.2020
1290 Clear 6 1028 55 10000 4.6 320 09:42 06.01.2020
1291 Clear 5 1028 59 10000 3.6 20 09:24 06.01.2020
1292 Clear 5 1028 59 10000 3.6 20 08:58 06.01.2020
1293 Clear 4 1028 59 10000 3.1 70 08:40 06.01.2020
1294 Clear 4 1028 64 10000 3.1 40 08:21 06.01.2020
1295 Clear 4 1027 59 10000 3.6 40 07:48 06.01.2020
1296 Clear 3 1027 55 10000 3.6 40 07:21 06.01.2020
1297 Clear 3 1027 55 10000 3.1 30 06:44 06.01.2020
1298 Clear 4 1027 55 10000 2.6 20 05:52 06.01.2020
1299 Clear 3 1027 55 10000 2.6 20 05:33 06.01.2020
1300 Clear 4 1027 55 10000 2.6 20 04:26 06.01.2020
1301 Clear 4 1028 59 10000 1.5 360 03:53 06.01.2020
1302 Clear 4 1028 69 10000 1.5 130 02:32 06.01.2020
1303 Clear 5 1028 69 10000 1 0 01:56 06.01.2020
1304 Clear 5 1028 64 10000 0.5 0 01:32 06.01.2020
1305 Clear 5 1028 55 10000 0.5 0 00:57 06.01.2020
1306 Clear 5 1028 55 10000 2.1 140 00:39 06.01.2020
1307 Clear 5 1028 48 10000 1.5 320 00:18 06.01.2020
1308 Clear 6 1028 44 10000 2.1 310 23:40 05.01.2020
1309 Clear 6 1028 39 10000 3.1 20 23:21 05.01.2020
1310 Clear 7 1028 39 10000 2.6 30 22:40 05.01.2020
1311 Clear 7 1028 33 10000 3.6 30 22:21 05.01.2020
1312 Clear 7 1028 33 10000 3.6 30 21:59 05.01.2020
1313 Clear 7 1028 36 10000 4.6 40 21:40 05.01.2020
1314 Clear 8 1028 34 10000 4.1 40 21:20 05.01.2020
1315 Clear 8 1028 34 10000 4.1 40 20:58 05.01.2020
1316 Clear 8 1028 34 10000 4.6 40 20:39 05.01.2020
1317 Clear 8 1028 36 10000 4.6 50 20:20 05.01.2020
1318 Clear 8 1028 36 10000 4.6 50 19:59 05.01.2020
1319 Clear 8 1028 36 10000 3.1 40 19:40 05.01.2020
1320 Clear 9 1027 36 10000 3.1 50 19:21 05.01.2020
1321 Clear 9 1027 36 10000 3.1 50 18:56 05.01.2020
1322 Clear 9 1027 34 10000 3.1 50 18:38 05.01.2020
1323 Clear 10 1027 29 10000 3.6 40 18:19 05.01.2020
1324 Clear 10 1027 29 10000 3.6 40 17:58 05.01.2020
1325 Clear 11 1026 34 10000 2.6 30 17:39 05.01.2020
1326 Clear 11 1026 34 10000 2.6 30 17:39 05.01.2020
1327 Clear 11 1026 30 10000 3.6 40 17:20 05.01.2020
1328 Clear 12 1026 30 10000 3.6 40 16:57 05.01.2020
1329 Clear 13 1025 32 10000 4.1 60 16:39 05.01.2020
1330 Clear 13 1025 43 10000 2.6 30 16:20 05.01.2020
1331 Clear 14 1025 44 10000 3.6 330 15:40 05.01.2020
1332 Clear 14 1024 44 10000 4.1 330 15:21 05.01.2020
1333 Clear 14 1024 44 10000 4.1 330 14:57 05.01.2020
1334 Clear 14 1024 44 10000 3.1 320 14:38 05.01.2020
1335 Clear 14 1024 47 10000 2.6 340 14:20 05.01.2020
1336 Clear 14 1024 47 10000 2.6 340 13:57 05.01.2020
1337 Clear 14 1024 50 10000 2.1 330 13:38 05.01.2020
1338 Clear 14 1024 50 10000 2.1 330 13:38 05.01.2020
1339 Clear 14 1024 50 10000 2.6 360 13:19 05.01.2020
1340 Clear 14 1024 50 10000 2.6 360 13:19 05.01.2020
1341 Clear 13 1024 50 10000 2.6 360 12:56 05.01.2020
1342 Clear 13 1024 50 10000 2.6 360 12:56 05.01.2020
1343 Clear 13 1024 50 10000 3.1 50 12:37 05.01.2020
1344 Clear 12 1025 66 10000 4.1 30 12:19 05.01.2020
1345 Clear 12 1025 66 10000 5.1 20 11:44 05.01.2020
1346 Clear 10 1025 70 10000 4.1 30 11:20 05.01.2020
1347 Clear 10 1025 70 10000 4.1 30 10:59 05.01.2020
1348 Clear 9 1025 75 10000 4.6 20 10:40 05.01.2020
1349 Clear 9 1024 87 10000 4.6 10 10:19 05.01.2020
1350 Clear 8 1024 87 10000 5.1 20 09:42 05.01.2020
1351 Clear 7 1023 86 10000 5.1 20 09:22 05.01.2020
1352 Clear 6 1023 86 10000 4.1 30 08:52 05.01.2020
1353 Clear 6 1023 86 10000 4.1 30 08:32 05.01.2020
1354 Clear 4 1023 93 7000 4.1 50 07:59 05.01.2020
1355 Clear 5 1023 86 8000 4.6 40 07:39 05.01.2020
1356 Clear 5 1023 86 8000 4.6 40 07:39 05.01.2020
1357 Clear 5 1022 93 10000 3.6 30 07:20 05.01.2020
1358 Clear 5 1022 86 10000 3.6 50 06:40 05.01.2020
1359 Clear 5 1021 93 10000 2.1 20 05:34 05.01.2020
1360 Clear 5 1022 93 10000 1.5 30 04:49 05.01.2020
1361 Clear 6 1022 93 9000 2.1 330 04:18 05.01.2020
1362 Clear 6 1022 93 9000 2.1 330 04:18 05.01.2020
1363 Clear 6 1022 87 10000 2.1 30 03:18 05.01.2020
1364 Clear 6 1022 93 10000 2.6 20 02:32 05.01.2020
1365 Clouds 6 1021 87 10000 2.6 40 01:49 05.01.2020
1366 Clouds 6 1022 87 9000 3.1 40 01:20 05.01.2020
1367 Clouds 6 1022 87 9000 3.1 40 00:56 05.01.2020
1368 Clouds 6 1021 87 8000 1.5 30 00:37 05.01.2020
1369 Clouds 6 1022 93 8000 1.5 40 00:19 05.01.2020
1370 Clouds 6 1022 93 8000 1.5 40 23:40 04.01.2020
1371 Clouds 6 1022 93 7000 1 350 23:20 04.01.2020
1372 Clouds 7 1022 93 8000 0.5 0 22:40 04.01.2020
1373 Clouds 7 1022 87 8000 1 0 22:22 04.01.2020
1374 Clouds 7 1022 87 8000 1 0 21:58 04.01.2020
1375 Clouds 7 1022 87 8000 1 0 21:40 04.01.2020
1376 Clouds 8 1022 87 10000 1 70 21:22 04.01.2020
1377 Clouds 8 1022 87 10000 1 70 20:59 04.01.2020
1378 Clouds 8 1022 81 8000 1 0 20:40 04.01.2020
1379 Clouds 8 1022 87 8000 1 90 20:22 04.01.2020
1380 Clouds 8 1022 87 8000 1 90 19:57 04.01.2020
1381 Clouds 8 1022 76 10000 1 60 19:38 04.01.2020
1382 Clouds 9 1022 87 10000 2.1 20 19:20 04.01.2020
1383 Clouds 9 1022 76 10000 1 90 18:56 04.01.2020
1384 Clouds 9 1022 76 10000 1 90 18:37 04.01.2020
1385 Clouds 10 1022 76 10000 1.5 40 18:19 04.01.2020
1386 Clouds 10 1022 71 10000 2.1 60 17:41 04.01.2020
1387 Clouds 11 1022 66 10000 1 0 17:23 04.01.2020
1388 Clouds 11 1022 66 10000 1 0 16:59 04.01.2020
1389 Clouds 11 1022 66 10000 1.5 10 16:40 04.01.2020
1390 Clouds 12 1022 62 10000 2.6 10 16:21 04.01.2020
1391 Clouds 12 1022 62 10000 2.6 360 15:56 04.01.2020
1392 Clouds 12 1022 62 10000 2.6 360 15:38 04.01.2020
1393 Clouds 12 1022 66 10000 3.6 350 15:18 04.01.2020
1394 Clouds 12 1022 58 10000 3.1 330 14:42 04.01.2020
1395 Clouds 12 1022 58 10000 2.6 360 14:20 04.01.2020
1396 Clouds 13 1022 58 10000 2.6 360 13:59 04.01.2020
1397 Clouds 12 1023 62 10000 2.6 360 13:39 04.01.2020
1398 Clouds 12 1023 62 9000 2.6 30 13:20 04.01.2020
1399 Clouds 12 1023 62 9000 2.6 30 12:57 04.01.2020
1400 Clouds 12 1023 62 9000 2.6 30 12:57 04.01.2020
1401 Clouds 12 1024 66 10000 3.1 20 12:39 04.01.2020
1402 Clouds 11 1024 66 10000 3.1 360 12:19 04.01.2020
1403 Clouds 11 1024 66 10000 3.1 360 11:57 04.01.2020
1404 Clouds 11 1024 66 10000 3.1 360 11:57 04.01.2020
1405 Clouds 10 1024 66 10000 2.1 350 11:38 04.01.2020
1406 Clouds 10 1024 66 10000 2.1 350 11:38 04.01.2020
1407 Clouds 9 1024 76 10000 1.5 40 11:18 04.01.2020
1408 Clouds 8 1024 87 10000 1.5 360 10:41 04.01.2020
1409 Clouds 8 1024 81 10000 2.1 340 10:22 04.01.2020
1410 Clouds 8 1024 76 10000 2.1 110 09:48 04.01.2020
1411 Clouds 7 1024 75 10000 2.6 80 09:26 04.01.2020
1412 Clouds 6 1024 87 9000 3.1 70 08:49 04.01.2020
1413 Clouds 6 1024 87 9000 3.1 70 08:29 04.01.2020
1414 Clouds 5 1024 81 9000 1.5 30 07:59 04.01.2020
1415 Clouds 5 1024 86 9000 1 0 07:40 04.01.2020
1416 Clouds 5 1024 81 10000 1 0 06:46 04.01.2020
1417 Clouds 5 1024 86 10000 1.5 20 05:59 04.01.2020
1418 Clouds 5 1025 86 10000 1 60 04:53 04.01.2020
1419 Clouds 5 1025 86 10000 1 60 04:32 04.01.2020
1420 Clouds 5 1025 93 10000 1 90 03:37 04.01.2020
1421 Clouds 5 1025 93 10000 1 0 03:18 04.01.2020
1422 Clouds 5 1026 86 10000 1.5 100 02:20 04.01.2020
1423 Clouds 5 1026 80 10000 0.5 0 01:51 04.01.2020
1424 Clouds 5 1026 80 10000 0.5 0 01:30 04.01.2020
1425 Clouds 5 1026 86 10000 2.1 80 00:30 04.01.2020
1426 Clouds 5 1026 86 10000 1.5 80 23:59 03.01.2020
1427 Clouds 5 1026 81 10000 1.5 60 23:37 03.01.2020
1428 Clear 5 1026 81 10000 2.1 70 23:19 03.01.2020
1429 Clear 6 1026 81 10000 2.1 0 22:41 03.01.2020
1430 Clear 6 1026 86 10000 2.1 90 22:19 03.01.2020
1431 Clear 6 1026 86 10000 2.1 90 21:58 03.01.2020
1432 Clear 7 1026 87 10000 1.5 90 21:38 03.01.2020
1433 Clear 7 1026 87 10000 1.5 90 21:38 03.01.2020
1434 Clear 7 1026 87 10000 2.1 90 21:19 03.01.2020
1435 Clear 7 1026 87 10000 2.1 90 21:19 03.01.2020
1436 Clear 7 1026 81 10000 1.5 80 20:56 03.01.2020
1437 Clear 7 1026 81 10000 1.5 80 20:38 03.01.2020
1438 Clouds 7 1027 75 10000 2.1 70 20:18 03.01.2020
1439 Clouds 7 1027 81 10000 2.1 100 19:55 03.01.2020
1440 Clouds 7 1027 81 10000 2.1 100 19:37 03.01.2020
1441 Clouds 8 1027 81 10000 1.5 90 19:18 03.01.2020
1442 Clouds 8 1027 81 10000 1 0 18:40 03.01.2020
1443 Clouds 9 1027 76 10000 1 0 18:21 03.01.2020
1444 Clouds 9 1027 76 10000 1 0 17:54 03.01.2020
1445 Clouds 9 1026 70 10000 1 290 17:36 03.01.2020
1446 Clouds 10 1026 62 10000 1 50 17:18 03.01.2020
1447 Clouds 11 1027 58 10000 1.5 50 16:42 03.01.2020
1448 Clouds 12 1027 58 10000 1.5 40 16:22 03.01.2020
1449 Clouds 13 1027 58 10000 2.1 30 15:43 03.01.2020
1450 Clouds 13 1027 54 10000 2.6 20 15:19 03.01.2020
1451 Clouds 13 1027 54 10000 2.6 20 15:19 03.01.2020
1452 Clouds 13 1027 54 10000 2.6 20 14:56 03.01.2020
1453 Clouds 13 1027 54 10000 3.1 360 14:37 03.01.2020
1454 Clouds 12 1027 53 10000 2.6 350 14:19 03.01.2020
1455 Clouds 12 1027 51 10000 2.6 350 13:41 03.01.2020
1456 Clouds 12 1027 51 10000 2.6 350 13:23 03.01.2020
1457 Clouds 12 1028 43 10000 2.6 360 12:57 03.01.2020
1458 Clouds 12 1028 51 10000 2.1 330 12:38 03.01.2020
1459 Clouds 11 1028 57 10000 2.6 330 12:20 03.01.2020
1460 Clouds 11 1029 51 10000 2.6 360 11:44 03.01.2020
1461 Clouds 9 1029 58 10000 2.6 0 11:19 03.01.2020
1462 Clouds 8 1029 58 10000 3.1 30 10:44 03.01.2020
1463 Clouds 8 1029 58 10000 3.1 30 10:25 03.01.2020
1464 Clouds 7 1029 80 10000 3.1 30 09:57 03.01.2020
1465 Clouds 6 1029 80 10000 2.6 20 09:38 03.01.2020
1466 Clouds 6 1029 86 10000 1.5 360 09:20 03.01.2020
1467 Clouds 5 1029 86 10000 1.5 360 08:56 03.01.2020
1468 Clouds 5 1029 57 10000 1.5 350 08:36 03.01.2020
1469 Clouds 4 1028 65 10000 2.1 40 08:18 03.01.2020
1470 Clouds 4 1028 80 10000 2.1 70 07:39 03.01.2020
1471 Clouds 4 1028 65 10000 2.1 60 07:18 03.01.2020
1472 Clouds 4 1028 65 10000 2.1 60 07:18 03.01.2020
1473 Clouds 4 1028 65 10000 3.1 30 06:42 03.01.2020
1474 Clouds 4 1028 86 10000 1.5 40 06:24 03.01.2020
1475 Clouds 4 1028 86 10000 3.6 50 05:28 03.01.2020
1476 Clouds 4 1028 93 10000 3.6 330 03:55 03.01.2020
1477 Clouds 4 1028 87 10000 3.6 80 02:55 03.01.2020
1478 Clouds 4 1029 93 10000 1.5 60 01:57 03.01.2020
1479 Clouds 4 1029 93 10000 1.5 340 01:38 03.01.2020
1480 Clouds 4 1030 86 10000 1.5 60 00:46 03.01.2020
1481 Clouds 4 1030 86 10000 1.5 60 00:26 03.01.2020
1482 Clouds 5 1030 87 10000 2.1 90 23:55 02.01.2020
1483 Clouds 5 1030 87 10000 2.1 90 23:37 02.01.2020
1484 Clouds 5 1030 93 10000 1 0 23:18 02.01.2020
1485 Clouds 5 1030 87 10000 2.6 100 22:42 02.01.2020
1486 Clouds 6 1030 87 10000 2.6 100 22:20 02.01.2020
1487 Clouds 6 1030 87 10000 2.6 100 21:57 02.01.2020
1488 Clouds 6 1030 81 10000 2.6 90 21:57 02.01.2020
1489 Clouds 6 1030 81 10000 2.6 90 21:38 02.01.2020
1490 Clouds 6 1030 81 10000 2.6 90 21:20 02.01.2020
1491 Clouds 6 1030 81 10000 2.6 90 20:56 02.01.2020
1492 Clouds 6 1030 81 10000 2.6 90 20:38 02.01.2020
1493 Clear 6 1030 81 10000 2.6 90 20:20 02.01.2020
1494 Clear 7 1030 81 10000 2.6 90 19:55 02.01.2020
1495 Clear 7 1030 81 10000 2.1 100 19:36 02.01.2020
1496 Clear 7 1030 75 10000 2.1 90 19:18 02.01.2020
1497 Clear 7 1030 75 10000 2.1 90 18:54 02.01.2020
1498 Clear 7 1030 70 10000 2.1 90 18:36 02.01.2020
1499 Clear 9 1030 70 10000 2.1 90 18:18 02.01.2020
1500 Clear 9 1030 70 10000 2.1 90 17:55 02.01.2020
1501 Clear 9 1030 66 10000 1.5 0 17:36 02.01.2020
1502 Clear 11 1030 57 10000 1 30 17:18 02.01.2020
1503 Clear 12 1030 54 10000 2.1 20 16:41 02.01.2020
1504 Clear 13 1030 54 10000 1.5 20 16:20 02.01.2020
1505 Clear 14 1030 54 10000 1.5 20 15:58 02.01.2020
1506 Clear 14 1030 50 10000 2.1 20 15:40 02.01.2020
1507 Clear 14 1030 47 10000 1.02 47 15:22 02.01.2020
1508 Clear 14 1029 50 10000 1.5 350 14:57 02.01.2020
1509 Clear 14 1029 50 10000 1.5 350 14:36 02.01.2020
1510 Clear 14 1030 47 10000 1 0 14:18 02.01.2020
1511 Clear 14 1030 50 10000 1.5 340 13:50 02.01.2020
1512 Clear 13 1030 50 10000 1.5 340 13:31 02.01.2020
1513 Clear 13 1030 50 10000 2.1 360 12:46 02.01.2020
1514 Clear 13 1030 50 10000 2.1 360 12:28 02.01.2020
1515 Clear 12 1031 49 10000 2.1 20 11:59 02.01.2020
1516 Clear 11 1031 49 10000 2.1 20 11:40 02.01.2020
1517 Clear 10 1031 52 10000 2.6 10 11:20 02.01.2020
1518 Clear 9 1031 52 10000 2.1 10 10:45 02.01.2020
1519 Clear 8 1031 52 10000 2.1 10 10:26 02.01.2020
1520 Clear 8 1030 60 10000 2.1 30 09:52 02.01.2020
1521 Clear 8 1030 60 10000 2.1 30 09:33 02.01.2020
1522 Clear 6 1030 69 10000 1.5 30 08:48 02.01.2020
1523 Clear 5 1030 69 10000 1.5 30 08:27 02.01.2020
1524 Clear 4 1029 64 10000 1.5 90 07:54 02.01.2020
1525 Clear 4 1029 69 10000 1.5 70 07:31 02.01.2020
1526 Clear 4 1029 69 10000 1.5 90 06:55 02.01.2020
1527 Clear 4 1029 69 10000 1.5 90 06:55 02.01.2020
1528 Clear 4 1029 69 10000 3.1 60 06:36 02.01.2020
1529 Clear 4 1029 64 10000 1.5 40 05:36 02.01.2020
1530 Clear 4 1029 69 10000 0.5 0 04:33 02.01.2020
1531 Clear 4 1029 60 10000 2.6 50 02:55 02.01.2020
1532 Clear 4 1029 65 10000 3.1 60 02:20 02.01.2020
1533 Clear 4 1029 60 10000 1.5 50 01:46 02.01.2020
1534 Clear 5 1029 69 10000 1.5 10 01:19 02.01.2020
1535 Clear 4 1029 74 10000 2.1 320 00:34 02.01.2020
1536 Clear 4 1029 60 10000 2.6 30 23:58 01.01.2020
1537 Clear 5 1029 69 10000 1.5 350 23:40 01.01.2020
1538 Clear 5 1029 56 10000 2.1 50 23:19 01.01.2020
1539 Clear 5 1029 52 10000 2.6 60 22:38 01.01.2020
1540 Clear 5 1029 52 10000 2.6 60 22:38 01.01.2020
1541 Clear 5 1029 48 10000 2.6 40 22:20 01.01.2020
1542 Clear 5 1029 48 10000 2.6 40 22:20 01.01.2020
1543 Clear 5 1029 48 10000 2.6 40 22:20 01.01.2020
1544 Clear 5 1029 48 10000 2.6 40 21:56 01.01.2020
1545 Clear 5 1029 60 10000 1.5 50 21:38 01.01.2020
1546 Clear 6 1029 65 10000 1.5 50 21:19 01.01.2020
1547 Clear 6 1029 60 10000 2.1 70 20:56 01.01.2020
1548 Clear 6 1029 65 10000 1.5 50 20:56 01.01.2020
1549 Clear 6 1029 60 10000 2.1 70 20:38 01.01.2020
1550 Clear 7 1029 69 10000 1.5 70 20:19 01.01.2020
1551 Clear 7 1029 69 10000 1.5 70 19:55 01.01.2020
1552 Clear 7 1029 65 10000 1.5 60 19:37 01.01.2020
1553 Clear 7 1029 60 10000 0.5 0 19:19 01.01.2020
1554 Clear 7 1029 60 10000 0.5 0 18:55 01.01.2020
1555 Clear 8 1029 60 10000 1 0 18:36 01.01.2020
1556 Clear 8 1029 52 10000 1 0 18:18 01.01.2020
1557 Clear 8 1029 52 10000 1 0 17:56 01.01.2020
1558 Clear 9 1028 45 10000 1 10 17:38 01.01.2020
1559 Clear 10 1028 39 10000 1.5 10 17:18 01.01.2020
1560 Clear 11 1028 37 10000 1.5 40 16:41 01.01.2020
1561 Clear 12 1028 40 10000 1.5 340 16:22 01.01.2020
1562 Clear 12 1028 40 10000 1.5 340 15:58 01.01.2020
1563 Clear 13 1028 34 10000 2.1 20 15:40 01.01.2020
1564 Clear 13 1028 37 10000 1.5 320 15:21 01.01.2020
1565 Clear 13 1028 37 10000 1.5 320 14:58 01.01.2020
1566 Clear 13 1028 34 10000 1 0 14:40 01.01.2020
1567 Clear 13 1028 43 10000 2.1 330 14:21 01.01.2020
1568 Clear 13 1028 43 10000 2.1 330 13:56 01.01.2020
1569 Clear 12 1028 43 10000 1.5 320 13:37 01.01.2020
1570 Clear 12 1028 43 10000 1.5 320 13:37 01.01.2020
1571 Clear 12 1028 43 10000 1.5 320 13:37 01.01.2020
1572 Clear 12 1028 43 10000 1.5 320 13:37 01.01.2020
1573 Clear 12 1029 39 10000 1 0 13:18 01.01.2020
1574 Clear 12 1029 39 10000 1 0 12:55 01.01.2020
1575 Clear 12 1029 42 10000 1 0 12:37 01.01.2020
1576 Clear 12 1030 49 10000 2.1 30 12:18 01.01.2020
1577 Clear 11 1030 42 10000 1 0 11:43 01.01.2020
1578 Clear 9 1030 52 10000 2.1 20 11:22 01.01.2020
1579 Clear 9 1030 52 10000 2.1 20 10:59 01.01.2020
1580 Clear 9 1030 56 10000 2.6 20 10:40 01.01.2020
1581 Clear 6 1030 60 10000 2.1 10 10:20 01.01.2020
1582 Clear 6 1030 60 10000 2.1 10 10:20 01.01.2020
1583 Clear 6 1030 60 10000 2.1 10 09:57 01.01.2020
1584 Clear 7 1029 55 10000 1.5 20 09:37 01.01.2020
1585 Clear 6 1029 55 10000 2.6 30 09:18 01.01.2020
1586 Clear 6 1029 55 10000 2.6 30 09:18 01.01.2020
1587 Clear 5 1029 55 10000 2.6 30 08:55 01.01.2020
1588 Clear 4 1029 59 10000 2.6 30 08:36 01.01.2020
1589 Clear 4 1029 59 10000 2.6 30 08:36 01.01.2020
1590 Clear 4 1029 59 10000 2.6 30 08:36 01.01.2020
1591 Clear 4 1029 59 10000 2.6 30 08:36 01.01.2020
1592 Clouds 2 1028 64 10000 2.6 10 08:18 01.01.2020
1593 Clouds 2 1028 64 10000 1.5 50 07:48 01.01.2020
1594 Clouds 2 1028 64 10000 1.5 50 07:30 01.01.2020
1595 Clouds 2 1028 59 10000 1.5 70 06:44 01.01.2020
1596 Clouds 2 1028 59 10000 1.5 70 06:20 01.01.2020
1597 Clouds 2 1028 69 9000 2.1 20 05:21 01.01.2020
1598 Clouds 2 1028 74 7000 1.5 60 03:43 01.01.2020
1599 Clouds 2 1028 69 8000 1.5 330 03:22 01.01.2020
1600 Clouds 3 1028 69 9000 1 0 02:56 01.01.2020
1601 Clouds 3 1028 69 9000 1 0 02:33 01.01.2020
1602 Clouds 3 1029 69 8000 1.5 30 01:45 01.01.2020
1603 Clouds 3 1029 69 8000 1.5 30 01:25 01.01.2020
1604 Clouds 3 1029 69 8000 1 0 00:57 01.01.2020
1605 Clouds 3 1028 69 10000 1.5 70 00:38 01.01.2020
1606 Clouds 3 1029 69 10000 2.1 90 00:20 01.01.2020
1607 Clouds 3 1029 64 10000 1 0 23:40 31.12.2019
1608 Clouds 4 1029 60 10000 1.5 100 23:21 31.12.2019
1609 Clouds 4 1029 60 10000 1.5 100 22:57 31.12.2019
1610 Clouds 4 1029 64 10000 0.5 0 22:38 31.12.2019
1611 Clouds 4 1029 64 10000 1 80 22:18 31.12.2019
1612 Clouds 4 1029 64 10000 1 80 21:54 31.12.2019
1613 Clouds 4 1029 56 10000 1.5 0 21:36 31.12.2019
1614 Clouds 4 1029 56 10000 2.1 90 21:18 31.12.2019
1615 Clouds 4 1029 56 10000 2.6 90 20:40 31.12.2019
1616 Clear 4 1029 74 10000 2.1 120 20:22 31.12.2019
1617 Clear 4 1029 69 10000 2.6 90 19:59 31.12.2019
1618 Clear 4 1029 69 10000 2.6 90 19:40 31.12.2019
1619 Clear 5 1029 64 10000 1.5 80 19:22 31.12.2019
1620 Clear 5 1029 64 10000 1.5 80 19:22 31.12.2019
1621 Clear 5 1029 64 10000 1.5 80 18:58 31.12.2019
1622 Clear 5 1029 64 10000 1.5 100 18:40 31.12.2019
1623 Clear 6 1029 64 10000 1 350 18:20 31.12.2019
1624 Clear 7 1029 64 10000 1 350 17:56 31.12.2019
1625 Clear 7 1029 64 10000 1 300 17:38 31.12.2019
1626 Clear 8 1029 58 10000 2.1 280 17:19 31.12.2019
1627 Clear 9 1029 45 10000 1 0 16:57 31.12.2019
1628 Clear 9 1029 45 10000 1 0 16:38 31.12.2019
1629 Clear 9 1029 49 10000 2.1 350 16:19 31.12.2019
1630 Clear 10 1029 49 10000 2.1 350 15:56 31.12.2019
1631 Clear 10 1029 46 10000 2.1 330 15:38 31.12.2019
1632 Clear 10 1029 43 10000 2.1 330 15:20 31.12.2019
1633 Clear 11 1029 43 10000 2.1 330 14:58 31.12.2019
1634 Clear 11 1029 46 10000 2.6 340 14:38 31.12.2019
1635 Clear 11 1029 43 10000 2.6 10 14:19 31.12.2019
1636 Clear 11 1029 43 10000 2.6 10 14:19 31.12.2019
1637 Clear 11 1029 43 10000 2.6 10 13:57 31.12.2019
1638 Clear 11 1030 42 10000 2.6 360 13:39 31.12.2019
1639 Clear 10 1030 39 10000 2.1 10 13:20 31.12.2019
1640 Clear 10 1030 39 10000 2.1 10 12:56 31.12.2019
1641 Clear 10 1030 42 10000 2.1 340 12:38 31.12.2019
1642 Clear 9 1031 45 10000 1.5 340 12:19 31.12.2019
1643 Clear 9 1031 45 10000 1.5 340 11:56 31.12.2019
1644 Clear 9 1031 45 10000 1.5 340 11:56 31.12.2019
1645 Clear 9 1031 45 10000 1.5 340 11:56 31.12.2019
1646 Clear 9 1031 45 10000 1.5 340 11:56 31.12.2019
1647 Clear 9 1031 48 10000 1.5 20 11:38 31.12.2019
1648 Clear 6 1031 52 10000 3.1 20 11:19 31.12.2019
1649 Clear 6 1031 52 10000 3.1 20 10:57 31.12.2019
1650 Clear 6 1031 52 10000 3.1 20 10:57 31.12.2019
1651 Clear 6 1031 55 10000 3.6 20 10:38 31.12.2019
1652 Clear 4 1031 59 10000 3.6 20 10:20 31.12.2019
1653 Clear 5 1031 59 10000 3.6 20 09:58 31.12.2019
1654 Clear 4 1031 59 10000 3.1 30 09:39 31.12.2019
1655 Clear 3 1031 59 10000 2.6 30 09:20 31.12.2019
1656 Clear 2 1031 59 10000 2.6 30 08:57 31.12.2019
1657 Clear 2 1031 64 10000 3.1 40 08:37 31.12.2019
1658 Clear 1 1031 73 10000 2.6 30 08:18 31.12.2019
1659 Clear 1 1031 74 10000 2.6 20 07:41 31.12.2019
1660 Clear 1 1031 73 10000 1.5 10 07:19 31.12.2019
1661 Clear 1 1030 64 10000 1.5 350 06:48 31.12.2019
1662 Clear 1 1030 64 10000 2.6 40 05:54 31.12.2019
1663 Clear 1 1031 64 10000 3.6 40 04:27 31.12.2019
1664 Clear 2 1031 64 10000 2.6 30 03:27 31.12.2019
1665 Clear 2 1030 55 10000 1 50 02:43 31.12.2019
1666 Clear 2 1030 64 10000 1.5 60 01:53 31.12.2019
1667 Clear 2 1030 74 10000 1.5 0 01:34 31.12.2019
1668 Clear 2 1031 64 10000 1.5 50 00:56 31.12.2019
1669 Clear 2 1031 64 10000 1 0 00:38 31.12.2019
1670 Clear 2 1031 69 10000 1 0 00:18 31.12.2019
1671 Clear 2 1031 64 10000 1.5 70 23:56 30.12.2019
1672 Clear 3 1031 64 10000 1.5 70 23:37 30.12.2019
1673 Clear 3 1030 64 10000 1 0 23:19 30.12.2019
1674 Clear 3 1030 64 10000 1 0 22:56 30.12.2019
1675 Clear 3 1030 64 10000 1 0 22:56 30.12.2019
1676 Clear 3 1030 59 10000 3.1 60 22:37 30.12.2019
1677 Clear 4 1030 60 10000 3.6 40 22:18 30.12.2019
1678 Clear 4 1030 60 10000 3.6 40 21:55 30.12.2019
1679 Clear 4 1030 64 10000 1 0 21:37 30.12.2019
1680 Clear 4 1030 64 10000 2.6 90 21:18 30.12.2019
1681 Clear 4 1030 64 10000 2.6 90 20:55 30.12.2019
1682 Clear 4 1030 64 10000 2.6 90 20:55 30.12.2019
1683 Clear 4 1030 64 10000 2.6 90 20:55 30.12.2019
1684 Clear 4 1030 64 10000 1.5 0 20:37 30.12.2019
1685 Clear 5 1030 56 10000 1 0 20:18 30.12.2019
1686 Clear 5 1030 56 10000 1 0 19:55 30.12.2019
1687 Clear 6 1029 56 10000 1 0 19:36 30.12.2019
1688 Clear 6 1029 56 10000 4.1 360 19:18 30.12.2019
1689 Clear 6 1029 60 10000 2.6 360 18:42 30.12.2019
1690 Clear 7 1029 52 10000 2.1 30 18:21 30.12.2019
1691 Clear 7 1029 52 10000 2.1 30 17:59 30.12.2019
1692 Clear 7 1029 52 10000 2.1 30 17:59 30.12.2019
1693 Clear 7 1029 52 10000 2.6 10 17:41 30.12.2019
1694 Clear 8 1029 52 10000 3.1 20 17:20 30.12.2019
1695 Clear 8 1029 52 10000 3.1 20 17:00 30.12.2019
1696 Clear 8 1028 52 10000 3.1 10 16:40 30.12.2019
1697 Clear 9 1028 49 10000 4.6 340 16:20 30.12.2019
1698 Clear 10 1028 49 10000 4.6 340 15:57 30.12.2019
1699 Clear 10 1028 43 10000 4.1 360 15:39 30.12.2019
1700 Clear 10 1028 39 10000 5.7 360 15:19 30.12.2019
1701 Clear 10 1028 39 10000 5.7 360 14:55 30.12.2019
1702 Clear 10 1027 37 10000 6.2 20 14:37 30.12.2019
1703 Clear 10 1028 34 10000 5.1 30 14:18 30.12.2019
1704 Clear 10 1028 34 10000 5.7 30 13:42 30.12.2019
1705 Clear 9 1028 39 10000 5.7 10 13:24 30.12.2019
1706 Clear 9 1028 39 10000 5.7 10 12:58 30.12.2019
1707 Clear 9 1028 39 10000 5.1 30 12:40 30.12.2019
1708 Clear 9 1029 42 10000 5.7 30 12:19 30.12.2019
1709 Clear 9 1029 42 10000 5.7 30 11:56 30.12.2019
1710 Clear 8 1029 45 10000 5.1 30 11:37 30.12.2019
1711 Clear 7 1029 39 10000 6.2 30 11:18 30.12.2019
1712 Clear 7 1029 52 10000 4.1 40 10:42 30.12.2019
1713 Clear 5 1029 55 10000 5.1 30 10:20 30.12.2019
1714 Clear 5 1029 55 10000 4.6 40 09:44 30.12.2019
1715 Clear 4 1029 59 10000 3.6 50 09:22 30.12.2019
1716 Clear 3 1029 59 10000 3.6 50 08:58 30.12.2019
1717 Clear 3 1029 59 10000 4.1 40 08:39 30.12.2019
1718 Clear 2 1029 59 10000 4.1 50 08:21 30.12.2019
1719 Clear 1 1028 55 10000 4.6 40 07:49 30.12.2019
1720 Clear 1 1028 55 10000 4.6 40 07:25 30.12.2019
1721 Clear 2 1028 51 10000 5.7 30 06:39 30.12.2019
1722 Clear 2 1028 51 10000 5.1 30 04:32 30.12.2019
1723 Clear 2 1028 55 10000 4.6 30 03:52 30.12.2019
1724 Clear 2 1029 59 10000 2.6 60 02:47 30.12.2019
1725 Clear 2 1029 59 10000 2.6 60 02:29 30.12.2019
1726 Clear 3 1028 51 10000 3.1 0 01:43 30.12.2019
1727 Clear 3 1028 55 10000 1.5 10 01:19 30.12.2019
1728 Clear 3 1028 59 10000 4.1 10 00:42 30.12.2019
1729 Clear 3 1028 59 10000 3.1 60 23:58 29.12.2019
1730 Clear 3 1029 64 10000 1 0 23:38 29.12.2019
1731 Clear 3 1028 59 10000 2.6 30 23:19 29.12.2019
1732 Clear 3 1029 55 10000 2.6 30 22:41 29.12.2019
1733 Clear 3 1029 51 10000 2.1 360 22:22 29.12.2019
1734 Clear 3 1029 51 10000 2.1 360 21:56 29.12.2019
1735 Clear 3 1028 48 10000 3.1 40 21:38 29.12.2019
1736 Clear 3 1028 51 10000 3.6 40 21:19 29.12.2019
1737 Clear 3 1028 51 10000 3.6 40 20:56 29.12.2019
1738 Clear 3 1028 51 10000 4.1 40 20:38 29.12.2019
1739 Clear 4 1027 51 10000 4.1 20 20:18 29.12.2019
1740 Clear 4 1027 48 10000 1.5 60 19:56 29.12.2019
1741 Clear 4 1027 48 10000 1.5 60 19:38 29.12.2019
1742 Clear 4 1027 48 10000 2.6 10 19:19 29.12.2019
1743 Clear 4 1027 48 10000 2.6 10 18:55 29.12.2019
1744 Clear 4 1026 45 10000 2.1 20 18:37 29.12.2019
1745 Clear 5 1026 45 10000 3.1 10 18:18 29.12.2019
1746 Clear 5 1026 42 10000 6.2 360 17:56 29.12.2019
1747 Clear 6 1026 42 10000 6.2 360 17:38 29.12.2019
1748 Clear 7 1026 45 10000 4.1 350 17:19 29.12.2019
1749 Clear 7 1025 42 10000 5.7 350 16:56 29.12.2019
1750 Clear 8 1025 42 10000 5.7 350 16:36 29.12.2019
1751 Clear 8 1025 36 10000 6.2 360 16:18 29.12.2019
1752 Clear 9 1025 34 10000 5.7 350 15:56 29.12.2019
1753 Clear 9 1025 34 10000 5.7 350 15:56 29.12.2019
1754 Clear 9 1025 34 10000 5.7 350 15:38 29.12.2019
1755 Clear 9 1026 34 10000 5.1 340 15:18 29.12.2019
1756 Clear 9 1026 34 10000 4.6 350 14:55 29.12.2019
1757 Clear 9 1026 34 10000 4.6 350 14:37 29.12.2019
1758 Clouds 9 1026 37 10000 5.7 360 14:18 29.12.2019
1759 Clouds 9 1026 37 10000 5.7 360 13:55 29.12.2019
1760 Clouds 9 1026 34 10000 5.7 360 13:37 29.12.2019
1761 Clear 9 1027 36 10000 5.1 360 13:18 29.12.2019
1762 Clear 9 1027 39 10000 3.6 20 12:41 29.12.2019
1763 Clear 8 1028 39 10000 1 0 12:23 29.12.2019
1764 Clear 8 1029 45 10000 2.1 360 11:55 29.12.2019
1765 Clear 8 1029 45 10000 2.1 360 11:37 29.12.2019
1766 Clear 6 1029 45 10000 4.1 350 11:19 29.12.2019
1767 Clear 6 1029 48 10000 3.1 10 10:41 29.12.2019
1768 Clear 6 1029 51 10000 3.6 10 10:21 29.12.2019
1769 Clear 5 1029 51 10000 3.6 10 09:54 29.12.2019
1770 Clear 5 1029 51 10000 4.1 10 09:36 29.12.2019
1771 Clear 4 1029 55 10000 1.5 280 09:18 29.12.2019
1772 Clear 3 1029 51 10000 1.5 320 08:46 29.12.2019
1773 Clouds 2 1029 51 10000 1.5 320 08:24 29.12.2019
1774 Clear 2 1028 44 10000 4.6 40 07:54 29.12.2019
1775 Clear 2 1028 51 10000 4.1 40 07:28 29.12.2019
1776 Clear 2 1028 51 10000 3.1 360 06:53 29.12.2019
1777 Clear 2 1028 51 10000 3.1 20 06:23 29.12.2019
1778 Clear 2 1028 55 10000 3.6 20 05:50 29.12.2019
1779 Clear 3 1028 51 10000 3.1 40 04:35 29.12.2019
1780 Clear 3 1029 59 10000 2.1 360 03:40 29.12.2019
1781 Clear 3 1029 64 10000 2.6 340 03:19 29.12.2019
1782 Clear 4 1029 55 10000 3.1 30 02:20 29.12.2019
1783 Clear 4 1029 55 10000 2.6 40 01:31 29.12.2019
1784 Clear 4 1029 55 10000 2.6 40 01:31 29.12.2019
1785 Clear 4 1029 55 10000 2.6 40 01:31 29.12.2019
1786 Clear 3 1029 55 10000 3.6 10 00:55 29.12.2019
1787 Clear 3 1029 55 10000 1 30 00:36 29.12.2019
1788 Clear 3 1029 59 10000 1.5 260 00:18 29.12.2019
1789 Clear 4 1029 51 10000 2.6 40 23:41 28.12.2019
1790 Clear 4 1029 51 10000 3.1 30 23:18 28.12.2019
1791 Clear 4 1029 59 10000 1.5 150 22:39 28.12.2019
1792 Clear 4 1029 51 10000 1.5 140 22:20 28.12.2019
1793 Clear 4 1029 51 10000 1.5 140 21:57 28.12.2019
1794 Clear 4 1028 51 10000 1 0 21:38 28.12.2019
1795 Clear 4 1028 48 10000 1.5 0 21:20 28.12.2019
1796 Clear 4 1028 48 10000 1.5 0 20:55 28.12.2019
1797 Clear 4 1028 45 10000 6.2 360 20:37 28.12.2019
1798 Clear 5 1028 45 10000 5.7 350 20:18 28.12.2019
1799 Clear 5 1028 45 10000 5.7 350 19:55 28.12.2019
1800 Clear 5 1027 48 10000 6.2 340 19:36 28.12.2019
1801 Clear 5 1027 45 10000 4.6 340 19:18 28.12.2019
1802 Clear 6 1027 42 10000 6.7 360 18:55 28.12.2019
1803 Clear 6 1027 42 10000 6.7 360 18:37 28.12.2019
1804 Clear 7 1027 42 10000 4.6 10 18:18 28.12.2019
1805 Clear 7 1027 39 10000 4.6 20 17:42 28.12.2019
1806 Clouds 8 1026 31 10000 8.2 10 17:21 28.12.2019
1807 Clouds 8 1026 31 10000 8.7 10 16:55 28.12.2019
1808 Clouds 9 1026 31 10000 8.7 10 16:37 28.12.2019
1809 Clouds 9 1025 29 10000 8.2 10 16:19 28.12.2019
1810 Clouds 10 1026 29 10000 7.7 10 15:43 28.12.2019
1811 Clouds 10 1025 27 10000 8.7 10 15:21 28.12.2019
1812 Clouds 11 1025 29 10000 8.7 360 14:48 28.12.2019
1813 Clouds 11 1025 29 10000 8.7 360 14:26 28.12.2019
1814 Clouds 11 1025 29 10000 8.2 10 13:58 28.12.2019
1815 Clouds 11 1026 34 10000 6.7 10 13:40 28.12.2019
1816 Clouds 11 1026 43 10000 7.2 10 13:20 28.12.2019
1817 Clouds 11 1026 43 10000 7.2 10 12:57 28.12.2019
1818 Clear 11 1026 37 10000 6.7 360 12:39 28.12.2019
1819 Clear 11 1026 37 10000 6.2 30 12:20 28.12.2019
1820 Clear 11 1026 43 10000 5.1 50 11:40 28.12.2019
1821 Clear 10 1026 61 10000 4.6 340 11:21 28.12.2019
1822 Clear 10 1026 61 10000 4.6 340 11:21 28.12.2019
1823 Clear 9 1026 61 10000 4.6 340 10:56 28.12.2019
1824 Clear 9 1026 65 10000 4.1 340 10:37 28.12.2019
1825 Clear 8 1026 70 10000 3.6 340 10:18 28.12.2019
1826 Clear 8 1025 65 10000 3.1 30 09:45 28.12.2019
1827 Clear 7 1025 65 10000 3.1 30 09:24 28.12.2019
1828 Clear 7 1025 80 10000 1 0 08:58 28.12.2019
1829 Clear 6 1025 86 10000 1.5 50 08:39 28.12.2019
1830 Clear 6 1025 80 10000 2.1 30 08:20 28.12.2019
1831 Clear 5 1024 80 10000 3.6 350 07:43 28.12.2019
1832 Clear 6 1024 86 10000 3.1 30 06:59 28.12.2019
1833 Clear 5 1023 93 10000 3.1 40 05:43 28.12.2019
1834 Clear 6 1023 86 10000 3.6 30 03:48 28.12.2019
1835 Clear 6 1023 87 10000 3.6 40 02:50 28.12.2019
1836 Clear 6 1022 87 10000 3.1 40 02:20 28.12.2019
1837 Clear 6 1022 87 10000 3.1 40 01:53 28.12.2019
1838 Clear 6 1022 87 10000 2.1 40 01:22 28.12.2019
1839 Clear 6 1022 93 10000 1 0 00:44 28.12.2019
1840 Clear 6 1022 93 10000 1 0 00:26 28.12.2019
1841 Clear 6 1022 87 10000 0.5 30 23:56 27.12.2019
1842 Clear 7 1022 87 10000 1 60 23:36 27.12.2019
1843 Clear 6 1022 87 10000 1 0 23:18 27.12.2019
1844 Clear 7 1022 87 10000 1.5 70 22:55 27.12.2019
1845 Clear 7 1022 87 10000 1.5 70 22:37 27.12.2019
1846 Clear 6 1022 87 10000 2.1 90 22:19 27.12.2019
1847 Clear 7 1021 87 10000 2.6 100 21:41 27.12.2019
1848 Clear 7 1021 87 10000 2.6 100 21:23 27.12.2019
1849 Clear 7 1021 81 10000 2.6 110 20:44 27.12.2019
1850 Clouds 8 1021 81 10000 2.6 110 20:26 27.12.2019
1851 Clouds 8 1021 81 10000 2.6 110 19:57 27.12.2019
1852 Clouds 8 1021 81 10000 2.1 110 19:38 27.12.2019
1853 Clouds 9 1021 87 10000 2.1 110 19:19 27.12.2019
1854 Clouds 9 1021 87 10000 2.1 110 18:55 27.12.2019
1855 Clouds 9 1021 87 10000 2.1 110 18:36 27.12.2019
1856 Clouds 10 1020 81 10000 2.1 110 18:18 27.12.2019
1857 Clouds 10 1020 81 10000 1 0 17:42 27.12.2019
1858 Clouds 11 1020 76 10000 1 320 17:20 27.12.2019
1859 Clouds 11 1020 76 10000 1 320 16:59 27.12.2019
1860 Clouds 12 1020 66 10000 1 290 16:41 27.12.2019
1861 Clouds 12 1020 66 10000 1 290 16:41 27.12.2019
1862 Clouds 12 1020 66 10000 1 0 16:22 27.12.2019
1863 Clouds 13 1020 66 10000 1 0 15:57 27.12.2019
1864 Clouds 13 1020 62 10000 0.5 0 15:37 27.12.2019
1865 Clouds 13 1020 62 10000 0.5 0 15:37 27.12.2019
1866 Clouds 13 1020 62 10000 1 0 15:18 27.12.2019
1867 Clouds 13 1020 62 10000 1 0 14:55 27.12.2019
1868 Clouds 13 1020 66 10000 1 0 14:37 27.12.2019
1869 Clouds 13 1020 66 10000 1.5 30 14:19 27.12.2019
1870 Clouds 13 1020 66 10000 1.5 10 13:44 27.12.2019
1871 Clouds 13 1020 66 10000 1.5 10 13:22 27.12.2019
1872 Clouds 13 1021 66 10000 1.5 10 12:48 27.12.2019
1873 Clouds 12 1021 66 10000 1.5 10 12:29 27.12.2019
1874 Clouds 12 1021 71 10000 2.1 10 11:59 27.12.2019
1875 Clouds 12 1021 71 10000 1.5 20 11:41 27.12.2019
1876 Clouds 10 1022 76 10000 1 0 11:20 27.12.2019
1877 Clouds 10 1022 76 10000 1 0 11:20 27.12.2019
1878 Clouds 10 1022 76 10000 1 0 11:20 27.12.2019
1879 Clouds 10 1022 81 10000 2.1 340 10:46 27.12.2019
1880 Clouds 10 1022 81 10000 2.1 340 10:24 27.12.2019
1881 Clouds 8 1022 81 10000 1.5 350 09:55 27.12.2019
1882 Clouds 8 1022 81 10000 1 0 09:37 27.12.2019
1883 Clouds 7 1021 87 10000 1 0 09:19 27.12.2019
1884 Clouds 7 1021 87 10000 1 0 09:19 27.12.2019
1885 Clouds 6 1021 86 10000 1 40 08:43 27.12.2019
1886 Clouds 6 1021 86 10000 1 40 08:25 27.12.2019
1887 Clouds 6 1021 86 10000 1 0 07:38 27.12.2019
1888 Clouds 6 1021 86 10000 1 10 07:19 27.12.2019
1889 Clouds 6 1021 86 10000 1 0 06:25 27.12.2019
1890 Clouds 6 1021 76 10000 2.6 100 04:39 27.12.2019
1891 Clouds 6 1022 81 10000 2.6 110 02:29 27.12.2019
1892 Clouds 6 1022 81 10000 3.1 100 01:45 27.12.2019
1893 Clouds 6 1022 75 10000 3.1 100 01:23 27.12.2019
1894 Clouds 7 1022 81 10000 2.6 100 00:47 27.12.2019
1895 Clouds 7 1022 81 10000 2.6 100 00:27 27.12.2019
1896 Clouds 7 1022 81 10000 2.6 100 23:56 26.12.2019
1897 Clouds 7 1022 81 10000 2.6 100 23:38 26.12.2019
1898 Clouds 7 1022 81 10000 2.6 110 23:19 26.12.2019
1899 Clouds 8 1022 81 10000 2.1 100 22:40 26.12.2019
1900 Clouds 8 1022 81 10000 2.6 100 22:18 26.12.2019
1901 Clouds 8 1022 81 10000 2.6 100 21:40 26.12.2019
1902 Clouds 8 1022 81 10000 2.6 100 21:21 26.12.2019
1903 Clouds 8 1022 81 10000 2.6 100 20:58 26.12.2019
1904 Clouds 8 1022 81 10000 2.6 100 20:39 26.12.2019
1905 Clouds 8 1022 81 10000 2.6 100 20:39 26.12.2019
1906 Clear 8 1022 81 10000 2.6 110 20:21 26.12.2019
1907 Clear 8 1022 81 10000 2.6 100 19:56 26.12.2019
1908 Clear 8 1022 81 10000 2.6 100 19:38 26.12.2019
1909 Clear 9 1022 81 10000 2.6 100 19:19 26.12.2019
1910 Clear 9 1022 81 10000 2.6 100 18:57 26.12.2019
1911 Clear 9 1022 81 10000 2.1 110 18:36 26.12.2019
1912 Clear 9 1022 81 10000 2.1 140 18:18 26.12.2019
1913 Clear 10 1022 76 10000 0.5 0 17:41 26.12.2019
1914 Clear 10 1022 76 10000 0.5 0 17:41 26.12.2019
1915 Clear 11 1021 66 10000 1 0 17:21 26.12.2019
1916 Clear 12 1021 62 10000 1.5 0 16:50 26.12.2019
1917 Clear 13 1021 62 10000 1.5 0 16:27 26.12.2019
1918 Clear 13 1021 62 10000 1.5 30 15:58 26.12.2019
1919 Clear 14 1021 62 10000 1 0 15:39 26.12.2019
1920 Clear 14 1021 62 10000 1 0 15:19 26.12.2019
1921 Clear 14 1020 66 10000 1.5 360 14:41 26.12.2019
1922 Clear 14 1020 66 10000 1.5 360 14:23 26.12.2019
1923 Clear 14 1021 66 10000 2.1 320 13:57 26.12.2019
1924 Clear 14 1021 66 10000 1.5 350 13:39 26.12.2019
1925 Clear 14 1021 66 10000 1.5 350 13:39 26.12.2019
1926 Clear 14 1021 66 10000 2.1 20 13:18 26.12.2019
1927 Clear 14 1021 71 10000 1.5 350 12:45 26.12.2019
1928 Clear 13 1021 62 10000 1.5 320 12:26 26.12.2019
1929 Clear 13 1021 62 10000 1.5 320 11:59 26.12.2019
1930 Clear 13 1021 66 10000 1.5 350 11:40 26.12.2019
1931 Clear 11 1021 71 10000 1.5 340 11:22 26.12.2019
1932 Clear 11 1021 75 10000 1 320 10:50 26.12.2019
1933 Clear 10 1021 75 10000 1 320 10:27 26.12.2019
1934 Clear 9 1021 75 10000 0.5 0 09:55 26.12.2019
1935 Clear 9 1020 75 10000 1.5 20 09:36 26.12.2019
1936 Clear 8 1020 75 10000 1.5 70 09:18 26.12.2019
1937 Clear 7 1019 86 10000 1 0 08:39 26.12.2019
1938 Clear 5 1019 80 10000 1.5 60 08:21 26.12.2019
1939 Clear 5 1019 64 10000 0.5 0 07:41 26.12.2019
1940 Clear 5 1018 86 10000 1.5 110 07:19 26.12.2019
1941 Clear 5 1018 64 10000 2.1 50 06:38 26.12.2019
1942 Clear 5 1018 86 10000 3.1 360 06:20 26.12.2019
1943 Clear 5 1017 64 10000 0.5 0 05:42 26.12.2019
1944 Clear 5 1017 81 10000 1.5 90 04:33 26.12.2019
1945 Clear 6 1017 75 10000 0.5 0 03:31 26.12.2019
1946 Clear 7 1016 70 10000 3.1 50 02:46 26.12.2019
1947 Clear 7 1016 70 10000 3.1 50 02:27 26.12.2019
1948 Clouds 7 1016 75 10000 1 100 01:44 26.12.2019
1949 Clouds 6 1016 75 10000 1 100 01:25 26.12.2019
1950 Clouds 6 1016 75 10000 2.1 70 00:44 26.12.2019
1951 Clouds 6 1016 75 10000 2.1 70 00:23 26.12.2019
1952 Clouds 6 1016 75 10000 2.1 70 00:23 26.12.2019
1953 Clouds 7 1016 81 10000 1.5 80 23:57 25.12.2019
1954 Clouds 7 1016 93 10000 0.5 0 23:37 25.12.2019
1955 Clouds 7 1016 93 10000 1.5 50 23:18 25.12.2019
1956 Clouds 7 1016 93 10000 1.5 50 22:56 25.12.2019
1957 Clouds 8 1016 81 10000 1.5 50 22:37 25.12.2019
1958 Clouds 7 1016 87 10000 1.5 60 22:18 25.12.2019
1959 Clouds 8 1016 76 10000 2.1 50 21:55 25.12.2019
1960 Clouds 8 1016 76 10000 2.1 50 21:37 25.12.2019
1961 Clouds 8 1015 76 10000 3.1 70 21:18 25.12.2019
1962 Clouds 8 1015 76 10000 3.6 70 20:40 25.12.2019
1963 Clear 8 1015 70 10000 3.1 80 20:20 25.12.2019
1964 Clear 9 1015 70 10000 3.1 80 19:59 25.12.2019
1965 Clear 8 1015 70 10000 2.1 90 19:40 25.12.2019
1966 Clear 9 1015 75 10000 2.1 100 19:21 25.12.2019
1967 Clear 9 1015 76 10000 2.1 90 18:39 25.12.2019
1968 Clear 10 1015 87 10000 2.1 100 18:20 25.12.2019
1969 Clear 10 1015 87 10000 2.1 100 18:20 25.12.2019
1970 Clear 10 1015 87 10000 2.1 100 17:57 25.12.2019
1971 Clear 11 1015 76 10000 0.5 0 17:39 25.12.2019
1972 Clear 12 1015 76 10000 0.5 0 17:18 25.12.2019
1973 Clear 13 1015 71 10000 1 0 16:39 25.12.2019
1974 Clear 14 1015 67 10000 0.5 0 16:20 25.12.2019
1975 Clear 14 1015 67 10000 0.5 0 15:58 25.12.2019
1976 Clear 15 1015 62 10000 0.5 0 15:40 25.12.2019
1977 Clear 15 1015 62 10000 0.5 0 15:21 25.12.2019
1978 Clear 15 1015 62 10000 0.5 0 14:59 25.12.2019
1979 Clear 15 1015 67 10000 1.5 20 14:40 25.12.2019
1980 Clouds 14 1015 62 10000 1.5 10 14:22 25.12.2019
1981 Clouds 14 1015 62 10000 1.5 10 13:57 25.12.2019
1982 Clouds 14 1015 62 10000 1.5 10 13:57 25.12.2019
1983 Clouds 14 1015 66 10000 2.1 30 13:39 25.12.2019
1984 Clouds 14 1016 66 10000 2.1 350 13:19 25.12.2019
1985 Clouds 14 1016 66 10000 2.1 340 12:43 25.12.2019
1986 Clouds 14 1016 71 10000 1.5 30 12:21 25.12.2019
1987 Clouds 14 1016 71 10000 1.5 30 12:21 25.12.2019
1988 Clouds 13 1016 71 10000 1.5 30 11:57 25.12.2019
1989 Clouds 13 1016 71 10000 2.1 10 11:39 25.12.2019
1990 Clouds 12 1016 66 10000 2.6 20 11:19 25.12.2019
1991 Clouds 11 1017 71 10000 2.6 20 10:39 25.12.2019
1992 Clouds 11 1016 71 10000 2.1 40 10:21 25.12.2019
1993 Clouds 10 1016 71 10000 2.1 40 09:51 25.12.2019
1994 Clouds 10 1016 71 10000 2.1 40 09:33 25.12.2019
1995 Clouds 8 1016 75 10000 0.5 0 08:51 25.12.2019
1996 Clouds 7 1016 75 10000 0.5 0 08:31 25.12.2019
1997 Clear 7 1015 75 10000 2.6 10 07:53 25.12.2019
1998 Clear 7 1015 75 10000 2.6 10 07:34 25.12.2019
1999 Clear 7 1015 75 10000 2.6 30 06:58 25.12.2019
2000 Clear 7 1015 70 10000 2.6 40 06:23 25.12.2019
2001 Clear 7 1015 80 10000 1.5 10 05:43 25.12.2019
2002 Clear 7 1015 93 10000 1.5 60 04:39 25.12.2019
2003 Clear 7 1015 75 10000 2.1 350 04:20 25.12.2019
2004 Clear 7 1015 75 10000 2.1 350 04:20 25.12.2019
2005 Clouds 8 1015 87 10000 1 90 03:43 25.12.2019
2006 Clear 8 1015 66 10000 3.1 50 02:57 25.12.2019
2007 Clear 8 1015 70 10000 3.1 50 02:28 25.12.2019
2008 Clouds 7 1015 80 10000 2.1 50 01:26 25.12.2019
2009 Clouds 7 1015 75 10000 1.5 40 00:56 25.12.2019
2010 Clouds 7 1015 75 10000 1.5 40 00:33 25.12.2019
2011 Clouds 7 1016 70 10000 2.6 70 23:59 24.12.2019
2012 Clouds 7 1016 65 10000 1 0 23:39 24.12.2019
2013 Clouds 7 1016 65 10000 2.6 80 23:20 24.12.2019
2014 Clouds 7 1016 70 10000 2.6 80 22:41 24.12.2019
2015 Clouds 7 1016 70 10000 2.6 100 22:23 24.12.2019
2016 Clouds 7 1016 65 10000 3.1 80 21:55 24.12.2019
2017 Clouds 7 1016 65 10000 3.1 80 21:36 24.12.2019
2018 Clouds 8 1016 70 10000 3.1 90 21:18 24.12.2019
2019 Clouds 8 1017 75 10000 2.6 100 20:41 24.12.2019
2020 Clouds 8 1017 70 10000 2.1 100 20:19 24.12.2019
2021 Clouds 8 1017 70 10000 2.1 100 19:46 24.12.2019
2022 Clouds 9 1017 75 10000 2.1 100 19:22 24.12.2019
2023 Clouds 9 1017 75 10000 2.1 100 18:58 24.12.2019
2024 Clouds 9 1017 75 10000 2.1 120 18:40 24.12.2019
2025 Clouds 10 1017 70 10000 1.5 170 18:18 24.12.2019
2026 Clouds 10 1017 70 10000 2.1 120 17:42 24.12.2019
2027 Clouds 11 1017 58 10000 0.5 0 17:21 24.12.2019
2028 Clouds 12 1017 58 10000 0.5 0 16:58 24.12.2019
2029 Clouds 12 1017 58 10000 0.5 0 16:58 24.12.2019
2030 Clouds 12 1017 58 10000 1 0 16:39 24.12.2019
2031 Clouds 13 1017 62 10000 2.1 60 16:20 24.12.2019
2032 Clouds 13 1017 54 10000 2.6 30 15:56 24.12.2019
2033 Clouds 14 1017 54 10000 2.6 30 15:36 24.12.2019
2034 Clouds 14 1017 54 10000 1.5 320 15:18 24.12.2019
2035 Clouds 14 1017 54 10000 1.5 320 14:57 24.12.2019
2036 Clouds 14 1017 54 10000 1.5 320 14:57 24.12.2019
2037 Clouds 14 1017 58 10000 3.1 340 14:38 24.12.2019
2038 Clouds 14 1017 54 10000 2.1 360 14:20 24.12.2019
2039 Clouds 14 1017 54 10000 2.1 360 13:55 24.12.2019
2040 Clouds 14 1018 54 10000 1.5 0 13:37 24.12.2019
2041 Clear 13 1018 62 10000 2.1 10 13:19 24.12.2019
2042 Clear 13 1018 62 10000 2.1 10 12:55 24.12.2019
2043 Clear 13 1018 57 10000 2.1 10 12:36 24.12.2019
2044 Clear 12 1019 57 10000 2.6 20 12:18 24.12.2019
2045 Clear 12 1019 57 10000 2.6 20 11:55 24.12.2019
2046 Clear 12 1019 61 10000 3.1 30 11:37 24.12.2019
2047 Clear 10 1019 66 10000 2.1 50 11:18 24.12.2019
2048 Clear 10 1019 66 10000 2.1 50 10:56 24.12.2019
2049 Clear 10 1019 70 10000 2.6 40 10:37 24.12.2019
2050 Clear 8 1019 81 10000 1 0 10:19 24.12.2019
2051 Clear 8 1019 81 10000 1 0 09:54 24.12.2019
2052 Clear 8 1018 86 10000 2.6 30 09:36 24.12.2019
2053 Clear 8 1018 86 10000 2.1 10 09:18 24.12.2019
2054 Clear 6 1017 81 10000 1 0 08:44 24.12.2019
2055 Clear 6 1017 81 10000 2.6 50 08:20 24.12.2019
2056 Clear 6 1017 81 10000 2.6 50 07:45 24.12.2019
2057 Clear 5 1017 81 10000 2.6 50 07:25 24.12.2019
2058 Clear 6 1017 86 10000 2.1 40 06:57 24.12.2019
2059 Clear 6 1016 86 10000 2.1 70 06:38 24.12.2019
2060 Clear 6 1016 93 10000 1.5 50 06:18 24.12.2019
2061 Clear 6 1015 86 10000 1.5 30 05:20 24.12.2019
2062 Clear 6 1015 86 10000 1 10 04:44 24.12.2019
2063 Clear 7 1015 81 10000 1.5 60 03:50 24.12.2019
2064 Clear 7 1015 81 10000 1 0 02:59 24.12.2019
2065 Clear 8 1014 87 10000 2.6 90 02:21 24.12.2019
2066 Clear 8 1014 87 10000 2.1 90 01:42 24.12.2019
2067 Clear 8 1014 87 10000 1 0 01:20 24.12.2019
2068 Clear 8 1014 87 10000 2.6 90 00:43 24.12.2019
2069 Clear 8 1014 87 10000 2.6 90 00:23 24.12.2019
2070 Clear 8 1013 87 10000 1.5 100 23:56 23.12.2019
2071 Clear 9 1013 87 10000 1.5 100 23:37 23.12.2019
2072 Clear 9 1013 87 10000 1.5 100 23:19 23.12.2019
2073 Clear 9 1012 87 10000 0.5 0 22:55 23.12.2019
2074 Clear 9 1013 87 10000 1.5 100 22:55 23.12.2019
2075 Clear 9 1012 87 10000 0.5 0 22:36 23.12.2019
2076 Clear 9 1012 87 10000 0.5 0 22:36 23.12.2019
2077 Clear 9 1012 87 10000 0.5 0 22:36 23.12.2019
2078 Clear 10 1012 87 10000 0.5 0 22:18 23.12.2019
2079 Clear 9 1012 87 10000 1.5 130 21:55 23.12.2019
2080 Clear 10 1012 87 10000 1.5 130 21:36 23.12.2019
2081 Clear 10 1011 76 10000 1.5 140 21:18 23.12.2019
2082 Clear 10 1011 76 10000 1.5 140 20:56 23.12.2019
2083 Clear 10 1011 71 10000 1.5 10 20:38 23.12.2019
2084 Clear 11 1011 71 10000 2.1 30 20:18 23.12.2019
2085 Clear 11 1011 71 10000 2.1 30 19:54 23.12.2019
2086 Clear 11 1010 71 10000 3.1 310 19:36 23.12.2019
2087 Clear 11 1010 66 10000 3.6 300 19:18 23.12.2019
2088 Clear 12 1010 66 10000 3.6 300 18:55 23.12.2019
2089 Clear 12 1009 66 10000 3.6 300 18:36 23.12.2019
2090 Clear 12 1009 62 10000 3.1 290 18:18 23.12.2019
2091 Clear 12 1008 66 10000 3.6 300 17:55 23.12.2019
2092 Clear 13 1008 66 10000 3.6 300 17:37 23.12.2019
2093 Clear 13 1008 66 10000 5.1 280 17:18 23.12.2019
2094 Clear 14 1007 62 10000 3.6 270 16:42 23.12.2019
2095 Clear 14 1007 51 10000 3.6 290 16:19 23.12.2019
2096 Clear 14 1007 51 10000 3.6 290 15:58 23.12.2019
2097 Clouds 15 1006 51 10000 4.6 300 15:38 23.12.2019
2098 Clouds 15 1006 47 10000 5.7 310 15:19 23.12.2019
2099 Clouds 15 1006 47 10000 5.7 310 14:58 23.12.2019
2100 Clouds 15 1006 58 10000 5.1 340 14:39 23.12.2019
2101 Clouds 15 1006 58 10000 7.2 330 14:21 23.12.2019
2102 Clouds 15 1006 58 10000 7.2 330 13:58 23.12.2019
2103 Clouds 15 1006 58 10000 4.6 320 13:40 23.12.2019
2104 Clouds 15 1006 54 10000 6.2 320 13:21 23.12.2019
2105 Clouds 14 1006 62 10000 4.6 330 12:55 23.12.2019
2106 Clouds 15 1006 62 10000 4.6 330 12:37 23.12.2019
2107 Clouds 14 1006 62 10000 4.1 310 12:19 23.12.2019
2108 Clouds 13 1006 66 10000 2.6 340 11:44 23.12.2019
2109 Clouds 13 1006 66 10000 2.6 340 11:25 23.12.2019
2110 Clouds 12 1006 76 10000 2.1 330 10:57 23.12.2019
2111 Clouds 12 1005 76 10000 2.1 310 10:39 23.12.2019
2112 Clouds 12 1005 81 10000 1.5 280 10:20 23.12.2019
2113 Clouds 11 1005 81 10000 1.5 280 10:20 23.12.2019
2114 Clouds 11 1005 81 10000 1.5 280 09:59 23.12.2019
2115 Clouds 11 1004 81 10000 1 0 09:39 23.12.2019
2116 Clouds 10 1003 87 10000 1 0 09:20 23.12.2019
2117 Clouds 10 1003 87 10000 1.5 70 08:55 23.12.2019
2118 Clouds 9 1003 87 10000 1.5 70 08:37 23.12.2019
2119 Clouds 9 1002 81 10000 2.1 60 08:19 23.12.2019
2120 Clouds 9 1002 81 10000 1 0 07:43 23.12.2019
2121 Clouds 10 1001 93 10000 1 0 07:20 23.12.2019
2122 Clouds 10 1000 87 10000 1 0 06:51 23.12.2019
2123 Rain 9 1000 87 8000 1 0 06:24 23.12.2019
2124 Rain 10 999 87 10000 1.5 0 05:49 23.12.2019
2125 Clouds 10 999 87 10000 1 0 05:26 23.12.2019
2126 Rain 10 999 87 10000 2.6 160 04:27 23.12.2019
2127 Clouds 11 999 81 10000 1.5 200 02:56 23.12.2019
2128 Clouds 11 999 81 10000 1.5 200 02:32 23.12.2019
2129 Clouds 11 999 71 10000 2.6 110 01:56 23.12.2019
2130 Clouds 11 999 62 10000 1.5 230 01:38 23.12.2019
2131 Clouds 12 1000 66 10000 1.5 0 01:19 23.12.2019
2132 Clouds 12 999 58 10000 3.1 350 00:41 23.12.2019
2133 Clouds 12 1000 66 10000 1 0 00:19 23.12.2019
2134 Clouds 12 1000 66 10000 2.1 280 23:39 22.12.2019
2135 Clouds 12 1000 66 10000 1 0 23:20 22.12.2019
2136 Clouds 12 1000 66 10000 1 0 23:20 22.12.2019
2137 Clouds 12 1000 66 10000 1 0 22:58 22.12.2019
2138 Rain 12 1000 71 10000 1 0 22:38 22.12.2019
2139 Clouds 12 999 58 10000 3.6 290 22:19 22.12.2019
2140 Clouds 12 999 58 10000 3.6 290 21:57 22.12.2019
2141 Clouds 12 999 66 10000 4.6 320 21:39 22.12.2019
2142 Clouds 12 999 71 10000 1 0 21:20 22.12.2019
2143 Clouds 12 998 81 10000 1.5 0 20:56 22.12.2019
2144 Clouds 12 998 81 10000 1.5 0 20:38 22.12.2019
2145 Clouds 12 998 71 10000 1.5 0 20:18 22.12.2019
2146 Clouds 12 997 82 10000 1 0 19:54 22.12.2019
2147 Clouds 12 997 82 10000 1 0 19:36 22.12.2019
2148 Clouds 12 997 87 10000 2.1 220 19:18 22.12.2019
2149 Clouds 12 996 82 10000 2.1 230 18:39 22.12.2019
2150 Clouds 12 996 82 10000 2.1 230 18:39 22.12.2019
2151 Clouds 12 996 87 10000 1.5 180 18:21 22.12.2019
2152 Clouds 13 996 87 10000 1.5 200 17:55 22.12.2019
2153 Clouds 13 996 87 10000 1.5 200 17:37 22.12.2019
2154 Clouds 13 995 87 10000 2.6 260 17:18 22.12.2019
2155 Clouds 13 995 87 10000 2.6 260 16:56 22.12.2019
2156 Clouds 13 995 87 10000 4.1 260 16:37 22.12.2019
2157 Clouds 13 994 76 10000 5.1 260 16:19 22.12.2019
2158 Clouds 13 994 76 10000 5.1 260 15:55 22.12.2019
2159 Rain 13 994 81 10000 4.6 270 15:36 22.12.2019
2160 Rain 13 994 76 9000 7.2 300 15:18 22.12.2019
2161 Clouds 14 993 67 9000 7.7 270 14:54 22.12.2019
2162 Clouds 14 993 67 9000 7.7 270 14:36 22.12.2019
2163 Clouds 15 993 72 10000 8.2 260 14:18 22.12.2019
2164 Clouds 14 993 72 10000 8.2 260 13:54 22.12.2019
2165 Clouds 15 993 72 10000 8.2 260 13:36 22.12.2019
2166 Clouds 14 993 67 10000 9.3 260 13:18 22.12.2019
2167 Clouds 14 993 67 10000 9.3 260 12:54 22.12.2019
2168 Clouds 14 993 67 10000 7.7 260 12:36 22.12.2019
2169 Clouds 15 993 67 10000 9.3 250 12:18 22.12.2019
2170 Clouds 14 993 67 10000 9.3 260 11:39 22.12.2019
2171 Clouds 13 993 67 10000 9.8 260 11:20 22.12.2019
2172 Clouds 13 993 67 10000 9.8 260 10:58 22.12.2019
2173 Clouds 14 993 71 10000 9.8 260 10:40 22.12.2019
2174 Clouds 13 993 71 10000 10.8 250 10:21 22.12.2019
2175 Clouds 13 993 71 10000 10.8 250 09:58 22.12.2019
2176 Clouds 13 992 67 8000 10.3 250 09:40 22.12.2019
2177 Clouds 13 992 67 8000 10.3 250 09:21 22.12.2019
2178 Clouds 13 992 67 8000 10.3 250 08:55 22.12.2019
2179 Clouds 13 992 67 8000 7.2 250 08:37 22.12.2019
2180 Clouds 13 993 71 8000 4.6 240 08:18 22.12.2019
2181 Clouds 13 993 76 8000 4.1 230 07:36 22.12.2019
2182 Clouds 13 992 71 10000 6.2 220 07:18 22.12.2019
2183 Rain 12 991 76 10000 6.7 210 06:40 22.12.2019
2184 Rain 13 991 93 4000 9.3 190 05:49 22.12.2019
2185 Rain 15 992 93 7000 7.7 180 05:21 22.12.2019
2186 Rain 14 993 93 8000 6.7 180 04:27 22.12.2019
2187 Rain 14 994 93 7000 6.7 170 03:28 22.12.2019
2188 Rain 14 996 87 10000 8.2 160 02:35 22.12.2019
2189 Rain 14 998 93 7000 6.2 170 01:33 22.12.2019
2190 Rain 13 999 93 7000 6.7 160 00:59 22.12.2019
2191 Rain 13 1000 82 7000 6.2 160 00:41 22.12.2019
2192 Rain 13 1001 82 10000 6.7 150 00:21 22.12.2019
2193 Clouds 13 1001 72 10000 6.7 140 23:42 21.12.2019
2194 Clouds 13 1001 72 10000 6.7 140 23:24 21.12.2019
2195 Clouds 13 1002 72 10000 5.7 160 22:58 21.12.2019
2196 Clouds 13 1002 67 10000 6.2 150 22:39 21.12.2019
2197 Clear 12 1002 67 10000 4.1 150 22:19 21.12.2019
2198 Clear 12 1002 67 10000 4.1 150 21:56 21.12.2019
2199 Clear 12 1002 76 10000 3.1 160 21:37 21.12.2019
2200 Clear 12 1003 71 10000 4.6 150 21:19 21.12.2019
2201 Clear 12 1003 71 10000 4.6 150 20:57 21.12.2019
2202 Clear 12 1003 67 10000 3.6 160 20:38 21.12.2019
2203 Clouds 12 1003 71 10000 3.1 180 20:20 21.12.2019
2204 Clouds 12 1003 71 10000 3.1 180 19:57 21.12.2019
2205 Clouds 12 1003 71 10000 3.1 180 19:57 21.12.2019
2206 Clouds 12 1003 71 10000 3.1 180 19:57 21.12.2019
2207 Clouds 12 1003 76 10000 3.6 160 19:39 21.12.2019
2208 Clouds 13 1003 82 10000 3.1 160 19:19 21.12.2019
2209 Clouds 13 1002 76 10000 3.1 180 18:42 21.12.2019
2210 Clouds 13 1002 76 10000 3.1 180 18:24 21.12.2019
2211 Clouds 13 1002 76 10000 3.6 190 17:57 21.12.2019
2212 Clouds 14 1002 77 10000 3.6 190 17:39 21.12.2019
2213 Clouds 15 1001 77 10000 3.6 200 17:21 21.12.2019
2214 Clouds 15 1001 77 10000 3.6 200 16:57 21.12.2019
2215 Clouds 15 1001 77 10000 3.6 200 16:57 21.12.2019
2216 Clouds 15 1001 77 10000 4.6 230 16:39 21.12.2019
2217 Clouds 15 1001 82 10000 4.6 210 16:18 21.12.2019
2218 Clouds 15 1001 82 10000 4.6 210 15:56 21.12.2019
2219 Clouds 15 1001 77 10000 5.1 210 15:38 21.12.2019
2220 Clouds 16 1000 82 10000 5.7 200 15:19 21.12.2019
2221 Clouds 16 1000 87 10000 6.7 190 14:44 21.12.2019
2222 Clouds 16 1000 87 10000 6.7 190 14:25 21.12.2019
2223 Clouds 16 1000 87 8000 6.7 180 13:59 21.12.2019
2224 Clouds 15 1000 87 7000 7.2 190 13:40 21.12.2019
2225 Rain 15 1001 87 6000 6.7 190 13:20 21.12.2019
2226 Rain 16 1001 87 6000 6.7 190 12:57 21.12.2019
2227 Clouds 16 1001 87 7000 7.7 190 12:39 21.12.2019
2228 Rain 15 1001 93 6000 8.2 190 12:21 21.12.2019
2229 Rain 15 1001 93 6000 8.2 190 11:57 21.12.2019
2230 Rain 15 1001 93 4000 9.3 190 11:39 21.12.2019
2231 Rain 15 1002 87 5000 8.7 190 11:21 21.12.2019
2232 Rain 15 1002 87 2000 8.2 190 10:42 21.12.2019
2233 Rain 15 1002 87 6000 7.7 190 10:23 21.12.2019
2234 Rain 15 1002 87 6000 7.7 190 09:59 21.12.2019
2235 Rain 15 1001 93 6000 9.3 190 09:41 21.12.2019
2236 Rain 14 1001 93 3000 8.7 190 09:20 21.12.2019
2237 Rain 14 1001 93 2500 8.2 190 08:55 21.12.2019
2238 Rain 14 1001 93 2500 8.2 190 08:36 21.12.2019
2239 Rain 14 1002 93 4000 8.2 190 08:18 21.12.2019
2240 Rain 14 1002 87 6000 7.2 180 07:41 21.12.2019
2241 Rain 14 1002 93 6000 7.7 190 07:21 21.12.2019
2242 Rain 13 1003 93 6000 7.7 190 06:42 21.12.2019
2243 Rain 13 1003 93 6000 7.2 190 06:24 21.12.2019
2244 Clouds 13 1004 93 6000 6.2 180 05:45 21.12.2019
2245 Clouds 13 1004 93 8000 6.2 180 04:57 21.12.2019
2246 Clouds 13 1005 93 8000 6.7 160 03:56 21.12.2019
2247 Rain 12 1006 93 8000 9.3 150 02:40 21.12.2019
2248 Rain 13 1007 87 8000 8.2 160 01:55 21.12.2019
2249 Rain 13 1007 87 8000 8.2 160 01:27 21.12.2019
2250 Rain 13 1007 82 8000 8.7 160 00:52 21.12.2019
2251 Rain 13 1007 82 8000 8.7 160 00:31 21.12.2019
2252 Rain 13 1008 87 8000 8.7 160 23:57 20.12.2019
2253 Rain 13 1009 87 8000 6.2 170 23:37 20.12.2019
2254 Rain 13 1009 87 10000 6.7 170 23:18 20.12.2019
2255 Rain 14 1009 87 8000 6.2 170 22:40 20.12.2019
2256 Rain 14 1009 82 10000 7.2 170 22:21 20.12.2019
2257 Rain 14 1009 82 10000 7.2 170 21:58 20.12.2019
2258 Rain 14 1009 77 10000 9.8 150 21:39 20.12.2019
2259 Clouds 14 1009 77 10000 8.7 150 21:20 20.12.2019
2260 Clouds 14 1009 77 10000 10.3 150 20:41 20.12.2019
2261 Clouds 13 1009 77 10000 9.3 150 20:20 20.12.2019
2262 Clouds 13 1009 77 10000 9.3 150 19:59 20.12.2019
2263 Clouds 13 1010 82 10000 8.7 150 19:40 20.12.2019
2264 Clouds 14 1010 82 10000 9.3 150 19:20 20.12.2019
2265 Clouds 13 1011 76 10000 8.7 150 18:54 20.12.2019
2266 Clouds 13 1010 82 10000 9.3 150 18:54 20.12.2019
2267 Clouds 13 1011 76 10000 8.7 150 18:36 20.12.2019
2268 Clouds 13 1011 76 10000 8.7 150 18:36 20.12.2019
2269 Clouds 13 1011 76 10000 8.2 150 18:18 20.12.2019
2270 Clouds 13 1012 76 9000 5.1 160 17:42 20.12.2019
2271 Clouds 13 1012 76 9000 5.1 160 17:42 20.12.2019
2272 Clouds 13 1012 76 9000 5.1 160 17:21 20.12.2019
2273 Clouds 13 1012 76 10000 7.7 150 16:59 20.12.2019
2274 Clouds 13 1012 76 10000 7.7 150 16:39 20.12.2019
2275 Clouds 13 1013 76 9000 6.2 150 16:20 20.12.2019
2276 Clouds 13 1013 76 9000 6.2 150 16:20 20.12.2019
2277 Clouds 13 1012 76 10000 7.2 150 15:57 20.12.2019
2278 Clouds 13 1012 76 10000 7.2 150 15:38 20.12.2019
2279 Clouds 13 1013 77 10000 4.6 170 15:19 20.12.2019
2280 Clouds 13 1013 76 10000 6.7 150 14:57 20.12.2019
2281 Clouds 14 1014 82 10000 5.1 160 14:39 20.12.2019
2282 Clouds 14 1014 82 10000 5.1 160 14:20 20.12.2019
2283 Clouds 14 1014 76 10000 6.7 160 13:41 20.12.2019
2284 Clouds 14 1014 77 9000 4.6 160 13:21 20.12.2019
2285 Clouds 14 1015 72 10000 6.2 150 12:59 20.12.2019
2286 Clouds 14 1015 72 10000 6.2 150 12:40 20.12.2019
2287 Clouds 14 1015 87 10000 1 0 12:19 20.12.2019
2288 Clouds 13 1016 71 10000 5.1 150 11:59 20.12.2019
2289 Clouds 13 1016 100 10000 5.89 159 11:39 20.12.2019
2290 Clear 12 1016 100 10000 2.22 163 11:20 20.12.2019
2291 Clouds 12 1016 67 10000 4.6 150 10:58 20.12.2019
2292 Clouds 12 1016 67 10000 4.6 150 10:58 20.12.2019
2293 Clouds 12 1016 67 10000 4.6 150 10:40 20.12.2019
2294 Clouds 11 1016 100 9000 1.5 0 10:20 20.12.2019
2295 Clear 10 1016 76 10000 2.6 140 09:55 20.12.2019
2296 Clouds 10 1016 100 6000 2.1 10 09:37 20.12.2019
2297 Clouds 9 1016 100 6000 2.1 10 09:19 20.12.2019
2298 Clouds 8 1016 87 10000 2.6 120 08:42 20.12.2019
2299 Clouds 8 1017 100 6000 2.1 30 08:22 20.12.2019
2300 Clouds 8 1016 87 10000 3.1 130 07:58 20.12.2019
2301 Clouds 7 1017 87 10000 3.1 120 07:40 20.12.2019
2302 Clouds 7 1017 87 10000 3.1 120 07:19 20.12.2019
2303 Clouds 7 1016 87 10000 2.6 110 06:51 20.12.2019
2304 Clouds 7 1016 87 10000 1.5 80 06:31 20.12.2019
2305 Clouds 8 1017 87 10000 1.5 330 05:53 20.12.2019
2306 Clear 8 1015 93 10000 1 150 05:34 20.12.2019
2307 Clouds 8 1016 87 10000 1 120 04:30 20.12.2019
2308 Clear 8 1016 87 10000 1 90 03:30 20.12.2019
2309 Clear 8 1017 87 10000 1.5 350 02:42 20.12.2019
2310 Clouds 8 1017 93 10000 1.5 20 01:47 20.12.2019
2311 Clouds 9 1016 71 10000 3.6 100 01:29 20.12.2019
2312 Clear 9 1017 76 10000 2.6 100 00:42 20.12.2019
2313 Clear 9 1017 81 10000 0.5 0 00:20 20.12.2019
2314 Clear 9 1017 76 10000 2.1 50 23:43 19.12.2019
2315 Clear 9 1018 76 10000 3.1 60 23:24 19.12.2019
2316 Clouds 10 1018 76 10000 2.1 40 22:59 19.12.2019
2317 Clouds 10 1018 76 10000 2.1 40 22:59 19.12.2019
2318 Clouds 10 1018 76 10000 2.6 20 22:36 19.12.2019
2319 Clouds 10 1018 76 10000 2.6 20 22:18 19.12.2019
2320 Clouds 10 1018 76 10000 2.6 20 22:18 19.12.2019
2321 Clouds 9 1018 71 10000 2.6 80 21:55 19.12.2019
2322 Clouds 9 1018 76 10000 1.5 100 21:37 19.12.2019
2323 Clouds 9 1018 76 10000 1.5 30 21:18 19.12.2019
2324 Clouds 9 1018 76 10000 1.5 30 20:55 19.12.2019
2325 Clouds 9 1017 71 10000 1.5 0 20:36 19.12.2019
2326 Clouds 10 1017 71 10000 1.5 0 20:18 19.12.2019
2327 Clouds 10 1017 71 10000 2.1 110 19:54 19.12.2019
2328 Clouds 10 1017 71 10000 1.5 110 19:36 19.12.2019
2329 Clouds 10 1017 71 10000 1.5 110 19:18 19.12.2019
2330 Clouds 11 1017 71 10000 3.1 90 18:41 19.12.2019
2331 Clouds 10 1017 71 10000 3.1 90 18:21 19.12.2019
2332 Clouds 11 1017 71 10000 1 0 17:57 19.12.2019
2333 Clouds 11 1018 87 10000 1.5 0 17:39 19.12.2019
2334 Rain 12 1017 66 10000 3.1 110 17:19 19.12.2019
2335 Rain 12 1017 66 10000 3.1 110 16:57 19.12.2019
2336 Clouds 12 1018 87 9000 2.1 50 16:39 19.12.2019
2337 Clouds 12 1018 87 9000 2.1 50 16:20 19.12.2019
2338 Clouds 12 1017 66 10000 2.1 110 15:58 19.12.2019
2339 Clouds 12 1017 66 10000 2.1 110 15:39 19.12.2019
2340 Clouds 12 1018 76 8000 3.1 110 15:19 19.12.2019
2341 Clouds 12 1017 71 10000 3.1 120 14:58 19.12.2019
2342 Clouds 12 1017 71 10000 3.1 120 14:40 19.12.2019
2343 Clouds 12 1019 87 8000 2.6 120 14:18 19.12.2019
2344 Rain 12 1018 81 8000 3.6 70 13:56 19.12.2019
2345 Rain 12 1019 93 6000 2.6 20 13:37 19.12.2019
2346 Rain 12 1019 93 6000 2.6 20 13:18 19.12.2019
2347 Clouds 12 1018 76 10000 1 0 12:54 19.12.2019
2348 Clouds 12 1019 93 6000 1.5 0 12:36 19.12.2019
2349 Clouds 12 1019 93 6000 1.5 0 12:18 19.12.2019
2350 Clouds 12 1019 93 6000 1.5 0 12:18 19.12.2019
2351 Clouds 12 1019 93 6000 1.5 0 12:18 19.12.2019
2352 Clouds 12 1019 93 6000 1.5 0 12:18 19.12.2019
2353 Rain 12 1018 67 10000 5.1 110 11:42 19.12.2019
2354 Rain 12 1020 87 6000 2.6 60 11:20 19.12.2019
2355 Rain 12 1018 72 9000 6.2 110 10:59 19.12.2019
2356 Rain 12 1019 87 3000 4.1 110 10:39 19.12.2019
2357 Rain 12 1019 87 3000 4.1 110 10:20 19.12.2019
2358 Rain 12 1019 87 4000 6.2 120 09:57 19.12.2019
2359 Rain 12 1019 87 6000 3.1 100 09:38 19.12.2019
2360 Rain 12 1019 87 6000 3.1 100 09:20 19.12.2019
2361 Rain 13 1018 82 7000 3.6 90 08:56 19.12.2019
2362 Rain 13 1018 100 6000 9.3 100 08:37 19.12.2019
2363 Rain 13 1018 100 6000 9.3 100 08:18 19.12.2019
2364 Rain 13 1018 76 9000 2.6 80 07:54 19.12.2019
2365 Rain 13 1018 76 10000 3.6 100 07:36 19.12.2019
2366 Rain 14 1018 76 10000 3.6 100 07:18 19.12.2019
2367 Clouds 14 1018 59 10000 6.7 130 06:42 19.12.2019
2368 Clouds 14 1018 59 10000 6.7 130 06:24 19.12.2019
2369 Clouds 14 1018 55 10000 6.2 130 05:47 19.12.2019
2370 Clouds 14 1018 51 10000 5.1 120 05:27 19.12.2019
2371 Clouds 15 1019 51 10000 3.1 120 04:41 19.12.2019
2372 Clouds 14 1019 67 10000 1.5 80 02:30 19.12.2019
2373 Clouds 14 1019 67 10000 1 0 01:46 19.12.2019
2374 Clouds 14 1019 67 10000 1 0 01:21 19.12.2019
2375 Clouds 14 1019 59 10000 2.6 110 00:39 19.12.2019
2376 Clouds 14 1019 59 10000 2.6 110 00:39 19.12.2019
2377 Clouds 14 1019 59 10000 2.6 110 00:19 19.12.2019
2378 Clouds 14 1019 59 10000 2.1 80 23:45 18.12.2019
2379 Clouds 14 1019 62 10000 2.1 60 23:19 18.12.2019
2380 Clouds 14 1020 59 10000 2.1 60 22:58 18.12.2019
2381 Clouds 14 1020 59 10000 2.1 60 22:40 18.12.2019
2382 Clouds 14 1020 62 10000 2.1 80 22:22 18.12.2019
2383 Clouds 15 1020 59 10000 1.5 110 21:59 18.12.2019
2384 Clouds 14 1020 59 10000 1.5 110 21:41 18.12.2019
2385 Clouds 14 1020 67 10000 2.6 80 21:21 18.12.2019
2386 Clouds 14 1020 63 10000 2.6 90 20:58 18.12.2019
2387 Clouds 14 1020 59 10000 3.1 110 20:39 18.12.2019
2388 Clouds 14 1020 59 10000 3.1 110 20:20 18.12.2019
2389 Clouds 14 1020 67 10000 1.5 60 19:57 18.12.2019
2390 Clouds 14 1020 67 10000 1.5 60 19:39 18.12.2019
2391 Clouds 14 1020 67 10000 1.5 60 19:39 18.12.2019
2392 Clouds 14 1020 71 10000 2.1 40 19:19 18.12.2019
2393 Clouds 14 1020 67 10000 1 0 18:59 18.12.2019
2394 Clouds 14 1020 67 10000 1 0 18:41 18.12.2019
2395 Clouds 14 1020 72 10000 1 0 18:22 18.12.2019
2396 Clouds 14 1020 67 10000 1 0 17:56 18.12.2019
2397 Clouds 14 1020 82 10000 3.1 30 17:38 18.12.2019
2398 Clouds 14 1020 82 10000 3.1 30 17:19 18.12.2019
2399 Clouds 15 1020 63 10000 1.5 0 16:43 18.12.2019
2400 Clouds 15 1020 63 10000 1.5 0 16:24 18.12.2019
2401 Clouds 15 1020 63 10000 0.5 0 15:59 18.12.2019
2402 Clouds 15 1020 63 10000 2.1 150 15:40 18.12.2019
2403 Clouds 15 1020 77 10000 2.6 70 15:21 18.12.2019
2404 Clouds 15 1020 77 10000 2.6 70 14:58 18.12.2019
2405 Clouds 16 1020 67 10000 1.5 50 14:40 18.12.2019
2406 Clouds 16 1020 63 10000 2.1 90 14:20 18.12.2019
2407 Clouds 16 1020 63 10000 2.1 90 13:56 18.12.2019
2408 Clouds 16 1020 63 10000 3.6 130 13:56 18.12.2019
2409 Clouds 16 1020 63 10000 3.6 130 13:37 18.12.2019
2410 Clouds 16 1021 63 10000 4.1 130 13:19 18.12.2019
2411 Clouds 16 1021 63 10000 4.1 130 12:57 18.12.2019
2412 Clouds 16 1021 67 10000 3.1 130 12:37 18.12.2019
2413 Clouds 16 1021 67 10000 4.1 130 12:19 18.12.2019
2414 Clouds 15 1021 67 10000 3.6 120 11:54 18.12.2019
2415 Clouds 16 1021 67 10000 3.6 120 11:36 18.12.2019
2416 Clouds 15 1021 67 10000 4.1 120 11:18 18.12.2019
2417 Clouds 15 1021 72 10000 4.6 130 10:55 18.12.2019
2418 Clouds 15 1021 72 10000 4.6 130 10:37 18.12.2019
2419 Clouds 14 1022 72 10000 4.1 130 10:18 18.12.2019
2420 Clouds 13 1021 67 10000 4.6 130 09:21 18.12.2019
2421 Clouds 13 1021 67 10000 4.6 130 08:58 18.12.2019
2422 Clouds 13 1021 67 10000 4.1 130 08:39 18.12.2019
2423 Clouds 13 1021 72 10000 4.1 130 08:21 18.12.2019
2424 Clouds 13 1020 72 10000 3.6 140 07:43 18.12.2019
2425 Clouds 13 1020 72 10000 4.1 140 07:22 18.12.2019
2426 Clouds 13 1020 67 10000 4.6 150 06:53 18.12.2019
2427 Clouds 13 1020 67 10000 3.1 130 06:26 18.12.2019
2428 Clouds 13 1020 63 10000 4.6 140 05:43 18.12.2019
2429 Clouds 13 1020 63 10000 4.6 130 04:37 18.12.2019
2430 Clouds 13 1020 63 10000 8.2 140 02:50 18.12.2019
2431 Clouds 13 1020 63 10000 8.2 140 02:30 18.12.2019
2432 Clouds 13 1020 81 10000 1.5 70 01:57 18.12.2019
2433 Clouds 12 1020 81 10000 1 0 01:37 18.12.2019
2434 Clouds 13 1020 81 10000 1 0 01:19 18.12.2019
2435 Clouds 13 1020 81 10000 1 0 00:40 18.12.2019
2436 Clouds 13 1020 76 10000 1 0 00:21 18.12.2019
2437 Clouds 13 1020 76 10000 1.5 110 23:54 17.12.2019
2438 Clouds 13 1020 76 10000 1.5 110 23:36 17.12.2019
2439 Clouds 13 1021 87 10000 1 0 23:18 17.12.2019
2440 Clouds 13 1021 87 10000 1 0 22:54 17.12.2019
2441 Clouds 13 1021 87 10000 1 0 22:36 17.12.2019
2442 Clouds 13 1021 82 10000 2.1 240 22:18 17.12.2019
2443 Clouds 13 1021 82 10000 2.1 240 21:55 17.12.2019
2444 Clouds 13 1021 82 10000 2.1 350 21:36 17.12.2019
2445 Clouds 14 1021 71 10000 1.5 30 21:18 17.12.2019
2446 Clouds 13 1021 71 10000 1.5 30 20:55 17.12.2019
2447 Clouds 13 1020 67 10000 1.5 160 20:36 17.12.2019
2448 Clouds 13 1021 67 10000 2.1 210 20:18 17.12.2019
2449 Clouds 13 1020 63 10000 4.1 130 19:41 17.12.2019
2450 Clouds 13 1020 63 10000 4.1 130 19:41 17.12.2019
2451 Clouds 13 1020 72 10000 5.1 120 19:20 17.12.2019
2452 Clouds 14 1020 72 10000 5.1 120 18:58 17.12.2019
2453 Clouds 14 1020 72 10000 4.1 140 18:40 17.12.2019
2454 Clouds 14 1020 77 10000 4.1 140 18:21 17.12.2019
2455 Clouds 14 1020 82 10000 2.6 180 17:56 17.12.2019
2456 Clouds 14 1020 82 10000 2.6 180 17:38 17.12.2019
2457 Clouds 15 1020 82 10000 4.6 150 17:18 17.12.2019
2458 Clouds 15 1020 82 10000 3.1 200 16:55 17.12.2019
2459 Clouds 15 1020 82 10000 3.1 200 16:37 17.12.2019
2460 Clouds 15 1020 82 10000 3.1 200 16:37 17.12.2019
2461 Clouds 15 1019 77 8000 4.1 160 16:18 17.12.2019
2462 Clouds 15 1019 77 10000 3.6 170 15:54 17.12.2019
2463 Clouds 16 1019 77 10000 3.6 170 15:36 17.12.2019
2464 Clouds 16 1019 77 10000 5.1 160 15:18 17.12.2019
2465 Clouds 16 1019 77 10000 6.2 160 14:54 17.12.2019
2466 Clouds 17 1019 77 10000 6.2 160 14:36 17.12.2019
2467 Clouds 17 1019 77 10000 5.7 160 14:18 17.12.2019
2468 Clouds 17 1019 67 10000 6.2 150 13:41 17.12.2019
2469 Clouds 18 1019 59 10000 5.7 150 13:20 17.12.2019
2470 Clouds 18 1019 59 10000 5.7 150 12:59 17.12.2019
2471 Clouds 18 1019 59 10000 6.7 150 12:39 17.12.2019
2472 Clouds 17 1019 52 10000 6.7 160 12:19 17.12.2019
2473 Clouds 17 1019 52 10000 6.7 160 11:59 17.12.2019
2474 Clouds 17 1019 48 10000 4.6 160 11:37 17.12.2019
2475 Clouds 17 1019 48 10000 5.7 140 11:19 17.12.2019
2476 Clouds 17 1019 48 10000 5.7 140 10:59 17.12.2019
2477 Clouds 17 1019 45 10000 7.7 150 10:40 17.12.2019
2478 Clouds 15 1019 45 10000 6.7 150 10:21 17.12.2019
2479 Clouds 16 1019 45 10000 6.7 150 09:59 17.12.2019
2480 Clouds 15 1019 45 10000 5.7 150 09:40 17.12.2019
2481 Clouds 15 1019 42 10000 6.2 150 09:19 17.12.2019
2482 Clouds 14 1019 42 10000 5.7 150 08:56 17.12.2019
2483 Clouds 14 1019 42 10000 5.7 150 08:38 17.12.2019
2484 Clouds 14 1019 45 10000 6.2 140 08:19 17.12.2019
2485 Clouds 14 1018 48 10000 6.7 140 07:45 17.12.2019
2486 Clouds 14 1018 48 10000 6.7 140 07:26 17.12.2019
2487 Clouds 14 1018 48 10000 6.7 140 06:56 17.12.2019
2488 Clouds 14 1018 48 10000 6.7 140 06:34 17.12.2019
2489 Clouds 14 1018 48 10000 5.7 140 05:52 17.12.2019
2490 Clouds 14 1018 48 10000 5.7 140 05:34 17.12.2019
2491 Clouds 14 1018 51 10000 6.2 130 04:30 17.12.2019
2492 Clouds 14 1018 45 10000 5.1 150 02:33 17.12.2019
2493 Clouds 14 1018 55 10000 6.2 130 01:54 17.12.2019
2494 Clear 14 1018 48 10000 4.6 150 00:58 17.12.2019
2495 Clear 14 1018 48 10000 5.1 150 00:37 17.12.2019
2496 Clear 14 1019 45 10000 5.1 150 00:18 17.12.2019
2497 Clear 14 1019 71 10000 4.1 100 23:41 16.12.2019
2498 Clear 14 1019 76 10000 4.1 100 23:19 16.12.2019
2499 Clear 14 1019 76 10000 4.1 100 23:19 16.12.2019
2500 Clear 14 1019 76 10000 4.1 90 22:56 16.12.2019
2501 Clear 13 1019 76 10000 4.1 90 22:37 16.12.2019
2502 Clear 13 1019 81 10000 3.6 90 22:19 16.12.2019
2503 Clear 14 1019 51 10000 4.6 130 21:55 16.12.2019
2504 Clear 14 1019 51 10000 4.6 130 21:37 16.12.2019
2505 Clear 14 1019 51 10000 4.6 130 21:18 16.12.2019
2506 Clear 13 1019 76 10000 3.1 90 20:56 16.12.2019
2507 Clear 14 1019 71 10000 4.1 100 20:56 16.12.2019
2508 Clear 14 1019 76 10000 3.1 90 20:37 16.12.2019
2509 Clouds 13 1019 87 10000 2.6 90 20:19 16.12.2019
2510 Clouds 13 1020 59 10000 4.1 130 19:55 16.12.2019
2511 Clouds 13 1020 59 10000 4.1 130 19:36 16.12.2019
2512 Clouds 14 1020 55 10000 4.1 140 19:18 16.12.2019
2513 Clouds 14 1020 55 10000 4.1 140 18:55 16.12.2019
2514 Clouds 14 1020 59 10000 4.1 130 18:37 16.12.2019
2515 Clouds 14 1020 62 10000 3.1 130 18:19 16.12.2019
2516 Clouds 14 1020 59 10000 3.1 140 17:56 16.12.2019
2517 Clouds 14 1020 59 10000 3.1 140 17:37 16.12.2019
2518 Clear 14 1020 67 10000 2.6 160 17:19 16.12.2019
2519 Clear 15 1020 63 10000 3.6 140 16:55 16.12.2019
2520 Clear 15 1020 63 10000 3.6 140 16:37 16.12.2019
2521 Clear 16 1020 67 10000 2.6 150 16:18 16.12.2019
2522 Clear 16 1020 67 10000 2.6 150 15:55 16.12.2019
2523 Clear 16 1020 63 10000 2.6 160 15:37 16.12.2019
2524 Clouds 16 1020 63 10000 4.6 150 15:19 16.12.2019
2525 Clouds 16 1020 63 10000 4.6 150 14:54 16.12.2019
2526 Clouds 16 1020 63 10000 5.1 150 14:36 16.12.2019
2527 Clouds 16 1020 63 10000 5.1 150 14:18 16.12.2019
2528 Clouds 16 1020 63 10000 5.1 150 13:55 16.12.2019
2529 Clouds 16 1021 63 10000 5.1 140 13:36 16.12.2019
2530 Clouds 16 1021 67 10000 4.6 150 13:18 16.12.2019
2531 Clouds 16 1021 67 10000 4.6 150 13:18 16.12.2019
2532 Clouds 16 1021 63 10000 4.6 130 12:54 16.12.2019
2533 Clouds 16 1021 63 10000 4.6 130 12:36 16.12.2019
2534 Clouds 15 1022 67 10000 3.6 130 12:18 16.12.2019
2535 Clouds 15 1022 67 10000 5.1 150 11:55 16.12.2019
2536 Clouds 15 1022 67 10000 5.1 150 11:37 16.12.2019
2537 Clouds 14 1022 72 10000 5.1 150 11:19 16.12.2019
2538 Clouds 14 1022 67 10000 3.6 140 10:40 16.12.2019
2539 Clouds 14 1022 77 10000 4.6 140 10:21 16.12.2019
2540 Clouds 13 1022 77 10000 4.6 140 09:55 16.12.2019
2541 Clouds 13 1022 77 10000 3.6 150 09:37 16.12.2019
2542 Clouds 13 1022 82 10000 4.6 150 09:19 16.12.2019
2543 Clouds 12 1021 82 10000 4.6 150 08:39 16.12.2019
2544 Clouds 12 1021 87 10000 4.1 150 08:19 16.12.2019
2545 Clouds 12 1021 87 10000 4.6 150 07:51 16.12.2019
2546 Clouds 12 1021 87 10000 4.6 150 07:31 16.12.2019
2547 Clouds 12 1020 82 10000 4.1 150 06:49 16.12.2019
2548 Clouds 12 1020 82 10000 4.6 150 06:27 16.12.2019
2549 Clouds 12 1020 82 10000 4.6 150 05:58 16.12.2019
2550 Clouds 13 1020 82 10000 4.6 150 05:39 16.12.2019
2551 Clouds 13 1020 82 10000 4.1 150 05:21 16.12.2019
2552 Clouds 12 1020 82 10000 4.6 150 02:59 16.12.2019
2553 Clouds 12 1020 82 10000 4.1 150 01:45 16.12.2019
2554 Clouds 12 1020 76 10000 2.1 160 00:56 16.12.2019
2555 Clouds 12 1020 76 10000 2.1 160 00:38 16.12.2019
2556 Clouds 12 1020 76 10000 3.6 140 00:18 16.12.2019
2557 Clouds 12 1020 76 10000 4.1 140 23:41 15.12.2019
2558 Clouds 12 1019 82 10000 4.1 150 23:22 15.12.2019
2559 Clouds 12 1019 82 10000 3.6 150 22:57 15.12.2019
2560 Clouds 12 1019 82 10000 3.6 150 22:38 15.12.2019
2561 Clouds 13 1019 82 10000 3.6 150 22:19 15.12.2019
2562 Clouds 12 1019 82 10000 3.6 150 21:58 15.12.2019
2563 Clouds 12 1019 82 10000 4.1 150 21:38 15.12.2019
2564 Clouds 12 1019 76 10000 4.1 140 21:20 15.12.2019
2565 Clouds 13 1019 76 10000 4.1 140 20:58 15.12.2019
2566 Clouds 13 1019 76 10000 2.6 130 20:39 15.12.2019
2567 Clouds 13 1019 76 10000 2.6 130 20:39 15.12.2019
2568 Clouds 13 1019 76 10000 3.6 140 20:21 15.12.2019
2569 Clouds 13 1019 76 10000 3.6 140 19:58 15.12.2019
2570 Clouds 13 1019 82 10000 4.1 140 19:40 15.12.2019
2571 Clouds 13 1019 82 10000 3.6 150 19:20 15.12.2019
2572 Clouds 13 1019 82 10000 3.6 150 18:58 15.12.2019
2573 Clouds 13 1019 82 10000 4.1 160 18:39 15.12.2019
2574 Clouds 13 1019 82 10000 3.1 160 18:19 15.12.2019
2575 Clouds 13 1019 82 10000 3.1 160 18:19 15.12.2019
2576 Clouds 13 1018 82 10000 3.1 160 17:56 15.12.2019
2577 Clouds 13 1018 82 10000 3.1 160 17:56 15.12.2019
2578 Clouds 13 1018 82 10000 3.1 160 17:38 15.12.2019
2579 Clouds 14 1018 82 10000 2.6 160 17:19 15.12.2019
2580 Clouds 14 1018 77 10000 3.1 150 16:57 15.12.2019
2581 Clouds 14 1018 77 10000 3.1 150 16:39 15.12.2019
2582 Clouds 15 1018 72 10000 2.1 160 16:20 15.12.2019
2583 Clouds 15 1018 72 10000 2.1 160 15:55 15.12.2019
2584 Clouds 15 1018 72 10000 2.6 160 15:37 15.12.2019
2585 Clouds 15 1018 72 10000 3.1 170 15:18 15.12.2019
2586 Clouds 15 1018 72 10000 3.1 170 14:55 15.12.2019
2587 Clouds 15 1018 72 10000 3.1 170 14:37 15.12.2019
2588 Clouds 16 1018 72 10000 4.6 160 14:18 15.12.2019
2589 Clouds 16 1018 72 10000 4.6 160 13:56 15.12.2019
2590 Clouds 16 1018 72 10000 4.1 160 13:37 15.12.2019
2591 Clouds 15 1018 72 10000 4.6 160 13:19 15.12.2019
2592 Clouds 15 1018 72 10000 4.6 160 13:19 15.12.2019
2593 Clouds 15 1018 72 10000 1.5 330 12:56 15.12.2019
2594 Clouds 15 1018 72 10000 1.5 330 12:38 15.12.2019
2595 Clouds 15 1018 76 10000 1 0 12:20 15.12.2019
2596 Clouds 14 1018 82 10000 2.1 340 11:39 15.12.2019
2597 Clouds 13 1018 82 10000 1 0 11:20 15.12.2019
2598 Clouds 12 1018 82 10000 1 0 10:59 15.12.2019
2599 Clouds 12 1018 82 10000 1 0 10:41 15.12.2019
2600 Clouds 12 1017 87 10000 1 10 10:20 15.12.2019
2601 Clouds 11 1017 87 10000 1 10 09:59 15.12.2019
2602 Clouds 11 1017 87 10000 2.1 330 09:39 15.12.2019
2603 Clouds 11 1017 82 10000 2.1 140 09:20 15.12.2019
2604 Clouds 10 1016 82 10000 4.6 150 08:56 15.12.2019
2605 Clouds 10 1016 82 10000 4.6 150 08:38 15.12.2019
2606 Clouds 9 1016 87 10000 4.6 150 08:20 15.12.2019
2607 Clouds 9 1016 81 10000 3.6 150 07:55 15.12.2019
2608 Clouds 9 1016 81 10000 3.6 150 07:33 15.12.2019
2609 Clouds 9 1016 93 10000 2.1 140 06:31 15.12.2019
2610 Clouds 8 1015 87 10000 2.6 110 05:51 15.12.2019
2611 Clouds 8 1015 81 10000 3.1 110 05:25 15.12.2019
2612 Clouds 8 1015 87 10000 3.1 110 04:24 15.12.2019
2613 Clouds 8 1015 100 10000 2.6 90 03:22 15.12.2019
2614 Clouds 8 1014 87 10000 1.5 120 02:32 15.12.2019
2615 Clouds 8 1014 93 10000 2.1 120 01:43 15.12.2019
2616 Clouds 8 1014 87 10000 1 0 01:20 15.12.2019
2617 Clouds 8 1014 81 10000 2.1 110 00:53 15.12.2019
2618 Clouds 8 1014 81 10000 2.1 110 00:34 15.12.2019
2619 Clouds 8 1013 93 10000 2.1 140 23:58 14.12.2019
2620 Clouds 8 1013 93 10000 2.1 140 23:38 14.12.2019
2621 Clear 8 1013 87 10000 2.1 130 23:18 14.12.2019
2622 Clear 8 1012 81 10000 2.6 100 22:56 14.12.2019
2623 Clear 8 1012 81 10000 2.6 100 22:37 14.12.2019
2624 Clear 9 1012 81 10000 1.5 120 22:19 14.12.2019
2625 Clear 9 1012 81 10000 1.5 120 21:55 14.12.2019
2626 Clear 9 1012 75 10000 1.5 260 21:37 14.12.2019
2627 Clear 9 1012 70 10000 2.6 70 21:18 14.12.2019
2628 Clear 9 1012 70 10000 2.6 70 21:18 14.12.2019
2629 Clear 10 1012 75 10000 1.5 100 20:42 14.12.2019
2630 Clear 10 1011 75 10000 2.1 110 20:20 14.12.2019
2631 Clear 10 1011 75 10000 2.1 110 19:59 14.12.2019
2632 Clear 10 1011 75 10000 2.1 120 19:39 14.12.2019
2633 Clear 10 1011 75 10000 1.5 140 19:21 14.12.2019
2634 Clear 10 1011 75 10000 1.5 140 18:57 14.12.2019
2635 Clear 10 1010 75 10000 2.1 120 18:38 14.12.2019
2636 Clear 10 1010 75 10000 2.1 120 18:38 14.12.2019
2637 Clear 11 1009 66 10000 0.5 0 18:20 14.12.2019
2638 Clear 11 1009 66 10000 2.6 320 17:57 14.12.2019
2639 Clear 11 1009 66 10000 2.6 320 17:38 14.12.2019
2640 Clear 12 1008 54 10000 2.1 340 17:20 14.12.2019
2641 Clear 13 1007 54 10000 2.6 20 16:41 14.12.2019
2642 Clear 14 1007 50 10000 2.6 20 16:19 14.12.2019
2643 Clear 14 1007 50 10000 2.6 20 15:55 14.12.2019
2644 Clear 14 1007 44 10000 2.6 350 15:36 14.12.2019
2645 Clear 14 1007 44 10000 3.6 10 15:18 14.12.2019
2646 Clear 14 1007 47 10000 2.1 10 14:40 14.12.2019
2647 Clear 14 1006 55 10000 3.1 340 14:22 14.12.2019
2648 Clear 14 1006 55 10000 3.1 340 13:59 14.12.2019
2649 Clear 13 1006 43 10000 3.6 10 13:41 14.12.2019
2650 Clear 13 1006 43 10000 3.6 10 13:41 14.12.2019
2651 Clear 13 1005 55 10000 3.1 360 13:19 14.12.2019
2652 Clear 13 1005 55 10000 4.1 30 12:57 14.12.2019
2653 Clear 13 1005 55 10000 4.1 30 12:38 14.12.2019
2654 Clear 12 1004 50 10000 3.6 20 12:20 14.12.2019
2655 Clear 12 1004 50 10000 3.6 20 12:20 14.12.2019
2656 Clear 12 1004 53 10000 4.6 30 11:56 14.12.2019
2657 Clear 12 1004 53 10000 4.6 30 11:38 14.12.2019
2658 Clear 11 1004 53 10000 3.6 40 11:19 14.12.2019
2659 Clear 10 1004 61 10000 3.1 30 10:56 14.12.2019
2660 Clear 9 1004 61 10000 3.1 30 10:38 14.12.2019
2661 Clear 9 1003 61 10000 2.6 20 10:19 14.12.2019
2662 Clear 8 1003 72 10000 2.6 10 09:43 14.12.2019
2663 Clear 7 1002 72 10000 3.1 320 09:23 14.12.2019
2664 Clear 7 1002 71 10000 3.1 320 08:57 14.12.2019
2665 Clear 7 1001 56 10000 5.7 40 08:38 14.12.2019
2666 Clear 6 1001 60 10000 4.1 40 08:19 14.12.2019
2667 Clear 5 1001 65 10000 3.6 30 07:40 14.12.2019
2668 Clear 5 1000 72 10000 3.6 40 07:21 14.12.2019
2669 Clear 5 1000 72 10000 2.6 30 06:45 14.12.2019
2670 Clear 5 999 72 10000 2.6 40 06:22 14.12.2019
2671 Clear 6 998 80 10000 1 20 05:43 14.12.2019
2672 Clear 6 996 75 10000 3.1 10 03:44 14.12.2019
2673 Clear 7 995 80 10000 2.6 10 02:24 14.12.2019
2674 Clouds 7 993 75 10000 3.1 30 01:44 14.12.2019
2675 Clouds 7 992 75 10000 2.6 20 01:20 14.12.2019
2676 Clouds 8 992 70 10000 3.1 30 00:41 14.12.2019
2677 Clouds 8 991 70 10000 3.6 20 00:20 14.12.2019
2678 Clouds 8 990 65 10000 4.1 360 23:41 13.12.2019
2679 Clouds 9 990 66 10000 5.7 350 23:19 13.12.2019
2680 Clouds 9 990 66 10000 5.7 350 22:57 13.12.2019
2681 Clouds 9 989 70 10000 5.1 350 22:38 13.12.2019
2682 Clouds 9 989 66 10000 7.2 330 22:18 13.12.2019
2683 Clouds 9 988 66 10000 6.7 340 21:44 13.12.2019
2684 Clouds 10 988 61 10000 6.7 320 21:22 13.12.2019
2685 Clouds 10 988 61 10000 6.7 320 20:59 13.12.2019
2686 Clouds 10 987 66 10000 8.2 330 20:40 13.12.2019
2687 Clouds 10 987 66 10000 5.7 330 20:20 13.12.2019
2688 Clouds 10 987 66 10000 5.7 330 19:56 13.12.2019
2689 Clouds 10 986 62 10000 5.1 300 19:38 13.12.2019
2690 Clouds 10 986 62 10000 5.1 300 19:19 13.12.2019
2691 Clouds 10 986 62 10000 6.7 310 18:55 13.12.2019
2692 Thunderstorm 10 986 66 10000 5.1 260 18:36 13.12.2019
2693 Thunderstorm 11 986 66 10000 5.1 260 18:18 13.12.2019
2694 Thunderstorm 12 985 82 3500 5.7 250 17:40 13.12.2019
2695 Thunderstorm 13 985 82 3500 5.7 250 17:19 13.12.2019
2696 Clouds 13 986 82 7000 6.7 230 16:57 13.12.2019
2697 Clouds 13 986 82 7000 6.7 230 16:57 13.12.2019
2698 Clouds 13 985 87 4000 6.2 240 16:38 13.12.2019
2699 Clouds 13 985 87 4000 6.2 240 16:20 13.12.2019
2700 Rain 13 987 87 8000 6.2 220 15:43 13.12.2019
2701 Rain 12 986 93 8000 8.2 230 15:22 13.12.2019
2702 Rain 12 989 87 7000 5.7 200 14:57 13.12.2019
2703 Clouds 12 989 87 6000 7.2 220 14:38 13.12.2019
2704 Clouds 12 989 87 6000 7.2 220 14:19 13.12.2019
2705 Clouds 11 990 87 8000 10.8 240 13:44 13.12.2019
2706 Clouds 11 990 87 8000 10.8 240 13:44 13.12.2019
2707 Rain 11 991 93 800 4.6 200 13:26 13.12.2019
2708 Rain 10 992 93 7000 5.1 170 12:58 13.12.2019
2709 Rain 10 992 93 7000 5.1 170 12:40 13.12.2019
2710 Rain 10 993 100 4000 3.6 160 12:19 13.12.2019
2711 Rain 10 993 100 4000 3.6 160 12:19 13.12.2019
2712 Clouds 9 995 87 10000 6.7 160 11:45 13.12.2019
2713 Clouds 9 995 100 4000 4.6 110 11:26 13.12.2019
2714 Rain 8 995 87 4000 7.2 160 10:57 13.12.2019
2715 Rain 8 997 93 8000 9.3 200 10:39 13.12.2019
2716 Rain 8 997 93 8000 9.3 200 10:21 13.12.2019
2717 Rain 7 996 87 6000 6.2 160 09:42 13.12.2019
2718 Rain 7 997 100 3000 2.1 100 09:21 13.12.2019
2719 Rain 7 997 81 6000 7.2 140 08:55 13.12.2019
2720 Rain 7 997 81 6000 7.2 140 08:55 13.12.2019
2721 Rain 6 998 100 3000 1 0 08:36 13.12.2019
2722 Rain 6 998 100 3000 1 0 08:18 13.12.2019
2723 Rain 7 998 70 10000 6.2 150 07:42 13.12.2019
2724 Rain 7 998 70 10000 6.2 150 07:19 13.12.2019
2725 Clouds 7 999 66 10000 3.6 140 06:39 13.12.2019
2726 Clouds 6 999 66 10000 3.6 140 06:20 13.12.2019
2727 Rain 5 1000 81 10000 3.1 130 05:37 13.12.2019
2728 Clouds 5 1000 81 10000 3.1 130 05:19 13.12.2019
2729 Clouds 4 1002 86 10000 2.6 110 03:55 13.12.2019
2730 Clouds 4 1003 86 10000 2.6 110 02:56 13.12.2019
2731 Clouds 4 1003 93 10000 2.6 110 02:30 13.12.2019
2732 Clouds 4 1003 86 10000 2.6 110 01:34 13.12.2019
2733 Clouds 4 1004 86 10000 2.6 100 00:50 13.12.2019
2734 Clouds 5 1004 86 10000 2.6 110 00:28 13.12.2019
2735 Clouds 5 1004 93 10000 1.5 100 23:43 12.12.2019
2736 Clouds 6 1004 93 10000 2.1 120 23:25 12.12.2019
2737 Clouds 6 1004 93 10000 1.5 100 22:57 12.12.2019
2738 Clouds 6 1004 87 10000 1.5 100 22:39 12.12.2019
2739 Clouds 6 1004 87 10000 1.5 100 22:21 12.12.2019
2740 Clouds 6 1004 87 10000 2.1 130 21:56 12.12.2019
2741 Clouds 6 1004 87 10000 2.1 120 21:37 12.12.2019
2742 Clouds 7 1004 87 10000 2.1 120 21:19 12.12.2019
2743 Clouds 7 1004 93 10000 1.5 120 20:59 12.12.2019
2744 Clouds 6 1004 87 10000 1.5 140 20:40 12.12.2019
2745 Clouds 6 1004 87 10000 1.5 140 20:21 12.12.2019
2746 Clouds 6 1004 87 10000 1 0 19:56 12.12.2019
2747 Rain 6 1004 87 10000 2.1 260 19:37 12.12.2019
2748 Rain 6 1004 87 10000 2.1 260 19:18 12.12.2019
2749 Clouds 7 1003 81 10000 1 0 18:56 12.12.2019
2750 Clouds 7 1003 81 10000 1 0 18:37 12.12.2019
2751 Clouds 7 1003 81 10000 1 0 18:37 12.12.2019
2752 Clouds 7 1003 81 10000 1 0 18:19 12.12.2019
2753 Clouds 7 1003 81 10000 1.5 90 17:56 12.12.2019
2754 Clouds 7 1004 93 10000 1.49 315 17:38 12.12.2019
2755 Clouds 8 1004 93 10000 2.21 58 17:19 12.12.2019
2756 Rain 8 1003 76 10000 1 0 16:54 12.12.2019
2757 Clouds 8 1004 87 10000 1.5 0 16:36 12.12.2019
2758 Clouds 8 1004 87 10000 1.5 0 16:18 12.12.2019
2759 Clouds 8 1003 76 7000 3.6 50 15:42 12.12.2019
2760 Clouds 8 1004 87 10000 0.5 0 15:20 12.12.2019
2761 Clouds 8 1004 81 10000 4.1 30 14:57 12.12.2019
2762 Rain 8 1004 87 10000 3.6 30 14:37 12.12.2019
2763 Rain 8 1004 87 10000 3.6 30 14:19 12.12.2019
2764 Clouds 9 1004 93 10000 5.7 30 13:55 12.12.2019
2765 Rain 9 1005 75 8000 4.1 320 13:37 12.12.2019
2766 Rain 9 1005 75 8000 4.1 320 13:19 12.12.2019
2767 Clouds 10 1004 62 10000 3.1 180 12:55 12.12.2019
2768 Clouds 10 1005 81 10000 1 0 12:37 12.12.2019
2769 Clouds 10 1005 81 10000 1 0 12:18 12.12.2019
2770 Clouds 9 1005 70 10000 0.5 0 11:40 12.12.2019
2771 Clouds 8 1006 86 10000 1.5 0 11:22 12.12.2019
2772 Clouds 7 1005 81 10000 2.6 320 10:59 12.12.2019
2773 Clouds 7 1005 81 10000 2.6 320 10:59 12.12.2019
2774 Clouds 7 1005 81 10000 2.6 320 10:41 12.12.2019
2775 Clouds 7 1006 86 10000 1.5 0 10:22 12.12.2019
2776 Clouds 7 1005 70 10000 1.5 20 09:57 12.12.2019
2777 Rain 7 1006 86 8000 1.5 0 09:39 12.12.2019
2778 Rain 6 1006 86 8000 1.5 0 09:20 12.12.2019
2779 Clouds 6 1005 80 10000 1 0 08:50 12.12.2019
2780 Clouds 5 1005 86 8000 2.6 10 08:29 12.12.2019
2781 Clouds 5 1005 80 10000 1.5 20 07:59 12.12.2019
2782 Clouds 5 1005 80 10000 1.5 20 07:39 12.12.2019
2783 Clouds 5 1004 75 10000 0.5 0 07:21 12.12.2019
2784 Clouds 5 1004 75 10000 1.5 120 06:42 12.12.2019
2785 Clouds 5 1004 76 10000 1.5 120 06:23 12.12.2019
2786 Clouds 5 1005 80 10000 2.6 70 05:34 12.12.2019
2787 Clouds 5 1006 86 10000 1.5 20 04:48 12.12.2019
2788 Clouds 5 1007 80 10000 1 250 02:44 12.12.2019
2789 Clouds 5 1007 76 10000 0.5 0 02:25 12.12.2019
2790 Clouds 5 1007 70 10000 1.5 60 01:59 12.12.2019
2791 Clouds 5 1008 70 10000 1.5 30 01:36 12.12.2019
2792 Clouds 5 1008 80 10000 1 0 00:50 12.12.2019
2793 Clouds 5 1008 72 10000 1 0 00:22 12.12.2019
2794 Clouds 5 1009 72 10000 1 290 23:58 11.12.2019
2795 Clouds 5 1008 72 10000 1.5 30 23:39 11.12.2019
2796 Clouds 5 1008 67 10000 1.5 30 23:19 11.12.2019
2797 Clouds 5 1009 65 10000 1.5 20 22:57 11.12.2019
2798 Clouds 5 1009 67 10000 1.5 30 22:38 11.12.2019
2799 Clouds 5 1009 67 10000 1.5 30 22:38 11.12.2019
2800 Clouds 5 1009 67 10000 1.5 30 22:19 11.12.2019
2801 Clouds 5 1009 67 10000 1.5 50 21:55 11.12.2019
2802 Clouds 5 1009 67 10000 1.5 50 21:55 11.12.2019
2803 Clouds 5 1009 67 10000 1.5 50 21:37 11.12.2019
2804 Clouds 6 1009 67 10000 1.5 50 21:19 11.12.2019
2805 Clouds 6 1009 70 10000 1.5 60 20:55 11.12.2019
2806 Clouds 6 1009 65 10000 2.1 80 20:37 11.12.2019
2807 Clear 6 1009 65 10000 2.1 80 20:18 11.12.2019
2808 Clear 6 1010 70 10000 1 80 19:43 11.12.2019
2809 Clear 6 1009 70 10000 1 0 19:23 11.12.2019
2810 Clear 7 1009 59 10000 1.5 60 18:59 11.12.2019
2811 Clear 7 1009 59 10000 1.5 60 18:40 11.12.2019
2812 Clear 7 1010 59 10000 2.1 40 18:20 11.12.2019
2813 Clear 8 1010 59 10000 2.1 60 17:57 11.12.2019
2814 Clear 8 1010 57 10000 2.1 10 17:38 11.12.2019
2815 Clear 8 1010 57 10000 2.1 10 17:18 11.12.2019
2816 Clear 10 1010 60 10000 2.6 10 16:56 11.12.2019
2817 Clear 11 1010 50 10000 2.6 360 16:37 11.12.2019
2818 Clear 11 1010 50 10000 2.6 360 16:19 11.12.2019
2819 Clear 12 1009 60 10000 3.6 350 15:57 11.12.2019
2820 Clear 12 1010 46 10000 4.1 360 15:37 11.12.2019
2821 Clear 12 1010 46 10000 4.1 360 15:19 11.12.2019
2822 Clouds 12 1010 60 10000 3.6 360 14:55 11.12.2019
2823 Clear 12 1011 46 10000 3.6 350 14:37 11.12.2019
2824 Clear 12 1011 46 10000 3.6 350 14:18 11.12.2019
2825 Clear 11 1010 46 10000 3.6 10 13:44 11.12.2019
2826 Clear 11 1011 50 10000 3.6 20 13:23 11.12.2019
2827 Clear 11 1011 50 10000 4.1 10 12:59 11.12.2019
2828 Clear 11 1012 50 10000 4.1 0 12:40 11.12.2019
2829 Clear 11 1012 50 10000 4.1 0 12:22 11.12.2019
2830 Clear 11 1012 57 10000 4.6 20 11:58 11.12.2019
2831 Clear 10 1013 53 10000 4.1 10 11:39 11.12.2019
2832 Clear 10 1013 53 10000 4.1 10 11:19 11.12.2019
2833 Clear 9 1012 60 10000 5.7 10 10:59 11.12.2019
2834 Clear 9 1013 57 10000 4.6 10 10:40 11.12.2019
2835 Clear 8 1013 57 10000 4.6 10 10:21 11.12.2019
2836 Clear 9 1013 57 10000 4.6 10 10:21 11.12.2019
2837 Clear 8 1012 60 10000 5.1 30 09:57 11.12.2019
2838 Clear 8 1013 65 10000 2.6 350 09:38 11.12.2019
2839 Clear 7 1013 65 10000 2.6 350 09:19 11.12.2019
2840 Clear 7 1012 60 10000 3.6 40 08:55 11.12.2019
2841 Clear 6 1013 60 10000 5.1 360 08:36 11.12.2019
2842 Clear 5 1013 68 10000 5.1 360 08:18 11.12.2019
2843 Clear 5 1012 67 10000 3.1 50 07:43 11.12.2019
2844 Clear 5 1012 65 10000 3.6 30 07:24 11.12.2019
2845 Clear 5 1012 65 10000 3.6 30 07:24 11.12.2019
2846 Clear 5 1012 65 10000 3.1 40 06:46 11.12.2019
2847 Clear 5 1012 65 10000 3.1 40 06:25 11.12.2019
2848 Clear 5 1012 67 10000 3.6 30 05:55 11.12.2019
2849 Clear 5 1012 67 10000 4.1 30 05:35 11.12.2019
2850 Clear 6 1012 66 10000 4.1 20 04:51 11.12.2019
2851 Clear 6 1013 70 10000 5.1 30 03:26 11.12.2019
2852 Clear 7 1013 70 10000 4.1 30 02:35 11.12.2019
2853 Clouds 7 1013 70 10000 3.6 30 01:22 11.12.2019
2854 Clear 7 1013 65 10000 4.6 30 00:38 11.12.2019
2855 Clear 8 1013 65 10000 4.6 30 00:19 11.12.2019
2856 Clear 8 1013 65 10000 4.6 30 23:45 10.12.2019
2857 Clouds 8 1013 70 10000 4.1 30 23:26 10.12.2019
2858 Clouds 8 1013 65 10000 4.6 20 22:56 10.12.2019
2859 Clouds 8 1013 65 10000 4.1 30 22:38 10.12.2019
2860 Clouds 8 1013 65 10000 4.1 30 22:20 10.12.2019
2861 Clouds 8 1013 65 10000 4.6 10 21:54 10.12.2019
2862 Clouds 9 1013 65 10000 4.1 20 21:36 10.12.2019
2863 Clouds 8 1013 65 10000 4.1 20 21:18 10.12.2019
2864 Clouds 8 1013 61 10000 3.6 20 20:55 10.12.2019
2865 Clouds 8 1012 66 10000 4.1 30 20:36 10.12.2019
2866 Clouds 9 1012 66 10000 4.1 30 20:18 10.12.2019
2867 Clouds 9 1012 66 10000 4.1 30 20:18 10.12.2019
2868 Clouds 9 1012 66 10000 5.1 30 19:44 10.12.2019
2869 Clouds 9 1012 61 10000 5.7 20 19:25 10.12.2019
2870 Clouds 10 1011 57 10000 4.1 20 18:57 10.12.2019
2871 Clouds 10 1011 53 10000 3.1 30 18:39 10.12.2019
2872 Clouds 11 1011 53 10000 3.1 30 18:19 10.12.2019
2873 Clouds 11 1010 53 10000 3.6 40 17:54 10.12.2019
2874 Clouds 11 1010 53 10000 3.6 40 17:54 10.12.2019
2875 Clouds 11 1011 58 10000 6.7 10 17:36 10.12.2019
2876 Clouds 11 1011 58 10000 6.7 10 17:18 10.12.2019
2877 Clouds 12 1010 54 10000 7.2 30 16:42 10.12.2019
2878 Clouds 13 1010 54 10000 7.2 30 16:20 10.12.2019
2879 Clouds 13 1010 54 10000 7.2 30 16:20 10.12.2019
2880 Clouds 13 1009 47 10000 6.7 360 15:54 10.12.2019
2881 Clouds 14 1010 54 10000 5.7 10 15:36 10.12.2019
2882 Clouds 14 1010 54 10000 5.7 10 15:18 10.12.2019
2883 Clouds 14 1010 54 10000 5.7 10 15:18 10.12.2019
2884 Clouds 14 1009 54 10000 6.2 350 14:42 10.12.2019
2885 Clouds 14 1010 58 10000 7.2 350 14:24 10.12.2019
2886 Clouds 14 1009 50 10000 6.2 360 13:59 10.12.2019
2887 Clouds 14 1010 62 10000 6.7 10 13:40 10.12.2019
2888 Clouds 14 1010 62 10000 6.7 10 13:20 10.12.2019
2889 Clouds 13 1009 62 10000 5.7 10 12:57 10.12.2019
2890 Clouds 13 1010 66 10000 6.7 360 12:38 10.12.2019
2891 Clouds 13 1010 66 10000 6.7 360 12:20 10.12.2019
2892 Clouds 12 1009 71 10000 5.1 10 11:41 10.12.2019
2893 Clouds 12 1010 71 10000 5.7 10 11:23 10.12.2019
2894 Clouds 11 1009 76 10000 4.1 360 10:55 10.12.2019
2895 Clouds 10 1009 87 10000 2.6 360 10:37 10.12.2019
2896 Clouds 10 1009 87 10000 2.6 360 10:18 10.12.2019
2897 Clouds 9 1008 93 10000 5.1 20 09:54 10.12.2019
2898 Clouds 9 1009 100 10000 5.16 16 09:36 10.12.2019
2899 Clouds 8 1009 100 10000 5.16 16 09:18 10.12.2019
2900 Clouds 7 1008 93 10000 4.1 30 08:41 10.12.2019
2901 Clouds 6 1008 100 10000 1.5 0 08:22 10.12.2019
2902 Clouds 6 1007 93 10000 3.6 30 07:57 10.12.2019
2903 Clouds 6 1007 93 10000 3.6 30 07:39 10.12.2019
2904 Clouds 6 1007 93 10000 3.1 20 07:39 10.12.2019
2905 Clouds 6 1007 93 10000 3.1 20 07:20 10.12.2019
2906 Clouds 6 1007 93 10000 3.1 360 06:46 10.12.2019
2907 Clouds 6 1006 93 10000 3.1 40 06:19 10.12.2019
2908 Clouds 6 1006 93 10000 3.1 40 06:19 10.12.2019
2909 Clouds 6 1007 93 10000 3.1 20 05:52 10.12.2019
2910 Clouds 6 1007 93 10000 2.6 10 04:50 10.12.2019
2911 Clouds 7 1007 93 10000 1.5 350 03:32 10.12.2019
2912 Clouds 7 1007 93 10000 1.5 20 02:40 10.12.2019
2913 Rain 7 1007 87 10000 0.5 0 01:44 10.12.2019
2914 Rain 7 1007 87 10000 1.5 330 01:20 10.12.2019
2915 Clouds 8 1007 81 10000 2.1 90 00:40 10.12.2019
2916 Clouds 8 1007 81 10000 2.1 90 00:19 10.12.2019
2917 Clouds 8 1007 87 10000 1.5 90 23:41 09.12.2019
2918 Clouds 8 1007 87 10000 1.5 90 23:41 09.12.2019
2919 Clouds 8 1007 87 10000 1.5 90 23:22 09.12.2019
2920 Clouds 8 1008 87 10000 1.5 140 22:58 09.12.2019
2921 Clouds 8 1008 87 10000 1.5 140 22:39 09.12.2019
2922 Clouds 9 1008 87 10000 1 0 22:19 09.12.2019
2923 Clouds 8 1008 87 10000 2.1 120 21:56 09.12.2019
2924 Clouds 9 1008 87 10000 1.5 80 21:38 09.12.2019
2925 Clouds 9 1008 87 10000 1.5 80 21:18 09.12.2019
2926 Clouds 9 1008 81 10000 1.5 60 20:56 09.12.2019
2927 Clouds 9 1008 81 10000 2.1 330 20:38 09.12.2019
2928 Clouds 10 1008 81 10000 2.1 330 20:20 09.12.2019
2929 Clouds 10 1008 87 10000 1.5 0 19:55 09.12.2019
2930 Clouds 11 1008 87 10000 1.5 0 19:55 09.12.2019
2931 Clouds 11 1008 81 10000 1 0 19:37 09.12.2019
2932 Clouds 11 1008 81 10000 1 0 19:19 09.12.2019
2933 Clouds 11 1008 81 10000 1.5 180 18:56 09.12.2019
2934 Clouds 11 1007 81 10000 2.1 160 18:37 09.12.2019
2935 Clouds 11 1007 81 10000 2.1 160 18:19 09.12.2019
2936 Clouds 12 1007 82 10000 2.1 170 17:57 09.12.2019
2937 Rain 12 1007 82 10000 1.5 0 17:38 09.12.2019
2938 Rain 12 1007 82 10000 1.5 0 17:20 09.12.2019
2939 Clouds 13 1008 76 10000 2.1 200 16:56 09.12.2019
2940 Clouds 13 1008 82 10000 1.5 230 16:37 09.12.2019
2941 Clouds 13 1008 82 10000 1.5 230 16:18 09.12.2019
2942 Clouds 14 1008 82 10000 2.1 190 15:55 09.12.2019
2943 Clouds 14 1008 82 10000 2.1 190 15:36 09.12.2019
2944 Clouds 14 1008 82 10000 2.1 190 15:36 09.12.2019
2945 Clouds 14 1008 82 10000 2.1 190 15:18 09.12.2019
2946 Clouds 14 1008 82 10000 3.6 170 14:42 09.12.2019
2947 Clouds 14 1008 82 10000 2.6 180 14:19 09.12.2019
2948 Clouds 14 1009 82 10000 3.1 170 13:58 09.12.2019
2949 Clouds 14 1010 77 10000 3.1 200 13:38 09.12.2019
2950 Clouds 14 1010 77 10000 3.1 200 13:19 09.12.2019
2951 Clouds 14 1011 77 10000 3.6 180 12:57 09.12.2019
2952 Clouds 14 1012 82 10000 3.6 150 12:38 09.12.2019
2953 Clouds 14 1012 82 10000 3.6 150 12:19 09.12.2019
2954 Clouds 13 1012 87 10000 2.6 190 11:57 09.12.2019
2955 Clouds 13 1013 93 10000 3.1 130 11:37 09.12.2019
2956 Clouds 12 1013 93 10000 3.1 130 11:18 09.12.2019
2957 Rain 12 1013 82 10000 3.6 170 10:41 09.12.2019
2958 Clouds 12 1013 93 10000 1 0 10:20 09.12.2019
2959 Clouds 11 1012 82 10000 3.6 160 09:59 09.12.2019
2960 Clouds 11 1013 100 10000 3.6 120 09:41 09.12.2019
2961 Clouds 11 1013 100 10000 3.6 120 09:21 09.12.2019
2962 Clouds 11 1013 81 10000 3.1 140 08:54 09.12.2019
2963 Clouds 11 1013 100 8000 2.1 130 08:36 09.12.2019
2964 Clouds 10 1013 100 8000 2.1 130 08:18 09.12.2019
2965 Clouds 10 1013 100 8000 2.1 130 08:18 09.12.2019
2966 Clouds 10 1013 87 10000 2.6 140 07:42 09.12.2019
2967 Clouds 10 1013 93 10000 2.1 140 07:23 09.12.2019
2968 Clouds 10 1014 93 10000 2.1 130 06:49 09.12.2019
2969 Clouds 10 1014 93 10000 2.1 120 06:25 09.12.2019
2970 Clouds 11 1015 87 8000 2.6 200 05:29 09.12.2019
2971 Clouds 10 1015 93 10000 2.1 220 04:49 09.12.2019
2972 Clouds 11 1015 82 10000 2.6 170 03:45 09.12.2019
2973 Clouds 10 1016 82 10000 3.1 150 02:24 09.12.2019
2974 Clouds 10 1017 87 10000 2.6 150 01:44 09.12.2019
2975 Clouds 10 1017 87 10000 2.1 130 00:53 09.12.2019
2976 Clouds 10 1018 87 10000 2.1 150 00:32 09.12.2019
2977 Clouds 10 1018 93 10000 3.1 130 23:44 08.12.2019
2978 Clouds 11 1018 87 10000 2.6 140 23:24 08.12.2019
2979 Clouds 11 1018 87 10000 2.6 120 22:58 08.12.2019
2980 Clouds 11 1018 87 10000 2.6 120 22:39 08.12.2019
2981 Clouds 11 1018 87 10000 2.1 120 22:20 08.12.2019
2982 Clouds 11 1019 87 10000 1.5 140 21:58 08.12.2019
2983 Clouds 11 1019 87 10000 1.5 130 21:40 08.12.2019
2984 Clouds 11 1019 87 10000 1.5 130 21:40 08.12.2019
2985 Clouds 12 1019 87 10000 1.5 130 21:22 08.12.2019
2986 Clouds 12 1019 93 10000 2.6 130 20:57 08.12.2019
2987 Clouds 12 1019 93 10000 2.6 130 20:38 08.12.2019
2988 Clouds 11 1019 87 10000 1.5 120 20:20 08.12.2019
2989 Clouds 12 1019 87 10000 2.1 130 19:59 08.12.2019
2990 Clouds 12 1019 87 10000 1 0 19:41 08.12.2019
2991 Clouds 12 1019 87 10000 1 0 19:23 08.12.2019
2992 Drizzle 12 1019 76 10000 1 190 18:55 08.12.2019
2993 Drizzle 13 1019 76 10000 1 190 18:55 08.12.2019
2994 Clouds 12 1019 76 10000 0.5 0 18:37 08.12.2019
2995 Clouds 13 1019 76 10000 0.5 0 18:19 08.12.2019
2996 Clouds 13 1019 76 10000 1.5 140 17:57 08.12.2019
2997 Clouds 13 1020 82 10000 1 0 17:38 08.12.2019
2998 Clouds 13 1020 82 10000 1 0 17:20 08.12.2019
2999 Clouds 13 1020 82 10000 1 0 17:20 08.12.2019
3000 Clouds 13 1020 82 10000 1 0 17:20 08.12.2019
3001 Clouds 13 1020 82 10000 1 0 17:20 08.12.2019
3002 Clouds 13 1020 82 10000 1 0 17:20 08.12.2019
3003 Clouds 14 1020 76 10000 1 190 16:57 08.12.2019
3004 Clouds 14 1020 72 10000 2.6 240 16:39 08.12.2019
3005 Clouds 14 1020 72 10000 2.6 240 16:20 08.12.2019
3006 Clouds 14 1020 63 10000 2.6 220 15:55 08.12.2019
3007 Clouds 14 1020 77 10000 2.6 210 15:36 08.12.2019
3008 Clouds 15 1020 77 10000 2.6 210 15:18 08.12.2019
3009 Clouds 14 1020 77 10000 2.6 180 14:43 08.12.2019
3010 Clouds 15 1020 82 10000 2.6 200 14:24 08.12.2019
3011 Clouds 14 1020 77 10000 2.1 200 13:58 08.12.2019
3012 Clouds 14 1020 77 10000 2.1 200 13:40 08.12.2019
3013 Clouds 14 1021 82 10000 2.93 227 13:21 08.12.2019
3014 Clouds 14 1021 77 10000 2.1 190 12:56 08.12.2019
3015 Clouds 15 1021 87 10000 2.93 227 12:38 08.12.2019
3016 Clouds 14 1021 87 10000 2.93 227 12:18 08.12.2019
3017 Clouds 14 1021 72 10000 2.6 180 11:55 08.12.2019
3018 Clouds 14 1022 93 10000 1 0 11:37 08.12.2019
3019 Clouds 13 1022 93 10000 1 0 11:19 08.12.2019
3020 Clouds 13 1022 93 10000 1 0 11:19 08.12.2019
3021 Clouds 13 1022 93 10000 1 0 11:19 08.12.2019
3022 Clouds 13 1021 77 10000 2.6 170 10:40 08.12.2019
3023 Clouds 12 1022 100 10000 0.5 0 10:21 08.12.2019
3024 Clouds 12 1021 77 10000 2.6 150 09:58 08.12.2019
3025 Clouds 12 1021 77 10000 2.6 150 09:39 08.12.2019
3026 Clouds 11 1022 100 10000 2.1 350 09:20 08.12.2019
3027 Clouds 11 1021 82 10000 2.6 150 08:59 08.12.2019
3028 Clouds 11 1021 100 8000 0.5 0 08:39 08.12.2019
3029 Clouds 10 1021 100 8000 0.5 0 08:21 08.12.2019
3030 Clouds 10 1021 100 8000 0.5 0 08:21 08.12.2019
3031 Clouds 10 1021 87 10000 1.5 120 07:45 08.12.2019
3032 Clouds 10 1020 87 10000 2.1 110 07:20 08.12.2019
3033 Clouds 10 1020 93 10000 1.5 120 06:52 08.12.2019
3034 Clouds 10 1020 93 10000 2.1 110 06:23 08.12.2019
3035 Clouds 10 1020 87 10000 2.6 120 05:52 08.12.2019
3036 Clouds 11 1020 87 10000 1.5 120 05:19 08.12.2019
3037 Clouds 11 1021 93 10000 2.6 90 03:55 08.12.2019
3038 Clouds 11 1021 93 10000 2.6 110 03:37 08.12.2019
3039 Clouds 11 1021 93 10000 1.5 100 02:40 08.12.2019
3040 Clouds 10 1021 93 10000 2.1 100 01:56 08.12.2019
3041 Clouds 10 1021 93 10000 2.1 110 01:33 08.12.2019
3042 Rain 10 1021 93 10000 2.1 100 00:43 08.12.2019
3043 Rain 10 1021 93 10000 2.1 110 00:21 08.12.2019
3044 Rain 10 1021 93 10000 2.6 120 23:55 07.12.2019
3045 Clouds 10 1021 93 10000 2.6 120 23:36 07.12.2019
3046 Clouds 10 1021 93 10000 2.6 120 23:18 07.12.2019
3047 Clouds 10 1021 87 10000 2.1 130 22:54 07.12.2019
3048 Clouds 10 1021 87 10000 2.1 130 22:54 07.12.2019
3049 Clouds 10 1021 93 10000 2.1 130 22:36 07.12.2019
3050 Clouds 10 1021 93 10000 2.1 130 22:36 07.12.2019
3051 Clouds 11 1021 93 10000 2.1 130 22:18 07.12.2019
3052 Clouds 11 1021 93 10000 2.6 130 21:54 07.12.2019
3053 Clouds 11 1021 87 10000 2.1 140 21:36 07.12.2019
3054 Clouds 11 1021 87 10000 2.1 140 21:18 07.12.2019
3055 Clouds 11 1021 93 10000 1.5 150 20:37 07.12.2019
3056 Clouds 11 1021 93 10000 1.5 150 20:19 07.12.2019
3057 Clouds 12 1021 93 10000 2.1 130 19:57 07.12.2019
3058 Clouds 12 1021 93 10000 2.1 130 19:38 07.12.2019
3059 Clouds 12 1020 87 10000 2.6 120 19:20 07.12.2019
3060 Clouds 12 1020 93 10000 2.1 130 18:55 07.12.2019
3061 Clouds 12 1020 93 10000 1.5 150 18:36 07.12.2019
3062 Clouds 12 1020 93 10000 1.5 150 18:18 07.12.2019
3063 Clouds 13 1020 93 10000 1.5 140 17:42 07.12.2019
3064 Clouds 13 1020 87 10000 0.5 0 17:24 07.12.2019
3065 Clouds 14 1020 82 10000 1 0 16:58 07.12.2019
3066 Clouds 14 1019 77 10000 3.6 220 16:39 07.12.2019
3067 Clouds 14 1019 77 10000 3.6 220 16:21 07.12.2019
3068 Clouds 14 1020 82 10000 2.1 230 15:58 07.12.2019
3069 Clouds 15 1020 82 10000 2.1 230 15:39 07.12.2019
3070 Clouds 15 1019 77 10000 3.6 220 15:20 07.12.2019
3071 Clouds 15 1020 87 10000 1.5 190 14:42 07.12.2019
3072 Clouds 15 1020 77 10000 2.1 210 14:19 07.12.2019
3073 Clouds 15 1020 77 10000 2.1 200 13:58 07.12.2019
3074 Clouds 15 1020 82 10000 1.5 0 13:39 07.12.2019
3075 Clouds 15 1020 82 10000 1.5 0 13:39 07.12.2019
3076 Clouds 15 1020 82 10000 1.5 0 13:19 07.12.2019
3077 Clouds 15 1021 77 6000 0.5 0 12:41 07.12.2019
3078 Clouds 15 1021 77 6000 0.5 0 12:23 07.12.2019
3079 Clouds 15 1021 77 6000 0.5 0 12:23 07.12.2019
3080 Clouds 14 1021 82 10000 0.5 0 11:59 07.12.2019
3081 Clouds 14 1021 87 6000 3.15 197 11:41 07.12.2019
3082 Clouds 14 1021 87 6000 3.15 197 11:41 07.12.2019
3083 Clouds 14 1021 87 6000 1.87 143 11:22 07.12.2019
3084 Mist 13 1021 100 3000 1.87 143 10:39 07.12.2019
3085 Mist 13 1021 100 3000 1.87 143 10:20 07.12.2019
3086 Clouds 12 1021 82 10000 1.5 150 09:59 07.12.2019
3087 Clouds 12 1021 93 10000 2.1 130 09:38 07.12.2019
3088 Clouds 12 1021 93 10000 2.1 130 09:38 07.12.2019
3089 Mist 11 1021 100 1500 1 0 09:20 07.12.2019
3090 Clouds 11 1021 93 10000 1.5 130 08:45 07.12.2019
3091 Clouds 11 1021 93 10000 1.5 130 08:22 07.12.2019
3092 Clouds 10 1020 93 10000 1 110 07:47 07.12.2019
3093 Clouds 10 1020 93 10000 1.5 120 07:28 07.12.2019
3094 Clouds 10 1020 93 10000 1 110 06:52 07.12.2019
3095 Clouds 10 1020 93 10000 2.1 110 06:26 07.12.2019
3096 Clouds 10 1020 93 10000 2.1 110 05:47 07.12.2019
3097 Clear 11 1020 93 10000 2.1 130 04:41 07.12.2019
3098 Clear 11 1020 87 10000 2.1 150 03:49 07.12.2019
3099 Clouds 11 1020 87 10000 2.6 130 02:22 07.12.2019
3100 Clouds 11 1021 93 10000 2.1 110 01:37 07.12.2019
3101 Clouds 11 1021 93 10000 2.1 110 01:18 07.12.2019
3102 Clouds 11 1021 93 10000 2.1 160 00:21 07.12.2019
3103 Clouds 11 1021 87 10000 2.1 130 23:57 06.12.2019
3104 Clouds 11 1021 93 10000 2.1 140 23:38 06.12.2019
3105 Clouds 10 1021 93 10000 2.1 140 23:19 06.12.2019
3106 Clouds 10 1021 93 10000 2.1 130 22:39 06.12.2019
3107 Rain 10 1021 87 10000 2.1 110 22:21 06.12.2019
3108 Rain 11 1021 87 10000 2.6 120 21:58 06.12.2019
3109 Rain 11 1021 87 10000 2.6 120 21:40 06.12.2019
3110 Rain 10 1021 93 10000 2.6 130 21:20 06.12.2019
3111 Rain 11 1021 87 10000 2.6 130 20:46 06.12.2019
3112 Clouds 11 1021 93 9000 2.1 140 20:26 06.12.2019
3113 Clouds 11 1021 87 8000 2.6 130 19:59 06.12.2019
3114 Clouds 11 1021 81 8000 2.1 120 19:40 06.12.2019
3115 Clouds 11 1021 81 8000 2.1 120 19:22 06.12.2019
3116 Clouds 11 1021 87 7000 2.1 140 18:58 06.12.2019
3117 Clouds 12 1021 81 10000 1.5 120 18:40 06.12.2019
3118 Clouds 11 1021 81 10000 1.5 120 18:20 06.12.2019
3119 Clouds 12 1021 82 10000 1.5 150 17:57 06.12.2019
3120 Clouds 12 1021 81 10000 1 0 17:39 06.12.2019
3121 Clouds 13 1021 81 10000 1 0 17:20 06.12.2019
3122 Clouds 14 1021 72 10000 1.5 180 16:55 06.12.2019
3123 Clouds 14 1022 76 10000 1 0 16:37 06.12.2019
3124 Clouds 14 1022 76 10000 1 0 16:18 06.12.2019
3125 Clouds 15 1021 67 10000 0.5 0 15:41 06.12.2019
3126 Clouds 15 1022 67 10000 1.5 0 15:19 06.12.2019
3127 Clouds 15 1022 67 10000 1.5 0 15:19 06.12.2019
3128 Clouds 15 1022 67 10000 0.5 0 14:57 06.12.2019
3129 Clouds 15 1022 71 10000 2.1 360 14:39 06.12.2019
3130 Clouds 15 1022 71 10000 2.1 360 14:19 06.12.2019
3131 Clouds 15 1022 62 10000 1 0 13:44 06.12.2019
3132 Clouds 15 1023 76 10000 1.5 0 13:26 06.12.2019
3133 Clouds 14 1023 67 10000 1.5 10 12:43 06.12.2019
3134 Clouds 14 1024 76 10000 2.6 0 12:23 06.12.2019
3135 Clouds 14 1024 76 10000 2.6 0 12:23 06.12.2019
3136 Clouds 14 1023 71 10000 1.5 360 11:58 06.12.2019
3137 Clouds 13 1024 81 10000 1.5 0 11:39 06.12.2019
3138 Clouds 13 1024 81 10000 1.5 0 11:21 06.12.2019
3139 Clouds 12 1024 71 10000 1 0 10:44 06.12.2019
3140 Clouds 12 1024 81 10000 2.1 350 10:22 06.12.2019
3141 Clouds 11 1023 87 10000 1 0 09:59 06.12.2019
3142 Clouds 10 1024 93 10000 1.91 19 09:38 06.12.2019
3143 Clouds 10 1024 93 10000 1.91 19 09:20 06.12.2019
3144 Clouds 8 1023 81 10000 1 0 08:55 06.12.2019
3145 Clouds 8 1024 93 9000 1.5 0 08:36 06.12.2019
3146 Clouds 8 1024 93 9000 1.5 0 08:18 06.12.2019
3147 Clouds 8 1023 81 10000 2.1 20 07:36 06.12.2019
3148 Clouds 8 1023 81 10000 2.1 20 07:18 06.12.2019
3149 Clouds 9 1023 81 10000 1.5 30 06:30 06.12.2019
3150 Clouds 8 1023 87 10000 2.1 20 05:54 06.12.2019
3151 Clouds 9 1023 87 10000 1.5 10 05:34 06.12.2019
3152 Clouds 9 1023 81 10000 1.5 20 02:19 06.12.2019
3153 Clouds 9 1023 81 10000 1.5 20 02:19 06.12.2019
3154 Clouds 9 1023 81 10000 2.1 20 01:34 06.12.2019
3155 Clouds 9 1024 81 10000 2.1 360 00:46 06.12.2019
3156 Clouds 9 1023 70 10000 1.5 40 00:21 06.12.2019
3157 Clouds 9 1023 76 10000 1 0 23:47 05.12.2019
3158 Clear 9 1023 81 10000 1.5 20 23:19 05.12.2019
3159 Clear 9 1023 70 10000 1.5 30 22:57 05.12.2019
3160 Clear 9 1023 70 10000 2.1 0 22:38 05.12.2019
3161 Clear 10 1023 70 10000 2.1 0 22:18 05.12.2019
3162 Clear 10 1023 75 10000 1.5 30 21:44 05.12.2019
3163 Clear 10 1023 70 10000 2.1 20 21:25 05.12.2019
3164 Clouds 10 1023 76 10000 1 20 20:59 05.12.2019
3165 Clouds 10 1023 76 10000 1 20 20:40 05.12.2019
3166 Clouds 10 1023 76 10000 1 20 20:40 05.12.2019
3167 Clouds 10 1023 70 10000 1.5 60 20:21 05.12.2019
3168 Clouds 10 1023 70 10000 1.5 60 19:58 05.12.2019
3169 Clouds 10 1023 70 10000 1.5 60 19:58 05.12.2019
3170 Clouds 10 1023 70 10000 1.5 60 19:58 05.12.2019
3171 Clouds 10 1023 70 10000 1 0 19:40 05.12.2019
3172 Clouds 11 1023 66 10000 2.1 20 19:20 05.12.2019
3173 Clouds 11 1023 66 10000 2.1 20 18:57 05.12.2019
3174 Clouds 11 1022 66 10000 1.5 30 18:38 05.12.2019
3175 Clouds 11 1022 62 10000 1.5 10 18:20 05.12.2019
3176 Clouds 11 1022 62 10000 3.1 40 17:40 05.12.2019
3177 Clouds 12 1022 62 10000 4.1 50 17:20 05.12.2019
3178 Clouds 12 1022 62 10000 4.1 50 16:57 05.12.2019
3179 Clouds 12 1022 62 10000 2.1 20 16:39 05.12.2019
3180 Clouds 13 1022 62 10000 2.6 360 16:21 05.12.2019
3181 Clouds 13 1022 62 10000 2.6 360 15:57 05.12.2019
3182 Clouds 13 1021 58 10000 2.6 350 15:38 05.12.2019
3183 Clouds 14 1021 54 10000 2.1 330 15:20 05.12.2019
3184 Clouds 14 1021 54 10000 2.1 330 14:55 05.12.2019
3185 Clouds 14 1021 54 10000 2.1 350 14:37 05.12.2019
3186 Clouds 14 1021 54 10000 3.1 350 14:19 05.12.2019
3187 Clouds 13 1021 54 10000 3.1 350 13:56 05.12.2019
3188 Clouds 13 1021 58 10000 3.1 330 13:38 05.12.2019
3189 Clouds 13 1021 50 10000 1.5 330 13:19 05.12.2019
3190 Clouds 13 1021 50 10000 1.5 320 12:56 05.12.2019
3191 Clouds 13 1021 50 10000 1.5 320 12:38 05.12.2019
3192 Clouds 13 1021 50 10000 1 320 12:19 05.12.2019
3193 Clouds 13 1021 50 10000 2.1 330 11:39 05.12.2019
3194 Clouds 11 1021 54 10000 1 0 11:21 05.12.2019
3195 Clouds 11 1021 54 10000 1 0 11:21 05.12.2019
3196 Clouds 11 1021 57 10000 2.1 360 10:58 05.12.2019
3197 Clouds 11 1021 57 10000 2.1 360 10:40 05.12.2019
3198 Clouds 10 1021 66 10000 1.5 360 10:19 05.12.2019
3199 Clouds 9 1021 65 10000 2.1 40 09:55 05.12.2019
3200 Clouds 9 1021 65 10000 2.1 40 09:36 05.12.2019
3201 Clouds 8 1020 70 10000 2.6 10 09:18 05.12.2019
3202 Clouds 7 1020 70 10000 2.1 10 08:39 05.12.2019
3203 Clouds 8 1020 70 10000 2.6 360 08:20 05.12.2019
3204 Clouds 8 1020 70 10000 2.6 360 08:20 05.12.2019
3205 Clouds 8 1020 70 10000 2.6 360 07:57 05.12.2019
3206 Clouds 8 1020 70 10000 2.1 20 07:36 05.12.2019
3207 Clouds 8 1019 70 10000 2.1 10 07:18 05.12.2019
3208 Clouds 7 1019 70 10000 2.1 10 06:42 05.12.2019
3209 Clouds 7 1019 70 10000 2.6 10 06:21 05.12.2019
3210 Clouds 8 1018 70 10000 2.1 350 05:48 05.12.2019
3211 Clouds 8 1018 65 10000 2.6 10 05:23 05.12.2019
3212 Clouds 8 1018 65 10000 4.1 20 04:25 05.12.2019
3213 Clouds 8 1018 65 10000 4.1 20 04:25 05.12.2019
3214 Clouds 7 1018 65 10000 3.1 10 02:54 05.12.2019
3215 Clouds 7 1018 70 10000 2.6 20 02:25 05.12.2019
3216 Clouds 7 1018 70 10000 2.1 40 01:55 05.12.2019
3217 Clouds 8 1018 65 10000 1 0 01:27 05.12.2019
3218 Clouds 8 1018 65 10000 1 0 01:27 05.12.2019
3219 Clouds 7 1019 75 10000 1 0 00:54 05.12.2019
3220 Clouds 7 1018 70 10000 1.5 120 00:36 05.12.2019
3221 Clouds 8 1018 65 10000 1 0 00:18 05.12.2019
3222 Clouds 8 1018 43 10000 1.5 30 23:40 04.12.2019
3223 Clouds 8 1017 71 10000 4.1 60 23:22 04.12.2019
3224 Clouds 8 1017 71 10000 4.1 60 22:57 04.12.2019
3225 Clouds 8 1017 71 10000 3.6 70 22:36 04.12.2019
3226 Clouds 8 1017 71 10000 3.6 70 22:18 04.12.2019
3227 Clouds 8 1017 71 10000 3.6 70 21:55 04.12.2019
3228 Clouds 8 1017 71 10000 3.6 60 21:37 04.12.2019
3229 Clouds 9 1017 53 10000 3.1 50 21:18 04.12.2019
3230 Clouds 9 1017 53 10000 3.1 50 20:56 04.12.2019
3231 Clouds 8 1017 53 10000 4.1 40 20:37 04.12.2019
3232 Clouds 8 1017 53 10000 1.5 40 20:19 04.12.2019
3233 Clouds 8 1017 57 10000 2.6 90 19:40 04.12.2019
3234 Clouds 9 1017 57 10000 3.6 90 19:21 04.12.2019
3235 Clouds 9 1017 57 10000 3.6 90 18:58 04.12.2019
3236 Clouds 9 1017 76 10000 3.1 110 18:40 04.12.2019
3237 Clouds 9 1015 63 0 2.88 14 18:22 04.12.2019
3238 Clouds 9 1013 66 0 2.88 14 17:56 04.12.2019
3239 Clouds 10 1015 62 10000 3.1 20 17:37 04.12.2019
3240 Clouds 11 1015 62 10000 3.1 20 17:18 04.12.2019
3241 Clouds 12 1015 62 10000 3.1 20 16:40 04.12.2019
3242 Clouds 12 1015 62 10000 3.6 20 16:20 04.12.2019
3243 Clouds 12 1015 62 10000 3.6 20 15:57 04.12.2019
3244 Clouds 13 1015 58 10000 5.7 20 15:39 04.12.2019
3245 Clouds 13 1015 43 10000 5.7 30 15:20 04.12.2019
3246 Clouds 13 1015 43 10000 5.7 30 14:57 04.12.2019
3247 Clouds 13 1015 44 10000 4.1 360 14:39 04.12.2019
3248 Clear 13 1016 58 10000 2.1 340 14:20 04.12.2019
3249 Clear 13 1016 54 10000 2.6 320 13:55 04.12.2019
3250 Clear 13 1016 54 10000 2.6 320 13:36 04.12.2019
3251 Clear 13 1017 54 10000 2.6 350 13:18 04.12.2019
3252 Clear 13 1017 54 10000 2.6 320 12:41 04.12.2019
3253 Clear 12 1018 54 10000 2.6 350 12:23 04.12.2019
3254 Clear 12 1018 58 10000 2.6 350 11:43 04.12.2019
3255 Clear 11 1018 58 10000 2.6 350 11:24 04.12.2019
3256 Clear 10 1018 62 10000 3.1 10 10:58 04.12.2019
3257 Clear 10 1019 61 10000 3.1 20 10:39 04.12.2019
3258 Clear 9 1018 66 10000 4.1 10 10:21 04.12.2019
3259 Clear 8 1018 65 10000 3.1 10 09:43 04.12.2019
3260 Clear 7 1018 65 10000 3.1 10 09:23 04.12.2019
3261 Clear 6 1018 80 10000 3.1 20 08:44 04.12.2019
3262 Clear 6 1018 80 10000 3.1 20 08:44 04.12.2019
3263 Clear 6 1018 80 10000 3.1 20 08:25 04.12.2019
3264 Clear 6 1018 80 10000 3.6 10 07:51 04.12.2019
3265 Clear 6 1018 80 10000 3.6 10 07:31 04.12.2019
3266 Clear 6 1018 65 10000 4.1 20 06:59 04.12.2019
3267 Clear 6 1018 65 10000 4.6 20 06:31 04.12.2019
3268 Clear 7 1018 65 10000 4.6 30 05:46 04.12.2019
3269 Clear 7 1018 68 10000 5.7 30 04:34 04.12.2019
3270 Clear 8 1018 68 10000 7.2 30 03:51 04.12.2019
3271 Clear 8 1019 75 10000 3.6 30 01:49 04.12.2019
3272 Clear 9 1019 75 10000 5.1 30 00:48 04.12.2019
3273 Clear 9 1019 75 10000 4.6 30 00:22 04.12.2019
3274 Clear 10 1019 70 10000 6.2 30 23:45 03.12.2019
3275 Clear 10 1019 75 10000 5.7 20 23:20 03.12.2019
3276 Clear 10 1019 75 10000 5.7 20 22:59 03.12.2019
3277 Clear 10 1018 75 10000 4.6 30 22:39 03.12.2019
3278 Clear 11 1018 76 10000 5.1 30 22:18 03.12.2019
3279 Clear 10 1018 76 10000 5.1 30 21:57 03.12.2019
3280 Clouds 11 1018 81 10000 5.1 20 21:37 03.12.2019
3281 Clear 11 1018 81 10000 4.6 20 21:18 03.12.2019
3282 Clouds 11 1018 81 10000 3.6 10 20:42 03.12.2019
3283 Clouds 11 1018 81 10000 4.1 20 20:20 03.12.2019
3284 Clouds 11 1018 81 10000 4.1 20 20:20 03.12.2019
3285 Clouds 12 1018 81 10000 4.1 20 19:57 03.12.2019
3286 Clouds 12 1018 81 10000 4.1 30 19:39 03.12.2019
3287 Clouds 12 1017 76 10000 2.6 40 19:21 03.12.2019
3288 Clouds 12 1017 76 10000 2.6 40 18:59 03.12.2019
3289 Clouds 12 1017 76 10000 2.6 40 18:59 03.12.2019
3290 Clouds 13 1017 76 10000 4.1 20 18:41 03.12.2019
3291 Clouds 13 1017 81 10000 4.1 10 18:21 03.12.2019
3292 Clouds 13 1017 81 10000 4.1 10 17:58 03.12.2019
3293 Clouds 13 1017 76 10000 4.6 30 17:39 03.12.2019
3294 Clouds 13 1016 82 10000 3.1 30 17:18 03.12.2019
3295 Clouds 13 1016 82 10000 3.1 30 17:18 03.12.2019
3296 Clouds 14 1016 82 10000 3.1 30 16:58 03.12.2019
3297 Clouds 14 1016 82 10000 3.6 20 16:39 03.12.2019
3298 Clouds 14 1016 82 10000 4.1 20 16:21 03.12.2019
3299 Clouds 14 1016 82 10000 4.1 20 15:58 03.12.2019
3300 Clouds 14 1016 76 10000 4.6 30 15:38 03.12.2019
3301 Clouds 15 1016 87 10000 3.6 20 15:19 03.12.2019
3302 Clouds 14 1016 87 10000 4.1 20 14:44 03.12.2019
3303 Clouds 14 1016 87 10000 4.1 20 14:21 03.12.2019
3304 Clouds 14 1016 87 10000 4.1 20 13:58 03.12.2019
3305 Clouds 14 1016 87 10000 4.1 20 13:37 03.12.2019
3306 Clouds 14 1017 82 10000 4.6 30 13:19 03.12.2019
3307 Clouds 14 1017 87 10000 3.6 60 12:56 03.12.2019
3308 Clouds 14 1017 87 10000 3.6 60 12:36 03.12.2019
3309 Clouds 14 1017 87 10000 4.6 30 12:18 03.12.2019
3310 Clouds 14 1017 93 10000 4.6 20 11:54 03.12.2019
3311 Clouds 13 1017 93 10000 4.6 20 11:36 03.12.2019
3312 Clouds 14 1017 93 10000 3.1 20 11:18 03.12.2019
3313 Fog 13 1017 100 10000 3.1 20 10:42 03.12.2019
3314 Fog 12 1017 93 10000 3.6 10 10:21 03.12.2019
3315 Fog 12 1017 93 10000 3.6 10 09:58 03.12.2019
3316 Fog 12 1017 93 10000 2.6 20 09:40 03.12.2019
3317 Fog 12 1016 93 10000 3.1 10 09:21 03.12.2019
3318 Fog 12 1016 93 10000 3.1 10 08:54 03.12.2019
3319 Fog 11 1016 93 9000 2.1 360 08:36 03.12.2019
3320 Fog 11 1016 93 6000 1.5 20 08:18 03.12.2019
3321 Mist 11 1016 100 1100 2.1 10 07:49 03.12.2019
3322 Fog 11 1015 100 200 1 0 07:23 03.12.2019
3323 Fog 11 1015 100 100 1 350 06:23 03.12.2019
3324 Fog 11 1015 100 100 1 350 05:58 03.12.2019
3325 Fog 12 1015 93 100 2.1 10 04:50 03.12.2019
3326 Fog 12 1015 100 500 2.6 340 03:40 03.12.2019
3327 Clouds 13 1015 93 10000 2.1 80 03:19 03.12.2019
3328 Clouds 13 1015 93 10000 2.1 80 03:19 03.12.2019
3329 Clouds 13 1015 93 10000 2.6 90 02:48 03.12.2019
3330 Clouds 13 1015 93 10000 2.6 90 02:27 03.12.2019
3331 Clouds 14 1015 93 7000 2.1 100 01:43 03.12.2019
3332 Clouds 14 1015 93 7000 2.1 100 01:24 03.12.2019
3333 Mist 14 1015 100 5000 2.1 350 00:56 03.12.2019
3334 Mist 14 1015 100 5000 2.1 350 00:37 03.12.2019
3335 Mist 14 1015 93 5000 3.6 340 00:19 03.12.2019
3336 Rain 14 1015 93 5000 2.1 240 23:43 02.12.2019
3337 Rain 14 1015 93 10000 2.6 180 23:20 02.12.2019
3338 Rain 14 1015 93 10000 2.6 180 23:20 02.12.2019
3339 Rain 14 1014 87 10000 3.6 160 22:42 02.12.2019
3340 Rain 14 1014 87 10000 5.1 150 22:23 02.12.2019
3341 Rain 14 1014 87 10000 5.1 150 21:59 02.12.2019
3342 Rain 14 1014 87 10000 6.2 150 21:37 02.12.2019
3343 Rain 14 1014 87 10000 7.2 150 21:19 02.12.2019
3344 Rain 14 1014 82 10000 6.7 150 20:56 02.12.2019
3345 Rain 14 1014 82 10000 6.7 150 20:38 02.12.2019
3346 Rain 14 1014 87 10000 7.7 150 20:20 02.12.2019
3347 Rain 14 1014 87 10000 7.7 150 19:55 02.12.2019
3348 Clouds 14 1014 93 10000 3.1 150 19:36 02.12.2019
3349 Rain 14 1014 82 8000 8.2 150 19:18 02.12.2019
3350 Clouds 15 1014 82 10000 6.7 140 18:42 02.12.2019
3351 Clouds 15 1014 82 10000 4.1 150 18:19 02.12.2019
3352 Clouds 15 1014 82 10000 4.1 150 17:58 02.12.2019
3353 Clouds 15 1014 72 10000 7.2 150 17:40 02.12.2019
3354 Clouds 15 1014 72 10000 6.2 150 17:20 02.12.2019
3355 Clouds 15 1014 72 10000 6.2 150 16:42 02.12.2019
3356 Clouds 15 1014 77 10000 6.2 140 16:19 02.12.2019
3357 Clouds 15 1014 77 10000 6.2 140 15:59 02.12.2019
3358 Clouds 15 1014 72 10000 5.7 140 15:40 02.12.2019
3359 Clouds 15 1014 72 10000 6.2 150 15:22 02.12.2019
3360 Clouds 16 1014 72 10000 6.2 150 14:59 02.12.2019
3361 Clouds 16 1014 77 10000 5.1 150 14:38 02.12.2019
3362 Clouds 16 1015 72 10000 6.7 150 14:20 02.12.2019
3363 Clouds 16 1015 72 10000 6.7 150 14:20 02.12.2019
3364 Clouds 16 1015 72 10000 6.7 150 13:57 02.12.2019
3365 Clouds 16 1015 72 10000 6.7 150 13:39 02.12.2019
3366 Clouds 16 1015 67 10000 6.2 150 13:19 02.12.2019
3367 Clouds 16 1015 67 10000 6.2 150 12:57 02.12.2019
3368 Clouds 15 1015 67 10000 6.2 150 12:37 02.12.2019
3369 Clouds 15 1016 67 10000 5.7 150 12:19 02.12.2019
3370 Clouds 15 1016 67 10000 5.7 150 11:55 02.12.2019
3371 Clouds 15 1016 67 10000 7.2 150 11:36 02.12.2019
3372 Clouds 15 1016 72 10000 7.7 150 11:18 02.12.2019
3373 Clouds 15 1016 77 10000 7.2 140 10:54 02.12.2019
3374 Clouds 15 1016 77 10000 7.2 140 10:36 02.12.2019
3375 Clouds 14 1016 82 10000 6.7 140 10:18 02.12.2019
3376 Rain 14 1016 82 8000 5.1 150 09:39 02.12.2019
3377 Rain 14 1016 82 6000 6.2 150 09:19 02.12.2019
3378 Rain 14 1016 82 6000 6.2 150 09:19 02.12.2019
3379 Clouds 14 1016 72 10000 6.7 140 08:55 02.12.2019
3380 Clouds 14 1016 72 10000 6.7 140 08:37 02.12.2019
3381 Clouds 14 1016 72 10000 6.7 140 08:19 02.12.2019
3382 Clouds 14 1016 77 10000 6.7 140 07:40 02.12.2019
3383 Clouds 14 1016 77 10000 6.2 140 07:20 02.12.2019
3384 Clouds 14 1016 77 10000 6.2 150 06:45 02.12.2019
3385 Rain 14 1015 77 10000 6.7 140 06:27 02.12.2019
3386 Clouds 14 1016 77 10000 6.7 140 05:19 02.12.2019
3387 Clouds 13 1016 76 10000 6.2 150 04:19 02.12.2019
3388 Clouds 14 1017 67 10000 5.7 140 02:51 02.12.2019
3389 Clouds 14 1017 67 10000 7.2 140 01:50 02.12.2019
3390 Clouds 14 1017 67 10000 5.7 140 01:21 02.12.2019
3391 Clouds 13 1018 67 10000 5.7 150 00:44 02.12.2019
3392 Clouds 13 1018 67 10000 5.7 150 00:23 02.12.2019
3393 Clouds 13 1018 72 10000 6.7 150 23:44 01.12.2019
3394 Clouds 13 1018 72 10000 5.7 150 23:23 01.12.2019
3395 Clouds 13 1018 72 10000 5.7 150 23:23 01.12.2019
3396 Clouds 13 1018 72 10000 5.7 150 22:58 01.12.2019
3397 Clouds 13 1018 71 10000 5.1 150 22:39 01.12.2019
3398 Clouds 13 1018 71 10000 5.1 160 22:20 01.12.2019
3399 Clouds 13 1018 71 10000 5.1 160 22:20 01.12.2019
3400 Clouds 13 1018 71 10000 5.1 160 21:58 01.12.2019
3401 Clouds 13 1018 71 10000 5.1 150 21:40 01.12.2019
3402 Clouds 13 1018 71 10000 5.7 150 21:22 01.12.2019
3403 Clouds 13 1018 71 10000 5.7 150 20:59 01.12.2019
3404 Clouds 13 1018 71 10000 5.1 150 20:41 01.12.2019
3405 Clouds 13 1018 71 10000 5.1 150 20:22 01.12.2019
3406 Clouds 13 1018 71 10000 5.1 150 19:59 01.12.2019
3407 Clouds 13 1019 71 10000 4.6 150 19:40 01.12.2019
3408 Clouds 13 1019 71 10000 5.1 150 19:21 01.12.2019
3409 Clouds 13 1019 71 10000 5.1 150 19:21 01.12.2019
3410 Clouds 13 1019 71 10000 5.1 150 18:57 01.12.2019
3411 Clouds 13 1019 71 10000 4.6 150 18:39 01.12.2019
3412 Clouds 13 1018 71 10000 3.6 150 18:19 01.12.2019
3413 Clouds 13 1018 71 10000 3.6 150 17:59 01.12.2019
3414 Clouds 13 1019 71 10000 3.6 150 17:41 01.12.2019
3415 Clouds 13 1019 67 10000 4.6 140 17:23 01.12.2019
3416 Clouds 13 1019 67 10000 4.6 140 17:23 01.12.2019
3417 Clouds 14 1019 67 10000 4.6 140 16:56 01.12.2019
3418 Clouds 14 1019 67 10000 4.1 140 16:38 01.12.2019
3419 Clouds 14 1019 67 10000 4.6 140 16:20 01.12.2019
3420 Clouds 14 1019 67 10000 5.1 150 15:46 01.12.2019
3421 Clouds 15 1019 67 10000 5.1 150 15:28 01.12.2019
3422 Clouds 15 1018 59 10000 5.7 160 14:42 01.12.2019
3423 Clouds 15 1019 63 10000 4.6 160 14:20 01.12.2019
3424 Clouds 15 1019 63 10000 4.6 160 13:56 01.12.2019
3425 Clouds 15 1019 63 10000 6.2 160 13:38 01.12.2019
3426 Clouds 15 1019 63 10000 6.2 140 13:19 01.12.2019
3427 Clouds 15 1019 63 10000 5.1 150 12:43 01.12.2019
3428 Clouds 14 1020 63 10000 6.2 150 11:57 01.12.2019
3429 Clouds 14 1020 63 10000 6.2 150 11:57 01.12.2019
3430 Clouds 14 1020 63 10000 6.2 150 11:57 01.12.2019
3431 Clouds 14 1020 63 10000 6.2 150 11:57 01.12.2019
3432 Clouds 14 1020 59 10000 5.1 160 11:37 01.12.2019
3433 Clouds 14 1020 55 10000 4.1 160 11:19 01.12.2019
3434 Clouds 13 1020 59 10000 3.1 150 10:43 01.12.2019
3435 Clouds 12 1020 76 10000 1.5 330 10:21 01.12.2019
3436 Clouds 12 1020 76 10000 1.5 330 09:55 01.12.2019
3437 Clouds 11 1020 71 10000 1.5 50 09:36 01.12.2019
3438 Clouds 10 1020 87 10000 1 0 09:18 01.12.2019
3439 Clouds 10 1020 87 10000 1 0 08:42 01.12.2019
3440 Clouds 8 1020 87 10000 1 0 08:19 01.12.2019
3441 Clouds 8 1020 87 10000 1 80 07:50 01.12.2019
3442 Clouds 8 1020 87 10000 1 80 07:29 01.12.2019
3443 Clouds 8 1020 87 10000 2.1 100 06:54 01.12.2019
3444 Clouds 8 1020 81 10000 2.1 100 06:21 01.12.2019
3445 Clouds 8 1020 100 10000 2.1 90 05:45 01.12.2019
3446 Clouds 8 1020 81 10000 2.6 110 04:30 01.12.2019
3447 Fog 7 1020 100 10000 2.1 90 02:47 01.12.2019
3448 Fog 8 1020 100 10000 2.1 90 02:28 01.12.2019
3449 Clouds 8 1020 81 10000 0.5 0 01:55 01.12.2019
3450 Clouds 8 1020 81 10000 0.5 0 01:37 01.12.2019
3451 Clear 8 1020 81 10000 1.5 120 00:50 01.12.2019
3452 Clear 8 1020 81 10000 1.5 120 00:28 01.12.2019
3453 Clear 8 1020 81 10000 2.1 110 23:59 30.11.2019
3454 Clear 9 1020 76 10000 2.6 110 23:40 30.11.2019
3455 Clear 9 1019 76 10000 3.1 100 23:21 30.11.2019
3456 Clear 9 1019 76 10000 2.1 90 22:47 30.11.2019
3457 Clear 9 1019 76 10000 2.1 90 22:29 30.11.2019
3458 Clear 9 1019 76 10000 3.1 90 21:55 30.11.2019
3459 Clear 9 1019 81 10000 3.1 90 21:37 30.11.2019
3460 Clear 9 1019 81 10000 2.1 100 21:19 30.11.2019
3461 Clear 9 1019 81 10000 2.1 100 20:55 30.11.2019
3462 Clear 9 1019 81 10000 2.6 110 20:36 30.11.2019
3463 Clear 10 1019 76 10000 2.6 100 20:18 30.11.2019
3464 Clear 10 1019 81 10000 1 110 19:54 30.11.2019
3465 Clear 10 1019 81 10000 1 110 19:36 30.11.2019
3466 Clear 10 1019 87 10000 2.1 110 19:18 30.11.2019
3467 Clear 11 1018 81 10000 2.1 100 18:54 30.11.2019
3468 Clear 11 1018 81 10000 2.1 100 18:54 30.11.2019
3469 Clear 11 1018 81 10000 2.1 100 18:36 30.11.2019
3470 Clear 12 1018 81 10000 1.5 120 18:18 30.11.2019
3471 Clear 12 1018 76 10000 1 0 17:55 30.11.2019
3472 Clear 12 1018 76 10000 1 0 17:36 30.11.2019
3473 Clear 13 1018 71 10000 1 50 17:18 30.11.2019
3474 Clouds 14 1018 67 10000 1.5 50 16:41 30.11.2019
3475 Clouds 14 1018 67 10000 1.5 50 16:41 30.11.2019
3476 Clear 14 1017 62 10000 2.1 20 16:22 30.11.2019
3477 Clear 15 1017 62 10000 2.1 20 15:55 30.11.2019
3478 Clear 15 1017 63 10000 2.6 20 15:36 30.11.2019
3479 Clear 16 1017 59 10000 2.6 20 15:18 30.11.2019
3480 Clear 16 1017 59 10000 2.6 20 14:55 30.11.2019
3481 Clear 16 1017 62 10000 3.1 20 14:37 30.11.2019
3482 Clear 16 1017 62 10000 2.6 10 14:18 30.11.2019
3483 Clear 16 1017 63 10000 3.1 360 13:45 30.11.2019
3484 Clear 16 1017 63 10000 3.1 360 13:25 30.11.2019
3485 Clear 15 1017 67 10000 3.1 10 12:58 30.11.2019
3486 Clear 15 1018 71 10000 2.6 20 12:39 30.11.2019
3487 Clear 15 1018 67 10000 3.1 340 12:21 30.11.2019
3488 Clear 14 1018 71 10000 1.5 20 11:42 30.11.2019
3489 Clear 13 1018 81 10000 1 0 11:19 30.11.2019
3490 Clear 13 1018 81 10000 1 0 11:19 30.11.2019
3491 Fog 13 1018 100 900 1 0 10:55 30.11.2019
3492 Fog 13 1018 100 900 1 0 10:55 30.11.2019
3493 Fog 13 1018 100 900 1 0 10:37 30.11.2019
3494 Clear 12 1017 100 10000 1.5 20 10:18 30.11.2019
3495 Clear 11 1017 93 8000 2.1 10 09:46 30.11.2019
3496 Clear 11 1017 93 8000 2.1 10 09:23 30.11.2019
3497 Fog 9 1016 100 300 2.1 20 08:44 30.11.2019
3498 Fog 8 1016 100 100 2.1 20 08:20 30.11.2019
3499 Fog 8 1016 100 100 2.1 20 07:56 30.11.2019
3500 Fog 8 1016 93 200 1 350 07:37 30.11.2019
3501 Fog 8 1015 100 400 2.1 50 06:56 30.11.2019
3502 Fog 8 1015 100 400 2.1 50 06:29 30.11.2019
3503 Clouds 9 1015 93 500 2.1 350 05:49 30.11.2019
3504 Clear 10 1014 93 10000 2.6 50 03:48 30.11.2019
3505 Clear 10 1014 93 10000 1 0 02:39 30.11.2019
3506 Rain 10 1014 100 10000 1.5 80 02:21 30.11.2019
3507 Rain 11 1014 93 10000 1 30 01:25 30.11.2019
3508 Rain 11 1014 93 10000 1 30 01:25 30.11.2019
3509 Clouds 11 1014 87 10000 1.5 340 00:50 30.11.2019
3510 Clouds 11 1014 87 10000 1.5 340 00:31 30.11.2019
3511 Clouds 11 1013 93 10000 1.5 100 23:59 29.11.2019
3512 Clouds 12 1013 87 10000 2.1 120 23:40 29.11.2019
3513 Clouds 12 1013 87 10000 2.1 140 23:21 29.11.2019
3514 Clouds 13 1013 87 10000 3.1 140 22:44 29.11.2019
3515 Clouds 13 1013 87 10000 3.1 140 22:25 29.11.2019
3516 Clouds 13 1013 82 10000 3.6 150 21:44 29.11.2019
3517 Clouds 13 1012 82 10000 3.1 170 21:24 29.11.2019
3518 Clouds 13 1012 82 10000 3.1 170 20:58 29.11.2019
3519 Clouds 13 1012 82 10000 2.1 170 20:38 29.11.2019
3520 Clouds 14 1012 82 10000 3.6 190 20:19 29.11.2019
3521 Clouds 14 1012 82 10000 3.6 190 19:57 29.11.2019
3522 Clouds 14 1012 82 10000 3.1 190 19:38 29.11.2019
3523 Clouds 14 1012 77 10000 3.6 190 19:19 29.11.2019
3524 Clouds 14 1012 77 10000 3.6 200 18:55 29.11.2019
3525 Clouds 14 1012 77 10000 3.6 200 18:37 29.11.2019
3526 Clouds 14 1012 82 10000 3.1 200 18:19 29.11.2019
3527 Clouds 15 1013 77 10000 2.6 230 17:43 29.11.2019
3528 Rain 15 1012 72 10000 2.6 210 17:24 29.11.2019
3529 Clouds 15 1012 72 10000 2.1 200 16:56 29.11.2019
3530 Clouds 15 1012 72 10000 2.1 200 16:37 29.11.2019
3531 Clouds 16 1012 72 10000 2.6 210 16:18 29.11.2019
3532 Rain 16 1012 77 10000 4.1 230 15:40 29.11.2019
3533 Clouds 16 1012 72 10000 2.1 220 15:21 29.11.2019
3534 Clouds 16 1012 77 10000 3.1 230 14:55 29.11.2019
3535 Clouds 16 1012 77 10000 3.1 230 14:37 29.11.2019
3536 Clouds 16 1013 77 10000 3.6 240 14:18 29.11.2019
3537 Clouds 16 1013 77 10000 4.1 240 13:40 29.11.2019
3538 Clouds 15 1013 72 10000 3.6 230 13:20 29.11.2019
3539 Clouds 15 1013 72 10000 3.6 230 12:56 29.11.2019
3540 Clouds 15 1013 72 10000 3.6 230 12:37 29.11.2019
3541 Clouds 15 1013 77 10000 3.1 230 12:19 29.11.2019
3542 Clouds 14 1013 82 10000 3.1 210 11:41 29.11.2019
3543 Clouds 13 1013 82 10000 2.6 180 11:19 29.11.2019
3544 Clouds 13 1013 82 10000 2.6 180 10:59 29.11.2019
3545 Clouds 13 1013 82 10000 2.6 170 10:40 29.11.2019
3546 Rain 13 1013 82 10000 3.1 160 10:22 29.11.2019
3547 Rain 12 1013 82 10000 3.1 160 09:59 29.11.2019
3548 Clouds 12 1013 87 10000 2.6 160 09:40 29.11.2019
3549 Clouds 12 1013 87 10000 2.6 160 09:40 29.11.2019
3550 Clouds 12 1013 87 10000 2.6 160 09:22 29.11.2019
3551 Clouds 12 1013 87 10000 2.6 160 08:58 29.11.2019
3552 Clouds 12 1013 87 10000 2.1 170 08:38 29.11.2019
3553 Clouds 11 1012 87 10000 1.5 160 08:20 29.11.2019
3554 Clouds 11 1012 87 10000 1.5 160 08:20 29.11.2019
3555 Clouds 11 1012 87 10000 2.1 160 07:47 29.11.2019
3556 Clouds 11 1012 82 10000 2.1 160 07:24 29.11.2019
3557 Clouds 11 1012 82 10000 2.1 160 06:58 29.11.2019
3558 Clouds 10 1012 87 10000 2.1 160 06:37 29.11.2019
3559 Clouds 11 1012 87 10000 2.1 150 05:47 29.11.2019
3560 Clouds 10 1012 87 10000 2.6 140 05:23 29.11.2019
3561 Clouds 10 1011 93 10000 1.5 100 04:20 29.11.2019
3562 Clouds 11 1011 93 10000 2.1 140 03:19 29.11.2019
3563 Clouds 11 1011 93 10000 2.1 130 02:28 29.11.2019
3564 Clouds 12 1011 87 10000 2.6 120 01:51 29.11.2019
3565 Clouds 12 1011 87 10000 1.5 170 01:25 29.11.2019
3566 Rain 12 1011 87 10000 2.1 160 00:42 29.11.2019
3567 Rain 12 1011 87 10000 1.5 160 00:20 29.11.2019
3568 Rain 12 1010 87 10000 1.5 170 23:45 28.11.2019
3569 Rain 12 1010 87 10000 1.5 170 23:22 28.11.2019
3570 Rain 12 1010 87 10000 1.5 170 22:59 28.11.2019
3571 Clouds 13 1010 87 10000 1.5 170 22:38 28.11.2019
3572 Clouds 13 1010 82 10000 1.5 190 22:20 28.11.2019
3573 Clouds 13 1009 87 10000 2.1 190 21:58 28.11.2019
3574 Clouds 13 1009 87 10000 2.1 190 21:39 28.11.2019
3575 Clouds 13 1009 87 10000 1.5 170 21:19 28.11.2019
3576 Clouds 13 1009 87 10000 1.5 170 20:55 28.11.2019
3577 Clouds 13 1009 87 10000 1.5 170 20:37 28.11.2019
3578 Clouds 13 1009 87 10000 1.5 170 20:18 28.11.2019
3579 Clouds 13 1009 87 10000 1.5 170 19:41 28.11.2019
3580 Clouds 14 1008 87 10000 1.5 180 19:22 28.11.2019
3581 Clouds 14 1008 87 10000 1.5 180 18:59 28.11.2019
3582 Clouds 14 1008 82 10000 1.5 170 18:40 28.11.2019
3583 Clouds 14 1008 82 10000 1.5 160 18:19 28.11.2019
3584 Clouds 14 1008 82 10000 1.5 160 17:59 28.11.2019
3585 Clouds 14 1008 82 10000 2.1 220 17:41 28.11.2019
3586 Clouds 14 1008 77 10000 3.1 240 17:22 28.11.2019
3587 Clouds 15 1008 77 10000 3.1 240 16:57 28.11.2019
3588 Clouds 14 1008 72 10000 3.6 240 16:38 28.11.2019
3589 Clouds 15 1008 72 10000 3.6 240 16:18 28.11.2019
3590 Clouds 15 1008 67 10000 4.6 240 15:42 28.11.2019
3591 Clouds 15 1008 67 10000 5.7 250 15:21 28.11.2019
3592 Clouds 15 1008 67 10000 5.7 250 14:59 28.11.2019
3593 Thunderstorm 15 1008 77 10000 3.1 190 14:41 28.11.2019
3594 Rain 16 1008 67 10000 3.6 230 14:22 28.11.2019
3595 Rain 16 1008 67 10000 3.6 230 13:58 28.11.2019
3596 Clouds 16 1008 67 10000 5.1 210 13:40 28.11.2019
3597 Clouds 16 1009 67 10000 4.6 220 13:21 28.11.2019
3598 Clouds 16 1009 67 10000 4.1 210 12:45 28.11.2019
3599 Clouds 16 1009 67 10000 4.1 210 12:27 28.11.2019
3600 Clouds 15 1010 72 10000 2.6 190 11:58 28.11.2019
3601 Clouds 15 1010 72 10000 2.6 190 11:39 28.11.2019
3602 Clouds 15 1010 77 10000 2.6 190 11:20 28.11.2019
3603 Clouds 15 1010 77 10000 2.6 190 11:20 28.11.2019
3604 Clouds 15 1010 77 10000 2.6 190 10:55 28.11.2019
3605 Clouds 14 1010 77 10000 2.6 200 10:37 28.11.2019
3606 Clouds 14 1009 82 8000 2.6 170 10:18 28.11.2019
3607 Clouds 14 1009 77 8000 2.1 160 09:40 28.11.2019
3608 Clouds 14 1009 82 9000 2.1 160 09:22 28.11.2019
3609 Clouds 14 1009 82 10000 2.6 190 08:56 28.11.2019
3610 Clouds 14 1009 82 10000 2.6 190 08:37 28.11.2019
3611 Clouds 13 1009 82 8000 2.1 170 08:18 28.11.2019
3612 Clouds 13 1008 87 7000 2.1 180 07:41 28.11.2019
3613 Rain 13 1008 87 10000 2.1 170 07:23 28.11.2019
3614 Rain 13 1008 87 10000 2.1 170 07:23 28.11.2019
3615 Rain 13 1008 87 10000 2.1 180 06:44 28.11.2019
3616 Rain 13 1008 82 10000 2.1 180 06:23 28.11.2019
3617 Rain 13 1008 82 10000 2.6 180 05:49 28.11.2019
3618 Rain 13 1008 82 10000 2.1 180 05:18 28.11.2019
3619 Clouds 14 1007 82 10000 5.7 240 02:37 28.11.2019
3620 Rain 14 1008 87 10000 1.5 160 01:47 28.11.2019
3621 Rain 15 1008 87 10000 2.6 200 00:47 28.11.2019
3622 Rain 15 1008 93 10000 3.1 180 00:22 28.11.2019
3623 Rain 15 1008 93 10000 3.1 180 23:55 27.11.2019
3624 Rain 15 1008 93 10000 2.6 170 23:36 27.11.2019
3625 Clouds 15 1008 87 10000 3.6 190 23:18 27.11.2019
3626 Clouds 15 1008 87 10000 3.1 190 22:39 27.11.2019
3627 Clouds 15 1008 87 10000 4.1 190 22:20 27.11.2019
3628 Clouds 15 1008 87 10000 4.1 190 21:56 27.11.2019
3629 Rain 15 1008 87 8000 4.6 160 21:37 27.11.2019
3630 Clouds 15 1008 93 10000 4.6 150 21:19 27.11.2019
3631 Clouds 15 1008 93 10000 4.6 150 21:19 27.11.2019
3632 Clouds 15 1008 93 10000 4.6 150 20:58 27.11.2019
3633 Clouds 15 1008 93 10000 4.6 150 20:58 27.11.2019
3634 Clouds 15 1007 93 10000 4.6 160 20:39 27.11.2019
3635 Clouds 14 1008 93 10000 4.6 170 20:21 27.11.2019
3636 Clouds 14 1008 93 10000 4.6 170 19:57 27.11.2019
3637 Clouds 14 1008 93 10000 3.6 180 19:39 27.11.2019
3638 Clouds 14 1008 87 10000 3.1 170 19:19 27.11.2019
3639 Clouds 14 1008 87 10000 3.1 170 19:19 27.11.2019
3640 Clouds 14 1008 87 10000 3.1 170 18:58 27.11.2019
3641 Rain 14 1008 93 8000 4.1 200 18:37 27.11.2019
3642 Rain 14 1008 87 8000 6.7 180 18:19 27.11.2019
3643 Rain 14 1008 87 8000 6.7 180 17:56 27.11.2019
3644 Rain 14 1007 87 7000 6.2 160 17:38 27.11.2019
3645 Rain 14 1007 87 7000 6.2 160 17:38 27.11.2019
3646 Rain 14 1008 93 8000 5.1 160 17:20 27.11.2019
3647 Rain 14 1008 93 8000 5.1 160 17:20 27.11.2019
3648 Rain 14 1008 93 8000 5.1 160 17:20 27.11.2019
3649 Rain 14 1008 93 8000 5.1 160 16:56 27.11.2019
3650 Rain 14 1008 93 3500 4.1 170 16:37 27.11.2019
3651 Rain 15 1008 77 9000 5.1 160 16:19 27.11.2019
3652 Clouds 15 1008 77 10000 5.1 160 15:57 27.11.2019
3653 Clouds 15 1008 77 10000 5.1 160 15:38 27.11.2019
3654 Clouds 15 1008 77 10000 5.1 170 15:20 27.11.2019
3655 Clouds 15 1008 77 10000 5.1 170 14:56 27.11.2019
3656 Clouds 16 1008 77 10000 5.1 170 14:38 27.11.2019
3657 Clouds 16 1009 72 10000 6.2 170 14:20 27.11.2019
3658 Clouds 16 1009 77 10000 4.6 170 13:56 27.11.2019
3659 Clouds 16 1009 77 10000 4.6 170 13:37 27.11.2019
3660 Clouds 17 1010 72 10000 5.1 170 13:18 27.11.2019
3661 Clouds 17 1009 72 10000 5.1 160 12:41 27.11.2019
3662 Clouds 17 1010 77 10000 4.6 180 12:22 27.11.2019
3663 Rain 17 1010 77 10000 5.7 150 11:57 27.11.2019
3664 Rain 16 1010 77 10000 5.7 150 11:37 27.11.2019
3665 Clouds 16 1011 82 10000 2.1 150 11:18 27.11.2019
3666 Rain 15 1011 72 10000 4.6 160 10:46 27.11.2019
3667 Rain 15 1011 72 10000 4.6 160 10:46 27.11.2019
3668 Rain 14 1011 72 10000 3.6 160 10:24 27.11.2019
3669 Rain 14 1011 72 10000 3.6 160 09:58 27.11.2019
3670 Rain 14 1011 72 10000 3.1 150 09:40 27.11.2019
3671 Rain 13 1011 87 10000 3.6 140 09:22 27.11.2019
3672 Rain 12 1011 87 10000 2.6 140 08:42 27.11.2019
3673 Clouds 12 1011 87 10000 2.6 150 08:23 27.11.2019
3674 Clouds 12 1011 87 10000 2.6 150 08:23 27.11.2019
3675 Clouds 11 1011 87 10000 3.6 150 07:51 27.11.2019
3676 Clouds 11 1011 87 10000 2.6 160 07:30 27.11.2019
3677 Clouds 11 1011 87 10000 2.6 170 06:55 27.11.2019
3678 Clouds 11 1011 87 10000 2.6 170 06:55 27.11.2019
3679 Clouds 12 1011 87 10000 2.6 170 06:37 27.11.2019
3680 Clouds 11 1011 87 10000 3.1 160 05:53 27.11.2019
3681 Clouds 11 1011 87 10000 2.6 150 05:26 27.11.2019
3682 Clouds 11 1011 93 10000 1 160 04:49 27.11.2019
3683 Clouds 11 1011 93 10000 1 160 04:31 27.11.2019
3684 Clouds 11 1011 93 10000 1 0 03:45 27.11.2019
3685 Clouds 11 1011 93 10000 1 90 03:20 27.11.2019
3686 Clouds 11 1011 100 6000 1.5 70 02:34 27.11.2019
3687 Clouds 11 1011 93 10000 2.6 130 00:55 27.11.2019
3688 Clouds 11 1011 93 10000 2.6 130 00:37 27.11.2019
3689 Clouds 11 1011 93 10000 2.1 120 00:19 27.11.2019
3690 Clouds 11 1011 93 10000 2.6 110 23:42 26.11.2019
3691 Clouds 11 1011 93 10000 2.6 120 23:23 26.11.2019
3692 Clouds 11 1012 93 10000 2.6 100 22:40 26.11.2019
3693 Clouds 11 1012 87 10000 2.1 100 22:20 26.11.2019
3694 Clouds 11 1012 87 10000 2.1 100 21:59 26.11.2019
3695 Clouds 11 1011 93 10000 2.1 100 21:39 26.11.2019
3696 Clouds 11 1011 100 8000 3.1 80 21:21 26.11.2019
3697 Clouds 12 1011 93 10000 2.6 110 20:57 26.11.2019
3698 Clouds 12 1011 93 10000 2.6 110 20:37 26.11.2019
3699 Clouds 12 1011 93 10000 2.6 110 20:37 26.11.2019
3700 Clouds 12 1011 93 10000 2.1 120 20:19 26.11.2019
3701 Clouds 12 1011 93 10000 2.1 120 20:19 26.11.2019
3702 Clouds 12 1011 93 10000 2.1 140 19:56 26.11.2019
3703 Clouds 12 1011 93 10000 2.1 140 19:38 26.11.2019
3704 Clouds 12 1011 93 10000 1.5 140 19:19 26.11.2019
3705 Clouds 12 1011 87 10000 2.6 130 18:57 26.11.2019
3706 Clouds 12 1011 87 10000 2.6 130 18:39 26.11.2019
3707 Clouds 13 1011 87 10000 2.1 120 18:21 26.11.2019
3708 Clouds 13 1010 87 10000 1.5 150 17:58 26.11.2019
3709 Clouds 14 1010 87 10000 1.5 150 17:40 26.11.2019
3710 Clouds 14 1010 77 10000 1.5 0 17:21 26.11.2019
3711 Clouds 15 1010 72 10000 1 0 16:57 26.11.2019
3712 Clouds 15 1010 72 10000 1 0 16:37 26.11.2019
3713 Clouds 16 1009 72 10000 2.1 260 16:19 26.11.2019
3714 Clouds 16 1009 72 10000 2.1 260 15:59 26.11.2019
3715 Clouds 17 1009 67 10000 1.5 260 15:38 26.11.2019
3716 Clouds 17 1009 63 10000 1 0 15:19 26.11.2019
3717 Clouds 17 1009 63 10000 1.5 320 14:50 26.11.2019
3718 Clouds 18 1009 63 10000 1.5 360 14:26 26.11.2019
3719 Clear 18 1009 63 10000 1.5 360 13:57 26.11.2019
3720 Clear 17 1010 67 10000 1.5 340 13:38 26.11.2019
3721 Clear 17 1010 67 10000 1.5 320 13:19 26.11.2019
3722 Clear 17 1010 63 10000 1.5 320 12:39 26.11.2019
3723 Clear 17 1010 77 10000 1 0 12:20 26.11.2019
3724 Clear 16 1010 67 10000 2.1 340 11:58 26.11.2019
3725 Clear 16 1010 67 10000 2.1 340 11:39 26.11.2019
3726 Clear 15 1010 71 10000 1.5 10 11:20 26.11.2019
3727 Clear 14 1010 81 10000 2.1 20 10:58 26.11.2019
3728 Clear 14 1010 81 10000 2.1 20 10:40 26.11.2019
3729 Clear 13 1010 81 10000 2.6 30 10:20 26.11.2019
3730 Clear 13 1010 81 10000 2.6 30 09:57 26.11.2019
3731 Clear 12 1010 81 10000 2.6 10 09:37 26.11.2019
3732 Clear 12 1009 76 10000 0.5 0 09:18 26.11.2019
3733 Clear 10 1009 87 10000 2.6 50 08:43 26.11.2019
3734 Clear 10 1009 87 10000 2.6 50 08:43 26.11.2019
3735 Clear 10 1009 87 10000 1 0 08:24 26.11.2019
3736 Clear 9 1009 87 10000 2.1 30 07:46 26.11.2019
3737 Clear 9 1008 87 10000 1.5 40 07:27 26.11.2019
3738 Clear 9 1008 93 10000 1.5 40 06:55 26.11.2019
3739 Clear 9 1008 93 10000 1.5 40 06:33 26.11.2019
3740 Clear 9 1007 93 10000 1.5 20 05:41 26.11.2019
3741 Clear 11 1007 87 10000 1.5 10 03:59 26.11.2019
3742 Clear 10 1007 87 10000 1.5 40 02:49 26.11.2019
3743 Clear 10 1008 87 10000 2.1 10 01:33 26.11.2019
3744 Clear 11 1008 93 10000 2.1 40 00:51 26.11.2019
3745 Clear 11 1008 93 10000 1 0 00:26 26.11.2019
3746 Clear 11 1007 93 10000 0.5 0 23:41 25.11.2019
3747 Clear 11 1007 93 10000 2.1 30 23:21 25.11.2019
3748 Clear 11 1007 93 10000 2.1 290 22:59 25.11.2019
3749 Clear 11 1007 93 10000 2.1 290 22:38 25.11.2019
3750 Clear 11 1007 93 10000 2.1 290 22:38 25.11.2019
3751 Clear 11 1007 87 10000 0.5 0 22:18 25.11.2019
3752 Clear 11 1007 87 10000 0.5 0 22:18 25.11.2019
3753 Clear 11 1007 87 10000 0.5 0 21:58 25.11.2019
3754 Clear 12 1007 87 10000 1.5 110 21:39 25.11.2019
3755 Clear 12 1007 87 10000 2.1 100 21:21 25.11.2019
3756 Clear 12 1007 87 10000 2.1 100 20:56 25.11.2019
3757 Clouds 12 1006 87 10000 2.1 110 20:38 25.11.2019
3758 Clear 12 1006 87 10000 2.1 110 20:19 25.11.2019
3759 Clear 12 1006 87 10000 2.1 110 19:56 25.11.2019
3760 Clear 12 1006 87 10000 2.1 110 19:37 25.11.2019
3761 Clear 12 1006 87 10000 2.1 110 19:37 25.11.2019
3762 Clear 13 1006 82 10000 1.5 110 19:18 25.11.2019
3763 Clouds 13 1006 82 10000 1.5 110 18:56 25.11.2019
3764 Clouds 13 1006 82 10000 1.5 110 18:38 25.11.2019
3765 Clouds 14 1005 87 10000 0.5 0 18:19 25.11.2019
3766 Clouds 14 1005 82 10000 0.5 0 17:57 25.11.2019
3767 Clouds 14 1005 82 10000 0.5 0 17:37 25.11.2019
3768 Clear 15 1005 77 10000 2.1 240 17:19 25.11.2019
3769 Clouds 15 1004 67 10000 1.5 260 16:55 25.11.2019
3770 Clouds 15 1004 67 10000 1.5 260 16:37 25.11.2019
3771 Clouds 16 1004 63 10000 1 0 16:18 25.11.2019
3772 Clouds 17 1004 63 10000 2.1 300 15:41 25.11.2019
3773 Clouds 17 1003 67 10000 1.5 340 15:21 25.11.2019
3774 Clouds 17 1003 67 10000 1.5 340 15:21 25.11.2019
3775 Clouds 17 1003 63 10000 2.6 320 14:58 25.11.2019
3776 Clouds 17 1003 63 10000 2.6 320 14:40 25.11.2019
3777 Clouds 17 1003 59 10000 2.1 340 14:21 25.11.2019
3778 Clouds 17 1003 72 10000 1.5 320 13:41 25.11.2019
3779 Clouds 17 1003 77 10000 2.6 330 13:21 25.11.2019
3780 Clouds 17 1003 77 10000 2.6 330 12:59 25.11.2019
3781 Clouds 16 1003 72 10000 2.6 350 12:40 25.11.2019
3782 Clouds 16 1003 72 10000 3.1 360 12:21 25.11.2019
3783 Clouds 16 1003 72 10000 3.1 360 11:58 25.11.2019
3784 Clouds 16 1004 77 10000 2.1 330 11:39 25.11.2019
3785 Clouds 15 1004 77 10000 2.6 330 11:20 25.11.2019
3786 Clouds 14 1004 77 10000 0.5 0 10:45 25.11.2019
3787 Clouds 13 1003 76 10000 1 0 10:27 25.11.2019
3788 Clouds 13 1003 76 10000 1 0 09:58 25.11.2019
3789 Clouds 13 1003 76 10000 0.5 0 09:40 25.11.2019
3790 Clouds 12 1003 82 10000 1 0 09:22 25.11.2019
3791 Mist 12 1003 100 1300 2.1 10 08:41 25.11.2019
3792 Clouds 12 1002 76 10000 2.6 30 08:22 25.11.2019
3793 Clouds 12 1002 76 10000 3.1 70 07:44 25.11.2019
3794 Clouds 12 1002 82 10000 4.1 70 07:24 25.11.2019
3795 Clouds 12 1001 82 10000 4.1 60 06:50 25.11.2019
3796 Clouds 12 1001 82 10000 4.1 70 06:22 25.11.2019
3797 Clouds 12 1001 82 10000 4.1 70 06:22 25.11.2019
3798 Clouds 12 1001 93 10000 2.6 60 05:49 25.11.2019
3799 Clouds 12 1001 82 10000 2.6 40 05:28 25.11.2019
3800 Clouds 12 1001 87 10000 1 90 03:26 25.11.2019
3801 Clouds 12 1001 87 10000 0.5 0 02:31 25.11.2019
3802 Clouds 12 1001 87 10000 2.6 70 01:42 25.11.2019
3803 Clouds 12 1001 82 10000 2.6 90 01:23 25.11.2019
3804 Clouds 12 1001 87 10000 1 110 00:37 25.11.2019
3805 Clouds 12 1001 87 10000 1.5 90 00:18 25.11.2019
3806 Clouds 12 1001 87 10000 1 0 23:41 24.11.2019
3807 Drizzle 12 1001 87 10000 1.5 20 23:20 24.11.2019
3808 Drizzle 12 1001 87 8000 1 0 22:56 24.11.2019
3809 Drizzle 12 1001 87 8000 1 0 22:37 24.11.2019
3810 Clouds 12 1001 82 10000 2.6 30 22:18 24.11.2019
3811 Clouds 12 1001 82 10000 2.1 40 21:54 24.11.2019
3812 Clouds 12 1001 82 10000 2.1 40 21:36 24.11.2019
3813 Clouds 12 1001 82 10000 2.1 60 21:18 24.11.2019
3814 Clouds 12 1000 82 10000 2.6 50 20:54 24.11.2019
3815 Clouds 12 1000 82 10000 2.6 50 20:36 24.11.2019
3816 Drizzle 12 1001 82 10000 2.1 40 20:18 24.11.2019
3817 Clouds 12 1001 82 10000 2.1 50 19:54 24.11.2019
3818 Clouds 13 1001 82 10000 2.1 50 19:36 24.11.2019
3819 Clouds 13 1001 82 10000 2.6 40 19:18 24.11.2019
3820 Clouds 12 1001 82 10000 2.6 50 18:38 24.11.2019
3821 Clouds 13 1001 82 10000 2.6 60 18:20 24.11.2019
3822 Clouds 13 1001 87 10000 1.5 60 17:59 24.11.2019
3823 Clouds 13 1001 87 10000 1.5 60 17:41 24.11.2019
3824 Rain 13 1000 87 9000 4.1 30 17:23 24.11.2019
3825 Rain 13 1000 87 8000 4.1 30 16:59 24.11.2019
3826 Rain 13 1000 87 8000 4.1 30 16:41 24.11.2019
3827 Rain 13 1000 87 7000 4.1 50 16:23 24.11.2019
3828 Rain 13 1000 87 7000 4.1 50 16:23 24.11.2019
3829 Rain 13 1000 87 7000 2.6 20 15:56 24.11.2019
3830 Rain 13 1000 87 7000 2.6 20 15:38 24.11.2019
3831 Rain 13 1000 87 7000 2.6 20 15:38 24.11.2019
3832 Rain 14 1001 76 10000 1.5 80 15:20 24.11.2019
3833 Rain 14 1001 76 10000 3.6 80 14:40 24.11.2019
3834 Clouds 14 1001 76 10000 4.6 90 14:20 24.11.2019
3835 Clouds 14 1001 76 10000 4.6 90 14:20 24.11.2019
3836 Clouds 14 1001 76 10000 4.6 90 14:20 24.11.2019
3837 Clouds 14 1001 76 10000 4.6 90 13:59 24.11.2019
3838 Clouds 14 1001 82 10000 2.6 70 13:38 24.11.2019
3839 Rain 14 1001 76 10000 2.6 50 13:20 24.11.2019
3840 Rain 13 1002 76 10000 2.6 30 12:56 24.11.2019
3841 Rain 13 1002 76 10000 2.6 30 12:38 24.11.2019
3842 Rain 13 1002 76 10000 2.6 30 12:38 24.11.2019
3843 Drizzle 13 1003 93 10000 3.1 110 12:18 24.11.2019
3844 Rain 13 1003 71 10000 1 0 11:54 24.11.2019
3845 Rain 13 1003 71 10000 1 0 11:36 24.11.2019
3846 Rain 13 1003 87 10000 1.5 30 11:18 24.11.2019
3847 Rain 13 1003 82 10000 2.1 20 10:42 24.11.2019
3848 Rain 13 1003 82 10000 2.1 50 10:24 24.11.2019
3849 Rain 12 1003 76 10000 2.6 80 09:40 24.11.2019
3850 Rain 12 1003 82 10000 3.1 120 09:20 24.11.2019
3851 Rain 12 1003 82 10000 3.1 120 08:59 24.11.2019
3852 Rain 12 1002 82 10000 5.1 130 08:40 24.11.2019
3853 Rain 12 1002 82 8000 5.7 140 08:21 24.11.2019
3854 Rain 12 1002 82 8000 6.7 140 07:52 24.11.2019
3855 Rain 12 1002 82 8000 6.7 140 07:52 24.11.2019
3856 Rain 12 1002 82 10000 5.7 120 07:25 24.11.2019
3857 Rain 12 1002 82 8000 7.7 130 06:55 24.11.2019
3858 Rain 12 1002 82 5000 6.2 140 05:40 24.11.2019
3859 Rain 12 1002 82 5000 7.2 130 04:42 24.11.2019
3860 Clouds 12 1004 87 10000 5.7 130 02:43 24.11.2019
3861 Rain 12 1004 87 5000 5.1 140 01:56 24.11.2019
3862 Rain 12 1004 87 5000 6.2 140 01:34 24.11.2019
3863 Rain 12 1005 93 4000 4.1 170 00:53 24.11.2019
3864 Rain 12 1005 93 4000 2.6 140 00:25 24.11.2019
3865 Rain 13 1005 87 5000 3.1 140 23:57 23.11.2019
3866 Rain 13 1005 87 5000 3.1 140 23:39 23.11.2019
3867 Rain 13 1006 87 10000 4.6 140 23:20 23.11.2019
3868 Rain 13 1006 87 10000 4.6 140 23:20 23.11.2019
3869 Rain 13 1006 87 10000 5.7 160 22:57 23.11.2019
3870 Rain 13 1006 87 10000 5.7 160 22:37 23.11.2019
3871 Rain 13 1005 93 10000 6.2 130 22:19 23.11.2019
3872 Rain 13 1005 93 10000 6.2 130 21:55 23.11.2019
3873 Rain 13 1004 59 10000 10.3 140 21:36 23.11.2019
3874 Rain 14 1004 63 10000 11.3 140 21:18 23.11.2019
3875 Rain 14 1004 82 10000 9.3 140 20:38 23.11.2019
3876 Rain 14 1005 82 10000 8.2 160 20:20 23.11.2019
3877 Rain 14 1005 82 10000 8.2 160 20:20 23.11.2019
3878 Rain 15 1004 72 10000 9.3 140 19:57 23.11.2019
3879 Rain 15 1004 72 10000 9.3 140 19:38 23.11.2019
3880 Rain 16 1004 67 10000 9.3 140 19:19 23.11.2019
3881 Clouds 16 1004 67 10000 9.8 140 18:55 23.11.2019
3882 Clouds 16 1004 67 10000 9.8 140 18:36 23.11.2019
3883 Clouds 16 1004 67 10000 9.8 130 18:18 23.11.2019
3884 Clouds 16 1004 67 10000 9.3 130 17:42 23.11.2019
3885 Clouds 16 1004 67 10000 10.8 140 17:21 23.11.2019
3886 Clouds 16 1004 67 10000 10.3 140 16:57 23.11.2019
3887 Clouds 16 1004 67 10000 10.3 140 16:38 23.11.2019
3888 Clouds 16 1004 67 10000 10.3 140 16:38 23.11.2019
3889 Clouds 16 1005 67 10000 8.2 140 16:20 23.11.2019
3890 Clouds 16 1005 67 10000 8.2 140 16:20 23.11.2019
3891 Clouds 16 1005 67 10000 8.2 140 15:58 23.11.2019
3892 Clouds 17 1005 67 10000 9.3 140 15:39 23.11.2019
3893 Clouds 17 1005 63 10000 10.3 140 15:19 23.11.2019
3894 Clouds 17 1005 63 10000 10.8 140 14:56 23.11.2019
3895 Clouds 17 1005 63 10000 10.8 140 14:38 23.11.2019
3896 Clouds 17 1005 63 10000 10.8 140 14:38 23.11.2019
3897 Clouds 17 1006 67 10000 10.8 140 14:20 23.11.2019
3898 Clouds 17 1006 67 10000 9.3 140 13:43 23.11.2019
3899 Clouds 17 1006 59 10000 10.3 140 13:20 23.11.2019
3900 Clouds 17 1006 59 10000 10.3 140 12:58 23.11.2019
3901 Clouds 17 1007 63 10000 9.3 140 12:40 23.11.2019
3902 Clouds 17 1007 68 10000 7.7 140 12:22 23.11.2019
3903 Clouds 16 1007 63 10000 6.2 140 11:43 23.11.2019
3904 Clouds 16 1008 63 10000 8.7 140 11:21 23.11.2019
3905 Clouds 16 1007 63 10000 10.3 140 10:45 23.11.2019
3906 Clouds 15 1008 67 10000 11.8 130 10:22 23.11.2019
3907 Clouds 15 1008 67 10000 11.8 140 09:43 23.11.2019
3908 Clouds 15 1008 67 10000 9.8 140 09:21 23.11.2019
3909 Clouds 14 1008 67 10000 9.8 140 08:55 23.11.2019
3910 Clouds 15 1008 67 10000 10.8 140 08:36 23.11.2019
3911 Clouds 14 1008 67 10000 10.8 140 08:18 23.11.2019
3912 Clouds 13 1008 72 10000 10.8 140 07:39 23.11.2019
3913 Clouds 13 1008 67 10000 8.7 140 06:48 23.11.2019
3914 Clouds 13 1008 67 10000 9.8 140 06:22 23.11.2019
3915 -273 0 0 0 0 0 05:53 23.11.2019
3916 Clouds 13 1009 67 10000 8.2 140 05:31 23.11.2019
3917 Clouds 13 1009 67 10000 9.3 140 04:50 23.11.2019
3918 Clouds 13 1009 67 10000 9.3 140 04:29 23.11.2019
3919 Clouds 12 1010 72 10000 7.2 140 03:20 23.11.2019
3920 Clouds 12 1011 72 10000 7.2 140 02:24 23.11.2019
3921 Clouds 12 1011 72 10000 6.7 140 01:38 23.11.2019
3922 Clouds 12 1012 76 10000 6.2 140 00:45 23.11.2019
3923 Clouds 12 1012 76 10000 5.7 140 00:19 23.11.2019
3924 Clouds 12 1012 76 10000 4.6 130 23:42 22.11.2019
3925 Clouds 12 1012 71 10000 4.6 130 23:21 22.11.2019
3926 Clouds 12 1013 76 10000 4.6 140 22:58 22.11.2019
3927 Clouds 12 1013 76 10000 4.6 140 22:39 22.11.2019
3928 Clouds 12 1013 76 10000 5.7 140 22:20 22.11.2019
3929 Clouds 12 1013 76 10000 5.7 140 21:59 22.11.2019
3930 Rain 12 1013 76 10000 5.7 140 21:39 22.11.2019
3931 Rain 12 1013 71 10000 6.2 140 21:20 22.11.2019
3932 Rain 12 1013 76 10000 4.6 160 20:44 22.11.2019
3933 Clouds 12 1012 71 10000 5.1 150 20:22 22.11.2019
3934 Clouds 12 1012 71 10000 5.1 150 19:58 22.11.2019
3935 Clouds 12 1012 71 10000 4.6 140 19:38 22.11.2019
3936 Clouds 12 1012 71 10000 4.1 140 19:19 22.11.2019
3937 Clouds 12 1012 71 10000 4.1 140 18:58 22.11.2019
3938 Clouds 12 1012 76 10000 3.1 140 18:36 22.11.2019
3939 Clouds 13 1012 71 10000 3.6 150 18:18 22.11.2019
3940 Clouds 13 1012 71 10000 3.6 150 18:18 22.11.2019
3941 Clouds 13 1012 71 10000 3.6 150 18:18 22.11.2019
3942 Clouds 13 1012 76 10000 3.6 150 17:40 22.11.2019
3943 Clouds 14 1012 76 10000 3.1 150 17:22 22.11.2019
3944 Clouds 14 1012 67 10000 4.1 140 16:48 22.11.2019
3945 Clouds 15 1012 67 10000 4.1 140 16:29 22.11.2019
3946 Clouds 15 1012 67 10000 4.6 150 15:47 22.11.2019
3947 Clouds 15 1012 63 10000 5.1 160 15:25 22.11.2019
3948 Clouds 15 1012 63 10000 5.1 160 14:58 22.11.2019
3949 Clouds 15 1012 67 10000 4.1 150 14:39 22.11.2019
3950 Clouds 15 1012 67 10000 4.6 150 14:21 22.11.2019
3951 Clouds 15 1012 67 10000 4.6 150 13:59 22.11.2019
3952 Clouds 15 1012 63 10000 6.2 160 13:37 22.11.2019
3953 Clouds 15 1012 63 10000 4.1 160 13:19 22.11.2019
3954 Clouds 15 1012 63 10000 4.1 160 12:57 22.11.2019
3955 Clouds 15 1013 59 10000 4.6 160 12:39 22.11.2019
3956 Clouds 15 1013 59 10000 3.6 160 12:19 22.11.2019
3957 Clouds 15 1013 59 10000 3.6 160 11:55 22.11.2019
3958 Clouds 14 1013 59 10000 4.6 160 11:36 22.11.2019
3959 Clouds 13 1013 59 10000 3.6 150 11:18 22.11.2019
3960 Clouds 13 1013 82 10000 4.1 110 10:40 22.11.2019
3961 Clouds 12 1013 76 10000 1 0 10:22 22.11.2019
3962 Clouds 11 1013 76 10000 1 0 09:58 22.11.2019
3963 Clouds 11 1013 87 10000 1.5 300 09:39 22.11.2019
3964 Clouds 10 1013 87 10000 1.5 0 09:21 22.11.2019
3965 Clouds 10 1013 87 10000 1 0 08:47 22.11.2019
3966 Clouds 9 1013 87 10000 1 0 08:27 22.11.2019
3967 Rain 9 1012 93 9000 1 0 07:55 22.11.2019
3968 Rain 9 1012 93 9000 1 0 07:37 22.11.2019
3969 Rain 9 1012 100 10000 2.1 80 07:18 22.11.2019
3970 Rain 9 1013 93 10000 1.5 0 06:40 22.11.2019
3971 Rain 9 1012 93 10000 2.1 40 05:56 22.11.2019
3972 Thunderstorm 9 1013 93 6000 2.6 360 04:52 22.11.2019
3973 Clear 9 1012 66 10000 3.1 130 02:56 22.11.2019
3974 Clear 9 1012 87 10000 2.1 90 02:33 22.11.2019
3975 Clear 9 1012 93 10000 2.6 90 01:46 22.11.2019
3976 Clouds 9 1012 66 10000 2.6 130 01:20 22.11.2019
3977 Clouds 9 1012 66 10000 2.6 130 00:54 22.11.2019
3978 Clouds 9 1012 76 10000 1.5 100 00:25 22.11.2019
3979 Clouds 9 1012 93 10000 1.5 50 23:56 21.11.2019
3980 Clouds 9 1012 93 10000 1.5 50 23:56 21.11.2019
3981 Clouds 9 1012 71 10000 3.1 100 23:37 21.11.2019
3982 Rain 9 1012 71 10000 3.1 100 23:18 21.11.2019
3983 Rain 10 1012 71 10000 3.6 90 22:41 21.11.2019
3984 Rain 10 1012 66 10000 3.6 100 22:22 21.11.2019
3985 Rain 10 1012 66 10000 4.1 100 21:58 21.11.2019
3986 Rain 10 1012 66 10000 4.1 100 21:39 21.11.2019
3987 Rain 10 1012 62 10000 3.6 140 21:20 21.11.2019
3988 Rain 10 1012 62 10000 3.6 140 20:59 21.11.2019
3989 Rain 10 1012 62 10000 4.6 130 20:39 21.11.2019
3990 Clouds 11 1012 62 10000 4.6 130 20:19 21.11.2019
3991 Clouds 11 1012 62 10000 4.6 130 20:19 21.11.2019
3992 Clouds 11 1012 62 10000 4.6 130 19:59 21.11.2019
3993 Rain 11 1012 71 10000 3.6 120 19:41 21.11.2019
3994 Rain 11 1012 71 10000 4.6 120 19:23 21.11.2019
3995 Rain 11 1012 71 10000 4.6 120 18:58 21.11.2019
3996 Rain 11 1012 71 10000 6.2 130 18:40 21.11.2019
3997 Rain 11 1012 71 10000 5.7 140 18:19 21.11.2019
3998 Rain 11 1012 81 10000 0.5 0 17:58 21.11.2019
3999 Rain 11 1012 81 10000 0.5 0 17:39 21.11.2019
4000 Rain 12 1012 87 10000 2.6 90 17:19 21.11.2019
4001 Rain 12 1012 81 10000 3.6 150 16:42 21.11.2019
4002 Rain 12 1012 81 10000 2.6 90 16:22 21.11.2019
4003 Rain 12 1012 81 10000 2.6 90 15:58 21.11.2019
4004 Rain 12 1012 81 10000 2.1 90 15:40 21.11.2019
4005 Rain 12 1012 81 9000 2.6 140 15:20 21.11.2019
4006 Rain 12 1012 81 9000 2.6 140 14:56 21.11.2019
4007 Rain 12 1012 82 9000 2.1 110 14:37 21.11.2019
4008 Rain 13 1013 87 8000 2.6 170 14:18 21.11.2019
4009 Rain 13 1013 87 9000 3.1 170 13:40 21.11.2019
4010 Clouds 13 1013 76 10000 2.6 0 13:20 21.11.2019
4011 Rain 13 1013 58 10000 3.1 140 12:59 21.11.2019
4012 Rain 13 1013 58 10000 3.1 140 12:38 21.11.2019
4013 Rain 13 1013 58 10000 3.6 140 12:20 21.11.2019
4014 Rain 13 1013 62 10000 5.1 140 11:41 21.11.2019
4015 Clouds 12 1013 67 10000 5.1 140 11:23 21.11.2019
4016 Clouds 12 1013 67 10000 5.1 140 10:59 21.11.2019
4017 Rain 11 1014 87 7000 5.7 220 10:41 21.11.2019
4018 Clouds 11 1013 71 10000 2.1 100 10:22 21.11.2019
4019 Clouds 11 1013 71 10000 2.1 100 09:57 21.11.2019
4020 Clouds 11 1013 76 10000 2.6 110 09:38 21.11.2019
4021 Clouds 10 1013 81 10000 2.1 100 09:20 21.11.2019
4022 Clouds 10 1013 76 10000 1 0 08:42 21.11.2019
4023 Clouds 10 1013 71 10000 3.1 130 08:20 21.11.2019
4024 Clouds 10 1013 71 10000 4.1 140 07:43 21.11.2019
4025 Clouds 9 1013 71 10000 3.1 150 07:18 21.11.2019
4026 Clouds 9 1013 76 10000 3.1 140 06:57 21.11.2019
4027 Rain 9 1013 81 10000 3.6 120 06:34 21.11.2019
4028 Rain 9 1013 81 10000 5.1 140 05:38 21.11.2019
4029 Clouds 9 1014 81 10000 2.6 100 03:34 21.11.2019
4030 Clouds 9 1014 87 10000 2.1 100 02:42 21.11.2019
4031 Clouds 9 1014 87 10000 2.6 100 02:21 21.11.2019
4032 Clouds 10 1014 93 10000 1 90 01:42 21.11.2019
4033 Clouds 10 1014 87 10000 2.1 40 01:19 21.11.2019
4034 Clouds 10 1015 93 10000 1.5 50 00:37 21.11.2019
4035 Clouds 10 1015 87 10000 1 100 00:18 21.11.2019
4036 Drizzle 10 1015 87 10000 2.1 80 23:40 20.11.2019
4037 Rain 10 1015 93 10000 2.1 90 23:21 20.11.2019
4038 Rain 10 1015 93 10000 2.1 90 22:56 20.11.2019
4039 Rain 10 1015 93 9000 0.5 0 22:37 20.11.2019
4040 Rain 11 1015 93 9000 2.1 190 22:19 20.11.2019
4041 Rain 11 1015 93 9000 2.1 190 21:57 20.11.2019
4042 Drizzle 11 1015 93 10000 1.5 150 21:37 20.11.2019
4043 Rain 10 1015 87 9000 2.6 210 21:19 20.11.2019
4044 Rain 11 1015 87 9000 2.6 210 20:55 20.11.2019
4045 Rain 10 1015 87 9000 2.6 210 20:55 20.11.2019
4046 Clouds 11 1014 81 10000 1.5 220 20:37 20.11.2019
4047 Clouds 11 1014 81 10000 1.5 220 20:37 20.11.2019
4048 Clouds 11 1014 81 10000 1.5 220 20:37 20.11.2019
4049 Clouds 11 1014 87 10000 2.6 140 20:18 20.11.2019
4050 Clouds 11 1014 87 10000 2.6 140 19:55 20.11.2019
4051 Clouds 11 1014 87 10000 2.6 150 19:36 20.11.2019
4052 Clouds 11 1014 87 10000 2.6 150 19:36 20.11.2019
4053 Clouds 11 1014 67 10000 4.1 240 19:18 20.11.2019
4054 Clouds 11 1014 87 10000 2.6 130 18:57 20.11.2019
4055 Clouds 11 1014 87 10000 2.6 130 18:37 20.11.2019
4056 Clouds 12 1014 82 10000 3.1 170 18:19 20.11.2019
4057 Clouds 12 1013 82 10000 2.1 160 17:55 20.11.2019
4058 Clouds 12 1013 82 10000 2.1 160 17:36 20.11.2019
4059 Clouds 13 1013 67 10000 4.6 230 17:18 20.11.2019
4060 Clouds 13 1013 71 10000 2.6 210 16:41 20.11.2019
4061 Clouds 13 1013 62 10000 2.1 210 16:20 20.11.2019
4062 Clouds 13 1013 62 10000 2.1 210 15:58 20.11.2019
4063 Clouds 13 1013 67 10000 2.6 160 15:39 20.11.2019
4064 Rain 13 1013 71 10000 3.1 160 15:20 20.11.2019
4065 Rain 13 1013 71 10000 3.1 160 14:56 20.11.2019
4066 Rain 14 1013 71 10000 2.6 180 14:38 20.11.2019
4067 Clouds 14 1013 67 10000 3.1 200 14:19 20.11.2019
4068 Clouds 14 1013 67 10000 3.1 200 13:56 20.11.2019
4069 Clouds 14 1013 67 10000 2.6 210 13:36 20.11.2019
4070 Clouds 13 1013 76 10000 2.1 190 13:18 20.11.2019
4071 Clouds 13 1013 71 10000 2.1 180 12:40 20.11.2019
4072 Clouds 13 1014 76 10000 2.6 200 12:22 20.11.2019
4073 Clouds 12 1014 76 10000 2.6 200 11:55 20.11.2019
4074 Clouds 12 1013 76 10000 1.5 220 11:37 20.11.2019
4075 Clouds 12 1013 71 10000 1 0 11:18 20.11.2019
4076 Clouds 12 1013 76 10000 1 0 10:54 20.11.2019
4077 Clouds 12 1013 76 10000 1 0 10:36 20.11.2019
4078 Clouds 11 1013 87 10000 1 0 10:18 20.11.2019
4079 Clouds 11 1013 87 10000 1.5 40 09:42 20.11.2019
4080 Clouds 11 1013 93 10000 0.5 0 09:20 20.11.2019
4081 Clouds 11 1013 87 10000 0.5 70 08:47 20.11.2019
4082 Clouds 10 1013 87 10000 0.5 70 08:28 20.11.2019
4083 Clouds 10 1012 93 10000 0.5 0 07:57 20.11.2019
4084 Clouds 10 1012 87 10000 1 0 07:37 20.11.2019
4085 Clouds 10 1012 93 10000 1.5 60 07:18 20.11.2019
4086 Clouds 10 1012 93 10000 1.5 90 06:45 20.11.2019
4087 Clouds 10 1012 87 10000 0.5 0 06:19 20.11.2019
4088 Clouds 11 1012 87 10000 1.5 60 04:50 20.11.2019
4089 Rain 11 1013 93 10000 2.1 30 02:29 20.11.2019
4090 Clouds 11 1013 93 10000 1.5 50 01:38 20.11.2019
4091 Rain 12 1013 93 10000 1.5 130 00:58 20.11.2019
4092 Drizzle 11 1013 81 10000 2.6 270 00:22 20.11.2019
4093 Clouds 11 1013 76 10000 1 220 23:41 19.11.2019
4094 Clouds 12 1013 71 10000 1 50 23:22 19.11.2019
4095 Clouds 11 1013 71 10000 1 50 22:56 19.11.2019
4096 Clouds 12 1013 67 10000 1.5 100 22:37 19.11.2019
4097 Clouds 12 1013 76 10000 1.5 70 22:18 19.11.2019
4098 Clouds 12 1013 76 10000 1.5 70 22:18 19.11.2019
4099 Clouds 12 1013 67 10000 2.6 140 21:55 19.11.2019
4100 Clouds 12 1013 67 10000 2.6 140 21:36 19.11.2019
4101 Clouds 12 1013 76 10000 1.5 170 21:18 19.11.2019
4102 Clouds 12 1013 76 10000 1.5 170 20:54 19.11.2019
4103 Clouds 12 1013 76 10000 5.7 120 20:36 19.11.2019
4104 Clouds 12 1013 67 10000 3.1 130 20:18 19.11.2019
4105 Clouds 12 1013 67 10000 3.1 120 19:41 19.11.2019
4106 Clouds 13 1013 62 10000 3.6 120 19:20 19.11.2019
4107 Clouds 13 1013 62 10000 3.6 120 18:58 19.11.2019
4108 Clouds 13 1013 62 10000 6.7 130 18:40 19.11.2019
4109 Clouds 13 1013 67 10000 4.1 130 18:20 19.11.2019
4110 Clouds 13 1013 67 10000 4.1 130 17:57 19.11.2019
4111 Clouds 13 1013 67 10000 3.6 120 17:39 19.11.2019
4112 Clouds 14 1013 67 10000 3.6 130 17:20 19.11.2019
4113 Clouds 14 1013 67 10000 3.6 130 16:59 19.11.2019
4114 Clouds 14 1013 67 10000 4.6 140 16:39 19.11.2019
4115 Clouds 15 1013 72 10000 5.7 140 16:19 19.11.2019
4116 Clouds 15 1013 72 10000 5.1 150 15:45 19.11.2019
4117 Clouds 15 1013 72 10000 5.1 150 15:26 19.11.2019
4118 Clouds 15 1012 67 10000 6.7 140 14:57 19.11.2019
4119 Clouds 15 1012 67 10000 5.1 140 14:39 19.11.2019
4120 Clouds 15 1012 72 10000 5.7 140 14:20 19.11.2019
4121 Clouds 15 1012 67 10000 6.2 140 13:42 19.11.2019
4122 Clouds 15 1013 67 10000 6.7 140 13:20 19.11.2019
4123 Clouds 15 1013 67 10000 7.2 130 12:54 19.11.2019
4124 Clouds 14 1013 67 10000 7.2 130 12:36 19.11.2019
4125 Clouds 14 1013 67 10000 6.2 140 12:18 19.11.2019
4126 Clouds 13 1014 72 10000 6.7 140 11:54 19.11.2019
4127 Clouds 13 1014 72 10000 6.7 140 11:36 19.11.2019
4128 Clouds 13 1014 72 10000 5.7 130 11:18 19.11.2019
4129 Clouds 13 1013 72 10000 5.1 150 10:42 19.11.2019
4130 Rain 13 1014 76 10000 5.1 140 10:20 19.11.2019
4131 Rain 13 1014 76 10000 5.1 140 10:20 19.11.2019
4132 Clouds 13 1013 76 10000 5.7 140 09:43 19.11.2019
4133 Rain 13 1014 87 6000 5.7 150 09:21 19.11.2019
4134 Rain 13 1014 87 6000 5.7 150 08:57 19.11.2019
4135 Rain 13 1013 82 8000 8.2 140 08:38 19.11.2019
4136 Rain 13 1013 82 10000 8.7 130 08:20 19.11.2019
4137 Clouds 12 1012 76 10000 6.7 140 07:42 19.11.2019
4138 Rain 12 1012 82 10000 6.2 140 07:23 19.11.2019
4139 Rain 12 1012 82 10000 6.2 140 06:55 19.11.2019
4140 Rain 12 1012 76 10000 9.3 140 06:36 19.11.2019
4141 Clouds 12 1012 63 10000 6.2 150 05:51 19.11.2019
4142 Clouds 13 1012 63 10000 5.7 160 04:48 19.11.2019
4143 Clouds 13 1012 71 10000 6.2 150 03:35 19.11.2019
4144 Clouds 13 1013 76 10000 6.7 150 02:59 19.11.2019
4145 Clouds 13 1013 72 10000 7.7 140 02:33 19.11.2019
4146 Clouds 13 1013 71 10000 9.3 140 01:46 19.11.2019
4147 Rain 12 1013 87 10000 5.1 150 00:37 19.11.2019
4148 Rain 12 1013 82 10000 4.1 180 00:19 19.11.2019
4149 Rain 13 1013 71 10000 7.2 160 23:37 18.11.2019
4150 Rain 13 1013 62 10000 7.2 140 23:19 18.11.2019
4151 Rain 13 1013 62 10000 7.2 140 23:19 18.11.2019
4152 Clouds 13 1013 62 10000 8.7 140 22:46 18.11.2019
4153 Clouds 13 1013 67 10000 7.7 140 22:24 18.11.2019
4154 Clouds 13 1013 67 10000 7.7 140 21:57 18.11.2019
4155 Clouds 13 1013 67 10000 7.2 140 21:39 18.11.2019
4156 Clouds 13 1013 67 10000 6.7 140 21:20 18.11.2019
4157 Clouds 12 1013 67 10000 6.7 140 20:57 18.11.2019
4158 Rain 13 1013 71 10000 6.7 150 20:39 18.11.2019
4159 Rain 13 1013 71 10000 6.7 140 20:18 18.11.2019
4160 Rain 13 1013 71 10000 6.7 140 19:56 18.11.2019
4161 Clouds 13 1013 71 10000 7.2 140 19:37 18.11.2019
4162 Clouds 12 1013 76 10000 7.2 140 19:19 18.11.2019
4163 Clouds 12 1013 76 10000 7.2 140 19:19 18.11.2019
4164 Clouds 12 1013 76 10000 7.2 140 18:55 18.11.2019
4165 Rain 12 1013 82 10000 6.2 140 18:37 18.11.2019
4166 Rain 12 1013 82 9000 6.2 140 18:19 18.11.2019
4167 Rain 13 1013 82 9000 6.2 140 17:54 18.11.2019
4168 Clouds 13 1013 71 10000 5.7 140 17:36 18.11.2019
4169 Clouds 13 1013 71 10000 6.7 140 17:18 18.11.2019
4170 Clouds 13 1013 76 10000 7.7 140 16:42 18.11.2019
4171 Rain 13 1013 82 6000 6.2 150 16:23 18.11.2019
4172 Rain 13 1013 82 6000 6.2 150 15:56 18.11.2019
4173 Rain 13 1014 87 10000 7.2 150 15:38 18.11.2019
4174 Rain 13 1013 87 10000 5.1 160 15:19 18.11.2019
4175 Rain 13 1013 76 10000 6.2 160 14:43 18.11.2019
4176 Rain 14 1013 72 10000 6.7 140 14:24 18.11.2019
4177 Rain 14 1013 72 10000 6.7 140 14:24 18.11.2019
4178 Rain 14 1013 72 10000 6.7 140 13:57 18.11.2019
4179 Clouds 14 1013 67 10000 5.7 140 13:39 18.11.2019
4180 Clouds 14 1013 67 10000 5.7 140 13:39 18.11.2019
4181 Clouds 14 1013 63 10000 6.2 150 13:21 18.11.2019
4182 Clouds 15 1014 67 10000 6.2 140 12:39 18.11.2019
4183 Clouds 14 1014 72 10000 6.7 140 12:20 18.11.2019
4184 Clouds 14 1014 67 10000 7.2 140 11:54 18.11.2019
4185 Clouds 14 1014 67 10000 7.2 140 11:36 18.11.2019
4186 Clouds 13 1014 71 10000 5.7 140 11:18 18.11.2019
4187 Clouds 12 1014 71 10000 5.7 140 10:42 18.11.2019
4188 Clouds 12 1014 71 10000 5.7 140 10:42 18.11.2019
4189 Rain 12 1014 76 10000 5.1 150 10:23 18.11.2019
4190 Rain 12 1014 76 10000 5.1 150 09:56 18.11.2019
4191 Clouds 12 1013 71 10000 5.1 130 09:38 18.11.2019
4192 Clouds 11 1014 76 10000 2.6 120 09:19 18.11.2019
4193 Clouds 11 1014 76 10000 2.6 120 09:19 18.11.2019
4194 Clouds 10 1014 81 10000 4.6 140 08:46 18.11.2019
4195 Clouds 10 1014 81 10000 3.6 140 08:22 18.11.2019
4196 Clouds 10 1013 87 10000 2.1 140 07:49 18.11.2019
4197 Clouds 10 1013 87 10000 2.1 140 07:31 18.11.2019
4198 Drizzle 9 1013 93 10000 2.1 110 06:59 18.11.2019
4199 Clouds 9 1013 93 10000 3.6 130 06:41 18.11.2019
4200 Rain 9 1013 87 5000 2.1 230 06:21 18.11.2019
4201 Rain 9 1012 76 10000 3.6 140 05:25 18.11.2019
4202 Rain 9 1012 81 10000 3.1 130 03:30 18.11.2019
4203 Rain 9 1011 81 10000 2.1 150 01:37 18.11.2019
4204 Clouds 9 1011 81 10000 3.1 140 00:53 18.11.2019
4205 Clouds 9 1011 87 10000 2.1 150 23:59 17.11.2019
4206 Clouds 9 1011 87 10000 2.1 150 23:59 17.11.2019
4207 Clouds 8 1011 87 10000 1.5 160 23:40 17.11.2019
4208 Rain 8 1011 93 10000 2.1 120 23:21 17.11.2019
4209 Rain 9 1011 93 10000 2.1 120 22:57 17.11.2019
4210 Clouds 9 1010 87 10000 2.6 110 22:38 17.11.2019
4211 Clouds 9 1010 87 10000 1 0 22:20 17.11.2019
4212 Clouds 9 1010 87 10000 2.6 70 21:42 17.11.2019
4213 Clouds 9 1010 81 10000 2.1 80 21:20 17.11.2019
4214 Clouds 9 1010 81 10000 2.1 80 20:59 17.11.2019
4215 Drizzle 10 1009 87 10000 2.1 100 20:39 17.11.2019
4216 Clouds 10 1009 87 10000 2.1 120 20:20 17.11.2019
4217 Clouds 10 1009 87 10000 2.1 120 19:57 17.11.2019
4218 Clouds 10 1008 81 10000 1 0 19:39 17.11.2019
4219 Clouds 10 1008 87 10000 1.5 160 19:20 17.11.2019
4220 Clouds 10 1008 87 10000 1.5 160 18:57 17.11.2019
4221 Clouds 11 1008 87 10000 1.5 160 18:57 17.11.2019
4222 Clouds 11 1008 87 10000 0.5 0 18:39 17.11.2019
4223 Clouds 11 1007 81 10000 1 0 18:19 17.11.2019
4224 Clouds 11 1007 81 10000 1 0 17:58 17.11.2019
4225 Clouds 11 1007 81 10000 1 0 17:58 17.11.2019
4226 Clouds 11 1007 87 10000 1 0 17:40 17.11.2019
4227 Clouds 12 1006 87 10000 2.1 270 17:20 17.11.2019
4228 Clouds 13 1006 87 10000 2.1 270 16:59 17.11.2019
4229 Clouds 13 1006 87 10000 5.7 270 16:41 17.11.2019
4230 Rain 13 1005 87 6000 3.1 190 16:21 17.11.2019
4231 Rain 13 1005 87 6000 3.1 190 15:56 17.11.2019
4232 Rain 13 1005 87 6000 3.1 190 15:56 17.11.2019
4233 Rain 13 1004 87 4000 2.6 210 15:38 17.11.2019
4234 Clouds 14 1004 76 10000 5.1 160 15:19 17.11.2019
4235 Clouds 14 1004 76 10000 5.1 160 14:57 17.11.2019
4236 Clouds 14 1003 76 10000 6.7 160 14:38 17.11.2019
4237 Clouds 14 1003 82 10000 5.1 150 14:20 17.11.2019
4238 Clouds 14 1003 82 10000 5.1 150 13:58 17.11.2019
4239 Rain 14 1003 82 10000 5.1 150 13:39 17.11.2019
4240 Clouds 14 1003 87 10000 4.6 160 13:19 17.11.2019
4241 Rain 14 1003 72 7000 4.6 170 12:45 17.11.2019
4242 Clouds 14 1003 72 10000 6.7 160 12:23 17.11.2019
4243 Clouds 14 1003 72 10000 6.7 160 12:23 17.11.2019
4244 Clouds 14 1003 72 10000 6.7 160 11:57 17.11.2019
4245 Clouds 14 1004 63 10000 5.7 160 11:39 17.11.2019
4246 Clouds 14 1004 77 10000 5.7 160 11:20 17.11.2019
4247 Clouds 14 1003 77 10000 6.7 160 10:44 17.11.2019
4248 Clouds 14 1004 72 10000 6.2 160 10:23 17.11.2019
4249 Clouds 14 1004 72 10000 6.2 160 09:58 17.11.2019
4250 Clouds 14 1004 72 10000 6.2 160 09:58 17.11.2019
4251 Clouds 14 1003 72 10000 6.2 170 09:39 17.11.2019
4252 Clouds 15 1002 72 10000 7.2 190 09:21 17.11.2019
4253 Clouds 15 1002 72 10000 7.7 180 08:40 17.11.2019
4254 Clouds 15 1002 82 8000 6.2 170 08:22 17.11.2019
4255 Clouds 15 1002 82 8000 6.2 170 07:55 17.11.2019
4256 Rain 15 1001 82 8000 9.3 150 07:37 17.11.2019
4257 Rain 15 1001 82 7000 11.3 140 07:18 17.11.2019
4258 Clouds 15 1001 82 10000 10.8 140 06:40 17.11.2019
4259 Thunderstorm 15 1000 87 8000 9.8 160 06:21 17.11.2019
4260 Thunderstorm 16 1000 77 10000 13.4 140 04:24 17.11.2019
4261 Clouds 16 1000 68 10000 13.9 130 03:51 17.11.2019
4262 Clouds 16 1000 68 10000 13.9 130 03:32 17.11.2019
4263 Clouds 17 1002 59 10000 12.9 140 02:31 17.11.2019
4264 Clouds 18 1002 59 10000 11.3 140 01:42 17.11.2019
4265 Rain 17 1002 59 9000 10.8 140 00:55 17.11.2019
4266 Rain 17 1003 63 10000 12.3 140 00:22 17.11.2019
4267 Clouds 17 1002 59 10000 12.3 140 23:48 16.11.2019
4268 Rain 17 1002 59 10000 12.3 140 23:20 16.11.2019
4269 Rain 17 1002 59 10000 12.3 140 22:59 16.11.2019
4270 Clouds 17 1003 59 10000 12.3 140 22:40 16.11.2019
4271 Clouds 17 1003 63 10000 13.4 140 22:19 16.11.2019
4272 Clouds 17 1003 63 10000 13.4 140 21:56 16.11.2019
4273 Clouds 17 1003 63 10000 11.8 140 21:37 16.11.2019
4274 Clouds 17 1003 63 10000 12.3 140 21:19 16.11.2019
4275 Clouds 17 1003 63 10000 13.9 140 20:42 16.11.2019
4276 Rain 16 1003 63 10000 10.8 140 20:21 16.11.2019
4277 Rain 16 1003 63 10000 10.8 140 19:58 16.11.2019
4278 Rain 16 1003 63 10000 10.8 140 19:58 16.11.2019
4279 Rain 16 1003 59 10000 10.8 130 19:40 16.11.2019
4280 Rain 16 1003 59 10000 10.8 130 19:40 16.11.2019
4281 Rain 16 1004 59 10000 9.8 130 19:21 16.11.2019
4282 Clouds 15 1004 63 10000 8.2 120 18:47 16.11.2019
4283 Clouds 15 1004 63 10000 8.2 120 18:29 16.11.2019
4284 Drizzle 15 1005 63 10000 9.3 130 17:57 16.11.2019
4285 Clouds 14 1005 63 10000 4.1 120 17:39 16.11.2019
4286 Clouds 14 1006 72 10000 1 0 17:19 16.11.2019
4287 Clouds 14 1006 72 10000 1 0 17:19 16.11.2019
4288 Clouds 14 1006 72 10000 1 0 16:48 16.11.2019
4289 Clouds 14 1006 72 10000 1 0 16:30 16.11.2019
4290 Clouds 13 1007 67 10000 3.1 70 15:59 16.11.2019
4291 Clouds 13 1007 76 10000 5.1 70 15:41 16.11.2019
4292 Clouds 13 1008 76 10000 5.1 90 15:21 16.11.2019
4293 Clouds 13 1008 76 10000 5.1 90 14:58 16.11.2019
4294 Rain 13 1008 82 10000 4.6 80 14:39 16.11.2019
4295 Rain 13 1009 87 9000 4.1 30 14:21 16.11.2019
4296 Rain 13 1009 87 9000 4.1 30 13:55 16.11.2019
4297 Rain 13 1011 82 7000 2.1 60 13:37 16.11.2019
4298 Rain 13 1011 82 7000 4.6 110 13:18 16.11.2019
4299 Rain 13 1011 82 7000 4.6 110 13:18 16.11.2019
4300 Rain 13 1012 76 7000 1.5 0 12:42 16.11.2019
4301 Rain 13 1012 76 8000 2.6 150 12:23 16.11.2019
4302 Rain 13 1012 76 8000 2.6 150 11:56 16.11.2019
4303 Rain 13 1012 67 9000 1 0 11:38 16.11.2019
4304 Clouds 13 1012 67 10000 3.6 150 11:19 16.11.2019
4305 Rain 13 1012 67 10000 2.1 170 10:43 16.11.2019
4306 Rain 13 1012 67 10000 2.1 170 10:25 16.11.2019
4307 Clouds 13 1012 76 10000 2.6 90 09:58 16.11.2019
4308 Clouds 13 1012 82 10000 2.6 110 09:40 16.11.2019
4309 Clouds 12 1012 82 10000 2.6 110 09:19 16.11.2019
4310 Clouds 12 1012 82 10000 3.1 100 08:41 16.11.2019
4311 Clouds 12 1012 82 10000 0.5 0 08:20 16.11.2019
4312 Clouds 12 1012 82 10000 0.5 0 08:20 16.11.2019
4313 Clouds 12 1011 76 10000 3.6 150 07:44 16.11.2019
4314 Clouds 12 1011 87 10000 2.6 120 07:22 16.11.2019
4315 Clouds 12 1011 87 10000 2.6 120 07:22 16.11.2019
4316 Clouds 12 1011 87 10000 2.6 120 06:59 16.11.2019
4317 Rain 12 1011 82 10000 3.1 140 06:41 16.11.2019
4318 Rain 12 1011 82 10000 4.1 140 06:19 16.11.2019
4319 Rain 12 1010 76 10000 4.1 140 04:21 16.11.2019
4320 Clouds 12 1010 76 10000 4.1 150 03:26 16.11.2019
4321 Clouds 13 1010 82 10000 6.2 150 02:36 16.11.2019
4322 Rain 13 1009 82 9000 5.1 140 01:38 16.11.2019
4323 Rain 13 1009 82 9000 5.1 140 01:38 16.11.2019
4324 Rain 14 1009 82 9000 3.1 160 00:48 16.11.2019
4325 Rain 14 1009 82 9000 3.1 160 00:29 16.11.2019
4326 Clouds 14 1009 82 10000 3.6 170 23:44 15.11.2019
4327 Clouds 14 1009 82 10000 3.6 170 23:25 15.11.2019
4328 Clouds 14 1008 82 10000 3.1 170 22:59 15.11.2019
4329 Clouds 14 1008 87 10000 2.6 170 22:40 15.11.2019
4330 Clouds 14 1007 82 10000 3.1 180 22:19 15.11.2019
4331 Rain 14 1007 87 10000 3.1 180 21:56 15.11.2019
4332 Rain 14 1007 87 10000 3.1 180 21:38 15.11.2019
4333 Clouds 14 1006 87 10000 3.1 190 21:19 15.11.2019
4334 Rain 14 1006 93 4000 2.6 180 20:56 15.11.2019
4335 Rain 14 1006 93 4000 2.6 180 20:38 15.11.2019
4336 Clouds 14 1005 93 10000 2.6 190 20:19 15.11.2019
4337 Clouds 14 1005 93 10000 2.6 190 19:57 15.11.2019
4338 Rain 14 1005 93 10000 5.1 200 19:38 15.11.2019
4339 Thunderstorm 14 1004 87 8000 8.2 170 19:19 15.11.2019
4340 Thunderstorm 14 1004 87 5000 5.7 170 18:43 15.11.2019
4341 Thunderstorm 15 1003 93 4000 7.7 180 18:24 15.11.2019
4342 Thunderstorm 15 1003 93 4000 7.7 180 17:58 15.11.2019
4343 Thunderstorm 15 1003 87 2000 6.2 200 17:39 15.11.2019
4344 Thunderstorm 15 1002 87 1000 10.8 140 17:21 15.11.2019
4345 -273 0 0 0 0 0 16:55 15.11.2019
4346 Rain 15 1002 82 5000 9.3 160 16:37 15.11.2019
4347 Rain 15 1002 82 7000 9.8 150 16:18 15.11.2019
4348 Thunderstorm 15 1003 87 5000 8.2 160 15:38 15.11.2019
4349 Thunderstorm 15 1003 82 8000 8.7 150 15:19 15.11.2019
4350 Thunderstorm 16 1003 82 8000 8.7 150 14:56 15.11.2019
4351 Thunderstorm 16 1003 72 8000 7.7 170 14:38 15.11.2019
4352 Clouds 17 1004 77 9000 9.3 160 14:19 15.11.2019
4353 Rain 17 1004 82 10000 9.8 150 13:56 15.11.2019
4354 Rain 16 1004 82 10000 9.8 150 13:38 15.11.2019
4355 Rain 16 1004 77 10000 10.3 150 13:20 15.11.2019
4356 Rain 17 1004 77 10000 10.3 150 12:57 15.11.2019
4357 Drizzle 16 1004 82 9000 10.8 140 12:38 15.11.2019
4358 Drizzle 16 1004 77 9000 12.3 140 12:19 15.11.2019
4359 Drizzle 16 1004 77 9000 12.3 140 11:56 15.11.2019
4360 Clouds 16 1005 67 10000 11.3 150 11:37 15.11.2019
4361 Clouds 16 1005 67 10000 10.8 150 11:19 15.11.2019
4362 Clouds 16 1005 67 10000 10.8 150 11:19 15.11.2019
4363 Clouds 16 1005 77 10000 10.3 140 10:40 15.11.2019
4364 Clouds 15 1005 77 10000 8.7 150 10:22 15.11.2019
4365 Clouds 16 1005 77 10000 8.7 150 09:58 15.11.2019
4366 Clouds 15 1005 77 10000 8.2 150 09:40 15.11.2019
4367 Clouds 15 1005 72 10000 8.2 150 09:19 15.11.2019
4368 Rain 15 1005 72 10000 7.7 140 08:43 15.11.2019
4369 Rain 15 1005 72 10000 6.7 150 08:22 15.11.2019
4370 Rain 15 1005 72 10000 6.7 150 08:22 15.11.2019
4371 Rain 14 1005 77 10000 6.7 150 07:47 15.11.2019
4372 Rain 14 1005 77 10000 6.7 150 07:28 15.11.2019
4373 Clouds 14 1005 77 10000 5.1 160 06:38 15.11.2019
4374 Clouds 14 1005 77 10000 5.1 160 06:38 15.11.2019
4375 Clouds 14 1005 67 10000 5.7 180 05:59 15.11.2019
4376 Clouds 14 1006 72 10000 4.6 160 05:39 15.11.2019
4377 Clouds 14 1005 67 10000 5.7 190 05:20 15.11.2019
4378 Clouds 13 1005 77 10000 6.7 150 03:48 15.11.2019
4379 Clouds 13 1005 77 10000 7.2 150 02:52 15.11.2019
4380 Clouds 13 1005 77 10000 8.7 150 02:18 15.11.2019
4381 Clouds 13 1005 77 10000 9.8 140 01:33 15.11.2019
4382 Clouds 13 1006 87 10000 5.7 160 00:49 15.11.2019
4383 Rain 14 1006 77 8000 7.7 150 00:31 15.11.2019
4384 Clouds 14 1006 77 10000 8.2 140 23:50 14.11.2019
4385 Drizzle 14 1006 82 10000 7.7 150 23:27 14.11.2019
4386 Drizzle 13 1006 77 10000 6.2 150 22:57 14.11.2019
4387 Drizzle 13 1006 77 10000 6.2 150 22:39 14.11.2019
4388 Clouds 13 1006 82 10000 6.2 140 22:20 14.11.2019
4389 Clouds 13 1006 82 10000 5.7 140 21:55 14.11.2019
4390 Clouds 13 1006 82 10000 5.7 140 21:36 14.11.2019
4391 Drizzle 13 1006 82 9000 8.2 140 21:18 14.11.2019
4392 Clouds 13 1006 77 10000 6.7 140 20:41 14.11.2019
4393 Clouds 13 1006 82 10000 5.7 140 20:22 14.11.2019
4394 Clouds 13 1007 76 10000 5.7 140 19:58 14.11.2019
4395 Clouds 13 1007 76 10000 5.7 140 19:40 14.11.2019
4396 Clouds 13 1006 76 10000 5.7 140 19:18 14.11.2019
4397 Drizzle 13 1006 76 10000 4.1 130 18:54 14.11.2019
4398 Drizzle 13 1006 76 10000 4.1 130 18:36 14.11.2019
4399 Clouds 13 1007 76 10000 5.1 150 18:18 14.11.2019
4400 Clouds 13 1007 76 10000 5.1 150 17:39 14.11.2019
4401 Clouds 13 1006 77 10000 4.1 150 17:20 14.11.2019
4402 Clouds 13 1006 77 10000 3.6 150 16:58 14.11.2019
4403 Clouds 13 1006 77 10000 3.6 150 16:39 14.11.2019
4404 Rain 14 1006 76 10000 2.6 150 16:20 14.11.2019
4405 Rain 14 1006 76 10000 2.6 150 16:20 14.11.2019
4406 Rain 14 1006 76 10000 2.6 150 15:58 14.11.2019
4407 Clouds 14 1006 72 10000 5.7 150 15:39 14.11.2019
4408 Clouds 14 1006 72 10000 4.1 150 15:20 14.11.2019
4409 Clouds 15 1006 72 10000 3.6 140 14:58 14.11.2019
4410 Clouds 14 1006 72 10000 3.6 140 14:40 14.11.2019
4411 Clouds 14 1006 72 10000 3.6 100 14:22 14.11.2019
4412 Clouds 14 1006 72 10000 3.6 100 13:55 14.11.2019
4413 Clouds 14 1007 67 10000 2.6 170 13:36 14.11.2019
4414 Clouds 14 1007 63 10000 2.6 180 13:18 14.11.2019
4415 Clouds 14 1007 67 10000 2.1 260 12:44 14.11.2019
4416 Clouds 14 1007 63 10000 0.5 0 12:24 14.11.2019
4417 Clouds 14 1008 76 10000 0.5 0 11:56 14.11.2019
4418 Clouds 13 1008 76 10000 0.5 0 11:37 14.11.2019
4419 Clouds 13 1008 76 10000 1 0 11:19 14.11.2019
4420 Clouds 13 1008 76 10000 1 0 10:57 14.11.2019
4421 Clouds 13 1007 76 10000 1.5 110 10:37 14.11.2019
4422 Clouds 12 1007 76 10000 2.1 110 10:19 14.11.2019
4423 Clouds 12 1007 81 10000 2.1 80 09:54 14.11.2019
4424 Clouds 11 1007 81 10000 2.1 80 09:36 14.11.2019
4425 Clouds 11 1007 81 10000 3.1 70 09:18 14.11.2019
4426 Clouds 11 1007 81 10000 3.1 70 08:41 14.11.2019
4427 Clouds 11 1007 81 10000 0.5 0 08:23 14.11.2019
4428 Clouds 10 1006 87 10000 2.6 80 07:42 14.11.2019
4429 Rain 11 1006 87 10000 1.5 90 07:24 14.11.2019
4430 Clouds 12 1006 87 10000 0.5 0 06:46 14.11.2019
4431 Clouds 12 1006 87 10000 1.5 360 06:21 14.11.2019
4432 Clouds 12 1006 87 10000 2.1 130 05:40 14.11.2019
4433 Clouds 12 1006 87 10000 0.5 0 04:38 14.11.2019
4434 Rain 12 1006 87 10000 2.6 110 03:28 14.11.2019
4435 Clouds 12 1006 87 10000 2.6 90 02:38 14.11.2019
4436 Clouds 11 1007 93 10000 1 10 01:41 14.11.2019
4437 Clouds 12 1007 87 10000 0.5 0 00:57 14.11.2019
4438 Drizzle 12 1007 87 7000 1 0 00:38 14.11.2019
4439 Drizzle 12 1007 81 7000 2.1 130 00:19 14.11.2019
4440 Clouds 12 1006 71 10000 3.1 90 23:38 13.11.2019
4441 Clouds 12 1006 71 10000 2.6 90 23:20 13.11.2019
4442 Clouds 12 1006 71 10000 2.6 90 22:55 13.11.2019
4443 Clouds 13 1006 76 10000 2.6 100 22:37 13.11.2019
4444 Clouds 11 1006 76 10000 2.1 100 22:19 13.11.2019
4445 Clouds 11 1006 76 10000 2.1 100 21:55 13.11.2019
4446 Clouds 11 1006 76 10000 2.1 100 21:36 13.11.2019
4447 Clouds 11 1006 71 10000 2.6 130 21:18 13.11.2019
4448 Clouds 11 1006 71 10000 2.6 130 20:54 13.11.2019
4449 Clouds 11 1006 66 10000 2.1 160 20:36 13.11.2019
4450 Clouds 11 1006 66 10000 2.1 160 20:18 13.11.2019
4451 Clouds 11 1006 66 10000 2.1 170 19:42 13.11.2019
4452 Clouds 12 1005 58 10000 3.1 190 19:19 13.11.2019
4453 Clouds 12 1005 58 10000 3.1 190 18:56 13.11.2019
4454 Clouds 12 1005 62 10000 2.6 180 18:37 13.11.2019
4455 Clouds 12 1004 62 10000 3.1 190 18:19 13.11.2019
4456 Clouds 13 1004 62 10000 3.1 190 17:57 13.11.2019
4457 Clouds 13 1004 62 10000 2.6 180 17:38 13.11.2019
4458 Clouds 13 1003 62 10000 3.6 200 17:19 13.11.2019
4459 Clouds 14 1003 58 10000 3.6 200 16:57 13.11.2019
4460 Clouds 14 1003 58 10000 3.6 200 16:39 13.11.2019
4461 Clouds 14 1002 54 10000 4.1 210 16:21 13.11.2019
4462 Clouds 14 1002 54 10000 4.1 210 15:57 13.11.2019
4463 Clouds 15 1002 62 10000 4.1 210 15:38 13.11.2019
4464 Clouds 15 1002 63 10000 4.1 210 15:19 13.11.2019
4465 Clouds 15 1001 72 10000 3.6 200 14:42 13.11.2019
4466 Clouds 15 1001 72 10000 3.6 200 14:21 13.11.2019
4467 Clouds 15 1001 72 10000 2.6 200 13:56 13.11.2019
4468 Clouds 15 1001 72 10000 2.6 200 13:36 13.11.2019
4469 Clouds 15 1001 72 10000 1.5 160 13:18 13.11.2019
4470 Clouds 15 1001 77 10000 2.1 170 12:42 13.11.2019
4471 Clouds 14 1000 72 10000 1.5 210 12:24 13.11.2019
4472 Clouds 13 1000 77 10000 3.1 170 11:59 13.11.2019
4473 Clouds 13 1000 77 10000 3.1 170 11:38 13.11.2019
4474 Clouds 13 1000 77 10000 3.1 170 11:19 13.11.2019
4475 Clouds 12 999 82 10000 3.6 150 10:57 13.11.2019
4476 Clouds 12 999 82 10000 3.6 150 10:39 13.11.2019
4477 Rain 12 999 93 10000 2.1 170 10:19 13.11.2019
4478 Clouds 12 998 82 8000 1.5 210 09:43 13.11.2019
4479 Rain 11 997 82 10000 1 140 09:21 13.11.2019
4480 Rain 11 997 82 10000 1 140 09:21 13.11.2019
4481 Rain 11 997 82 10000 1 140 09:21 13.11.2019
4482 Rain 11 997 82 10000 1 140 09:21 13.11.2019
4483 Rain 11 997 82 10000 1 140 09:21 13.11.2019
4484 Clouds 11 997 81 10000 2.1 150 08:46 13.11.2019
4485 Clouds 11 996 81 10000 2.1 140 08:28 13.11.2019
4486 Clouds 10 996 81 10000 2.1 140 07:59 13.11.2019
4487 Clouds 10 996 81 10000 2.1 140 07:41 13.11.2019
4488 Clouds 10 995 81 10000 2.1 120 07:20 13.11.2019
4489 Clouds 10 995 87 10000 1 0 06:43 13.11.2019
4490 Clouds 10 995 87 10000 1.5 110 06:19 13.11.2019
4491 Clouds 10 995 87 10000 1.5 110 06:19 13.11.2019
4492 Clouds 10 995 87 10000 1.5 110 06:19 13.11.2019
4493 Clouds 10 995 87 10000 1.5 110 06:19 13.11.2019
4494 Clouds 10 995 87 10000 1.5 110 06:19 13.11.2019
4495 Clouds 10 994 93 10000 2.1 130 05:48 13.11.2019
4496 Clouds 10 994 93 10000 2.1 130 05:29 13.11.2019
4497 Rain 10 993 81 10000 1 0 04:20 13.11.2019
4498 Rain 11 993 76 10000 3.6 60 01:54 13.11.2019
4499 Rain 11 993 76 10000 3.6 60 01:35 13.11.2019
4500 Clouds 11 992 76 10000 2.1 20 00:43 13.11.2019
4501 Clouds 11 992 71 10000 3.1 80 23:59 12.11.2019
4502 Clouds 11 992 81 10000 3.1 70 23:40 12.11.2019
4503 Clouds 11 992 76 10000 1.5 110 23:21 12.11.2019
4504 Rain 12 993 81 10000 2.6 70 22:43 12.11.2019
4505 Rain 12 993 81 10000 5.1 80 22:20 12.11.2019
4506 Rain 12 993 81 10000 5.1 80 21:58 12.11.2019
4507 Clouds 12 993 81 10000 4.1 60 21:40 12.11.2019
4508 Rain 12 993 87 10000 4.1 60 21:22 12.11.2019
4509 Rain 12 993 87 10000 4.1 60 20:56 12.11.2019
4510 Clouds 11 993 87 10000 4.6 20 20:37 12.11.2019
4511 Clouds 11 993 87 10000 4.6 20 20:37 12.11.2019
4512 Rain 12 993 71 8000 3.6 110 20:18 12.11.2019
4513 Rain 12 993 71 8000 3.6 110 19:57 12.11.2019
4514 Clouds 12 993 62 10000 5.7 130 19:38 12.11.2019
4515 Clouds 12 992 58 10000 5.7 120 19:19 12.11.2019
4516 Clouds 12 992 58 10000 5.7 120 18:57 12.11.2019
4517 Clouds 12 993 62 10000 4.1 120 18:39 12.11.2019
4518 Clouds 12 992 62 10000 6.2 140 18:21 12.11.2019
4519 Clouds 12 992 62 10000 6.2 140 17:56 12.11.2019
4520 Clouds 12 992 67 10000 6.2 140 17:37 12.11.2019
4521 Clouds 12 992 67 10000 6.2 140 17:19 12.11.2019
4522 Clouds 13 992 67 10000 10.3 130 16:44 12.11.2019
4523 Clouds 13 992 67 10000 10.3 130 16:25 12.11.2019
4524 Rain 13 992 71 7000 9.3 130 15:57 12.11.2019
4525 Rain 13 993 82 3000 11.8 140 15:39 12.11.2019
4526 Rain 13 992 87 6000 1 0 15:20 12.11.2019
4527 Rain 14 991 87 5000 1.5 320 14:55 12.11.2019
4528 Rain 14 991 87 5000 1.5 320 14:36 12.11.2019
4529 Rain 14 991 87 10000 2.6 360 14:18 12.11.2019
4530 Rain 14 991 87 10000 2.6 360 13:54 12.11.2019
4531 Rain 15 991 87 10000 2.1 360 13:36 12.11.2019
4532 Rain 15 992 82 10000 2.6 40 13:18 12.11.2019
4533 Rain 15 992 87 10000 4.1 30 12:39 12.11.2019
4534 Clouds 15 993 87 10000 3.1 30 12:18 12.11.2019
4535 Clouds 14 993 87 10000 3.1 30 11:54 12.11.2019
4536 Clouds 15 993 87 10000 3.1 30 11:36 12.11.2019
4537 Clouds 14 994 82 10000 4.6 20 11:18 12.11.2019
4538 Clouds 14 994 82 10000 3.6 20 10:55 12.11.2019
4539 Clouds 14 994 82 10000 3.6 20 10:36 12.11.2019
4540 Clouds 14 994 82 10000 3.6 20 10:36 12.11.2019
4541 Clouds 14 995 82 10000 3.1 30 10:18 12.11.2019
4542 Clouds 14 995 82 10000 3.6 20 09:39 12.11.2019
4543 Clouds 13 995 81 10000 3.1 50 09:19 12.11.2019
4544 Clouds 13 995 87 10000 1.5 50 08:49 12.11.2019
4545 Clouds 13 995 87 10000 1.5 50 08:29 12.11.2019
4546 Clouds 12 996 87 10000 3.1 20 07:42 12.11.2019
4547 Clouds 13 996 87 10000 3.6 10 07:24 12.11.2019
4548 Clouds 12 996 87 10000 4.1 10 06:53 12.11.2019
4549 Clouds 13 996 87 10000 4.1 10 06:26 12.11.2019
4550 Clouds 12 997 87 10000 4.1 40 05:53 12.11.2019
4551 Clouds 12 998 87 10000 4.1 40 04:56 12.11.2019
4552 Clouds 12 1000 93 10000 3.6 20 04:20 12.11.2019
4553 Clouds 12 1001 87 10000 3.1 20 01:58 12.11.2019
4554 Rain 12 1002 87 10000 4.1 30 01:27 12.11.2019
4555 Clouds 12 1003 87 10000 2.1 20 00:55 12.11.2019
4556 Clouds 12 1003 87 10000 2.1 20 00:37 12.11.2019
4557 Clouds 12 1003 87 10000 2.6 50 23:55 11.11.2019
4558 Clouds 12 1004 87 10000 3.6 30 23:37 11.11.2019
4559 Clouds 12 1004 87 10000 3.6 40 23:18 11.11.2019
4560 Clouds 12 1005 87 10000 3.6 20 22:38 11.11.2019
4561 Clouds 12 1005 87 10000 4.1 30 22:20 11.11.2019
4562 Clouds 12 1005 87 10000 4.1 30 21:58 11.11.2019
4563 Clouds 12 1006 93 10000 3.6 30 21:39 11.11.2019
4564 Clouds 12 1006 93 7000 4.1 30 21:20 11.11.2019
4565 Clouds 12 1006 93 7000 4.1 30 20:55 11.11.2019
4566 Clouds 12 1007 93 10000 3.1 50 20:37 11.11.2019
4567 Clouds 12 1007 93 10000 1.5 110 20:19 11.11.2019
4568 Rain 12 1008 87 7000 2.1 200 19:42 11.11.2019
4569 Rain 12 1008 87 7000 1 0 19:20 11.11.2019
4570 Rain 12 1008 87 7000 1 0 18:59 11.11.2019
4571 Rain 12 1008 93 10000 4.1 20 18:40 11.11.2019
4572 Drizzle 12 1008 93 10000 3.6 30 18:21 11.11.2019
4573 Clouds 12 1008 82 10000 3.6 30 17:45 11.11.2019
4574 Clouds 12 1008 82 10000 3.6 30 17:27 11.11.2019
4575 Clouds 12 1008 82 10000 3.6 30 17:27 11.11.2019
4576 Rain 12 1008 82 8000 3.1 70 16:58 11.11.2019
4577 Rain 12 1009 93 6000 1.5 110 16:38 11.11.2019
4578 Thunderstorm 12 1010 87 1500 4.6 0 16:20 11.11.2019
4579 Thunderstorm 13 1008 82 10000 3.1 30 15:41 11.11.2019
4580 Rain 14 1008 87 10000 4.1 50 15:20 11.11.2019
4581 Rain 14 1008 87 10000 4.1 50 14:55 11.11.2019
4582 Thunderstorm 15 1009 87 8000 1.5 0 14:37 11.11.2019
4583 Thunderstorm 15 1009 93 3000 3.6 280 14:19 11.11.2019
4584 Thunderstorm 14 1009 93 3000 3.6 280 13:54 11.11.2019
4585 Thunderstorm 14 1009 93 7000 2.6 10 13:36 11.11.2019
4586 Rain 14 1010 93 7000 3.1 320 13:18 11.11.2019
4587 Rain 14 1010 93 7000 3.1 320 12:54 11.11.2019
4588 Clouds 14 1010 87 10000 2.1 350 12:36 11.11.2019
4589 Clouds 14 1010 87 10000 3.1 40 12:18 11.11.2019
4590 Rain 13 1011 87 10000 3.1 60 11:41 11.11.2019
4591 Rain 13 1011 82 6000 4.1 90 11:21 11.11.2019
4592 Rain 13 1011 82 10000 4.1 120 10:44 11.11.2019
4593 Clouds 12 1011 82 10000 3.6 110 10:19 11.11.2019
4594 Clouds 13 1011 82 10000 3.6 110 09:58 11.11.2019
4595 Clouds 13 1011 93 10000 2.1 50 09:40 11.11.2019
4596 Rain 12 1012 93 6000 1.5 40 09:19 11.11.2019
4597 Rain 12 1011 93 4000 2.1 90 08:41 11.11.2019
4598 Thunderstorm 12 1011 93 4000 1 0 08:22 11.11.2019
4599 Thunderstorm 12 1011 93 4000 1 0 07:57 11.11.2019
4600 Thunderstorm 12 1011 87 5000 3.1 300 07:37 11.11.2019
4601 Rain 12 1009 76 10000 5.1 90 07:19 11.11.2019
4602 Thunderstorm 12 1009 82 10000 3.6 90 06:49 11.11.2019
4603 Thunderstorm 12 1009 82 10000 3.6 90 06:49 11.11.2019
4604 Thunderstorm 12 1009 82 10000 3.6 90 06:24 11.11.2019
4605 Rain 12 1010 81 9000 4.6 80 05:51 11.11.2019
4606 Rain 12 1010 81 9000 4.1 80 04:50 11.11.2019
4607 Rain 11 1010 82 9000 4.6 120 03:25 11.11.2019
4608 Rain 12 1011 71 7000 6.2 110 02:30 11.11.2019
4609 Clouds 12 1011 71 10000 4.6 110 01:57 11.11.2019
4610 Clouds 12 1010 76 10000 6.2 90 01:35 11.11.2019
4611 Rain 12 1011 81 10000 5.1 90 00:51 11.11.2019
4612 Rain 12 1011 81 10000 5.1 90 00:29 11.11.2019
4613 Rain 12 1010 76 9000 5.7 90 23:56 10.11.2019
4614 Rain 12 1010 81 8000 5.7 80 23:36 10.11.2019
4615 Rain 12 1010 81 8000 5.7 80 23:36 10.11.2019
4616 Clouds 12 1010 71 10000 4.6 90 23:18 10.11.2019
4617 Clouds 12 1010 71 10000 4.6 90 22:55 10.11.2019
4618 Rain 12 1010 71 10000 7.7 110 22:36 10.11.2019
4619 Rain 12 1011 76 8000 3.6 110 22:18 10.11.2019
4620 Rain 12 1011 76 8000 3.6 110 21:54 10.11.2019
4621 Rain 12 1010 71 10000 4.6 100 21:36 10.11.2019
4622 Rain 12 1010 81 10000 2.6 70 21:18 10.11.2019
4623 Rain 12 1010 81 8000 5.1 120 20:40 10.11.2019
4624 Rain 12 1010 71 10000 1.5 90 20:21 10.11.2019
4625 Rain 12 1010 71 10000 1.5 90 19:56 10.11.2019
4626 Clouds 13 1009 71 10000 3.1 60 19:37 10.11.2019
4627 Clouds 13 1009 71 10000 2.6 60 19:18 10.11.2019
4628 Clouds 13 1009 71 10000 2.6 60 18:56 10.11.2019
4629 Clouds 13 1009 62 10000 3.1 110 18:38 10.11.2019
4630 Clouds 13 1009 67 10000 3.6 110 18:19 10.11.2019
4631 Clouds 13 1009 67 10000 3.6 110 17:55 10.11.2019
4632 Clouds 13 1009 71 10000 3.1 120 17:37 10.11.2019
4633 Clouds 13 1009 67 10000 4.1 140 17:19 10.11.2019
4634 Clouds 14 1009 67 10000 4.1 140 16:56 10.11.2019
4635 Clouds 14 1009 67 10000 3.6 140 16:37 10.11.2019
4636 Clouds 14 1009 67 10000 3.6 140 16:37 10.11.2019
4637 Clouds 14 1009 67 10000 3.6 150 16:19 10.11.2019
4638 Clouds 14 1009 67 10000 3.6 150 15:54 10.11.2019
4639 Clouds 14 1009 62 10000 3.6 150 15:36 10.11.2019
4640 Clouds 15 1008 58 10000 3.6 160 15:18 10.11.2019
4641 Clouds 15 1008 58 10000 3.1 180 14:40 10.11.2019
4642 Clouds 15 1008 55 10000 3.1 180 14:22 10.11.2019
4643 Clouds 15 1008 55 10000 3.1 180 13:56 10.11.2019
4644 Clouds 15 1008 59 10000 3.1 160 13:38 10.11.2019
4645 Clouds 15 1009 58 10000 5.1 150 13:19 10.11.2019
4646 Clouds 15 1009 58 10000 3.6 170 12:42 10.11.2019
4647 Clouds 14 1009 62 10000 4.1 170 12:20 10.11.2019
4648 Clouds 14 1009 62 10000 4.1 170 12:20 10.11.2019
4649 Clouds 14 1009 62 10000 4.1 170 11:57 10.11.2019
4650 Clouds 14 1009 58 10000 3.6 170 11:38 10.11.2019
4651 Clouds 13 1009 62 10000 2.6 150 11:20 10.11.2019
4652 Clouds 13 1009 62 10000 2.6 150 10:56 10.11.2019
4653 Clouds 13 1009 67 10000 3.6 150 10:38 10.11.2019
4654 Clouds 13 1009 67 10000 3.6 150 10:38 10.11.2019
4655 Clear 12 1009 71 10000 2.6 140 10:19 10.11.2019
4656 Clear 12 1009 81 10000 1 0 09:42 10.11.2019
4657 Clear 11 1009 81 10000 1 0 09:22 10.11.2019
4658 Clear 10 1008 87 10000 1 0 08:40 10.11.2019
4659 Clouds 9 1007 87 10000 1 0 08:21 10.11.2019
4660 Clouds 8 1007 87 10000 1 0 07:58 10.11.2019
4661 Clouds 8 1007 93 10000 1.5 100 07:38 10.11.2019
4662 Clouds 8 1007 87 10000 1.5 360 07:18 10.11.2019
4663 Clouds 9 1007 87 10000 2.6 60 06:25 10.11.2019
4664 Clouds 9 1007 93 10000 2.1 30 04:46 10.11.2019
4665 Clouds 9 1007 93 10000 1 0 02:59 10.11.2019
4666 Clouds 9 1007 93 10000 0.5 0 01:43 10.11.2019
4667 Clouds 9 1006 93 10000 1.5 100 01:19 10.11.2019
4668 Clouds 9 1007 93 10000 1.5 150 00:39 10.11.2019
4669 Clouds 9 1006 93 10000 1 0 23:43 09.11.2019
4670 Clouds 9 1006 93 10000 2.1 140 23:20 09.11.2019
4671 Clouds 9 1006 93 10000 2.1 140 22:55 09.11.2019
4672 Clouds 9 1006 87 10000 1 0 22:37 09.11.2019
4673 Clouds 10 1006 87 10000 2.1 40 22:18 09.11.2019
4674 Clouds 10 1006 87 10000 2.1 40 21:55 09.11.2019
4675 Clouds 10 1006 87 10000 3.1 30 21:37 09.11.2019
4676 Clouds 10 1006 87 10000 1 0 21:19 09.11.2019
4677 Clouds 10 1007 93 8000 2.1 350 20:41 09.11.2019
4678 Clouds 10 1007 93 8000 2.1 350 20:22 09.11.2019
4679 Rain 10 1007 93 5000 2.6 360 19:57 09.11.2019
4680 Rain 10 1007 93 5000 1.5 260 19:36 09.11.2019
4681 Rain 10 1007 87 8000 3.1 80 19:18 09.11.2019
4682 Rain 11 1007 87 6000 2.6 60 18:40 09.11.2019
4683 Rain 11 1007 76 7000 1.5 110 18:19 09.11.2019
4684 Rain 11 1007 76 7000 1.5 110 18:19 09.11.2019
4685 Rain 11 1007 76 7000 1.5 110 17:58 09.11.2019
4686 Rain 11 1007 81 6000 3.1 110 17:40 09.11.2019
4687 Rain 12 1007 81 9000 5.1 100 17:21 09.11.2019
4688 Rain 12 1007 81 8000 3.6 100 16:42 09.11.2019
4689 Rain 12 1007 76 8000 3.6 90 16:21 09.11.2019
4690 Rain 13 1007 76 8000 3.6 90 15:55 09.11.2019
4691 Rain 13 1007 76 8000 3.6 90 15:55 09.11.2019
4692 Rain 13 1007 71 10000 3.6 90 15:37 09.11.2019
4693 Clouds 13 1008 67 10000 4.1 100 15:19 09.11.2019
4694 Clouds 13 1008 71 10000 4.6 80 14:41 09.11.2019
4695 Clouds 13 1008 62 10000 4.1 90 14:21 09.11.2019
4696 Clouds 13 1008 62 10000 4.1 90 13:57 09.11.2019
4697 Clouds 13 1008 67 10000 2.1 40 13:37 09.11.2019
4698 Rain 13 1008 67 10000 2.6 160 13:18 09.11.2019
4699 Clouds 13 1008 58 10000 4.6 140 12:47 09.11.2019
4700 Clouds 13 1008 58 10000 4.6 140 12:29 09.11.2019
4701 Clouds 13 1009 62 10000 5.1 130 11:57 09.11.2019
4702 Clouds 13 1010 71 10000 4.6 150 11:38 09.11.2019
4703 Clouds 13 1010 62 10000 2.6 140 11:19 09.11.2019
4704 Clouds 13 1010 71 10000 0.5 80 10:41 09.11.2019
4705 Clouds 12 1009 67 10000 1.5 100 10:20 09.11.2019
4706 Clouds 12 1009 67 10000 1.5 100 09:59 09.11.2019
4707 Clouds 12 1009 67 10000 1.5 100 09:59 09.11.2019
4708 Clouds 11 1010 76 10000 3.6 80 09:40 09.11.2019
4709 Clouds 11 1010 76 10000 3.6 90 09:19 09.11.2019
4710 Clouds 10 1010 81 10000 3.6 90 08:43 09.11.2019
4711 Clouds 9 1010 81 10000 3.6 90 08:24 09.11.2019
4712 Clouds 9 1009 81 10000 3.6 90 07:48 09.11.2019
4713 Clouds 9 1009 81 10000 3.6 90 07:24 09.11.2019
4714 Clouds 9 1009 87 10000 3.1 90 06:56 09.11.2019
4715 Clouds 9 1009 93 10000 3.1 90 06:38 09.11.2019
4716 Clouds 9 1009 87 10000 2.1 100 06:19 09.11.2019
4717 Clouds 10 1009 87 10000 2.6 110 05:37 09.11.2019
4718 Clouds 10 1009 87 10000 2.6 120 03:57 09.11.2019
4719 Clouds 11 1009 81 10000 1.5 150 02:45 09.11.2019
4720 Clouds 11 1009 87 10000 1.5 170 02:22 09.11.2019
4721 Clouds 11 1009 81 10000 1.5 170 00:57 09.11.2019
4722 Clouds 11 1009 81 10000 1.5 170 00:39 09.11.2019
4723 Clouds 11 1009 87 10000 2.1 160 00:20 09.11.2019
4724 Clouds 11 1008 87 10000 2.1 150 23:40 08.11.2019
4725 Rain 12 1008 87 9000 2.1 200 23:21 08.11.2019
4726 Thunderstorm 12 1008 87 10000 1.5 120 22:50 08.11.2019
4727 Clouds 12 1008 87 10000 2.1 140 22:22 08.11.2019
4728 Clouds 12 1008 87 10000 2.1 140 21:58 08.11.2019
4729 Clouds 12 1008 87 10000 1.5 160 21:40 08.11.2019
4730 Clouds 12 1007 87 10000 1 0 21:22 08.11.2019
4731 Rain 12 1007 82 10000 1.5 150 20:54 08.11.2019
4732 Rain 12 1007 82 10000 1.5 150 20:36 08.11.2019
4733 Rain 12 1007 82 10000 1.5 150 20:36 08.11.2019
4734 Rain 13 1007 87 10000 1.5 170 20:18 08.11.2019
4735 Rain 13 1007 82 10000 2.6 240 19:39 08.11.2019
4736 Rain 13 1006 87 10000 1 160 19:19 08.11.2019
4737 Rain 13 1006 87 10000 1 160 19:19 08.11.2019
4738 Rain 13 1006 87 10000 1 160 18:56 08.11.2019
4739 Rain 13 1006 87 10000 1 160 18:56 08.11.2019
4740 Rain 13 1006 87 10000 1 0 18:38 08.11.2019
4741 Rain 14 1006 87 10000 3.1 250 18:20 08.11.2019
4742 Rain 14 1006 87 10000 3.1 250 17:56 08.11.2019
4743 Rain 14 1005 82 10000 4.1 150 17:37 08.11.2019
4744 Rain 14 1005 82 10000 3.6 160 17:19 08.11.2019
4745 Rain 14 1005 82 10000 3.6 160 16:58 08.11.2019
4746 Rain 15 1005 87 10000 3.6 190 16:39 08.11.2019
4747 Rain 15 1005 87 10000 3.6 190 16:39 08.11.2019
4748 Rain 15 1005 87 10000 3.6 190 16:39 08.11.2019
4749 Rain 15 1005 82 9000 4.1 160 16:20 08.11.2019
4750 Rain 15 1005 82 9000 4.1 160 16:20 08.11.2019
4751 Rain 15 1005 82 9000 4.1 160 15:59 08.11.2019
4752 Rain 15 1005 82 4000 3.6 180 15:40 08.11.2019
4753 Rain 15 1005 77 10000 4.6 160 15:22 08.11.2019
4754 Rain 15 1005 77 10000 4.6 160 14:56 08.11.2019
4755 Clouds 15 1005 72 10000 5.1 160 14:37 08.11.2019
4756 Clouds 15 1004 72 10000 5.7 160 14:18 08.11.2019
4757 Clouds 15 1004 72 10000 5.7 160 13:57 08.11.2019
4758 Clouds 14 1004 82 10000 4.6 140 13:38 08.11.2019
4759 Rain 14 1005 87 8000 4.6 140 13:19 08.11.2019
4760 Rain 13 1005 87 6000 3.6 160 12:43 08.11.2019
4761 Rain 13 1005 87 6000 3.6 160 12:24 08.11.2019
4762 Rain 13 1006 87 6000 5.1 190 11:57 08.11.2019
4763 Rain 14 1006 82 10000 5.7 160 11:38 08.11.2019
4764 Rain 13 1006 82 10000 6.2 160 11:20 08.11.2019
4765 Rain 13 1006 82 10000 6.2 160 11:20 08.11.2019
4766 Rain 13 1006 82 10000 6.2 160 10:56 08.11.2019
4767 Clouds 13 1006 87 10000 5.1 170 10:38 08.11.2019
4768 Rain 12 1005 93 10000 6.7 150 10:20 08.11.2019
4769 Rain 13 1005 82 10000 4.6 160 09:41 08.11.2019
4770 Rain 14 1005 87 8000 8.2 150 09:20 08.11.2019
4771 Rain 14 1005 87 8000 8.2 150 09:20 08.11.2019
4772 Rain 14 1005 87 8000 8.2 150 08:59 08.11.2019
4773 Thunderstorm 14 1005 82 10000 4.6 130 08:37 08.11.2019
4774 Rain 14 1005 82 10000 6.7 140 08:18 08.11.2019
4775 Thunderstorm 13 1004 82 10000 7.2 130 07:40 08.11.2019
4776 Clouds 14 1005 76 10000 7.7 140 07:22 08.11.2019
4777 Rain 14 1005 76 9000 9.3 140 06:41 08.11.2019
4778 Rain 14 1005 76 8000 8.2 150 06:22 08.11.2019
4779 Rain 14 1005 76 8000 8.2 150 05:55 08.11.2019
4780 Clouds 14 1005 72 10000 6.7 140 05:22 08.11.2019
4781 Clouds 13 1006 71 10000 4.6 140 03:46 08.11.2019
4782 Clouds 13 1007 71 10000 4.1 140 03:23 08.11.2019
4783 Clouds 12 1007 71 10000 3.6 140 02:46 08.11.2019
4784 Clear 12 1007 81 10000 2.6 150 01:48 08.11.2019
4785 Clear 12 1007 81 10000 2.6 150 01:30 08.11.2019
4786 Clear 10 1008 87 10000 2.1 120 00:24 08.11.2019
4787 Clear 10 1008 87 10000 2.6 110 23:59 07.11.2019
4788 Clear 10 1008 87 10000 2.6 110 23:59 07.11.2019
4789 Clear 10 1008 87 10000 2.6 100 23:41 07.11.2019
4790 Clear 10 1009 81 10000 2.1 100 23:22 07.11.2019
4791 Clear 10 1009 81 10000 2.6 100 22:43 07.11.2019
4792 Clear 10 1009 81 10000 2.6 100 22:22 07.11.2019
4793 Clear 11 1009 81 10000 2.6 100 21:56 07.11.2019
4794 Clear 11 1009 87 10000 2.1 100 21:38 07.11.2019
4795 Clear 11 1009 87 10000 2.6 110 21:19 07.11.2019
4796 Clear 12 1009 87 10000 2.6 110 20:58 07.11.2019
4797 Clear 12 1009 81 10000 2.1 110 20:39 07.11.2019
4798 Clear 12 1009 81 10000 2.1 100 20:21 07.11.2019
4799 Clear 12 1009 81 10000 2.6 110 19:56 07.11.2019
4800 Clear 12 1009 81 10000 2.6 110 19:37 07.11.2019
4801 Clear 12 1009 82 10000 2.6 120 19:18 07.11.2019
4802 Clear 13 1009 82 10000 1.5 140 18:55 07.11.2019
4803 Clear 13 1009 82 10000 1.5 140 18:37 07.11.2019
4804 Clear 13 1009 82 10000 1.5 140 18:37 07.11.2019
4805 Clear 14 1009 76 10000 1 160 18:19 07.11.2019
4806 Clear 14 1008 72 10000 1.5 0 17:40 07.11.2019
4807 Clear 15 1008 72 10000 1.5 0 17:22 07.11.2019
4808 Clouds 16 1008 63 10000 2.1 240 16:58 07.11.2019
4809 Clouds 17 1008 39 10000 1 0 16:40 07.11.2019
4810 Clouds 17 1008 39 10000 1 0 16:20 07.11.2019
4811 Clouds 18 1008 45 10000 2.1 270 15:58 07.11.2019
4812 Clouds 18 1008 42 10000 1.5 0 15:39 07.11.2019
4813 Clouds 18 1008 42 10000 1.5 0 15:19 07.11.2019
4814 Clouds 18 1008 48 10000 2.1 270 14:45 07.11.2019
4815 Clouds 19 1008 52 10000 1 0 14:27 07.11.2019
4816 Clear 18 1008 55 10000 1 0 13:57 07.11.2019
4817 Clear 18 1008 52 10000 0.5 0 13:39 07.11.2019
4818 Clear 18 1008 52 10000 0.5 0 13:20 07.11.2019
4819 Clear 18 1009 55 10000 1 0 12:58 07.11.2019
4820 Clouds 18 1009 63 10000 1 0 12:40 07.11.2019
4821 Clouds 18 1009 63 10000 1 0 12:21 07.11.2019
4822 Clear 17 1009 67 10000 2.6 310 11:58 07.11.2019
4823 Clear 17 1009 67 10000 1 0 11:39 07.11.2019
4824 Clouds 16 1009 67 10000 1 0 11:20 07.11.2019
4825 Clouds 16 1009 77 10000 2.1 50 10:40 07.11.2019
4826 Clouds 16 1009 77 10000 2.1 50 10:19 07.11.2019
4827 Clouds 14 1009 63 10000 2.1 160 09:44 07.11.2019
4828 Clouds 13 1009 93 10000 1.5 0 09:23 07.11.2019
4829 Clouds 13 1009 93 10000 1.5 0 09:23 07.11.2019
4830 Clouds 12 1008 82 10000 2.1 110 08:57 07.11.2019
4831 -273 0 0 0 0 0 08:39 07.11.2019
4832 Clear 11 1008 100 10000 0.5 0 08:21 07.11.2019
4833 Clear 11 1008 100 10000 0.5 0 08:20 07.11.2019
4834 Clear 10 1007 81 10000 2.6 100 07:42 07.11.2019
4835 Clear 10 1007 87 10000 2.1 110 07:23 07.11.2019
4836 Clear 10 1007 87 10000 2.1 110 07:21 07.11.2019
4837 Clouds 10 1007 87 10000 2.6 110 06:47 07.11.2019
4838 Clouds 10 1007 81 10000 3.1 120 06:27 07.11.2019
4839 Clouds 10 1007 81 10000 3.1 120 06:27 07.11.2019
4840 Clouds 10 1007 81 10000 3.1 120 05:51 07.11.2019
4841 -273 0 0 0 0 0 05:33 07.11.2019
4842 Clouds 10 1007 87 10000 2.6 130 05:32 07.11.2019
4843 Clouds 10 1007 87 10000 2.1 150 04:52 07.11.2019
4844 Clouds 10 1007 87 10000 2.1 150 04:52 07.11.2019
4845 Clouds 10 1007 87 10000 2.1 150 04:52 07.11.2019
4846 Clouds 10 1007 87 10000 2.1 150 04:52 07.11.2019
4847 Clouds 10 1007 87 10000 2.6 140 04:29 07.11.2019
4848 -273 0 0 0 0 0 01:29 07.11.2019
4849 Rain 11 1007 87 10000 2.6 120 00:32 07.11.2019
4850 Thunderstorm 12 1007 82 8000 2.1 290 23:59 06.11.2019
4851 Thunderstorm 11 1007 87 9000 2.6 110 23:40 06.11.2019
4852 Thunderstorm 11 1007 87 9000 2.6 110 23:20 06.11.2019
4853 Thunderstorm 12 1007 77 10000 1.5 10 22:40 06.11.2019
4854 Thunderstorm 11 1007 77 10000 1.5 10 22:21 06.11.2019
4855 Rain 12 1007 81 10000 2.6 110 21:58 06.11.2019
4856 Rain 12 1007 81 10000 2.6 110 21:39 06.11.2019
4857 Rain 12 1007 81 10000 2.6 110 21:20 06.11.2019
4858 Rain 12 1007 81 10000 2.6 110 20:57 06.11.2019
4859 Rain 12 1007 81 10000 2.6 110 20:39 06.11.2019
4860 Rain 12 1007 81 10000 2.6 110 20:20 06.11.2019
4861 Rain 12 1007 81 10000 2.6 120 19:58 06.11.2019
4862 Rain 12 1007 81 10000 2.1 130 19:37 06.11.2019
4863 Rain 13 1007 81 10000 2.1 130 19:19 06.11.2019
4864 Clouds 13 1007 81 10000 1.5 120 18:56 06.11.2019
4865 Clouds 13 1007 81 10000 1.5 120 18:38 06.11.2019
4866 Clouds 13 1007 76 10000 3.1 120 18:18 06.11.2019
4867 Clouds 14 1007 71 10000 1.5 150 17:42 06.11.2019
4868 Clouds 15 1006 67 10000 1 0 17:23 06.11.2019
4869 Clouds 15 1006 63 10000 2.6 250 16:57 06.11.2019
4870 Clouds 15 1006 63 10000 2.6 250 16:39 06.11.2019
4871 Clouds 16 1006 55 10000 3.1 240 16:21 06.11.2019
4872 Clouds 16 1006 55 10000 3.6 230 15:58 06.11.2019
4873 Clouds 16 1006 55 10000 3.6 230 15:38 06.11.2019
4874 Clouds 16 1006 55 10000 3.6 230 15:38 06.11.2019
4875 Clouds 16 1006 63 10000 3.6 240 15:19 06.11.2019
4876 Clouds 16 1006 63 10000 3.6 240 14:57 06.11.2019
4877 Clouds 16 1006 63 10000 3.6 230 14:39 06.11.2019
4878 Clouds 16 1006 63 10000 3.6 230 14:39 06.11.2019
4879 Clouds 16 1006 63 10000 5.1 260 14:21 06.11.2019
4880 Clouds 16 1006 63 10000 5.1 260 13:59 06.11.2019
4881 Clouds 16 1006 63 10000 5.1 260 13:59 06.11.2019
4882 Clouds 16 1006 67 10000 2.6 160 13:37 06.11.2019
4883 Rain 17 1006 77 10000 3.6 190 13:19 06.11.2019
4884 Rain 17 1006 77 10000 3.6 190 12:55 06.11.2019
4885 Rain 17 1006 63 10000 4.1 170 12:37 06.11.2019
4886 Clouds 17 1006 59 10000 3.6 170 12:18 06.11.2019
4887 Clouds 16 1007 59 10000 3.1 180 11:56 06.11.2019
4888 Clouds 17 1007 59 10000 3.1 180 11:36 06.11.2019
4889 Clouds 16 1007 59 10000 4.6 170 11:18 06.11.2019
4890 Clouds 16 1007 59 10000 4.6 170 10:55 06.11.2019
4891 Clouds 16 1007 59 10000 3.1 180 10:37 06.11.2019
4892 Clouds 16 1007 67 10000 3.1 160 10:18 06.11.2019
4893 Clouds 15 1007 67 10000 3.1 160 09:41 06.11.2019
4894 Clouds 15 1007 67 10000 3.1 160 09:21 06.11.2019
4895 Clouds 14 1007 67 10000 3.1 160 08:56 06.11.2019
4896 Clouds 14 1007 72 10000 3.1 160 08:37 06.11.2019
4897 Clouds 13 1007 76 10000 2.6 160 08:18 06.11.2019
4898 Clouds 13 1007 76 10000 2.6 160 08:18 06.11.2019
4899 Clouds 13 1007 76 10000 2.6 160 07:45 06.11.2019
4900 Clouds 12 1007 76 10000 2.6 160 07:27 06.11.2019
4901 Rain 13 1006 76 10000 3.1 160 06:52 06.11.2019
4902 Rain 13 1006 76 10000 3.1 160 06:34 06.11.2019
4903 Rain 13 1006 76 10000 2.6 150 05:50 06.11.2019
4904 Rain 14 1006 72 10000 3.1 190 03:35 06.11.2019
4905 Clouds 15 1006 77 10000 2.1 160 01:42 06.11.2019
4906 Rain 15 1006 72 10000 2.1 180 00:47 06.11.2019
4907 Rain 15 1006 72 10000 3.1 180 00:00 06.11.2019
4908 Clouds 15 1006 77 10000 2.6 180 23:41 05.11.2019
4909 Clouds 15 1006 72 10000 3.1 190 23:22 05.11.2019
4910 Clouds 15 1006 72 10000 3.1 190 22:58 05.11.2019
4911 Clouds 15 1005 77 10000 2.6 180 22:40 05.11.2019
4912 Clouds 15 1005 77 10000 3.1 190 22:18 05.11.2019
4913 Clouds 16 1005 77 10000 3.1 190 21:55 05.11.2019
4914 Rain 16 1005 87 10000 3.1 190 21:37 05.11.2019
4915 Clouds 16 1005 87 10000 2.1 190 21:18 05.11.2019
4916 Clouds 16 1005 87 10000 2.1 190 20:55 05.11.2019
4917 Clouds 16 1004 82 10000 3.1 190 20:36 05.11.2019
4918 Rain 17 1004 87 10000 3.1 170 20:18 05.11.2019
4919 Rain 17 1004 87 10000 3.1 170 19:42 05.11.2019
4920 Rain 16 1003 87 8000 3.1 180 19:22 05.11.2019
4921 Rain 17 1003 87 8000 3.1 180 18:58 05.11.2019
4922 Rain 17 1003 93 7000 3.1 230 18:39 05.11.2019
4923 Rain 18 1002 88 8000 4.1 190 18:21 05.11.2019
4924 Rain 18 1002 88 8000 4.1 190 17:59 05.11.2019
4925 Rain 19 1003 88 8000 5.7 190 17:39 05.11.2019
4926 Clouds 19 1003 88 8000 4.6 190 17:20 05.11.2019
4927 Clouds 19 1003 88 8000 4.6 190 16:56 05.11.2019
4928 Rain 19 1003 82 8000 5.7 190 16:38 05.11.2019
4929 Rain 19 1003 82 8000 6.2 190 16:19 05.11.2019
4930 Rain 19 1003 77 8000 6.2 190 15:39 05.11.2019
4931 Rain 19 1003 77 10000 7.2 190 15:20 05.11.2019
4932 Rain 20 1003 77 10000 7.2 190 14:58 05.11.2019
4933 Clouds 19 1003 82 10000 7.2 190 14:40 05.11.2019
4934 Clouds 20 1003 77 10000 7.7 190 14:21 05.11.2019
4935 Clouds 20 1003 77 10000 7.7 190 13:56 05.11.2019
4936 Clouds 20 1003 77 10000 9.3 190 13:38 05.11.2019
4937 Clouds 20 1004 77 10000 8.7 190 13:20 05.11.2019
4938 Clouds 20 1004 82 10000 8.2 190 12:39 05.11.2019
4939 Clouds 20 1005 68 10000 7.7 190 12:21 05.11.2019
4940 Clouds 20 1005 68 10000 7.7 190 11:56 05.11.2019
4941 Clouds 20 1005 73 10000 8.2 190 11:37 05.11.2019
4942 Clouds 20 1005 82 10000 7.7 190 11:19 05.11.2019
4943 Clouds 20 1005 82 10000 7.2 200 10:44 05.11.2019
4944 Clouds 20 1005 82 10000 7.2 200 10:25 05.11.2019
4945 Clouds 19 1005 82 10000 7.7 190 09:59 05.11.2019
4946 Clouds 19 1005 82 10000 7.2 190 09:40 05.11.2019
4947 Clouds 19 1005 88 10000 5.7 200 09:20 05.11.2019
4948 Clouds 19 1005 88 10000 5.7 200 08:55 05.11.2019
4949 Clouds 19 1005 88 10000 6.2 190 08:37 05.11.2019
4950 Clouds 18 1005 82 8000 5.7 190 08:18 05.11.2019
4951 Clouds 18 1005 82 8000 5.7 190 08:18 05.11.2019
4952 Clouds 18 1005 88 8000 5.1 180 07:44 05.11.2019
4953 Clouds 17 1005 88 10000 5.1 170 07:25 05.11.2019
4954 Clouds 18 1005 88 8000 5.1 180 07:25 05.11.2019
4955 Clouds 18 1005 82 10000 4.6 170 06:51 05.11.2019
4956 Clouds 18 1005 88 10000 4.6 160 06:28 05.11.2019
4957 Clouds 17 1006 88 10000 4.1 170 05:40 05.11.2019
4958 Clouds 17 1005 88 10000 4.6 170 05:19 05.11.2019
4959 Clouds 17 1005 88 10000 5.7 160 04:20 05.11.2019
4960 Clouds 17 1006 82 10000 5.7 160 03:24 05.11.2019
4961 Clouds 17 1006 82 10000 5.7 160 02:42 05.11.2019
4962 Clouds 17 1006 82 10000 5.7 160 02:42 05.11.2019
4963 Clouds 17 1007 82 10000 6.2 160 01:53 05.11.2019
4964 Clouds 17 1007 77 10000 5.7 150 00:46 05.11.2019
4965 Clouds 16 1007 77 10000 5.7 150 00:25 05.11.2019
4966 Clouds 16 1007 77 10000 5.1 160 23:42 04.11.2019
4967 Clouds 17 1007 82 10000 5.1 150 23:19 04.11.2019
4968 Clouds 17 1007 82 10000 5.1 150 22:56 04.11.2019
4969 Rain 17 1008 77 3000 5.7 150 22:37 04.11.2019
4970 Clouds 16 1008 72 10000 5.7 150 22:19 04.11.2019
4971 Clouds 17 1008 72 10000 5.7 160 21:54 04.11.2019
4972 Clouds 17 1008 72 10000 5.7 160 21:36 04.11.2019
4973 Clouds 17 1008 77 10000 5.1 160 21:18 04.11.2019
4974 Clouds 16 1008 77 10000 5.1 160 20:55 04.11.2019
4975 Clouds 17 1008 77 10000 5.7 160 20:36 04.11.2019
4976 Clouds 17 1008 77 10000 5.7 160 20:36 04.11.2019
4977 Clouds 16 1008 72 10000 3.6 160 20:18 04.11.2019
4978 Clouds 17 1008 72 10000 3.1 160 19:42 04.11.2019
4979 Clouds 17 1008 72 10000 3.6 150 19:23 04.11.2019
4980 Clouds 17 1008 72 10000 3.6 150 18:59 04.11.2019
4981 Clouds 17 1007 72 10000 2.6 160 18:40 04.11.2019
4982 Clouds 17 1007 72 10000 2.6 180 18:21 04.11.2019
4983 Clouds 17 1007 72 10000 2.6 180 17:58 04.11.2019
4984 Clouds 17 1007 72 10000 2.6 160 17:36 04.11.2019
4985 Clouds 18 1007 72 10000 2.6 200 17:18 04.11.2019
4986 Clouds 18 1007 68 10000 3.1 230 16:43 04.11.2019
4987 Clouds 18 1007 68 10000 5.1 240 16:24 04.11.2019
4988 Clouds 19 1007 68 10000 5.1 240 15:59 04.11.2019
4989 Clouds 19 1007 68 10000 5.1 240 15:59 04.11.2019
4990 Clouds 19 1006 64 10000 4.6 240 15:41 04.11.2019
4991 Clouds 19 1006 60 10000 3.1 230 15:21 04.11.2019
4992 Clouds 20 1006 60 10000 3.1 230 14:58 04.11.2019
4993 Clouds 20 1005 60 10000 3.1 240 14:39 04.11.2019
4994 Clouds 19 1005 60 10000 3.1 280 14:20 04.11.2019
4995 Clouds 20 1005 60 10000 3.1 280 13:57 04.11.2019
4996 Clouds 20 1005 60 10000 4.1 270 13:39 04.11.2019
4997 Clouds 19 1005 64 10000 4.6 260 13:20 04.11.2019
4998 Clouds 19 1005 64 10000 4.6 260 12:55 04.11.2019
4999 Clouds 19 1005 68 10000 5.1 270 12:37 04.11.2019
5000 Clouds 19 1005 64 10000 5.7 260 12:18 04.11.2019
5001 Clouds 18 1005 68 10000 6.2 250 11:42 04.11.2019
5002 Clouds 17 1006 68 10000 6.7 250 11:23 04.11.2019
5003 Clouds 17 1006 68 10000 6.7 250 10:56 04.11.2019
5004 Clouds 17 1005 68 10000 6.2 250 10:38 04.11.2019
5005 Clouds 16 1005 68 10000 5.1 250 10:18 04.11.2019
5006 Clouds 16 1004 72 10000 3.6 150 09:44 04.11.2019
5007 Clouds 15 1004 77 10000 2.6 150 09:26 04.11.2019
5008 Clouds 15 1004 82 10000 2.6 150 08:56 04.11.2019
5009 Clouds 14 1004 82 10000 2.6 150 08:37 04.11.2019
5010 Clouds 13 1003 87 10000 2.1 120 08:18 04.11.2019
5011 Clouds 13 1002 82 10000 2.6 100 07:42 04.11.2019
5012 Clouds 13 1002 82 10000 4.1 90 07:20 04.11.2019
5013 Rain 13 1001 82 10000 3.1 80 06:49 04.11.2019
5014 Clouds 13 1001 87 10000 2.6 90 06:18 04.11.2019
5015 Clouds 13 1001 87 10000 2.1 110 05:37 04.11.2019
5016 Clouds 13 1000 93 10000 1.5 130 04:37 04.11.2019
5017 Clouds 14 999 87 10000 1.5 170 03:42 04.11.2019
5018 Rain 15 998 77 10000 3.6 200 01:38 04.11.2019
5019 Rain 15 998 77 10000 4.1 210 01:18 04.11.2019
5020 Clouds 15 999 82 10000 2.6 210 00:22 04.11.2019
5021 Clouds 15 999 82 10000 2.6 210 23:59 03.11.2019
5022 Rain 15 999 82 10000 2.6 230 23:39 03.11.2019
5023 Clouds 16 999 87 10000 3.1 200 23:20 03.11.2019
5024 Clouds 16 999 87 10000 3.1 200 22:57 03.11.2019
5025 Clouds 16 998 93 10000 3.1 210 22:39 03.11.2019
5026 Clouds 16 998 93 10000 4.1 210 22:19 03.11.2019
5027 Rain 16 998 93 1500 6.7 160 21:43 03.11.2019
5028 Rain 16 997 93 10000 6.2 150 21:22 03.11.2019
5029 Rain 16 997 93 10000 6.2 150 20:59 03.11.2019
5030 Rain 16 998 87 8000 4.6 170 20:38 03.11.2019
5031 Rain 16 998 87 8000 4.6 160 20:19 03.11.2019
5032 Rain 16 998 87 8000 4.6 160 19:57 03.11.2019
5033 Thunderstorm 16 998 87 4000 5.1 190 19:39 03.11.2019
5034 Thunderstorm 17 998 88 800 9.3 200 19:20 03.11.2019
5035 Thunderstorm 18 997 88 9000 7.7 190 18:58 03.11.2019
5036 Thunderstorm 18 997 88 9000 7.7 190 18:37 03.11.2019
5037 Thunderstorm 18 997 82 9000 8.7 200 18:18 03.11.2019
5038 Rain 18 997 82 7000 8.2 190 17:43 03.11.2019
5039 Clouds 19 997 82 10000 8.7 190 17:23 03.11.2019
5040 Clouds 19 997 82 10000 8.7 190 16:59 03.11.2019
5041 Thunderstorm 19 996 83 8000 6.2 190 16:41 03.11.2019
5042 Clouds 19 998 82 10000 7.2 190 16:22 03.11.2019
5043 Clouds 19 998 82 10000 7.2 190 15:58 03.11.2019
5044 Clouds 20 999 82 10000 7.2 180 15:40 03.11.2019
5045 Clouds 20 999 82 10000 6.7 180 15:22 03.11.2019
5046 Clouds 20 999 82 10000 6.7 180 14:56 03.11.2019
5047 Clouds 20 999 82 9000 8.2 190 14:37 03.11.2019
5048 Clouds 20 999 82 9000 8.2 190 14:37 03.11.2019
5049 Clouds 20 999 77 10000 7.2 190 14:18 03.11.2019
5050 Clouds 20 1000 77 10000 7.2 200 13:42 03.11.2019
5051 Clouds 20 1000 77 10000 8.2 200 13:20 03.11.2019
5052 Clouds 20 1000 77 10000 8.2 200 12:58 03.11.2019
5053 Clouds 20 1000 77 10000 6.7 200 12:37 03.11.2019
5054 Clouds 20 1001 73 10000 6.7 190 12:18 03.11.2019
5055 Clouds 20 1001 77 10000 6.7 200 11:42 03.11.2019
5056 Clouds 19 1001 88 9000 4.1 180 11:22 03.11.2019
5057 Clouds 19 1001 88 10000 4.1 170 10:56 03.11.2019
5058 Clouds 19 1001 88 10000 4.1 170 10:37 03.11.2019
5059 Clouds 18 1002 82 10000 5.1 160 10:19 03.11.2019
5060 Clouds 18 1002 82 10000 5.1 160 10:19 03.11.2019
5061 Clouds 17 1001 82 10000 5.7 160 09:43 03.11.2019
5062 Clouds 17 1002 88 10000 4.6 160 09:25 03.11.2019
5063 Clouds 17 1002 88 10000 4.6 160 08:57 03.11.2019
5064 Clouds 17 1002 88 9000 3.6 160 08:38 03.11.2019
5065 Clouds 16 1002 88 10000 3.6 160 08:19 03.11.2019
5066 Clouds 16 1002 82 10000 4.1 160 07:45 03.11.2019
5067 Rain 16 1002 82 10000 4.1 150 07:22 03.11.2019
5068 Clouds 16 1002 88 10000 3.1 150 06:39 03.11.2019
5069 Rain 16 1002 88 10000 3.1 150 05:57 03.11.2019
5070 Clouds 16 1003 88 10000 4.1 150 05:38 03.11.2019
5071 Clouds 16 1003 88 10000 4.1 150 05:38 03.11.2019
5072 Clouds 16 1002 93 10000 4.6 140 04:55 03.11.2019
5073 Clouds 16 1003 88 10000 6.7 140 04:28 03.11.2019
5074 Rain 16 1003 100 10000 5.1 130 03:28 03.11.2019
5075 Rain 16 1004 88 10000 6.2 150 02:30 03.11.2019
5076 Clouds 16 1005 88 10000 5.7 150 01:57 03.11.2019
5077 Clouds 16 1005 88 10000 5.7 150 01:37 03.11.2019
5078 Clouds 16 1005 88 10000 6.7 150 01:19 03.11.2019
5079 Rain 16 1006 88 10000 6.7 160 00:41 03.11.2019
5080 Clouds 16 1006 88 10000 4.6 170 00:22 03.11.2019
5081 Clouds 16 1006 88 10000 4.6 170 23:57 02.11.2019
5082 Rain 16 1006 93 10000 5.1 170 23:37 02.11.2019
5083 Rain 16 1006 88 9000 5.7 150 23:18 02.11.2019
5084 Rain 17 1007 88 9000 6.7 160 22:55 02.11.2019
5085 Rain 16 1007 88 9000 6.7 160 22:37 02.11.2019
5086 Rain 16 1007 88 9000 6.7 160 22:37 02.11.2019
5087 Rain 16 1007 88 9000 6.7 160 22:18 02.11.2019
5088 Rain 16 1006 82 9000 10.3 150 21:55 02.11.2019
5089 Rain 16 1006 82 9000 10.3 150 21:37 02.11.2019
5090 Rain 16 1007 88 9000 7.2 150 21:18 02.11.2019
5091 Rain 16 1007 88 9000 7.2 150 20:56 02.11.2019
5092 Rain 16 1007 88 9000 7.2 150 20:56 02.11.2019
5093 Rain 17 1007 82 9000 5.1 150 20:38 02.11.2019
5094 Clouds 17 1008 82 10000 5.1 160 20:19 02.11.2019
5095 Clouds 17 1008 82 10000 6.7 160 19:40 02.11.2019
5096 Clouds 17 1008 82 10000 6.7 150 19:21 02.11.2019
5097 Clouds 17 1008 82 10000 6.7 150 18:56 02.11.2019
5098 Clouds 17 1008 82 10000 5.7 150 18:37 02.11.2019
5099 Clouds 17 1008 77 10000 5.7 150 18:19 02.11.2019
5100 Clouds 17 1008 77 10000 5.7 150 17:56 02.11.2019
5101 Clouds 17 1008 77 10000 4.6 150 17:56 02.11.2019
5102 Clouds 17 1008 77 10000 4.6 150 17:37 02.11.2019
5103 Clouds 17 1008 77 10000 4.1 150 17:18 02.11.2019
5104 Clouds 18 1008 72 10000 4.6 160 16:40 02.11.2019
5105 Clouds 18 1008 72 10000 4.6 160 16:40 02.11.2019
5106 Clouds 18 1009 72 10000 4.6 160 16:21 02.11.2019
5107 Clouds 18 1008 72 10000 4.1 160 15:56 02.11.2019
5108 Clouds 18 1008 72 10000 4.1 160 15:37 02.11.2019
5109 Clouds 18 1009 72 10000 4.1 170 15:19 02.11.2019
5110 Clouds 18 1009 68 10000 4.1 170 14:42 02.11.2019
5111 Clouds 19 1009 77 10000 4.1 170 14:23 02.11.2019
5112 Clouds 19 1009 77 10000 4.1 170 13:56 02.11.2019
5113 Clouds 19 1009 72 10000 3.6 170 13:37 02.11.2019
5114 Clouds 19 1009 68 10000 3.6 170 13:18 02.11.2019
5115 Clouds 19 1010 68 10000 3.6 160 12:40 02.11.2019
5116 Clouds 19 1010 77 10000 3.6 160 12:22 02.11.2019
5117 Clouds 19 1011 72 10000 3.1 180 11:57 02.11.2019
5118 Clouds 18 1011 72 10000 3.1 180 11:38 02.11.2019
5119 Clouds 18 1011 72 10000 3.6 180 11:20 02.11.2019
5120 Clouds 17 1011 77 10000 3.1 170 10:44 02.11.2019
5121 Clouds 17 1011 77 10000 3.1 150 10:25 02.11.2019
5122 Clouds 17 1011 77 10000 3.1 150 09:56 02.11.2019
5123 Clouds 17 1011 82 10000 2.6 180 09:38 02.11.2019
5124 Clouds 17 1011 82 10000 2.6 180 09:38 02.11.2019
5125 Clouds 16 1011 82 10000 2.1 170 09:18 02.11.2019
5126 Clouds 16 1011 88 10000 1.5 110 08:42 02.11.2019
5127 Clouds 15 1010 87 10000 1.5 120 08:21 02.11.2019
5128 Clouds 15 1010 93 10000 1.5 110 07:47 02.11.2019
5129 Clouds 15 1010 93 10000 1.5 110 07:27 02.11.2019
5130 Fog 14 1011 93 10000 0.5 0 06:54 02.11.2019
5131 Fog 14 1011 93 10000 0.5 0 06:29 02.11.2019
5132 Clouds 14 1010 93 10000 1.5 110 05:56 02.11.2019
5133 Clouds 15 1011 87 10000 1 0 04:53 02.11.2019
5134 Clouds 15 1011 87 10000 0.5 0 04:20 02.11.2019
5135 Clouds 15 1011 93 10000 0.5 0 03:46 02.11.2019
5136 Clouds 15 1012 87 10000 2.6 100 02:40 02.11.2019
5137 Clouds 15 1012 87 10000 3.1 140 01:42 02.11.2019
5138 Rain 15 1012 93 8000 2.6 120 01:21 02.11.2019
5139 Rain 15 1013 93 5000 1.5 200 00:43 02.11.2019
5140 Rain 16 1013 77 10000 2.6 220 00:25 02.11.2019
5141 Clouds 16 1012 72 10000 2.6 160 23:46 01.11.2019
5142 Clouds 16 1012 72 10000 4.6 140 23:20 01.11.2019
5143 Clouds 16 1012 72 10000 4.6 140 22:57 01.11.2019
5144 Clouds 16 1013 77 10000 2.6 140 22:38 01.11.2019
5145 Clouds 16 1013 87 10000 1 0 22:20 01.11.2019
5146 Clouds 16 1013 87 10000 1 0 21:40 01.11.2019
5147 Clouds 16 1013 82 10000 0.5 0 21:22 01.11.2019
5148 Clouds 16 1013 82 10000 0.5 0 20:56 01.11.2019
5149 Clouds 16 1013 82 10000 0.5 0 20:38 01.11.2019
5150 Clouds 16 1013 82 10000 1 0 20:18 01.11.2019
5151 Clouds 17 1013 82 10000 1.5 10 19:41 01.11.2019
5152 Clouds 16 1013 72 10000 1 120 19:22 01.11.2019
5153 Clouds 17 1013 72 10000 1 120 18:58 01.11.2019
5154 Clouds 16 1014 77 10000 1.5 120 18:39 01.11.2019
5155 Clouds 17 1013 77 10000 2.6 150 18:18 01.11.2019
5156 Clouds 17 1013 77 10000 2.6 150 17:41 01.11.2019
5157 Clouds 17 1013 68 10000 1.5 120 17:23 01.11.2019
5158 Clouds 17 1013 68 10000 1.5 120 16:58 01.11.2019
5159 Clouds 18 1013 68 10000 2.6 160 16:36 01.11.2019
5160 Rain 18 1013 68 10000 3.1 170 16:18 01.11.2019
5161 Clouds 18 1013 64 10000 2.6 170 15:40 01.11.2019
5162 Clouds 18 1013 64 10000 3.1 150 15:22 01.11.2019
5163 Clouds 19 1013 64 10000 3.1 150 14:57 01.11.2019
5164 Clouds 19 1013 68 10000 1 0 14:39 01.11.2019
5165 Clouds 19 1013 72 10000 1 0 14:21 01.11.2019
5166 Clouds 19 1014 72 10000 2.6 330 13:55 01.11.2019
5167 Clouds 19 1014 72 10000 2.6 330 13:36 01.11.2019
5168 Clouds 19 1014 77 10000 3.6 360 13:18 01.11.2019
5169 Clouds 19 1014 72 10000 2.1 10 12:43 01.11.2019
5170 Clouds 19 1014 77 10000 2.1 40 12:24 01.11.2019
5171 Clouds 18 1014 77 10000 1.5 360 11:43 01.11.2019
5172 Clouds 18 1015 77 10000 1 0 11:24 01.11.2019
5173 Clouds 18 1015 77 10000 1 0 10:57 01.11.2019
5174 Clouds 18 1014 82 10000 2.1 20 10:38 01.11.2019
5175 Clouds 17 1014 88 10000 2.1 360 10:20 01.11.2019
5176 Clouds 16 1014 87 10000 1.5 10 09:45 01.11.2019
5177 Clouds 16 1014 87 10000 1.5 30 09:26 01.11.2019
5178 Clouds 15 1014 87 10000 1.5 30 08:58 01.11.2019
5179 Clouds 15 1014 82 10000 2.1 40 08:40 01.11.2019
5180 Clouds 15 1014 93 8000 1 10 08:20 01.11.2019
5181 Clouds 15 1014 87 7000 2.6 60 07:51 01.11.2019
5182 Clouds 15 1014 93 7000 1.5 10 07:24 01.11.2019
5183 Clouds 15 1014 93 7000 1.5 20 06:56 01.11.2019
5184 Clouds 15 1014 93 7000 1 0 06:23 01.11.2019
5185 Clouds 15 1014 93 7000 1 50 05:59 01.11.2019
5186 Clouds 15 1014 93 7000 1 50 05:38 01.11.2019
5187 Rain 15 1014 100 5000 0.5 0 03:32 01.11.2019
5188 Rain 16 1014 93 7000 0.5 0 01:49 01.11.2019
5189 Rain 16 1014 87 7000 0.5 0 01:22 01.11.2019
5190 Clouds 16 1015 93 10000 1.5 110 00:20 01.11.2019
5191 Rain 16 1015 93 10000 1 0 23:45 31.10.2019
5192 Rain 16 1015 93 10000 1 0 23:27 31.10.2019
5193 Rain 16 1015 93 9000 2.1 100 22:59 31.10.2019
5194 Rain 16 1015 93 9000 2.1 100 22:59 31.10.2019
5195 Clouds 16 1015 93 10000 1 0 22:40 31.10.2019
5196 Clouds 16 1015 93 10000 2.1 100 22:22 31.10.2019
5197 Clouds 17 1015 93 10000 2.1 100 21:56 31.10.2019
5198 Clouds 17 1015 93 10000 2.1 100 21:56 31.10.2019
5199 Clouds 16 1015 87 10000 1 0 21:37 31.10.2019
5200 Clouds 17 1015 87 10000 2.1 100 21:18 31.10.2019
5201 Clouds 16 1016 87 10000 2.1 0 20:40 31.10.2019
5202 Clouds 17 1016 87 10000 1 0 20:22 31.10.2019
5203 Clouds 17 1016 87 10000 2.6 60 19:48 31.10.2019
5204 Clouds 17 1016 87 10000 2.6 60 19:29 31.10.2019
5205 Rain 17 1015 93 8000 1 170 18:59 31.10.2019
5206 Rain 17 1015 93 8000 2.1 130 18:41 31.10.2019
5207 Thunderstorm 18 1015 93 8000 3.6 150 18:22 31.10.2019
5208 Thunderstorm 18 1015 93 8000 3.6 150 17:55 31.10.2019
5209 Rain 18 1016 93 8000 4.6 80 17:36 31.10.2019
5210 Thunderstorm 19 1015 77 7000 2.6 70 17:18 31.10.2019
5211 Clouds 19 1015 77 10000 1.5 250 16:41 31.10.2019
5212 Clouds 19 1015 77 10000 2.1 210 16:20 31.10.2019
5213 Clouds 20 1015 77 10000 2.1 210 16:20 31.10.2019
5214 Clouds 20 1015 77 10000 2.1 210 15:58 31.10.2019
5215 Clouds 20 1015 77 10000 2.6 210 15:40 31.10.2019
5216 Clouds 20 1016 64 10000 1.5 260 15:20 31.10.2019
5217 Clouds 20 1016 64 10000 1.5 260 14:57 31.10.2019
5218 Clouds 20 1016 64 10000 1.5 270 14:39 31.10.2019
5219 Clouds 20 1016 64 10000 1 0 14:20 31.10.2019
5220 Clouds 21 1016 64 10000 1 0 13:57 31.10.2019
5221 Clouds 21 1016 64 10000 1 0 13:38 31.10.2019
5222 Clouds 20 1016 64 10000 1.5 0 13:19 31.10.2019
5223 Clouds 21 1017 68 10000 1 0 12:54 31.10.2019
5224 Clouds 21 1017 68 10000 1 0 12:36 31.10.2019
5225 Clouds 21 1017 68 10000 1.5 330 12:18 31.10.2019
5226 Clouds 20 1017 68 10000 2.6 330 11:43 31.10.2019
5227 Clear 19 1017 72 10000 2.6 360 11:19 31.10.2019
5228 Clear 19 1017 72 10000 2.6 360 11:19 31.10.2019
5229 Clear 19 1018 77 10000 2.6 30 10:57 31.10.2019
5230 Clear 19 1018 77 10000 2.6 30 10:38 31.10.2019
5231 Clear 18 1018 77 10000 2.1 30 10:19 31.10.2019
5232 Clear 17 1018 82 10000 2.1 20 09:43 31.10.2019
5233 Clear 16 1018 77 10000 1 0 09:19 31.10.2019
5234 Clear 16 1017 87 10000 1 0 08:55 31.10.2019
5235 Clear 16 1017 87 10000 1 0 08:36 31.10.2019
5236 Clouds 15 1017 82 10000 1.5 40 08:18 31.10.2019
5237 Clouds 13 1017 87 10000 1.5 110 07:42 31.10.2019
5238 Clouds 13 1017 87 10000 1.5 110 07:42 31.10.2019
5239 Clouds 13 1017 93 10000 2.6 100 07:23 31.10.2019
5240 Clouds 13 1017 87 10000 2.1 110 06:39 31.10.2019
5241 Clouds 14 1017 87 10000 2.1 110 06:20 31.10.2019
5242 Clouds 14 1018 87 10000 2.1 100 04:40 31.10.2019
5243 Clouds 14 1018 87 10000 2.1 100 02:46 31.10.2019
5244 Clear 14 1019 93 10000 1 100 01:53 31.10.2019
5245 Clear 14 1018 82 10000 2.6 100 00:42 31.10.2019
5246 Clear 14 1019 87 10000 2.6 100 00:23 31.10.2019
5247 Clear 14 1018 87 10000 1.5 90 23:34 30.10.2019
5248 Clear 14 1019 87 10000 1.5 110 22:56 30.10.2019
5249 Clear 15 1019 87 10000 1.5 110 22:38 30.10.2019
5250 Clear 15 1019 87 10000 1.5 110 22:18 30.10.2019
5251 Clear 15 1019 82 10000 0.5 0 21:54 30.10.2019
5252 Clear 15 1019 82 10000 0.5 0 21:36 30.10.2019
5253 Clear 15 1018 93 10000 2.6 120 21:18 30.10.2019
5254 Clear 15 1019 87 10000 2.1 120 20:42 30.10.2019
5255 Clouds 16 1019 87 10000 2.1 120 20:22 30.10.2019
5256 Clouds 16 1019 87 10000 2.1 120 20:22 30.10.2019
5257 Clouds 16 1019 87 10000 2.1 120 19:59 30.10.2019
5258 Clouds 16 1019 87 10000 1.5 140 19:39 30.10.2019
5259 Clouds 17 1018 82 10000 2.1 120 19:21 30.10.2019
5260 Clouds 17 1018 82 10000 2.1 120 18:58 30.10.2019
5261 Clouds 17 1018 82 10000 1 0 18:37 30.10.2019
5262 Clouds 18 1018 82 10000 1.5 200 18:18 30.10.2019
5263 Clouds 18 1018 72 10000 1.5 210 17:55 30.10.2019
5264 Clouds 18 1018 72 10000 1.5 210 17:36 30.10.2019
5265 Clouds 19 1018 68 10000 2.1 210 17:18 30.10.2019
5266 Clouds 19 1018 68 10000 2.1 190 16:41 30.10.2019
5267 Clouds 20 1018 68 10000 2.1 150 16:23 30.10.2019
5268 Clouds 21 1018 68 10000 2.1 150 15:57 30.10.2019
5269 Clouds 21 1018 64 10000 2.6 170 15:38 30.10.2019
5270 Clouds 21 1018 64 10000 2.1 190 15:19 30.10.2019
5271 Clouds 20 1018 64 10000 2.1 190 14:56 30.10.2019
5272 Clouds 20 1018 64 10000 2.6 170 14:38 30.10.2019
5273 Clouds 20 1018 64 10000 3.1 170 14:20 30.10.2019
5274 Clouds 20 1018 64 10000 3.6 190 13:54 30.10.2019
5275 Clouds 20 1018 64 10000 3.6 190 13:36 30.10.2019
5276 Clouds 20 1018 68 10000 3.1 200 13:18 30.10.2019
5277 Clouds 20 1018 68 10000 2.1 170 12:42 30.10.2019
5278 Clouds 20 1019 68 10000 1.5 0 12:23 30.10.2019
5279 Clouds 19 1019 72 10000 1 0 11:54 30.10.2019
5280 Clouds 19 1019 72 10000 1 0 11:36 30.10.2019
5281 Clouds 19 1019 72 10000 1 0 11:36 30.10.2019
5282 Clouds 18 1019 77 10000 2.6 360 11:18 30.10.2019
5283 Clouds 18 1019 77 10000 2.1 50 10:41 30.10.2019
5284 Clouds 17 1019 77 10000 2.1 350 10:22 30.10.2019
5285 Clouds 17 1019 82 10000 1 0 09:41 30.10.2019
5286 Clouds 15 1019 82 10000 1 0 09:22 30.10.2019
5287 Clouds 15 1019 87 10000 0.5 0 08:56 30.10.2019
5288 Clouds 15 1019 87 10000 0.5 0 08:38 30.10.2019
5289 Clouds 14 1019 87 10000 1 0 08:18 30.10.2019
5290 Clouds 13 1018 87 8000 1 0 07:43 30.10.2019
5291 Clouds 13 1018 87 7000 1 0 06:59 30.10.2019
5292 Clouds 13 1018 87 10000 0.5 0 06:40 30.10.2019
5293 Clouds 13 1018 87 10000 2.6 100 05:58 30.10.2019
5294 Clouds 13 1018 87 10000 1 0 05:39 30.10.2019
5295 Clouds 13 1018 82 10000 3.1 80 03:54 30.10.2019
5296 Clouds 13 1018 87 10000 2.1 100 03:23 30.10.2019
5297 Clouds 13 1018 87 10000 3.1 100 02:49 30.10.2019
5298 Clouds 13 1019 87 10000 2.6 100 01:49 30.10.2019
5299 Clouds 13 1019 87 10000 2.1 100 00:38 30.10.2019
5300 Clouds 14 1019 87 10000 2.6 100 00:19 30.10.2019
5301 Clouds 14 1019 87 10000 2.1 110 23:41 29.10.2019
5302 Clouds 14 1018 87 10000 2.1 100 23:22 29.10.2019
5303 Clouds 14 1018 87 10000 2.1 100 22:45 29.10.2019
5304 Clouds 14 1018 87 10000 2.6 110 22:20 29.10.2019
5305 Clouds 15 1018 87 10000 2.6 110 21:55 29.10.2019
5306 Clouds 15 1018 87 10000 2.1 100 21:37 29.10.2019
5307 Clouds 15 1018 87 10000 1.5 100 21:19 29.10.2019
5308 Clouds 15 1018 87 10000 2.1 100 20:42 29.10.2019
5309 Clouds 15 1018 87 10000 2.1 120 20:23 29.10.2019
5310 Clouds 15 1018 87 10000 2.1 120 19:59 29.10.2019
5311 Clouds 15 1018 93 10000 1.5 110 19:40 29.10.2019
5312 Clouds 16 1018 93 10000 2.1 140 19:22 29.10.2019
5313 Clouds 16 1018 93 10000 2.1 140 18:59 29.10.2019
5314 Clouds 16 1017 87 10000 2.6 130 18:40 29.10.2019
5315 Clouds 17 1017 82 8000 1 0 18:21 29.10.2019
5316 Clouds 17 1017 82 8000 1 0 17:58 29.10.2019
5317 Clouds 18 1017 82 10000 1.5 220 17:39 29.10.2019
5318 Clouds 19 1017 77 10000 1.5 240 17:21 29.10.2019
5319 Clouds 19 1017 77 10000 1.5 240 17:21 29.10.2019
5320 Clouds 19 1017 77 10000 1.5 240 16:57 29.10.2019
5321 Clouds 19 1017 72 10000 2.1 240 16:38 29.10.2019
5322 Clouds 20 1017 68 10000 2.6 240 16:18 29.10.2019
5323 Clouds 20 1016 64 10000 2.1 250 15:42 29.10.2019
5324 Clouds 20 1016 60 10000 2.1 240 15:21 29.10.2019
5325 Clouds 20 1016 60 10000 2.1 240 14:57 29.10.2019
5326 Clouds 21 1016 60 10000 2.1 280 14:39 29.10.2019
5327 Clouds 21 1016 60 10000 1.5 250 14:21 29.10.2019
5328 Clouds 21 1016 60 10000 2.1 250 13:57 29.10.2019
5329 Clouds 21 1016 60 10000 2.1 250 13:37 29.10.2019
5330 Clouds 21 1017 64 10000 1 0 13:18 29.10.2019
5331 Clouds 21 1017 64 10000 1.5 0 12:42 29.10.2019
5332 Clouds 21 1017 64 10000 1.5 0 12:24 29.10.2019
5333 Clouds 20 1017 68 10000 0.5 0 11:55 29.10.2019
5334 Clouds 20 1017 68 10000 0.5 0 11:36 29.10.2019
5335 Clouds 18 1017 72 10000 1.5 340 11:18 29.10.2019
5336 Clouds 18 1017 72 10000 1.5 340 10:56 29.10.2019
5337 Clouds 18 1017 72 10000 1 0 10:37 29.10.2019
5338 Clouds 17 1017 77 10000 1.5 340 10:19 29.10.2019
5339 Clouds 17 1017 82 10000 1.5 70 09:41 29.10.2019
5340 Clouds 17 1017 82 10000 1.5 70 09:41 29.10.2019
5341 Clouds 16 1017 82 10000 2.1 80 09:23 29.10.2019
5342 Clouds 15 1017 82 10000 2.1 80 08:56 29.10.2019
5343 Clouds 15 1017 87 10000 2.1 60 08:37 29.10.2019
5344 Clouds 14 1017 87 10000 1.5 330 08:18 29.10.2019
5345 Clouds 13 1016 93 10000 1.5 100 07:47 29.10.2019
5346 Clouds 12 1016 93 10000 1 0 07:20 29.10.2019
5347 Clouds 13 1016 93 10000 1 0 06:52 29.10.2019
5348 Clouds 13 1016 93 10000 1 0 06:29 29.10.2019
5349 Clouds 13 1016 93 10000 1.5 150 05:54 29.10.2019
5350 Clouds 13 1016 93 10000 1.5 150 05:36 29.10.2019
5351 Clouds 13 1016 93 10000 2.1 130 04:39 29.10.2019
5352 Clouds 13 1016 87 10000 2.6 100 02:34 29.10.2019
5353 Clouds 13 1016 93 10000 2.1 110 01:56 29.10.2019
5354 Clouds 14 1016 87 10000 2.1 110 01:34 29.10.2019
5355 Mist 14 1016 100 4000 1.5 20 00:52 29.10.2019
5356 Clouds 14 1017 87 10000 1.5 110 23:59 28.10.2019
5357 Clouds 14 1017 87 10000 1.5 110 23:37 28.10.2019
5358 Clouds 14 1017 87 7000 2.6 120 23:19 28.10.2019
5359 Clouds 14 1017 87 7000 1.5 120 22:39 28.10.2019
5360 Clouds 15 1017 93 7000 2.1 110 22:20 28.10.2019
5361 Clouds 15 1017 93 7000 2.1 110 21:57 28.10.2019
5362 Clouds 15 1017 93 7000 2.1 100 21:39 28.10.2019
5363 Clouds 15 1017 87 8000 2.6 120 21:21 28.10.2019
5364 Clouds 15 1017 87 8000 2.6 120 20:57 28.10.2019
5365 Clouds 15 1016 93 7000 2.6 130 20:39 28.10.2019
5366 Clouds 16 1016 87 8000 1.5 140 20:20 28.10.2019
5367 Clouds 16 1016 87 8000 1.5 140 20:20 28.10.2019
5368 Clouds 16 1016 87 8000 2.6 140 19:54 28.10.2019
5369 Clouds 16 1016 87 8000 2.6 140 19:36 28.10.2019
5370 Clouds 16 1016 88 8000 0.5 0 19:18 28.10.2019
5371 Clouds 17 1016 82 9000 1 190 18:54 28.10.2019
5372 Clouds 17 1016 82 9000 1 190 18:36 28.10.2019
5373 Clouds 18 1016 82 10000 1.5 190 18:18 28.10.2019
5374 Clouds 18 1016 82 10000 1.5 190 17:54 28.10.2019
5375 Clouds 19 1015 77 10000 1 0 17:36 28.10.2019
5376 Clouds 20 1015 68 10000 2.6 280 17:18 28.10.2019
5377 Clouds 21 1015 72 10000 3.1 280 16:43 28.10.2019
5378 Clouds 21 1015 72 10000 3.1 280 16:24 28.10.2019
5379 Clouds 21 1015 68 10000 3.1 290 15:59 28.10.2019
5380 Clouds 22 1015 56 10000 3.1 300 15:40 28.10.2019
5381 Clouds 22 1016 56 10000 1.5 0 15:21 28.10.2019
5382 Clouds 22 1016 56 10000 1.5 0 14:58 28.10.2019
5383 Clouds 22 1016 53 10000 1.5 330 14:40 28.10.2019
5384 Clouds 22 1016 56 10000 2.1 320 14:19 28.10.2019
5385 Clouds 22 1017 60 10000 1.5 0 13:57 28.10.2019
5386 Clouds 22 1017 60 10000 1.5 0 13:38 28.10.2019
5387 Clouds 22 1017 64 10000 2.1 350 13:18 28.10.2019
5388 Clouds 22 1017 64 10000 1.5 0 12:42 28.10.2019
5389 Clouds 21 1017 68 10000 1.5 320 12:21 28.10.2019
5390 Clouds 21 1017 68 10000 1.5 320 11:54 28.10.2019
5391 Clouds 21 1018 64 10000 1 0 11:36 28.10.2019
5392 Clouds 19 1018 63 10000 1 0 11:18 28.10.2019
5393 Clouds 19 1018 68 10000 1.5 330 10:39 28.10.2019
5394 Clouds 18 1018 72 10000 1.5 350 10:21 28.10.2019
5395 Clouds 18 1018 72 10000 1.5 350 09:57 28.10.2019
5396 Clouds 17 1018 77 10000 1.5 350 09:38 28.10.2019
5397 Clouds 16 1018 82 10000 1 0 09:19 28.10.2019
5398 Clouds 15 1018 82 10000 1 0 08:57 28.10.2019
5399 Clouds 15 1018 82 10000 1 0 08:57 28.10.2019
5400 Mist 15 1018 100 1800 1 0 08:38 28.10.2019
5401 Mist 14 1018 100 1800 1 0 08:38 28.10.2019
5402 Mist 14 1018 100 1800 1 0 08:38 28.10.2019
5403 Clear 14 1017 87 10000 1.5 20 08:19 28.10.2019
5404 Clear 13 1017 93 10000 2.1 360 07:55 28.10.2019
5405 Clear 12 1017 93 10000 2.1 360 07:36 28.10.2019
5406 Clear 12 1017 93 10000 2.1 340 07:18 28.10.2019
5407 Clear 12 1017 93 10000 1.5 350 06:39 28.10.2019
5408 Clear 12 1017 87 10000 1.5 70 05:34 28.10.2019
5409 Clear 13 1017 87 10000 1.5 50 03:45 28.10.2019
5410 Clear 13 1018 87 10000 1.5 350 02:46 28.10.2019
5411 Clear 13 1018 82 10000 1 0 01:55 28.10.2019
5412 Clear 14 1019 82 10000 1.5 80 00:53 28.10.2019
5413 Clear 14 1019 82 10000 1.5 80 00:32 28.10.2019
5414 Clear 14 1019 77 10000 2.6 90 23:47 27.10.2019
5415 Clear 14 1019 82 10000 2.1 90 23:23 27.10.2019
5416 Clear 14 1019 82 10000 2.1 90 23:23 27.10.2019
5417 Clear 14 1019 82 10000 2.1 90 22:57 27.10.2019
5418 Clear 15 1019 77 10000 2.6 100 22:39 27.10.2019
5419 Clear 15 1019 77 10000 2.6 110 22:21 27.10.2019
5420 Clear 15 1019 77 10000 2.6 110 21:57 27.10.2019
5421 Clear 15 1019 77 10000 2.1 110 21:39 27.10.2019
5422 Clear 16 1019 77 10000 2.1 100 21:20 27.10.2019
5423 Clear 16 1020 82 10000 2.1 100 20:55 27.10.2019
5424 Clear 16 1020 82 10000 2.1 100 20:37 27.10.2019
5425 Clear 16 1019 77 10000 2.6 110 20:19 27.10.2019
5426 Clear 17 1019 82 10000 2.1 100 19:40 27.10.2019
5427 Clear 17 1019 82 10000 1.5 110 19:21 27.10.2019
5428 Clear 17 1019 82 10000 1.5 110 18:58 27.10.2019
5429 Clear 17 1019 77 10000 1.5 120 18:40 27.10.2019
5430 Clear 18 1019 72 10000 1 180 18:22 27.10.2019
5431 Clear 19 1019 72 10000 1 180 17:58 27.10.2019
5432 Clear 19 1019 68 10000 1.5 210 17:39 27.10.2019
5433 Clear 20 1019 60 10000 1 0 17:19 27.10.2019
5434 Clear 21 1019 56 10000 1.5 230 16:57 27.10.2019
5435 Clear 22 1019 56 10000 1.5 230 16:38 27.10.2019
5436 Clear 22 1019 56 10000 3.1 240 16:20 27.10.2019
5437 Clear 23 1019 49 10000 2.6 240 15:55 27.10.2019
5438 Clear 23 1019 49 10000 2.6 240 15:37 27.10.2019
5439 Clear 23 1019 53 10000 1.5 310 15:18 27.10.2019
5440 Clear 23 1019 53 10000 2.1 350 14:42 27.10.2019
5441 Clear 23 1020 53 10000 2.1 340 14:20 27.10.2019
5442 Clear 23 1020 53 10000 1.5 340 13:56 27.10.2019
5443 Clear 23 1020 53 10000 1.5 340 13:38 27.10.2019
5444 Clear 23 1020 53 10000 2.1 290 13:19 27.10.2019
5445 Clear 23 1020 49 10000 1.5 260 12:45 27.10.2019
5446 Clear 23 1020 49 10000 1.5 260 12:24 27.10.2019
5447 Clear 22 1021 49 10000 1 0 11:57 27.10.2019
5448 Clear 22 1021 56 10000 1.5 320 11:38 27.10.2019
5449 Clear 21 1021 60 10000 1 0 11:20 27.10.2019
5450 Clear 20 1021 63 10000 1.5 20 10:43 27.10.2019
5451 Clear 19 1021 67 10000 2.1 20 10:24 27.10.2019
5452 Clear 19 1021 67 10000 2.1 20 09:56 27.10.2019
5453 Clear 19 1021 77 10000 2.6 10 09:37 27.10.2019
5454 Clear 19 1021 77 10000 2.6 10 09:37 27.10.2019
5455 Clear 19 1021 77 10000 2.1 340 09:18 27.10.2019
5456 Clear 19 1021 77 10000 2.1 340 09:18 27.10.2019
5457 Clear 19 1021 77 10000 2.1 340 09:18 27.10.2019
5458 Clear 19 1021 77 10000 2.1 340 09:18 27.10.2019
5459 Clear 16 1021 82 10000 0.5 0 08:41 27.10.2019
5460 Clear 16 1021 82 10000 1 0 08:21 27.10.2019
5461 Clear 14 1021 71 10000 2.1 110 07:50 27.10.2019
5462 Clear 14 1021 71 10000 2.1 110 07:29 27.10.2019
5463 Clear 14 1020 76 10000 1.5 0 06:59 27.10.2019
5464 Clear 14 1020 82 10000 1 0 06:40 27.10.2019
5465 Clear 14 1020 87 10000 1.5 30 06:21 27.10.2019
5466 Clear 13 1021 82 10000 1 0 05:38 27.10.2019
5467 Clear 14 1021 76 10000 0.5 0 04:49 27.10.2019
5468 Clear 14 1021 77 10000 1 0 02:48 27.10.2019
5469 Clear 15 1021 72 10000 3.6 90 02:18 27.10.2019
5470 Clear 15 1022 77 10000 3.1 80 01:51 27.10.2019
5471 Clear 15 1022 77 10000 2.6 90 01:23 27.10.2019
5472 Clear 16 1022 77 10000 2.6 80 00:48 27.10.2019
5473 Clear 16 1022 82 10000 2.6 100 00:27 27.10.2019
5474 Clear 16 1022 82 10000 1.5 100 23:56 26.10.2019
5475 Clear 16 1022 82 10000 1.5 100 23:38 26.10.2019
5476 Clear 16 1022 82 10000 2.1 100 23:20 26.10.2019
5477 Clear 16 1022 82 10000 2.1 100 22:55 26.10.2019
5478 Clear 17 1022 82 10000 2.1 100 22:36 26.10.2019
5479 Clear 17 1022 82 10000 1 0 22:18 26.10.2019
5480 Clear 17 1022 82 10000 1 0 22:18 26.10.2019
5481 Clear 17 1022 82 10000 2.1 110 21:43 26.10.2019
5482 Clouds 17 1021 82 10000 1.5 50 21:21 26.10.2019
5483 Clouds 17 1021 82 10000 1.5 50 20:55 26.10.2019
5484 Clouds 18 1021 82 10000 1.5 20 20:36 26.10.2019
5485 Clouds 17 1021 82 10000 1.5 20 20:36 26.10.2019
5486 Clouds 18 1021 82 10000 0.5 0 20:18 26.10.2019
5487 Clouds 19 1021 77 10000 1.5 220 19:41 26.10.2019
5488 Clouds 19 1021 72 10000 1.5 200 19:20 26.10.2019
5489 Clouds 20 1021 72 10000 1.5 200 18:57 26.10.2019
5490 Clouds 20 1021 72 10000 2.1 190 18:38 26.10.2019
5491 Clear 21 1021 68 10000 3.1 190 18:18 26.10.2019
5492 Clear 22 1021 68 10000 4.1 190 17:56 26.10.2019
5493 Clear 22 1021 68 10000 4.1 190 17:37 26.10.2019
5494 Clear 23 1020 41 10000 1.5 220 17:18 26.10.2019
5495 Clear 23 1020 39 10000 1 0 16:43 26.10.2019
5496 Clear 24 1020 39 10000 1 0 16:24 26.10.2019
5497 Clear 24 1020 44 10000 1.5 20 15:43 26.10.2019
5498 Clear 24 1020 47 10000 2.1 340 15:21 26.10.2019
5499 Clear 24 1020 47 10000 2.1 340 14:56 26.10.2019
5500 Clear 24 1020 53 10000 2.6 30 14:37 26.10.2019
5501 Clear 24 1020 53 10000 3.1 350 14:18 26.10.2019
5502 Clear 25 1021 44 0 1.56 13 13:42 26.10.2019
5503 Clear 25 1021 44 0 1.56 13 13:22 26.10.2019
5504 Clear 21 1018 73 0 1.56 13 12:49 26.10.2019
5505 Clear 23 1021 64 10000 3.1 20 12:25 26.10.2019
5506 Clear 22 1022 72 10000 1.5 20 11:56 26.10.2019
5507 Clear 22 1022 72 10000 1.5 20 11:36 26.10.2019
5508 Clear 22 1022 72 10000 1.5 20 11:36 26.10.2019
5509 Clear 21 1022 72 10000 1.5 20 11:18 26.10.2019
5510 Clear 18 1021 72 10000 2.6 30 10:42 26.10.2019
5511 Clear 16 1021 72 10000 3.1 20 10:23 26.10.2019
5512 Clear 16 1021 77 10000 3.1 360 09:48 26.10.2019
5513 Clear 16 1021 77 10000 3.1 360 09:27 26.10.2019
5514 Clear 15 1020 82 10000 3.1 20 08:44 26.10.2019
5515 Clear 15 1020 82 10000 3.1 20 08:25 26.10.2019
5516 Clear 15 1020 82 10000 3.1 20 08:25 26.10.2019
5517 Clear 15 1020 82 10000 3.1 20 07:56 26.10.2019
5518 Clear 15 1020 82 10000 4.6 30 07:31 26.10.2019
5519 Clear 15 1020 87 10000 2.1 20 06:47 26.10.2019
5520 Clear 15 1020 87 10000 2.1 20 06:28 26.10.2019
5521 Clear 16 1020 87 10000 2.1 330 05:21 26.10.2019
5522 Clear 16 1020 82 10000 1 0 04:32 26.10.2019
5523 Clouds 16 1020 82 10000 3.1 40 02:57 26.10.2019
5524 Clouds 17 1020 82 10000 0.5 0 01:57 26.10.2019
5525 Clouds 17 1020 82 10000 0.5 0 01:37 26.10.2019
5526 Clouds 17 1020 77 10000 1 0 00:27 26.10.2019
5527 Clouds 18 1020 77 10000 1.5 160 23:46 25.10.2019
5528 Clouds 18 1020 72 10000 1.5 130 23:21 25.10.2019
5529 Clouds 18 1019 72 10000 2.6 130 22:43 25.10.2019
5530 Clouds 19 1019 72 10000 1.5 120 22:25 25.10.2019
5531 Clouds 19 1019 72 10000 1.5 120 21:58 25.10.2019
5532 Clouds 19 1019 68 10000 0.5 0 21:40 25.10.2019
5533 Clouds 19 1018 68 10000 1 0 21:22 25.10.2019
5534 Clouds 19 1018 72 10000 1.5 120 20:57 25.10.2019
5535 Clouds 19 1018 72 10000 1.5 120 20:39 25.10.2019
5536 Clouds 19 1018 77 10000 2.1 120 20:19 25.10.2019
5537 Clouds 20 1017 56 10000 1 220 19:45 25.10.2019
5538 Clouds 20 1017 64 10000 1 0 19:26 25.10.2019
5539 Clouds 20 1017 56 10000 1 220 19:26 25.10.2019
5540 Clouds 21 1016 53 10000 1 0 18:46 25.10.2019
5541 Clouds 22 1016 50 10000 1 0 18:24 25.10.2019
5542 Clouds 23 1016 50 10000 1 0 17:42 25.10.2019
5543 Clouds 23 1015 47 10000 0.5 0 17:22 25.10.2019
5544 Clouds 23 1015 47 10000 0.5 0 16:59 25.10.2019
5545 Clouds 23 1015 44 10000 1 0 16:41 25.10.2019
5546 Clouds 23 1015 50 10000 1.5 360 16:19 25.10.2019
5547 Clouds 23 1015 50 10000 2.1 0 15:41 25.10.2019
5548 Clouds 23 1015 47 10000 1.5 0 15:23 25.10.2019
5549 Clouds 23 1015 47 10000 1.5 0 14:59 25.10.2019
5550 Clouds 23 1015 53 10000 2.1 0 14:40 25.10.2019
5551 Clouds 23 1015 47 10000 1 0 14:22 25.10.2019
5552 Clouds 23 1015 53 10000 2.1 280 13:44 25.10.2019
5553 Clouds 23 1015 53 10000 2.1 280 13:25 25.10.2019
5554 Clouds 22 1015 49 10000 3.1 50 12:58 25.10.2019
5555 Clouds 22 1015 49 10000 3.1 50 12:40 25.10.2019
5556 Clouds 21 1015 56 10000 3.1 50 12:20 25.10.2019
5557 Clouds 20 1015 64 10000 3.6 20 11:42 25.10.2019
5558 Clouds 19 1015 77 10000 4.1 20 11:24 25.10.2019
5559 Clouds 19 1015 77 10000 4.1 20 10:59 25.10.2019
5560 Clouds 19 1015 72 10000 3.1 330 10:39 25.10.2019
5561 Clouds 18 1015 82 10000 2.1 20 10:21 25.10.2019
5562 Clouds 17 1015 82 10000 2.1 20 09:57 25.10.2019
5563 Clouds 16 1015 87 10000 3.6 30 09:38 25.10.2019
5564 Clouds 16 1015 87 10000 3.6 30 09:38 25.10.2019
5565 Clouds 16 1015 87 10000 3.1 20 09:19 25.10.2019
5566 Clouds 15 1014 87 10000 3.6 30 08:44 25.10.2019
5567 Clouds 15 1014 87 10000 4.6 40 08:24 25.10.2019
5568 Clouds 15 1014 87 10000 2.1 10 07:52 25.10.2019
5569 Clouds 15 1014 87 10000 2.1 10 07:34 25.10.2019
5570 Clouds 15 1013 87 10000 2.1 20 06:41 25.10.2019
5571 Clouds 15 1013 87 10000 0.5 0 05:51 25.10.2019
5572 Clouds 15 1013 87 10000 0.5 0 05:32 25.10.2019
5573 Clouds 15 1012 87 10000 1.5 0 04:39 25.10.2019
5574 Clouds 15 1013 82 10000 3.6 30 03:29 25.10.2019
5575 Clouds 16 1014 82 10000 5.7 30 01:53 25.10.2019
5576 Rain 15 1016 87 6000 3.1 60 00:47 25.10.2019
5577 Rain 15 1016 87 6000 3.6 50 00:18 25.10.2019
5578 Rain 15 1017 93 5000 2.1 20 23:40 24.10.2019
5579 Rain 16 1017 93 5000 1 0 23:21 24.10.2019
5580 Rain 15 1017 87 7000 1.5 350 22:54 24.10.2019
5581 Rain 16 1017 87 7000 1.5 350 22:36 24.10.2019
5582 Rain 16 1016 87 6000 2.6 150 22:18 24.10.2019
5583 Rain 16 1016 87 6000 2.6 150 21:55 24.10.2019
5584 Rain 16 1016 87 6000 2.6 150 21:37 24.10.2019
5585 Rain 16 1016 87 6000 2.6 150 21:37 24.10.2019
5586 Rain 17 1016 93 6000 1.5 120 21:18 24.10.2019
5587 Rain 17 1016 93 6000 1.5 120 21:18 24.10.2019
5588 Rain 17 1016 93 5000 1.5 200 20:55 24.10.2019
5589 Rain 17 1016 93 5000 1.5 200 20:36 24.10.2019
5590 Rain 17 1016 93 5000 1.5 250 20:18 24.10.2019
5591 Rain 18 1015 93 5000 3.6 270 19:42 24.10.2019
5592 Rain 19 1014 82 5000 2.1 230 19:23 24.10.2019
5593 Rain 19 1014 82 5000 2.1 230 18:58 24.10.2019
5594 Rain 19 1014 82 5000 2.1 230 18:58 24.10.2019
5595 Rain 20 1014 88 5000 4.6 250 18:39 24.10.2019
5596 Clouds 21 1013 64 10000 3.6 190 18:21 24.10.2019
5597 Clouds 21 1013 64 10000 3.6 190 17:57 24.10.2019
5598 Clouds 21 1013 64 10000 4.6 170 17:37 24.10.2019
5599 Clouds 22 1013 60 10000 4.6 180 17:18 24.10.2019
5600 Clouds 22 1013 60 10000 5.7 190 16:42 24.10.2019
5601 Clouds 22 1012 44 10000 3.6 220 16:23 24.10.2019
5602 Clouds 23 1012 44 10000 2.1 250 15:59 24.10.2019
5603 Clouds 22 1012 44 10000 3.6 220 15:59 24.10.2019
5604 Clouds 23 1012 44 10000 2.1 250 15:41 24.10.2019
5605 Clouds 23 1012 38 10000 0.5 0 15:23 24.10.2019
5606 Clouds 24 1012 38 10000 0.5 0 14:59 24.10.2019
5607 Clouds 24 1013 33 10000 3.6 110 14:41 24.10.2019
5608 Clouds 24 1013 33 10000 3.6 110 14:41 24.10.2019
5609 Clouds 24 1013 38 10000 5.1 90 14:22 24.10.2019
5610 Clouds 23 1013 38 10000 5.1 90 13:57 24.10.2019
5611 Clouds 23 1013 41 10000 2.6 20 13:37 24.10.2019
5612 Clouds 23 1014 44 10000 3.1 140 13:18 24.10.2019
5613 Clouds 23 1015 46 10000 4.6 140 12:55 24.10.2019
5614 Clouds 23 1015 46 10000 4.6 140 12:37 24.10.2019
5615 Clouds 22 1016 38 10000 4.6 150 12:18 24.10.2019
5616 Clouds 22 1016 41 10000 4.1 160 11:54 24.10.2019
5617 Clouds 22 1016 41 10000 4.1 160 11:36 24.10.2019
5618 Clouds 21 1016 53 10000 4.1 150 11:18 24.10.2019
5619 Clouds 21 1016 60 10000 4.1 130 10:41 24.10.2019
5620 Clouds 19 1016 60 10000 5.7 130 10:22 24.10.2019
5621 Clouds 18 1016 56 10000 4.6 150 09:39 24.10.2019
5622 Clouds 17 1016 60 10000 4.1 150 09:19 24.10.2019
5623 Clouds 16 1016 60 10000 4.1 150 08:56 24.10.2019
5624 Clouds 16 1016 52 10000 3.6 150 08:38 24.10.2019
5625 Clouds 15 1015 82 10000 2.6 100 08:18 24.10.2019
5626 Clouds 15 1015 82 10000 2.6 100 08:18 24.10.2019
5627 Clouds 15 1015 63 10000 2.1 160 07:46 24.10.2019
5628 Clouds 15 1015 63 10000 1.5 310 07:23 24.10.2019
5629 Clouds 15 1015 67 10000 1.5 340 06:48 24.10.2019
5630 Clouds 16 1015 59 10000 1.5 130 06:26 24.10.2019
5631 Clouds 15 1015 67 10000 1.5 0 05:52 24.10.2019
5632 Clouds 16 1015 67 10000 1.5 0 05:29 24.10.2019
5633 Clouds 17 1015 45 10000 2.6 140 03:39 24.10.2019
5634 Clouds 16 1016 43 10000 1.5 160 03:19 24.10.2019
5635 Clouds 16 1016 42 10000 2.6 130 02:29 24.10.2019
5636 Clouds 17 1016 55 10000 1 0 01:54 24.10.2019
5637 Clouds 16 1016 63 10000 1 0 01:29 24.10.2019
5638 Clouds 18 1016 48 10000 1 0 00:47 24.10.2019
5639 Clouds 18 1016 52 10000 2.1 120 00:23 24.10.2019
5640 Clouds 18 1016 52 10000 1.5 90 23:44 23.10.2019
5641 Clouds 18 1016 45 10000 2.1 80 23:24 23.10.2019
5642 Clouds 18 1016 45 10000 2.1 80 22:57 23.10.2019
5643 Clouds 18 1017 48 10000 2.6 90 22:38 23.10.2019
5644 Clouds 18 1017 55 10000 2.1 100 22:19 23.10.2019
5645 Clouds 18 1017 55 10000 2.1 100 21:58 23.10.2019
5646 Clouds 18 1017 52 10000 1.5 130 21:39 23.10.2019
5647 Clouds 18 1017 52 10000 2.6 140 21:20 23.10.2019
5648 Clouds 18 1017 52 10000 2.6 140 20:58 23.10.2019
5649 Clouds 18 1017 56 10000 3.6 150 20:39 23.10.2019
5650 Clouds 19 1017 60 10000 2.6 150 20:20 23.10.2019
5651 Clouds 19 1017 60 10000 2.1 170 19:58 23.10.2019
5652 Clouds 19 1017 60 10000 2.1 170 19:39 23.10.2019
5653 Clouds 20 1017 60 10000 3.1 170 19:18 23.10.2019
5654 Clouds 20 1017 56 10000 2.6 170 18:55 23.10.2019
5655 Clouds 21 1017 56 10000 2.6 170 18:36 23.10.2019
5656 Clouds 23 1017 53 10000 2.6 170 18:18 23.10.2019
5657 Clouds 23 1017 50 10000 2.6 170 17:43 23.10.2019
5658 Clouds 24 1017 47 10000 3.1 170 17:20 23.10.2019
5659 Clouds 25 1017 47 10000 3.1 170 16:56 23.10.2019
5660 Clouds 25 1017 41 10000 3.1 160 16:38 23.10.2019
5661 Clouds 25 1017 44 10000 3.6 170 16:19 23.10.2019
5662 Clouds 26 1017 36 10000 4.1 170 15:42 23.10.2019
5663 Clouds 26 1017 36 10000 3.1 160 15:22 23.10.2019
5664 Clouds 26 1017 47 10000 4.1 190 14:58 23.10.2019
5665 Clouds 26 1017 47 10000 4.1 190 14:38 23.10.2019
5666 Clouds 25 1018 39 10000 3.1 160 14:20 23.10.2019
5667 Clouds 25 1018 39 10000 3.1 160 14:19 23.10.2019
5668 Clouds 25 1018 39 10000 3.1 160 13:58 23.10.2019
5669 Clouds 25 1018 36 10000 3.1 0 13:40 23.10.2019
5670 Clouds 25 1019 47 10000 1.5 0 13:22 23.10.2019
5671 Clouds 24 1019 49 10000 1.5 20 12:55 23.10.2019
5672 Clouds 24 1019 49 10000 1.5 20 12:37 23.10.2019
5673 Clouds 23 1019 56 10000 1.5 10 12:18 23.10.2019
5674 Clouds 23 1019 60 10000 1.5 360 11:56 23.10.2019
5675 Clouds 23 1019 60 10000 1.5 360 11:56 23.10.2019
5676 Clouds 22 1019 60 10000 1.5 360 11:37 23.10.2019
5677 Clouds 21 1020 64 10000 1.5 20 11:19 23.10.2019
5678 Clouds 21 1020 68 10000 2.6 360 10:45 23.10.2019
5679 Clouds 19 1020 72 10000 2.1 360 10:25 23.10.2019
5680 Clouds 18 1020 72 10000 2.6 50 09:42 23.10.2019
5681 Clouds 17 1020 82 10000 2.1 40 09:24 23.10.2019
5682 Clouds 16 1020 82 10000 2.1 40 08:59 23.10.2019
5683 Clouds 15 1020 87 10000 1.5 360 08:41 23.10.2019
5684 Clouds 15 1019 82 10000 1.5 100 08:23 23.10.2019
5685 Clouds 15 1019 82 10000 1 0 07:46 23.10.2019
5686 Clouds 15 1019 82 10000 2.1 310 07:22 23.10.2019
5687 Clouds 16 1019 77 10000 1.5 0 06:47 23.10.2019
5688 Clouds 16 1019 67 10000 2.1 110 06:22 23.10.2019
5689 Clouds 16 1019 72 10000 4.1 110 05:45 23.10.2019
5690 Clouds 16 1019 72 10000 2.6 110 04:54 23.10.2019
5691 Clouds 16 1019 72 10000 3.1 100 03:35 23.10.2019
5692 Clouds 16 1019 77 10000 2.6 100 02:40 23.10.2019
5693 Clouds 17 1019 77 10000 2.6 110 01:32 23.10.2019
5694 Clouds 17 1019 82 10000 2.1 110 00:56 23.10.2019
5695 Clouds 17 1020 77 10000 1.5 90 00:28 23.10.2019
5696 Clouds 17 1020 77 10000 1 90 23:40 22.10.2019
5697 Clouds 18 1020 72 10000 2.1 90 23:18 22.10.2019
5698 Clouds 18 1020 72 10000 2.1 90 22:57 22.10.2019
5699 Clouds 18 1020 68 10000 1.5 80 22:38 22.10.2019
5700 Clouds 18 1020 68 10000 1.5 70 22:20 22.10.2019
5701 Clouds 18 1020 64 10000 2.1 90 21:56 22.10.2019
5702 Clouds 18 1020 64 10000 2.1 90 21:37 22.10.2019
5703 Clouds 19 1020 72 10000 1.5 110 21:18 22.10.2019
5704 Clouds 19 1020 72 10000 1.5 110 20:56 22.10.2019
5705 Clouds 19 1020 68 10000 1.5 90 20:38 22.10.2019
5706 Clouds 20 1020 64 10000 1.5 100 20:19 22.10.2019
5707 Clouds 20 1020 64 10000 2.1 190 19:45 22.10.2019
5708 Clouds 20 1020 64 10000 2.1 190 19:45 22.10.2019
5709 Clouds 20 1020 64 10000 2.1 190 19:27 22.10.2019
5710 Clouds 22 1020 47 10000 2.1 210 18:58 22.10.2019
5711 Clouds 22 1020 56 10000 2.1 190 18:58 22.10.2019
5712 Clouds 22 1020 47 10000 2.1 210 18:40 22.10.2019
5713 Clouds 24 1019 44 10000 2.1 210 18:22 22.10.2019
5714 Clouds 24 1019 44 10000 2.1 210 17:57 22.10.2019
5715 Clouds 25 1019 47 10000 2.6 190 17:38 22.10.2019
5716 Clouds 25 1019 47 10000 2.6 190 17:38 22.10.2019
5717 Clouds 25 1019 44 10000 2.6 190 17:20 22.10.2019
5718 Clouds 25 1019 44 10000 2.6 190 17:20 22.10.2019
5719 Clouds 26 1019 44 10000 2.6 190 16:57 22.10.2019
5720 Clouds 26 1019 42 10000 3.1 180 16:37 22.10.2019
5721 Clouds 26 1019 36 10000 3.1 180 16:19 22.10.2019
5722 Clouds 26 1019 36 10000 3.1 180 15:56 22.10.2019
5723 Clouds 26 1019 36 10000 3.6 170 15:38 22.10.2019
5724 Clouds 26 1020 44 10000 1 0 15:18 22.10.2019
5725 Clouds 26 1020 47 10000 2.1 340 14:43 22.10.2019
5726 Clouds 26 1020 47 10000 3.1 360 14:20 22.10.2019
5727 Clouds 26 1021 50 10000 3.1 350 13:42 22.10.2019
5728 Clouds 25 1021 53 10000 2.1 350 13:22 22.10.2019
5729 Clouds 25 1021 53 10000 2.1 350 12:58 22.10.2019
5730 Clouds 24 1021 60 10000 2.1 50 12:40 22.10.2019
5731 Clouds 23 1022 64 10000 2.1 0 12:21 22.10.2019
5732 Clouds 22 1022 68 10000 1.5 340 11:56 22.10.2019
5733 Clouds 22 1022 68 10000 1.5 340 11:37 22.10.2019
5734 Clouds 21 1022 68 10000 1.5 350 11:19 22.10.2019
5735 Clouds 21 1022 68 10000 1.5 350 10:55 22.10.2019
5736 Clouds 21 1022 68 10000 1.5 350 10:55 22.10.2019
5737 Clouds 21 1022 72 10000 2.1 320 10:36 22.10.2019
5738 Clouds 20 1021 77 10000 1.5 320 10:18 22.10.2019
5739 Clouds 19 1021 77 10000 1 0 09:42 22.10.2019
5740 Clouds 18 1021 87 10000 2.1 360 09:22 22.10.2019
5741 Clouds 17 1021 87 10000 2.1 360 08:59 22.10.2019
5742 Clouds 16 1021 82 10000 1.5 350 08:41 22.10.2019
5743 Clouds 15 1021 82 10000 1.5 30 08:20 22.10.2019
5744 Clouds 15 1021 82 10000 3.1 50 07:45 22.10.2019
5745 Clouds 15 1021 82 10000 3.1 50 07:26 22.10.2019
5746 Clouds 15 1021 82 10000 2.1 30 06:47 22.10.2019
5747 Clouds 15 1021 82 10000 2.1 30 06:29 22.10.2019
5748 Clouds 15 1021 82 10000 1.5 20 05:48 22.10.2019
5749 Clouds 15 1021 87 10000 1.5 10 05:18 22.10.2019
5750 Clouds 17 1021 82 10000 2.1 20 02:32 22.10.2019
5751 Clouds 16 1021 77 10000 1 0 01:50 22.10.2019
5752 Clouds 16 1021 77 10000 1 0 01:24 22.10.2019
5753 Clouds 17 1022 82 10000 1.5 70 00:56 22.10.2019
5754 Clouds 17 1022 77 10000 1 0 00:38 22.10.2019
5755 Clouds 17 1022 77 10000 1.5 90 00:19 22.10.2019
5756 Clouds 17 1022 77 10000 1.5 110 23:39 21.10.2019
5757 Clouds 17 1022 72 10000 1.5 100 23:19 21.10.2019
5758 Clouds 17 1022 72 10000 1.5 100 22:59 21.10.2019
5759 Clouds 18 1022 68 10000 1.5 110 22:40 21.10.2019
5760 Clouds 18 1022 68 10000 1.5 110 22:40 21.10.2019
5761 Clouds 18 1022 68 10000 1 0 22:20 21.10.2019
5762 Clouds 18 1022 68 10000 1 0 21:58 21.10.2019
5763 Clouds 19 1021 88 10000 1.5 100 21:39 21.10.2019
5764 Clouds 19 1022 68 10000 2.1 100 21:20 21.10.2019
5765 Clouds 19 1022 68 10000 2.1 100 20:58 21.10.2019
5766 Clouds 19 1022 64 10000 2.1 100 20:39 21.10.2019
5767 Clouds 20 1022 64 10000 2.1 100 20:20 21.10.2019
5768 Clouds 20 1022 64 10000 2.1 100 20:20 21.10.2019
5769 Clouds 20 1022 68 10000 1.5 180 19:57 21.10.2019
5770 Clouds 20 1022 68 10000 1.5 180 19:38 21.10.2019
5771 Clouds 21 1021 68 10000 2.1 170 19:20 21.10.2019
5772 Clouds 21 1021 68 10000 2.1 170 18:55 21.10.2019
5773 Clouds 21 1021 68 10000 2.1 170 18:55 21.10.2019
5774 Clouds 22 1021 64 10000 2.6 190 18:36 21.10.2019
5775 Clouds 24 1021 53 10000 3.1 170 18:18 21.10.2019
5776 Clouds 24 1021 53 10000 3.1 170 17:55 21.10.2019
5777 Clouds 24 1021 53 10000 3.1 180 17:37 21.10.2019
5778 Clouds 25 1021 47 10000 3.6 170 17:18 21.10.2019
5779 Clouds 25 1021 47 10000 3.6 170 16:54 21.10.2019
5780 Clouds 25 1021 47 10000 3.6 180 16:36 21.10.2019
5781 Clouds 26 1021 47 10000 4.1 190 16:18 21.10.2019
5782 Clouds 26 1021 47 10000 4.1 180 15:42 21.10.2019
5783 Clouds 26 1021 47 10000 3.6 160 15:22 21.10.2019
5784 Clouds 26 1022 47 10000 4.1 160 14:56 21.10.2019
5785 Clouds 26 1022 47 10000 4.1 160 14:37 21.10.2019
5786 Clouds 25 1022 47 10000 3.6 150 14:18 21.10.2019
5787 Clouds 25 1022 47 10000 3.1 170 13:42 21.10.2019
5788 Clouds 25 1022 50 10000 3.6 180 13:21 21.10.2019
5789 Clouds 25 1022 53 10000 2.1 0 12:59 21.10.2019
5790 Clouds 24 1022 53 10000 2.1 0 12:40 21.10.2019
5791 Clear 23 1022 53 10000 1 0 12:21 21.10.2019
5792 Clear 23 1022 53 10000 1 0 11:55 21.10.2019
5793 Clear 23 1022 64 10000 2.1 20 11:37 21.10.2019
5794 Clear 21 1022 64 10000 2.1 340 11:18 21.10.2019
5795 Clear 22 1022 64 10000 2.1 340 10:55 21.10.2019
5796 Clear 22 1022 68 10000 1 0 10:36 21.10.2019
5797 Clear 22 1022 68 10000 1 0 10:36 21.10.2019
5798 Clear 21 1022 77 10000 1.5 340 10:18 21.10.2019
5799 Clear 20 1021 77 10000 2.1 280 09:42 21.10.2019
5800 Clear 18 1021 77 10000 1.5 100 09:22 21.10.2019
5801 Clear 17 1021 82 10000 1 0 08:43 21.10.2019
5802 Clear 17 1021 82 10000 1 0 08:43 21.10.2019
5803 Clear 16 1021 87 10000 0.5 0 08:23 21.10.2019
5804 Clear 15 1021 87 10000 0.5 0 07:58 21.10.2019
5805 Clear 15 1020 77 10000 1 0 07:37 21.10.2019
5806 Clear 15 1020 82 10000 2.1 120 07:18 21.10.2019
5807 Clear 16 1020 77 10000 2.1 120 06:50 21.10.2019
5808 Clear 16 1020 77 10000 2.1 120 06:31 21.10.2019
5809 Clear 16 1020 82 10000 2.1 110 05:43 21.10.2019
5810 Clear 16 1021 93 10000 2.6 120 03:42 21.10.2019
5811 Clear 16 1021 87 10000 1.5 250 02:41 21.10.2019
5812 Clear 17 1021 82 10000 0.5 0 02:21 21.10.2019
5813 Clear 17 1020 82 10000 1.5 100 01:49 21.10.2019
5814 Clear 17 1021 93 10000 1 0 01:20 21.10.2019
5815 Clear 17 1021 88 10000 1 0 00:41 21.10.2019
5816 Clear 17 1021 93 10000 1 0 00:22 21.10.2019
5817 Clear 17 1021 82 10000 0.5 0 23:40 20.10.2019
5818 Clear 18 1021 82 10000 1 0 23:21 20.10.2019
5819 Clear 18 1021 82 10000 1 0 22:55 20.10.2019
5820 Clear 18 1020 77 10000 1 0 22:36 20.10.2019
5821 Clear 18 1020 72 10000 2.1 130 22:18 20.10.2019
5822 Clear 18 1020 72 10000 2.1 160 21:40 20.10.2019
5823 Clear 18 1020 82 10000 1 0 21:22 20.10.2019
5824 Clear 18 1020 82 10000 1 0 20:57 20.10.2019
5825 Clear 18 1019 77 10000 2.6 140 20:39 20.10.2019
5826 Clear 19 1019 77 10000 2.6 180 20:18 20.10.2019
5827 Clear 19 1019 77 10000 2.6 180 19:56 20.10.2019
5828 Clear 20 1019 82 10000 2.1 180 19:37 20.10.2019
5829 Clear 20 1019 77 10000 2.1 180 19:19 20.10.2019
5830 Clouds 20 1019 68 10000 2.1 180 18:41 20.10.2019
5831 Clouds 22 1019 68 10000 2.6 180 18:22 20.10.2019
5832 Clouds 22 1019 68 10000 2.6 180 17:58 20.10.2019
5833 Clouds 22 1019 64 10000 3.6 170 17:39 20.10.2019
5834 Clouds 23 1019 64 10000 3.6 170 17:39 20.10.2019
5835 Clouds 23 1018 64 10000 4.6 160 17:21 20.10.2019
5836 Clouds 23 1018 64 10000 4.6 160 16:55 20.10.2019
5837 Clouds 23 1018 64 10000 3.6 170 16:37 20.10.2019
5838 Clouds 23 1018 64 10000 3.6 160 16:18 20.10.2019
5839 Clouds 23 1019 64 10000 4.1 140 15:41 20.10.2019
5840 Clear 22 1019 60 10000 5.1 150 15:23 20.10.2019
5841 Clear 23 1019 60 10000 5.1 150 14:59 20.10.2019
5842 Clear 22 1019 60 10000 5.1 150 14:38 20.10.2019
5843 Clear 22 1019 64 10000 4.1 150 14:20 20.10.2019
5844 Clear 23 1019 64 10000 4.6 170 13:56 20.10.2019
5845 Clear 23 1019 64 10000 4.6 170 13:37 20.10.2019
5846 Clear 22 1019 60 10000 4.6 150 13:19 20.10.2019
5847 Clear 22 1019 60 10000 4.6 150 12:57 20.10.2019
5848 Clear 22 1020 69 10000 4.1 140 12:39 20.10.2019
5849 Clouds 20 1020 64 10000 5.1 150 12:21 20.10.2019
5850 Clouds 20 1020 64 10000 5.1 150 11:59 20.10.2019
5851 Clouds 20 1020 68 10000 4.6 140 11:40 20.10.2019
5852 Clouds 19 1020 64 10000 3.1 150 11:22 20.10.2019
5853 Clouds 19 1020 64 10000 3.1 150 10:57 20.10.2019
5854 Clouds 19 1020 68 10000 1.5 0 10:37 20.10.2019
5855 Clouds 19 1019 68 10000 1.5 150 10:18 20.10.2019
5856 Clouds 18 1019 64 10000 1.5 0 09:43 20.10.2019
5857 Clouds 16 1019 77 10000 0.5 0 09:22 20.10.2019
5858 Fog 15 1019 77 10000 0.5 0 08:56 20.10.2019
5859 Fog 15 1018 72 10000 3.6 90 08:37 20.10.2019
5860 Fog 14 1019 82 10000 1.5 60 08:18 20.10.2019
5861 Fog 14 1018 82 10000 1.5 20 07:43 20.10.2019
5862 Clear 14 1018 77 10000 2.6 50 07:24 20.10.2019
5863 Clear 14 1018 77 10000 2.6 50 07:24 20.10.2019
5864 Clear 13 1018 87 10000 0.5 0 06:26 20.10.2019
5865 Clear 13 1018 82 10000 1.5 70 04:28 20.10.2019
5866 Clear 13 1019 82 10000 2.1 80 03:49 20.10.2019
5867 Clear 14 1019 82 10000 2.6 90 03:21 20.10.2019
5868 Clear 14 1019 76 10000 2.1 100 02:45 20.10.2019
5869 Clear 14 1019 82 10000 1.5 90 02:18 20.10.2019
5870 Clear 14 1019 82 10000 2.1 110 01:43 20.10.2019
5871 Clear 14 1019 82 10000 2.6 100 01:19 20.10.2019
5872 Clear 14 1018 82 10000 2.1 100 00:42 20.10.2019
5873 Clear 14 1018 82 10000 1.5 100 00:20 20.10.2019
5874 Clear 15 1018 77 10000 2.1 110 23:43 19.10.2019
5875 Clear 14 1018 77 10000 2.1 110 23:24 19.10.2019
5876 Clear 15 1018 82 10000 2.1 110 22:57 19.10.2019
5877 Clear 15 1018 82 10000 2.1 120 22:39 19.10.2019
5878 Clear 16 1018 72 10000 2.6 140 22:20 19.10.2019
5879 Clear 15 1018 82 10000 3.1 150 21:46 19.10.2019
5880 Clear 16 1018 82 10000 3.1 150 21:25 19.10.2019
5881 Clear 16 1018 82 10000 2.6 150 20:57 19.10.2019
5882 Clear 16 1018 77 10000 1.5 170 20:39 19.10.2019
5883 Clear 17 1018 77 10000 1.5 170 20:20 19.10.2019
5884 Clear 17 1018 77 10000 2.1 170 19:41 19.10.2019
5885 Clouds 18 1017 72 10000 2.6 170 19:23 19.10.2019
5886 Clouds 18 1017 72 10000 3.1 170 18:44 19.10.2019
5887 Clouds 19 1017 72 10000 3.1 170 18:25 19.10.2019
5888 Clouds 20 1017 68 10000 3.1 170 17:59 19.10.2019
5889 Clouds 21 1017 60 10000 3.6 160 17:37 19.10.2019
5890 Clouds 21 1017 60 10000 4.1 190 17:19 19.10.2019
5891 Clouds 21 1017 60 10000 4.1 190 16:54 19.10.2019
5892 Clouds 22 1017 52 10000 3.1 140 16:36 19.10.2019
5893 Clouds 22 1017 53 10000 3.1 150 16:18 19.10.2019
5894 Clouds 22 1017 56 10000 3.1 160 15:40 19.10.2019
5895 Clouds 22 1017 56 10000 3.1 160 15:40 19.10.2019
5896 Clouds 21 1017 56 10000 2.6 190 15:22 19.10.2019
5897 Clouds 21 1017 53 10000 3.1 190 14:38 19.10.2019
5898 Clouds 21 1018 56 10000 2.6 140 14:20 19.10.2019
5899 Clouds 22 1018 56 10000 2.6 140 13:56 19.10.2019
5900 Clouds 21 1018 53 10000 2.1 0 13:38 19.10.2019
5901 Clouds 21 1018 53 10000 2.6 170 13:18 19.10.2019
5902 Clouds 21 1018 60 10000 3.1 180 12:42 19.10.2019
5903 Clouds 20 1018 64 10000 3.1 140 12:23 19.10.2019
5904 Clouds 20 1018 64 10000 3.1 140 11:59 19.10.2019
5905 Clouds 20 1018 64 10000 3.1 160 11:40 19.10.2019
5906 Clear 19 1019 72 10000 1.5 0 11:22 19.10.2019
5907 Clear 18 1018 72 10000 1.5 320 10:54 19.10.2019
5908 Clear 18 1019 93 10000 2.35 148.313 10:36 19.10.2019
5909 Clear 17 1019 93 10000 2.35 148.313 10:18 19.10.2019
5910 Fog 16 1019 100 10000 2.1 360 09:41 19.10.2019
5911 Fog 15 1019 100 10000 2.1 360 09:23 19.10.2019
5912 Fog 15 1019 100 10000 2.1 360 09:23 19.10.2019
5913 Fog 14 1017 93 10000 1 0 08:58 19.10.2019
5914 Fog 14 1017 93 10000 1 0 08:58 19.10.2019
5915 Fog 14 1017 93 10000 1 0 08:58 19.10.2019
5916 Fog 14 1017 93 10000 1 0 08:58 19.10.2019
5917 Fog 13 1018 100 8000 1 0 08:39 19.10.2019
5918 Fog 12 1018 100 8000 1 0 08:20 19.10.2019
5919 Fog 12 1017 87 10000 1 0 07:43 19.10.2019
5920 Fog 12 1017 87 10000 1 0 07:24 19.10.2019
5921 Clear 12 1017 87 10000 2.6 100 06:45 19.10.2019
5922 Clear 12 1017 87 10000 1 0 05:56 19.10.2019
5923 Clear 12 1017 87 10000 1 0 05:27 19.10.2019
5924 Clear 13 1018 93 10000 1.5 60 03:59 19.10.2019
5925 Clear 13 1018 82 10000 2.1 110 02:40 19.10.2019
5926 Clear 13 1018 82 10000 3.1 100 01:51 19.10.2019
5927 Clear 13 1018 82 10000 2.6 90 01:19 19.10.2019
5928 Clear 14 1018 82 10000 2.6 100 00:45 19.10.2019
5929 Clear 14 1019 82 10000 2.1 100 00:23 19.10.2019
5930 Clear 14 1018 82 10000 2.1 100 23:42 18.10.2019
5931 Clear 14 1018 82 10000 2.1 100 23:42 18.10.2019
5932 Clear 14 1019 82 10000 2.6 100 23:23 18.10.2019
5933 Clear 14 1019 82 10000 2.6 100 22:56 18.10.2019
5934 Clear 15 1018 82 10000 2.1 100 22:38 18.10.2019
5935 Clear 15 1019 82 10000 2.6 110 22:20 18.10.2019
5936 Clear 15 1019 82 10000 2.6 110 21:57 18.10.2019
5937 Clear 15 1018 82 10000 2.1 110 21:38 18.10.2019
5938 Clear 15 1018 77 10000 1.5 110 21:19 18.10.2019
5939 Clear 16 1018 77 10000 1.5 110 20:56 18.10.2019
5940 Clear 16 1018 82 10000 2.6 120 20:38 18.10.2019
5941 Clear 16 1018 82 10000 1.5 140 20:19 18.10.2019
5942 Clear 17 1018 82 10000 1.5 140 19:55 18.10.2019
5943 Clear 17 1018 72 10000 1 180 19:37 18.10.2019
5944 Clear 18 1018 63 10000 1 0 19:19 18.10.2019
5945 Clear 19 1017 60 10000 2.1 260 18:42 18.10.2019
5946 Clouds 20 1017 60 10000 3.1 280 18:23 18.10.2019
5947 Clouds 20 1017 60 10000 3.1 280 17:57 18.10.2019
5948 Clouds 21 1017 49 10000 2.6 260 17:38 18.10.2019
5949 Clouds 21 1018 53 10000 1.5 350 17:20 18.10.2019
5950 Clouds 21 1018 53 10000 1.5 350 17:20 18.10.2019
5951 Clouds 22 1018 49 10000 2.6 330 16:44 18.10.2019
5952 Clouds 22 1018 49 10000 2.6 330 16:44 18.10.2019
5953 Clouds 22 1018 49 10000 3.1 0 16:23 18.10.2019
5954 Clouds 22 1018 49 10000 3.1 0 15:59 18.10.2019
5955 Clouds 22 1018 53 10000 3.6 340 15:40 18.10.2019
5956 Clear 22 1018 52 10000 2.1 360 15:21 18.10.2019
5957 Clear 22 1018 52 10000 2.1 360 14:58 18.10.2019
5958 Clear 22 1018 52 10000 2.1 0 14:40 18.10.2019
5959 Clear 22 1019 49 10000 2.6 360 14:22 18.10.2019
5960 Clear 22 1019 49 10000 2.6 360 13:59 18.10.2019
5961 Clear 22 1019 52 10000 1.5 360 13:40 18.10.2019
5962 Clear 21 1019 52 10000 2.1 0 13:22 18.10.2019
5963 Clear 21 1019 52 10000 2.1 0 12:56 18.10.2019
5964 Clear 21 1020 56 10000 2.1 340 12:38 18.10.2019
5965 Clear 19 1020 56 10000 2.6 320 12:20 18.10.2019
5966 Clear 19 1020 56 10000 1.5 350 11:54 18.10.2019
5967 Clear 19 1020 56 10000 1.5 350 11:36 18.10.2019
5968 Clear 18 1020 63 10000 1.5 360 11:18 18.10.2019
5969 Clear 18 1020 63 10000 1.5 360 11:18 18.10.2019
5970 Clear 18 1020 63 10000 2.1 20 10:41 18.10.2019
5971 Mist 16 1019 67 10000 1.5 360 10:22 18.10.2019
5972 Clear 17 1019 67 10000 1.5 360 09:58 18.10.2019
5973 Clear 16 1019 72 10000 1.5 350 09:40 18.10.2019
5974 Fog 14 1019 76 10000 1 0 09:20 18.10.2019
5975 Clear 14 1019 76 10000 1 0 08:57 18.10.2019
5976 Fog 12 1019 81 10000 1.5 360 08:38 18.10.2019
5977 Fog 12 1019 81 10000 1.5 20 08:20 18.10.2019
5978 Fog 12 1019 76 10000 1 0 07:41 18.10.2019
5979 Clear 12 1019 71 10000 2.1 80 07:19 18.10.2019
5980 Clear 12 1019 76 10000 0.5 0 06:39 18.10.2019
5981 Clear 12 1019 76 10000 2.1 50 06:20 18.10.2019
5982 Clear 12 1019 71 10000 2.6 90 05:54 18.10.2019
5983 Clear 12 1019 93 10000 1 70 05:21 18.10.2019
5984 Clear 12 1019 71 10000 2.6 100 03:43 18.10.2019
5985 Clear 12 1019 76 10000 2.6 100 03:23 18.10.2019
5986 Clear 13 1020 76 10000 2.6 100 02:33 18.10.2019
5987 Clear 13 1020 76 10000 2.6 100 01:43 18.10.2019
5988 Clear 13 1020 76 10000 2.6 100 01:25 18.10.2019
5989 Clear 13 1020 82 10000 2.6 100 00:44 18.10.2019
5990 Clear 13 1020 82 10000 3.1 100 00:20 18.10.2019
5991 Clear 13 1020 82 10000 3.1 100 00:20 18.10.2019
5992 Clear 14 1020 82 10000 2.6 100 23:42 17.10.2019
5993 Clear 14 1020 82 10000 2.1 100 23:21 17.10.2019
5994 Clear 14 1020 82 10000 2.1 100 22:58 17.10.2019
5995 Clear 14 1020 82 10000 2.1 100 22:39 17.10.2019
5996 Clear 15 1020 82 10000 2.1 100 22:20 17.10.2019
5997 Clear 15 1020 82 10000 2.1 100 21:58 17.10.2019
5998 Clear 15 1020 82 10000 2.1 100 21:40 17.10.2019
5999 Clear 15 1019 77 10000 2.1 110 21:21 17.10.2019
6000 Clear 15 1019 77 10000 2.1 110 21:21 17.10.2019
6001 Clear 15 1019 77 10000 2.1 110 20:58 17.10.2019
6002 Clear 15 1019 72 10000 2.6 120 20:40 17.10.2019
6003 Clear 16 1019 72 10000 2.1 130 20:20 17.10.2019
6004 Clear 16 1019 72 10000 2.1 130 19:59 17.10.2019
6005 Clear 16 1019 72 10000 2.1 130 19:59 17.10.2019
6006 Clear 16 1019 67 10000 1.5 150 19:40 17.10.2019
6007 Clear 18 1019 59 10000 1.5 200 19:20 17.10.2019
6008 Clear 18 1019 59 10000 1.5 200 18:58 17.10.2019
6009 Clear 19 1019 52 10000 1.5 220 18:38 17.10.2019
6010 Clear 20 1019 49 10000 2.6 250 18:20 17.10.2019
6011 Clear 21 1019 49 10000 3.1 260 17:42 17.10.2019
6012 Clear 22 1019 46 10000 3.6 280 17:23 17.10.2019
6013 Clear 21 1019 46 10000 3.6 280 16:57 17.10.2019
6014 -273 0 0 0 0 0 16:39 17.10.2019
6015 Clear 22 1019 40 10000 2.1 10 16:18 17.10.2019
6016 Clear 22 1019 40 10000 2.1 10 15:56 17.10.2019
6017 Clear 22 1019 43 10000 2.1 250 15:38 17.10.2019
6018 Clouds 22 1019 43 10000 2.1 280 15:19 17.10.2019
6019 Clouds 22 1019 43 10000 2.1 280 14:54 17.10.2019
6020 Clouds 22 1019 46 10000 2.1 310 14:36 17.10.2019
6021 Clouds 22 1020 46 10000 2.6 280 14:18 17.10.2019
6022 Clouds 21 1020 49 10000 1.5 0 13:39 17.10.2019
6023 Clouds 21 1020 49 10000 1 0 13:19 17.10.2019
6024 Clouds 21 1020 52 10000 1.5 0 12:43 17.10.2019
6025 Clouds 19 1020 59 10000 2.1 310 12:22 17.10.2019
6026 Clouds 19 1020 59 10000 2.1 310 11:59 17.10.2019
6027 Clouds 19 1020 68 10000 2.1 340 11:41 17.10.2019
6028 Clouds 18 1020 68 10000 1.5 350 11:21 17.10.2019
6029 Clouds 18 1020 68 10000 1.5 350 10:57 17.10.2019
6030 Clouds 18 1020 72 10000 1 0 10:39 17.10.2019
6031 Clouds 16 1020 82 10000 1 0 10:19 17.10.2019
6032 Clouds 16 1020 82 10000 1 0 09:55 17.10.2019
6033 Clear 16 1020 87 10000 2.1 20 09:36 17.10.2019
6034 Clouds 14 1020 93 10000 2.1 10 09:18 17.10.2019
6035 Clouds 13 1020 87 10000 2.1 30 08:46 17.10.2019
6036 Clouds 13 1020 87 10000 2.1 30 08:26 17.10.2019
6037 -273 0 0 0 0 0 07:56 17.10.2019
6038 Clouds 12 1019 87 10000 2.6 40 07:38 17.10.2019
6039 Clouds 12 1019 87 10000 2.1 30 07:18 17.10.2019
6040 Clouds 12 1019 87 10000 2.1 20 06:40 17.10.2019
6041 Clear 12 1019 87 10000 1 30 06:21 17.10.2019
6042 Clear 13 1019 87 10000 1 30 05:57 17.10.2019
6043 Clear 13 1019 87 10000 0.5 0 05:32 17.10.2019
6044 Clear 13 1019 82 10000 1.5 50 04:56 17.10.2019
6045 Clear 13 1020 87 10000 2.1 50 03:55 17.10.2019
6046 Clouds 13 1019 82 10000 2.6 100 02:50 17.10.2019
6047 Clouds 14 1019 82 10000 2.6 100 01:39 17.10.2019
6048 Clouds 14 1019 77 10000 2.6 100 00:40 17.10.2019
6049 Clouds 14 1019 87 10000 2.1 100 00:19 17.10.2019
6050 Clouds 14 1019 82 10000 2.1 100 23:42 16.10.2019
6051 Clouds 15 1019 82 10000 2.1 90 23:21 16.10.2019
6052 Clouds 14 1019 82 10000 2.1 90 22:56 16.10.2019
6053 Clouds 14 1019 82 10000 1 0 22:37 16.10.2019
6054 Clouds 15 1019 82 10000 1.5 100 22:19 16.10.2019
6055 Clouds 15 1019 82 10000 1.5 100 21:58 16.10.2019
6056 Clouds 16 1019 82 10000 0.5 0 21:38 16.10.2019
6057 Clouds 16 1019 77 10000 1 0 21:19 16.10.2019
6058 Clouds 16 1019 77 10000 1 0 20:58 16.10.2019
6059 Clouds 16 1019 77 10000 1 0 20:58 16.10.2019
6060 Clouds 17 1018 72 10000 1.5 110 20:39 16.10.2019
6061 Clouds 17 1018 72 10000 2.1 230 20:21 16.10.2019
6062 Clouds 17 1018 72 10000 2.1 230 19:59 16.10.2019
6063 Clouds 17 1018 68 10000 1.5 160 19:39 16.10.2019
6064 Clouds 17 1018 68 10000 1.5 160 19:39 16.10.2019
6065 Clouds 18 1018 68 10000 1.5 170 19:20 16.10.2019
6066 -273 0 0 0 0 0 18:54 16.10.2019
6067 Clouds 18 1018 63 10000 2.1 190 18:54 16.10.2019
6068 Clouds 19 1018 63 10000 2.1 190 18:36 16.10.2019
6069 Clouds 20 1017 56 10000 2.6 170 18:18 16.10.2019
6070 Clouds 20 1017 56 10000 3.6 180 17:54 16.10.2019
6071 Clouds 20 1017 56 10000 3.6 180 17:36 16.10.2019
6072 Clouds 21 1017 52 10000 3.6 190 17:18 16.10.2019
6073 Clouds 21 1017 56 10000 2.6 170 16:42 16.10.2019
6074 Clouds 21 1017 56 10000 2.6 170 16:42 16.10.2019
6075 Clouds 21 1017 56 10000 3.6 170 16:21 16.10.2019
6076 Clouds 21 1017 56 10000 3.6 170 15:58 16.10.2019
6077 Clouds 21 1017 56 10000 3.1 180 15:39 16.10.2019
6078 Clouds 21 1017 56 10000 3.1 180 15:39 16.10.2019
6079 Clouds 21 1017 56 10000 3.1 190 15:18 16.10.2019
6080 Clouds 21 1017 56 10000 3.1 190 14:58 16.10.2019
6081 Clouds 21 1017 56 10000 3.1 190 14:38 16.10.2019
6082 Clouds 21 1017 56 10000 3.1 180 14:19 16.10.2019
6083 Clouds 21 1017 56 10000 3.1 180 13:57 16.10.2019
6084 Clouds 21 1017 56 10000 3.1 180 13:56 16.10.2019
6085 Clouds 21 1017 60 10000 3.1 200 13:38 16.10.2019
6086 Clouds 20 1018 60 10000 3.1 190 13:19 16.10.2019
6087 Clouds 20 1018 64 10000 3.6 180 12:42 16.10.2019
6088 Clear 19 1018 60 10000 4.1 160 12:19 16.10.2019
6089 Clouds 19 1018 60 10000 4.1 170 11:45 16.10.2019
6090 Clouds 19 1018 68 10000 5.1 150 11:19 16.10.2019
6091 Clouds 19 1017 68 10000 4.6 150 10:41 16.10.2019
6092 Clouds 18 1017 68 10000 4.1 160 10:22 16.10.2019
6093 Clouds 18 1017 68 10000 4.1 160 10:22 16.10.2019
6094 Clouds 17 1017 68 10000 4.1 160 09:58 16.10.2019
6095 Clear 17 1017 68 10000 3.6 160 09:39 16.10.2019
6096 Clouds 16 1017 72 10000 3.1 150 09:20 16.10.2019
6097 Clouds 15 1016 77 10000 3.1 140 08:44 16.10.2019
6098 Clouds 15 1016 77 10000 3.1 140 08:25 16.10.2019
6099 Clouds 14 1016 82 10000 2.6 150 07:56 16.10.2019
6100 Clouds 14 1016 82 10000 2.6 150 07:56 16.10.2019
6101 Clouds 14 1016 82 10000 3.1 150 07:38 16.10.2019
6102 Clouds 14 1016 87 10000 3.6 140 07:19 16.10.2019
6103 Clouds 14 1016 87 10000 3.1 140 06:40 16.10.2019
6104 Clouds 15 1016 87 10000 3.1 140 06:19 16.10.2019
6105 Clouds 16 1016 93 10000 2.1 170 03:33 16.10.2019
6106 Clouds 17 1016 88 10000 1.5 180 02:50 16.10.2019
6107 Clouds 17 1016 93 10000 3.1 180 01:20 16.10.2019
6108 Clouds 17 1016 93 10000 1 0 00:56 16.10.2019
6109 Clouds 17 1016 93 10000 1 0 00:37 16.10.2019
6110 Rain 17 1015 93 10000 4.1 0 23:42 15.10.2019
6111 Rain 17 1015 93 10000 3.1 190 23:22 15.10.2019
6112 Rain 17 1015 93 10000 3.1 190 22:57 15.10.2019
6113 Thunderstorm 17 1016 88 10000 3.6 290 22:38 15.10.2019
6114 Rain 17 1015 82 10000 5.7 320 22:20 15.10.2019
6115 Rain 17 1015 82 10000 5.7 320 21:57 15.10.2019
6116 Thunderstorm 17 1014 77 10000 5.7 140 21:38 15.10.2019
6117 Thunderstorm 18 1014 82 10000 4.6 150 21:20 15.10.2019
6118 Thunderstorm 18 1014 82 10000 4.6 150 21:20 15.10.2019
6119 Thunderstorm 18 1014 82 10000 4.6 150 20:58 15.10.2019
6120 Thunderstorm 18 1014 77 10000 5.1 150 20:39 15.10.2019
6121 Thunderstorm 18 1014 68 10000 1.5 0 20:21 15.10.2019
6122 Thunderstorm 18 1014 68 10000 1.5 0 19:59 15.10.2019
6123 Thunderstorm 18 1014 68 10000 5.1 140 19:40 15.10.2019
6124 Thunderstorm 18 1014 68 10000 5.1 140 19:40 15.10.2019
6125 Clouds 18 1013 73 10000 6.7 150 19:20 15.10.2019
6126 Clouds 19 1013 73 10000 7.2 140 18:48 15.10.2019
6127 Clouds 19 1013 73 10000 7.2 140 18:29 15.10.2019
6128 Clouds 19 1014 68 10000 6.2 140 17:59 15.10.2019
6129 Clouds 19 1014 72 10000 5.7 150 17:41 15.10.2019
6130 Clouds 19 1014 72 10000 5.7 150 17:41 15.10.2019
6131 Clouds 19 1014 68 10000 4.6 150 17:20 15.10.2019
6132 Clouds 18 1015 68 10000 5.1 150 16:57 15.10.2019
6133 Clouds 18 1015 68 10000 5.1 150 16:38 15.10.2019
6134 Rain 19 1015 68 10000 6.7 140 16:20 15.10.2019
6135 Rain 19 1015 72 10000 6.7 140 15:43 15.10.2019
6136 Rain 19 1015 72 10000 6.7 140 15:43 15.10.2019
6137 Rain 19 1016 72 9000 7.2 140 15:21 15.10.2019
6138 Rain 20 1016 72 9000 7.2 140 14:59 15.10.2019
6139 Rain 20 1016 72 10000 5.7 150 14:38 15.10.2019
6140 Rain 20 1016 72 10000 5.7 150 14:38 15.10.2019
6141 Rain 20 1016 72 10000 5.7 150 14:38 15.10.2019
6142 Rain 20 1016 72 10000 5.7 150 14:38 15.10.2019
6143 Rain 20 1016 64 9000 5.1 170 14:20 15.10.2019
6144 Rain 21 1016 64 9000 5.1 170 13:55 15.10.2019
6145 Drizzle 21 1016 60 10000 5.1 150 13:37 15.10.2019
6146 Clouds 21 1016 53 10000 5.1 160 13:18 15.10.2019
6147 Clouds 21 1017 53 10000 5.1 160 12:42 15.10.2019
6148 Clouds 21 1017 60 10000 3.1 160 12:21 15.10.2019
6149 Clouds 21 1017 60 10000 3.1 160 11:56 15.10.2019
6150 Clouds 21 1017 56 10000 5.1 150 11:37 15.10.2019
6151 Clouds 20 1017 53 10000 4.6 140 11:19 15.10.2019
6152 Clouds 20 1017 53 10000 4.6 140 11:19 15.10.2019
6153 Clouds 20 1017 60 10000 3.1 140 10:44 15.10.2019
6154 Clouds 20 1017 60 10000 3.1 140 10:44 15.10.2019
6155 Mist 19 1017 68 10000 0.5 0 10:21 15.10.2019
6156 Mist 18 1017 68 10000 0.5 0 09:58 15.10.2019
6157 Mist 18 1017 72 10000 0.5 0 09:38 15.10.2019
6158 Fog 17 1017 77 10000 1 0 09:19 15.10.2019
6159 Fog 16 1017 77 10000 1 0 08:54 15.10.2019
6160 Fog 15 1017 77 10000 1 0 08:36 15.10.2019
6161 Fog 15 1017 82 10000 1 0 08:18 15.10.2019
6162 Fog 15 1017 77 10000 2.1 70 07:41 15.10.2019
6163 Clear 15 1017 82 10000 2.6 60 07:21 15.10.2019
6164 Clear 15 1018 87 10000 2.1 100 06:45 15.10.2019
6165 Clear 15 1018 87 10000 2.1 100 06:27 15.10.2019
6166 Clouds 15 1018 82 10000 1 0 05:44 15.10.2019
6167 Clouds 15 1018 87 10000 2.1 100 05:24 15.10.2019
6168 Clouds 15 1018 87 10000 2.6 100 04:39 15.10.2019
6169 Clouds 15 1019 87 8000 1.5 100 03:38 15.10.2019
6170 Clouds 15 1019 87 8000 1.5 100 03:38 15.10.2019
6171 Clouds 16 1019 87 8000 1 90 02:51 15.10.2019
6172 Clear 16 1019 93 10000 1 0 01:49 15.10.2019
6173 Clear 16 1019 87 10000 2.1 120 01:22 15.10.2019
6174 Clear 16 1019 87 10000 1 120 00:50 15.10.2019
6175 Clear 17 1019 82 10000 1 110 00:22 15.10.2019
6176 Clear 17 1020 82 10000 0.5 0 23:45 14.10.2019
6177 Clear 17 1020 82 10000 1.5 80 23:21 14.10.2019
6178 Clear 17 1020 82 10000 1.5 80 22:59 14.10.2019
6179 Clear 17 1020 82 10000 1 70 22:38 14.10.2019
6180 Clear 18 1020 82 10000 0.5 0 22:19 14.10.2019
6181 Clear 18 1020 82 10000 0.5 0 21:56 14.10.2019
6182 Clear 18 1020 82 10000 1 0 21:37 14.10.2019
6183 Clear 19 1020 82 10000 1.5 200 21:19 14.10.2019
6184 Clear 19 1020 82 10000 2.1 180 20:55 14.10.2019
6185 Clear 19 1020 82 10000 2.1 180 20:36 14.10.2019
6186 Clear 19 1020 82 10000 2.1 190 20:18 14.10.2019
6187 Clear 19 1020 82 10000 2.1 190 20:18 14.10.2019
6188 Clouds 19 1020 77 10000 2.1 200 19:42 14.10.2019
6189 Clear 20 1019 73 10000 2.6 180 19:23 14.10.2019
6190 Clear 20 1019 73 10000 2.6 180 18:59 14.10.2019
6191 Clouds 21 1020 68 10000 2.6 210 18:39 14.10.2019
6192 Clouds 21 1020 68 10000 2.6 210 18:39 14.10.2019
6193 Clouds 22 1019 64 10000 2.6 210 18:19 14.10.2019
6194 Clouds 22 1019 64 10000 2.6 210 18:19 14.10.2019
6195 Clouds 22 1019 64 10000 2.6 210 17:57 14.10.2019
6196 Clouds 22 1019 64 10000 2.1 220 17:38 14.10.2019
6197 Clouds 23 1020 64 10000 2.1 190 17:20 14.10.2019
6198 Clouds 23 1020 64 10000 2.6 190 16:44 14.10.2019
6199 Clouds 23 1020 64 10000 3.1 220 16:21 14.10.2019
6200 Clouds 23 1020 53 10000 1 0 15:44 14.10.2019
6201 Clouds 23 1020 53 10000 2.1 0 15:25 14.10.2019
6202 Clouds 23 1020 53 10000 2.1 0 14:58 14.10.2019
6203 Clouds 23 1021 53 10000 2.1 0 14:39 14.10.2019
6204 Clouds 23 1021 60 10000 1 0 14:20 14.10.2019
6205 Clouds 23 1021 60 10000 1 0 13:44 14.10.2019
6206 Clouds 23 1022 60 10000 2.1 290 13:21 14.10.2019
6207 Clouds 22 1022 60 10000 2.1 290 12:56 14.10.2019
6208 Clouds 22 1022 60 10000 1 0 12:37 14.10.2019
6209 Clouds 22 1022 64 10000 0.5 0 12:18 14.10.2019
6210 Clouds 21 1022 64 10000 1.5 330 11:45 14.10.2019
6211 Clouds 21 1022 64 10000 1.5 330 11:26 14.10.2019
6212 Clouds 21 1022 64 10000 1.5 330 11:26 14.10.2019
6213 Clouds 20 1022 68 10000 1.5 320 10:57 14.10.2019
6214 Clear 20 1022 72 10000 1.5 310 10:38 14.10.2019
6215 Clear 18 1022 77 10000 1.5 360 10:20 14.10.2019
6216 Clear 18 1022 77 10000 1.5 360 09:54 14.10.2019
6217 Clear 18 1022 88 10000 2.1 20 09:36 14.10.2019
6218 Fog 17 1022 82 10000 1 360 09:18 14.10.2019
6219 Fog 16 1022 82 10000 0.5 0 08:42 14.10.2019
6220 Fog 15 1022 82 10000 0.5 0 08:20 14.10.2019
6221 Fog 14 1022 82 10000 2.1 90 07:41 14.10.2019
6222 Fog 14 1022 82 10000 2.1 90 07:41 14.10.2019
6223 Clear 15 1022 82 10000 2.6 80 07:18 14.10.2019
6224 Clear 15 1022 82 10000 1.5 90 06:37 14.10.2019
6225 Clear 15 1022 82 10000 2.6 90 06:18 14.10.2019
6226 Clear 15 1022 87 10000 2.6 90 05:42 14.10.2019
6227 Clouds 15 1022 93 8000 2.1 70 04:42 14.10.2019
6228 Clear 15 1023 82 10000 2.1 90 03:27 14.10.2019
6229 Clouds 16 1022 100 8000 2.1 80 02:36 14.10.2019
6230 Clear 16 1023 82 10000 2.1 90 01:22 14.10.2019
6231 Clear 16 1023 88 10000 1.5 80 00:53 14.10.2019
6232 Clear 17 1023 88 10000 1.5 100 00:19 14.10.2019
6233 Clear 17 1023 88 10000 1.5 120 23:44 13.10.2019
6234 Clear 17 1023 88 10000 1.5 120 23:20 13.10.2019
6235 Clear 17 1023 88 10000 1.5 120 22:58 13.10.2019
6236 Clear 17 1023 82 10000 2.1 110 22:40 13.10.2019
6237 Clear 17 1023 82 10000 2.1 140 22:21 13.10.2019
6238 Clear 17 1023 82 10000 2.1 140 22:21 13.10.2019
6239 Clear 17 1023 82 10000 2.1 130 21:58 13.10.2019
6240 Clear 18 1023 82 10000 2.1 130 21:37 13.10.2019
6241 Clear 18 1023 82 10000 2.1 130 21:18 13.10.2019
6242 Clear 18 1023 82 10000 2.1 130 21:18 13.10.2019
6243 -273 0 0 0 0 0 20:57 13.10.2019
6244 Clear 18 1023 82 10000 1.5 140 20:38 13.10.2019
6245 Clear 19 1023 82 10000 1 150 20:20 13.10.2019
6246 Clear 19 1023 82 10000 1 150 19:58 13.10.2019
6247 Clear 19 1023 82 10000 1 150 19:57 13.10.2019
6248 Clear 19 1023 82 10000 1 220 19:39 13.10.2019
6249 Clouds 20 1023 73 10000 1.5 200 19:20 13.10.2019
6250 Clouds 20 1023 73 10000 1.5 200 18:55 13.10.2019
6251 Clouds 20 1023 73 10000 2.1 210 18:36 13.10.2019
6252 Clouds 21 1022 68 10000 2.6 220 18:18 13.10.2019
6253 Clouds 22 1022 64 10000 2.6 230 17:44 13.10.2019
6254 Clouds 22 1022 64 10000 2.6 230 17:44 13.10.2019
6255 Clouds 23 1022 60 10000 2.6 250 17:26 13.10.2019
6256 Clouds 23 1022 60 10000 2.6 250 17:25 13.10.2019
6257 Clouds 23 1022 60 10000 2.6 250 17:25 13.10.2019
6258 Clouds 23 1022 57 10000 1.5 220 16:55 13.10.2019
6259 Clouds 24 1022 57 10000 1.5 220 16:36 13.10.2019
6260 Clouds 23 1022 53 10000 2.1 220 16:18 13.10.2019
6261 Clouds 23 1022 53 10000 2.1 220 16:18 13.10.2019
6262 Clouds 23 1022 53 10000 2.6 260 15:54 13.10.2019
6263 Clouds 23 1022 53 10000 2.6 260 15:36 13.10.2019
6264 Clouds 23 1023 53 10000 1.5 350 15:18 13.10.2019
6265 Clouds 24 1023 53 10000 0.5 0 14:40 13.10.2019
6266 Clouds 23 1023 53 10000 1.5 0 14:22 13.10.2019
6267 Clouds 23 1023 53 10000 1.5 0 13:59 13.10.2019
6268 Clouds 23 1024 56 10000 1 0 13:39 13.10.2019
6269 Clouds 23 1024 56 10000 1 0 13:39 13.10.2019
6270 Clouds 23 1024 53 10000 2.1 0 13:21 13.10.2019
6271 Clouds 23 1024 56 10000 1.5 0 12:56 13.10.2019
6272 Clouds 23 1024 56 10000 1.5 0 12:38 13.10.2019
6273 Mist 21 1024 60 10000 1.5 0 12:19 13.10.2019
6274 Mist 21 1024 60 10000 1.5 0 11:58 13.10.2019
6275 Mist 21 1024 64 10000 2.1 30 11:38 13.10.2019
6276 Mist 21 1024 64 10000 2.1 30 11:38 13.10.2019
6277 Clouds 20 1024 64 10000 1.5 340 11:19 13.10.2019
6278 Mist 19 1024 68 10000 1.5 350 10:42 13.10.2019
6279 Mist 18 1024 68 10000 1.5 340 10:23 13.10.2019
6280 Mist 18 1024 68 10000 1.5 340 10:23 13.10.2019
6281 Mist 18 1024 68 10000 1.5 340 09:57 13.10.2019
6282 Mist 17 1024 72 10000 1.5 340 09:38 13.10.2019
6283 Fog 16 1024 72 10000 1.5 70 09:19 13.10.2019
6284 Fog 14 1024 82 10000 2.1 70 08:43 13.10.2019
6285 Fog 14 1023 82 10000 2.6 80 08:22 13.10.2019
6286 Fog 13 1024 76 10000 2.6 100 07:47 13.10.2019
6287 Clear 13 1024 76 10000 3.1 100 07:28 13.10.2019
6288 Clear 13 1023 76 10000 2.6 100 06:46 13.10.2019
6289 Clear 13 1023 76 10000 2.6 100 05:50 13.10.2019
6290 Clear 14 1023 82 10000 2.6 100 04:52 13.10.2019
6291 Clear 14 1023 82 10000 2.6 100 04:33 13.10.2019
6292 Clear 14 1024 77 10000 2.6 90 02:47 13.10.2019
6293 Clear 14 1024 82 10000 3.1 100 02:18 13.10.2019
6294 Clear 15 1024 82 10000 2.6 90 01:31 13.10.2019
6295 Clear 15 1024 82 10000 2.1 100 00:52 13.10.2019
6296 Clear 15 1024 87 10000 1.5 90 00:22 13.10.2019
6297 Clear 15 1024 87 10000 1.5 90 23:58 12.10.2019
6298 Clear 15 1024 87 10000 2.1 120 23:39 12.10.2019
6299 Clear 15 1024 87 10000 2.1 110 23:21 12.10.2019
6300 Clear 16 1024 87 10000 2.1 110 22:58 12.10.2019
6301 Clear 16 1024 82 10000 2.1 100 22:39 12.10.2019
6302 Clear 16 1024 87 10000 2.1 110 22:20 12.10.2019
6303 Clear 16 1024 82 10000 2.6 130 21:55 12.10.2019
6304 Clear 16 1024 82 10000 2.6 130 21:37 12.10.2019
6305 Clear 17 1024 82 10000 2.1 120 21:19 12.10.2019
6306 Clear 17 1024 82 10000 2.1 120 21:19 12.10.2019
6307 Clear 17 1024 77 10000 2.1 150 20:43 12.10.2019
6308 Clear 17 1024 77 10000 2.1 150 20:25 12.10.2019
6309 Clear 18 1024 72 10000 1.5 210 19:40 12.10.2019
6310 Clear 19 1023 72 10000 2.6 190 19:22 12.10.2019
6311 Clear 19 1023 68 10000 3.1 200 18:59 12.10.2019
6312 Clear 20 1023 68 10000 3.1 200 18:40 12.10.2019
6313 Clear 20 1023 64 10000 3.1 200 18:22 12.10.2019
6314 Clouds 22 1023 60 10000 3.1 190 17:44 12.10.2019
6315 Clouds 22 1023 60 10000 3.1 180 17:19 12.10.2019
6316 Clouds 22 1023 60 10000 3.1 180 16:55 12.10.2019
6317 Clouds 22 1023 56 10000 4.1 190 16:36 12.10.2019
6318 Clouds 22 1023 56 10000 3.6 170 16:18 12.10.2019
6319 Clouds 22 1023 56 10000 4.1 180 15:44 12.10.2019
6320 Clouds 23 1023 56 10000 2.1 170 15:25 12.10.2019
6321 Clouds 23 1023 53 10000 4.1 170 14:55 12.10.2019
6322 Clouds 23 1023 53 10000 4.1 170 14:55 12.10.2019
6323 Clouds 23 1023 53 10000 4.1 170 14:37 12.10.2019
6324 Clouds 22 1023 56 10000 3.6 180 14:18 12.10.2019
6325 Clouds 23 1024 53 10000 4.1 170 13:43 12.10.2019
6326 Clouds 23 1024 53 10000 4.1 170 13:43 12.10.2019
6327 Clouds 22 1024 60 10000 4.6 140 13:25 12.10.2019
6328 Clouds 22 1024 64 10000 3.6 180 12:40 12.10.2019
6329 Clouds 21 1024 64 10000 3.6 180 12:22 12.10.2019
6330 Clouds 20 1024 68 10000 3.6 170 11:59 12.10.2019
6331 Clouds 20 1024 68 10000 3.6 170 11:40 12.10.2019
6332 Clouds 20 1024 68 10000 3.1 160 11:22 12.10.2019
6333 Clouds 20 1024 72 10000 2.6 160 10:56 12.10.2019
6334 Clouds 20 1024 72 10000 2.6 160 10:36 12.10.2019
6335 Clouds 19 1024 82 10000 2.1 180 10:18 12.10.2019
6336 Mist 18 1024 77 10000 1.5 0 09:54 12.10.2019
6337 Mist 17 1024 77 10000 1.5 0 09:36 12.10.2019
6338 Fog 16 1023 88 10000 0.5 0 09:18 12.10.2019
6339 Fog 16 1023 88 10000 0.5 0 09:18 12.10.2019
6340 Fog 15 1023 87 10000 1 60 08:40 12.10.2019
6341 Mist 15 1023 93 10000 0.5 0 08:20 12.10.2019
6342 Mist 15 1023 93 10000 0.5 0 08:20 12.10.2019
6343 Mist 14 1023 93 10000 0.5 0 07:35 12.10.2019
6344 Mist 14 1023 93 10000 0.5 0 07:35 12.10.2019
6345 Clear 14 1022 93 10000 2.1 150 06:57 12.10.2019
6346 Clear 14 1022 87 10000 3.1 130 05:48 12.10.2019
6347 Clear 14 1022 87 10000 2.6 130 05:23 12.10.2019
6348 Fog 15 1023 93 10000 2.1 140 04:24 12.10.2019
6349 Fog 15 1023 87 10000 2.1 130 03:33 12.10.2019
6350 Fog 15 1023 87 10000 1.5 110 01:56 12.10.2019
6351 Clear 16 1022 87 10000 2.1 90 01:24 12.10.2019
6352 Clear 16 1023 87 10000 1.5 100 00:43 12.10.2019
6353 Clear 16 1023 93 10000 1 0 00:19 12.10.2019
6354 Clear 16 1023 88 10000 2.1 50 23:40 11.10.2019
6355 Clear 16 1023 88 10000 2.6 40 23:20 11.10.2019
6356 Clear 16 1022 88 10000 2.1 60 22:41 11.10.2019
6357 Clear 17 1022 82 10000 1.5 70 22:22 11.10.2019
6358 Clear 17 1022 82 10000 1.5 70 21:59 11.10.2019
6359 Clear 17 1022 82 10000 1 120 21:40 11.10.2019
6360 Clear 18 1022 88 10000 1 250 21:21 11.10.2019
6361 Clear 18 1022 82 10000 1 0 20:45 11.10.2019
6362 Clear 18 1022 82 10000 1 0 20:27 11.10.2019
6363 Clear 19 1022 82 10000 1.5 220 19:59 11.10.2019
6364 Clear 19 1022 77 10000 2.1 210 19:39 11.10.2019
6365 Clear 20 1021 73 10000 2.6 210 19:18 11.10.2019
6366 Clear 20 1021 73 10000 2.6 210 19:18 11.10.2019
6367 Clear 20 1021 73 10000 2.6 210 19:18 11.10.2019
6368 Clear 20 1021 73 10000 2.6 210 18:59 11.10.2019
6369 Clear 21 1021 64 10000 3.1 180 18:39 11.10.2019
6370 Clouds 22 1021 60 10000 3.6 180 18:19 11.10.2019
6371 Clouds 23 1021 60 10000 3.6 180 17:59 11.10.2019
6372 Clouds 23 1021 53 10000 1.5 130 17:38 11.10.2019
6373 Clouds 24 1021 53 10000 2.1 210 17:19 11.10.2019
6374 Clouds 24 1021 53 10000 2.1 210 17:19 11.10.2019
6375 Clouds 24 1021 53 10000 2.1 210 16:59 11.10.2019
6376 Clouds 24 1021 53 10000 2.1 70 16:39 11.10.2019
6377 Clouds 24 1021 53 10000 2.1 60 16:19 11.10.2019
6378 Clouds 24 1021 50 10000 3.1 150 15:42 11.10.2019
6379 Clouds 24 1021 50 10000 3.1 160 15:22 11.10.2019
6380 Clouds 24 1021 50 10000 3.1 160 14:59 11.10.2019
6381 Clouds 24 1022 53 10000 3.6 170 14:40 11.10.2019
6382 Clouds 23 1022 50 10000 4.1 180 14:20 11.10.2019
6383 Clouds 23 1022 56 10000 3.6 180 13:45 11.10.2019
6384 Clouds 23 1022 56 10000 2.6 180 13:25 11.10.2019
6385 Clouds 22 1022 56 10000 2.6 180 12:57 11.10.2019
6386 Clear 22 1022 56 10000 4.1 170 12:39 11.10.2019
6387 Clear 22 1022 56 10000 4.1 170 12:39 11.10.2019
6388 Clouds 21 1022 60 10000 3.1 170 12:20 11.10.2019
6389 Clouds 21 1022 64 10000 2.1 360 11:58 11.10.2019
6390 Clouds 21 1022 64 10000 2.1 360 11:38 11.10.2019
6391 Clear 20 1022 68 10000 1.5 320 11:20 11.10.2019
6392 Clear 20 1022 77 10000 2.1 360 10:55 11.10.2019
6393 Clear 20 1022 77 10000 2.1 360 10:55 11.10.2019
6394 Clear 20 1022 77 10000 2.1 360 10:36 11.10.2019
6395 Clear 18 1022 77 10000 2.1 330 10:18 11.10.2019
6396 Clear 18 1021 77 10000 0.5 0 09:42 11.10.2019
6397 Clear 16 1021 87 10000 1.5 300 09:21 11.10.2019
6398 Clear 15 1020 87 10000 1 10 08:57 11.10.2019
6399 Clear 15 1020 87 10000 1 10 08:38 11.10.2019
6400 Clear 15 1020 93 10000 0.5 0 08:20 11.10.2019
6401 Clear 14 1020 93 10000 0.5 0 07:52 11.10.2019
6402 Clear 14 1020 93 10000 0.5 0 07:33 11.10.2019
6403 Clear 14 1020 93 10000 1.5 10 06:50 11.10.2019
6404 Clear 14 1020 87 10000 2.6 50 06:25 11.10.2019
6405 Clear 14 1020 87 10000 1 0 05:47 11.10.2019
6406 Clear 14 1020 87 10000 1 0 05:29 11.10.2019
6407 Clear 14 1019 87 10000 0.5 0 04:50 11.10.2019
6408 Clear 14 1019 87 10000 0.5 0 03:27 11.10.2019
6409 Clear 15 1019 82 10000 2.1 110 01:18 11.10.2019
6410 Clear 15 1019 82 10000 2.1 110 01:18 11.10.2019
6411 Clear 15 1018 82 10000 2.6 100 00:31 11.10.2019
6412 Clear 15 1018 82 10000 2.1 100 23:58 10.10.2019
6413 Clear 15 1018 87 10000 0.5 0 23:40 10.10.2019
6414 Clear 15 1018 87 10000 0.5 0 23:19 10.10.2019
6415 Clear 16 1018 87 10000 0.5 0 22:55 10.10.2019
6416 Clear 16 1018 77 10000 2.1 0 22:36 10.10.2019
6417 Clear 16 1018 77 10000 1.5 80 22:18 10.10.2019
6418 Clear 16 1017 77 10000 1.5 150 21:42 10.10.2019
6419 Clear 17 1017 77 10000 2.6 160 21:22 10.10.2019
6420 Clear 17 1017 77 10000 2.6 160 20:58 10.10.2019
6421 Clear 17 1017 77 10000 2.1 130 20:39 10.10.2019
6422 Clear 18 1017 72 10000 2.6 140 20:19 10.10.2019
6423 Clear 19 1017 68 10000 2.1 140 19:56 10.10.2019
6424 Clear 19 1017 68 10000 2.1 140 19:38 10.10.2019
6425 Clear 20 1016 64 10000 2.1 170 19:19 10.10.2019
6426 Clear 20 1016 64 10000 2.6 170 18:42 10.10.2019
6427 Clouds 21 1016 64 10000 3.1 180 18:21 10.10.2019
6428 Clouds 21 1016 64 10000 3.1 180 17:58 10.10.2019
6429 Clouds 21 1016 56 10000 4.1 180 17:39 10.10.2019
6430 Clouds 22 1016 56 10000 3.6 200 17:18 10.10.2019
6431 Clouds 22 1016 56 10000 3.6 200 17:18 10.10.2019
6432 Clouds 22 1016 56 10000 3.6 200 16:55 10.10.2019
6433 Clouds 22 1016 68 10000 2.1 180 16:37 10.10.2019
6434 Clouds 22 1016 73 10000 2.6 180 16:18 10.10.2019
6435 Clouds 22 1016 73 10000 3.6 210 15:39 10.10.2019
6436 Clouds 22 1016 64 10000 2.6 200 15:21 10.10.2019
6437 Clouds 22 1016 64 10000 2.6 200 14:57 10.10.2019
6438 Clouds 22 1017 60 10000 3.1 210 14:37 10.10.2019
6439 Clouds 22 1017 60 10000 3.1 210 14:37 10.10.2019
6440 Clouds 22 1017 64 10000 2.6 210 14:19 10.10.2019
6441 Clouds 22 1017 64 10000 3.6 210 13:55 10.10.2019
6442 Clouds 22 1017 64 10000 3.6 210 13:37 10.10.2019
6443 Clouds 21 1017 64 10000 6.2 210 13:18 10.10.2019
6444 Clouds 21 1017 64 10000 3.1 200 12:42 10.10.2019
6445 Clouds 21 1017 68 10000 2.1 220 12:21 10.10.2019
6446 Clouds 21 1017 68 10000 2.1 220 11:58 10.10.2019
6447 Clouds 20 1017 64 10000 2.1 160 11:39 10.10.2019
6448 Drizzle 20 1017 64 10000 2.1 200 11:19 10.10.2019
6449 Drizzle 20 1017 64 10000 1.5 160 10:46 10.10.2019
6450 Clear 19 1017 64 10000 1.5 160 10:27 10.10.2019
6451 Clear 19 1017 77 10000 1.5 150 09:58 10.10.2019
6452 Clear 19 1017 77 10000 1.5 100 09:40 10.10.2019
6453 Clear 17 1017 82 10000 2.1 110 09:22 10.10.2019
6454 Clear 16 1017 82 10000 2.1 110 08:58 10.10.2019
6455 Clear 15 1017 82 10000 1 0 08:38 10.10.2019
6456 Clear 15 1017 82 10000 1 0 08:38 10.10.2019
6457 Clear 15 1017 87 10000 2.6 110 08:19 10.10.2019
6458 Clear 14 1017 87 10000 2.6 110 07:46 10.10.2019
6459 Clear 14 1017 87 10000 2.1 100 07:23 10.10.2019
6460 Clear 14 1017 82 10000 2.1 100 06:49 10.10.2019
6461 Clear 14 1017 82 10000 2.1 100 06:29 10.10.2019
6462 Clear 14 1017 93 10000 1 0 05:28 10.10.2019
6463 -273 0 0 0 0 0 04:55 10.10.2019
6464 Clear 14 1017 87 10000 1.5 120 04:33 10.10.2019
6465 Clear 14 1018 76 10000 1 0 02:19 10.10.2019
6466 Clear 15 1018 82 10000 1 0 01:36 10.10.2019
6467 Clear 15 1018 77 10000 0.5 0 01:18 10.10.2019
6468 Clear 15 1018 62 10000 1.5 100 00:24 10.10.2019
6469 Clear 15 1018 67 10000 1.5 100 23:41 09.10.2019
6470 Clear 15 1018 71 10000 1 60 23:23 09.10.2019
6471 Clear 15 1018 71 10000 1 60 22:59 09.10.2019
6472 Clear 15 1018 71 10000 1 60 22:59 09.10.2019
6473 Clear 15 1018 67 10000 2.1 120 22:40 09.10.2019
6474 Clear 16 1018 63 10000 2.1 90 22:22 09.10.2019
6475 Clear 16 1018 77 10000 2.6 120 21:42 09.10.2019
6476 Clear 17 1018 72 10000 1.5 100 21:21 09.10.2019
6477 Clear 17 1018 72 10000 1.5 100 21:21 09.10.2019
6478 Clear 17 1018 72 10000 1.5 160 20:56 09.10.2019
6479 Clear 17 1018 72 10000 1.5 160 20:38 09.10.2019
6480 Clear 18 1017 68 10000 1 0 20:19 09.10.2019
6481 Clear 18 1017 68 10000 1 0 19:59 09.10.2019
6482 Clear 18 1017 68 10000 1 0 19:59 09.10.2019
6483 Clear 18 1017 68 10000 1.5 180 19:40 09.10.2019
6484 Clear 19 1017 60 10000 2.6 190 19:22 09.10.2019
6485 Clear 20 1017 60 10000 3.1 200 18:39 09.10.2019
6486 Clear 21 1017 60 10000 4.1 200 18:20 09.10.2019
6487 Clear 22 1017 60 10000 4.1 200 17:58 09.10.2019
6488 Clear 22 1017 56 10000 4.1 200 17:39 09.10.2019
6489 Clear 23 1018 53 10000 3.6 200 17:21 09.10.2019
6490 Clear 23 1018 53 10000 3.6 200 16:56 09.10.2019
6491 Clear 23 1018 53 10000 3.6 200 16:56 09.10.2019
6492 Clear 23 1018 53 10000 3.6 200 16:56 09.10.2019
6493 Clear 23 1018 53 10000 3.6 210 16:37 09.10.2019
6494 Clear 23 1018 50 10000 2.6 210 16:19 09.10.2019
6495 Clear 23 1018 41 10000 3.1 150 15:55 09.10.2019
6496 Clear 23 1018 41 10000 3.1 150 15:55 09.10.2019
6497 Clear 23 1018 41 10000 3.1 150 15:37 09.10.2019
6498 Clear 23 1018 44 10000 2.6 170 15:18 09.10.2019
6499 Clouds 23 1018 46 10000 3.6 140 14:44 09.10.2019
6500 Clouds 23 1018 46 10000 3.6 140 14:44 09.10.2019
6501 Clouds 23 1019 43 10000 3.6 190 14:19 09.10.2019
6502 Clouds 23 1019 43 10000 3.6 190 13:59 09.10.2019
6503 Clear 23 1019 40 10000 4.6 170 13:37 09.10.2019
6504 Clear 22 1019 43 10000 3.6 160 13:18 09.10.2019
6505 Clear 22 1019 43 10000 3.6 190 12:43 09.10.2019
6506 Clear 21 1020 46 10000 3.1 160 12:23 09.10.2019
6507 Clear 21 1020 46 10000 3.1 160 11:58 09.10.2019
6508 Clear 21 1020 56 10000 1.5 0 11:39 09.10.2019
6509 Clear 19 1020 60 10000 2.6 350 11:20 09.10.2019
6510 Clear 19 1020 60 10000 2.6 350 10:58 09.10.2019
6511 Clear 20 1020 60 10000 2.1 360 10:40 09.10.2019
6512 Clear 18 1020 56 10000 1 0 10:18 09.10.2019
6513 Clear 18 1020 63 10000 1 0 09:43 09.10.2019
6514 Clear 16 1020 63 10000 1 0 09:20 09.10.2019
6515 Clear 15 1020 63 10000 1 0 08:57 09.10.2019
6516 Clear 15 1019 67 10000 3.6 90 08:37 09.10.2019
6517 Clear 14 1019 76 10000 3.6 80 08:18 09.10.2019
6518 Clear 13 1019 82 10000 1 50 07:46 09.10.2019
6519 Clear 13 1019 76 10000 1.5 90 07:24 09.10.2019
6520 Clear 13 1019 76 10000 1.5 90 07:24 09.10.2019
6521 Clear 13 1019 76 10000 1.5 90 07:24 09.10.2019
6522 Clear 13 1019 76 10000 2.1 90 06:54 09.10.2019
6523 Clear 13 1019 82 10000 1 0 06:25 09.10.2019
6524 Clear 13 1019 82 10000 1 0 05:47 09.10.2019
6525 Clear 13 1019 82 10000 2.1 100 04:41 09.10.2019
6526 Clear 13 1019 76 10000 2.6 100 03:24 09.10.2019
6527 Clear 14 1019 82 10000 2.1 100 01:55 09.10.2019
6528 Clear 14 1019 76 10000 2.1 100 01:22 09.10.2019
6529 Clear 14 1019 76 10000 2.1 100 00:59 09.10.2019
6530 Clear 14 1019 72 10000 2.6 100 00:40 09.10.2019
6531 Clear 14 1019 72 10000 2.6 90 00:22 09.10.2019
6532 Clear 14 1019 72 10000 2.6 90 23:57 08.10.2019
6533 Clear 14 1019 77 10000 2.6 100 23:37 08.10.2019
6534 Clear 14 1019 77 10000 2.6 100 23:18 08.10.2019
6535 Clear 15 1019 82 10000 2.6 120 22:39 08.10.2019
6536 Clear 15 1018 77 10000 3.1 130 22:20 08.10.2019
6537 Clear 15 1018 77 10000 3.1 130 21:58 08.10.2019
6538 Clear 15 1018 77 10000 3.1 130 21:39 08.10.2019
6539 Clear 16 1018 77 10000 2.1 130 21:19 08.10.2019
6540 Clear 16 1018 77 10000 2.6 130 20:57 08.10.2019
6541 Clear 16 1018 77 10000 2.6 130 20:39 08.10.2019
6542 Clear 17 1018 72 10000 1.5 140 20:21 08.10.2019
6543 Clear 17 1018 72 10000 1.5 140 19:58 08.10.2019
6544 Clear 17 1018 72 10000 1.5 140 19:58 08.10.2019
6545 Clear 18 1017 63 10000 1 0 19:40 08.10.2019
6546 Clear 19 1017 60 10000 1 0 19:22 08.10.2019
6547 Clear 20 1017 60 10000 1 0 18:55 08.10.2019
6548 Clear 20 1017 56 10000 1.5 230 18:55 08.10.2019
6549 Clear 20 1017 56 10000 1.5 230 18:36 08.10.2019
6550 Clear 21 1017 56 10000 3.1 240 18:18 08.10.2019
6551 Clear 22 1016 53 10000 3.1 260 17:40 08.10.2019
6552 Clear 22 1016 49 10000 3.1 280 17:21 08.10.2019
6553 Clear 23 1016 49 10000 3.1 280 16:58 08.10.2019
6554 Clear 23 1016 46 10000 2.6 290 16:39 08.10.2019
6555 Clear 22 1016 46 10000 2.6 250 16:21 08.10.2019
6556 Clear 23 1016 46 10000 2.1 0 15:41 08.10.2019
6557 Clear 23 1016 46 10000 2.1 0 15:41 08.10.2019
6558 Clouds 23 1017 46 10000 2.6 250 15:21 08.10.2019
6559 Clouds 23 1017 46 10000 2.6 250 14:58 08.10.2019
6560 Clouds 23 1017 46 10000 2.6 250 14:58 08.10.2019
6561 Clouds 23 1017 46 10000 3.1 220 14:39 08.10.2019
6562 Clear 22 1017 38 10000 2.1 0 14:21 08.10.2019
6563 Clear 23 1017 38 10000 2.1 0 13:57 08.10.2019
6564 Clear 22 1017 43 10000 2.1 240 13:38 08.10.2019
6565 Clear 22 1017 38 10000 2.6 200 13:19 08.10.2019
6566 Clear 22 1017 38 10000 2.6 200 12:58 08.10.2019
6567 Clear 21 1017 40 10000 1.5 0 12:37 08.10.2019
6568 Clear 21 1017 43 10000 1.5 310 12:18 08.10.2019
6569 Clear 20 1017 45 10000 3.1 30 11:42 08.10.2019
6570 Clear 19 1017 48 10000 3.1 10 11:24 08.10.2019
6571 Clear 19 1017 48 10000 3.1 10 10:56 08.10.2019
6572 Clear 19 1017 55 10000 3.1 20 10:37 08.10.2019
6573 Clear 18 1016 58 10000 2.6 0 10:19 08.10.2019
6574 Clear 17 1016 58 10000 2.6 10 09:55 08.10.2019
6575 Clear 16 1016 58 10000 2.6 10 09:37 08.10.2019
6576 Clear 15 1015 66 10000 2.6 330 09:19 08.10.2019
6577 Clear 14 1014 66 10000 3.1 40 08:42 08.10.2019
6578 Clear 14 1015 71 10000 2.1 30 08:23 08.10.2019
6579 Clear 14 1015 71 10000 2.1 30 08:23 08.10.2019
6580 Clear 13 1014 76 10000 3.1 30 07:44 08.10.2019
6581 Clear 13 1014 71 10000 4.1 30 07:21 08.10.2019
6582 Clear 13 1014 62 10000 4.1 30 06:51 08.10.2019
6583 Clear 13 1014 62 10000 4.6 40 06:28 08.10.2019
6584 Clear 13 1014 62 10000 4.1 50 05:46 08.10.2019
6585 Clear 13 1014 62 10000 4.1 50 05:46 08.10.2019
6586 Clear 13 1014 62 10000 4.1 50 05:25 08.10.2019
6587 Clear 13 1013 58 10000 6.2 30 04:31 08.10.2019
6588 Clear 13 1013 54 10000 3.6 40 03:27 08.10.2019
6589 Clear 14 1013 54 10000 3.6 30 02:36 08.10.2019
6590 Clear 14 1012 54 10000 3.1 40 01:45 08.10.2019
6591 Clear 14 1012 54 10000 3.1 40 01:26 08.10.2019
6592 Clear 15 1012 47 10000 3.1 50 00:46 08.10.2019
6593 Clear 15 1012 44 10000 3.1 20 00:20 08.10.2019
6594 Clear 15 1012 44 10000 5.1 10 23:39 07.10.2019
6595 Clear 15 1011 51 10000 1.5 360 23:20 07.10.2019
6596 Clear 16 1011 51 10000 1.5 360 22:56 07.10.2019
6597 Clear 16 1011 51 10000 2.6 60 22:38 07.10.2019
6598 Clear 16 1011 54 10000 2.6 50 22:20 07.10.2019
6599 Clear 16 1011 54 10000 2.6 50 21:56 07.10.2019
6600 Clear 16 1010 48 10000 3.1 10 21:37 07.10.2019
6601 Clear 16 1010 48 10000 3.1 10 21:37 07.10.2019
6602 Clear 17 1010 45 10000 2.6 20 21:19 07.10.2019
6603 Clear 17 1010 45 10000 2.6 20 21:19 07.10.2019
6604 Clear 17 1010 45 10000 2.6 20 20:57 07.10.2019
6605 Clear 18 1009 42 10000 4.6 20 20:39 07.10.2019
6606 Clear 18 1009 39 10000 4.6 20 20:20 07.10.2019
6607 Clear 18 1008 45 10000 2.1 30 19:57 07.10.2019
6608 Clear 18 1008 45 10000 2.1 30 19:39 07.10.2019
6609 Clear 19 1008 39 10000 2.1 50 19:18 07.10.2019
6610 Clear 19 1007 40 10000 3.6 40 18:56 07.10.2019
6611 Clear 20 1007 40 10000 3.6 40 18:38 07.10.2019
6612 Clouds 20 1007 40 10000 4.1 40 18:18 07.10.2019
6613 Clouds 21 1006 43 10000 4.6 40 17:42 07.10.2019
6614 Clouds 21 1006 49 10000 4.6 60 17:19 07.10.2019
6615 Clouds 21 1006 49 10000 4.6 60 16:55 07.10.2019
6616 Clouds 21 1005 53 10000 3.1 30 16:37 07.10.2019
6617 Clouds 21 1005 56 10000 4.1 30 16:19 07.10.2019
6618 Clouds 21 1004 56 10000 3.6 30 15:43 07.10.2019
6619 Clouds 21 1004 52 10000 2.1 40 15:24 07.10.2019
6620 Clouds 21 1004 56 10000 1.5 0 14:42 07.10.2019
6621 Rain 20 1004 60 10000 1.5 0 14:23 07.10.2019
6622 Rain 20 1004 60 10000 1.5 0 13:59 07.10.2019
6623 Rain 20 1004 60 10000 1.5 0 13:59 07.10.2019
6624 Rain 19 1005 68 10000 2.1 10 13:40 07.10.2019
6625 Rain 18 1005 72 10000 2.1 320 13:18 07.10.2019
6626 Rain 18 1005 72 10000 1 0 12:55 07.10.2019
6627 Rain 18 1005 72 10000 1 0 12:55 07.10.2019
6628 Rain 18 1005 72 10000 1 0 12:36 07.10.2019
6629 Rain 17 1005 82 10000 1 0 12:18 07.10.2019
6630 -273 0 0 0 0 0 11:56 07.10.2019
6631 Rain 17 1004 82 8000 1.5 330 11:36 07.10.2019
6632 Rain 16 1005 87 10000 1 0 11:18 07.10.2019
6633 Rain 16 1004 77 10000 1.5 0 10:40 07.10.2019
6634 Thunderstorm 16 1004 72 10000 4.6 140 10:20 07.10.2019
6635 Thunderstorm 16 1004 82 10000 4.6 130 09:42 07.10.2019
6636 Thunderstorm 16 1004 87 10000 5.1 160 09:23 07.10.2019
6637 Thunderstorm 16 1004 77 10000 2.6 100 08:56 07.10.2019
6638 Thunderstorm 16 1004 77 10000 2.6 100 08:37 07.10.2019
6639 Thunderstorm 15 1003 77 10000 2.6 90 08:18 07.10.2019
6640 Rain 16 1004 77 10000 3.6 90 07:40 07.10.2019
6641 Rain 16 1004 87 10000 2.6 100 07:20 07.10.2019
6642 Thunderstorm 16 1005 87 10000 2.1 110 06:44 07.10.2019
6643 Clouds 15 1005 87 10000 2.1 110 06:23 07.10.2019
6644 Clouds 16 1006 87 10000 2.1 100 05:30 07.10.2019
6645 Clouds 16 1006 88 10000 2.1 0 04:58 07.10.2019
6646 Clouds 16 1008 87 10000 1.5 110 04:23 07.10.2019
6647 Clouds 16 1008 87 10000 1.5 110 03:44 07.10.2019
6648 Clouds 16 1008 87 10000 1.5 110 03:44 07.10.2019
6649 Clear 16 1008 87 10000 1.5 120 03:19 07.10.2019
6650 Clear 16 1008 87 10000 1.5 120 03:19 07.10.2019
6651 Clear 16 1009 87 10000 1.5 130 02:20 07.10.2019
6652 Clear 16 1009 87 10000 1.5 130 02:20 07.10.2019
6653 Clear 16 1009 87 10000 2.1 120 01:47 07.10.2019
6654 Clear 17 1009 93 10000 2.1 120 01:19 07.10.2019
6655 Clear 17 1010 93 10000 2.1 120 00:38 07.10.2019
6656 Clear 17 1010 87 10000 2.1 110 00:19 07.10.2019
6657 Clear 17 1011 88 10000 1.5 120 23:42 06.10.2019
6658 Clear 17 1011 88 10000 1.5 120 23:42 06.10.2019
6659 Clear 17 1011 82 10000 2.1 110 23:21 06.10.2019
6660 Clear 17 1011 87 10000 1 0 22:59 06.10.2019
6661 Clear 17 1011 87 10000 1 0 22:40 06.10.2019
6662 Clear 17 1011 82 10000 1 170 22:21 06.10.2019
6663 Clear 17 1011 82 10000 1 170 22:21 06.10.2019
6664 Clear 17 1011 82 10000 2.6 120 21:57 06.10.2019
6665 Clear 18 1011 82 10000 2.6 120 21:37 06.10.2019
6666 Clear 18 1011 77 10000 1 180 21:19 06.10.2019
6667 Clear 18 1011 77 10000 1 180 20:57 06.10.2019
6668 Clear 18 1011 72 10000 1 180 20:38 06.10.2019
6669 Clear 19 1011 68 10000 1.5 190 20:20 06.10.2019
6670 Clear 19 1011 64 10000 2.1 210 19:57 06.10.2019
6671 Clear 19 1011 64 10000 2.1 210 19:37 06.10.2019
6672 Clear 19 1011 64 10000 2.1 200 19:19 06.10.2019
6673 Clear 19 1011 64 10000 2.1 200 18:56 06.10.2019
6674 Clear 20 1011 73 10000 3.1 270 18:38 06.10.2019
6675 Clouds 21 1011 56 10000 3.1 240 18:19 06.10.2019
6676 Clouds 21 1011 56 10000 3.1 240 18:19 06.10.2019
6677 Clouds 21 1011 56 10000 3.1 240 17:43 06.10.2019
6678 Clouds 21 1011 56 10000 3.1 240 17:43 06.10.2019
6679 Clouds 22 1011 53 10000 3.1 240 17:20 06.10.2019
6680 Clouds 21 1012 53 10000 3.1 230 16:58 06.10.2019
6681 Clouds 22 1012 53 10000 3.1 230 16:40 06.10.2019
6682 Clouds 22 1012 56 10000 3.6 250 16:22 06.10.2019
6683 Clouds 22 1012 60 10000 2.6 260 15:44 06.10.2019
6684 Clouds 23 1012 56 10000 3.6 260 15:22 06.10.2019
6685 Clouds 23 1012 56 10000 3.6 260 14:58 06.10.2019
6686 Clouds 23 1012 56 10000 2.1 360 14:40 06.10.2019
6687 Clouds 23 1012 53 10000 1 0 14:21 06.10.2019
6688 Clouds 23 1012 56 10000 1.5 0 13:54 06.10.2019
6689 Clouds 23 1012 56 10000 1.5 0 13:54 06.10.2019
6690 Clouds 23 1012 53 10000 1 0 13:54 06.10.2019
6691 Clouds 23 1012 56 10000 1.5 0 13:36 06.10.2019
6692 Clouds 23 1012 56 10000 1.5 0 13:36 06.10.2019
6693 Clouds 23 1013 53 10000 1 0 13:18 06.10.2019
6694 Clouds 23 1013 53 10000 1 0 13:18 06.10.2019
6695 Clouds 22 1013 60 10000 1.5 260 12:55 06.10.2019
6696 Clouds 22 1013 60 10000 1.5 260 12:54 06.10.2019
6697 Clouds 22 1013 60 10000 1.5 260 12:36 06.10.2019
6698 Clouds 22 1013 60 10000 1.5 260 12:36 06.10.2019
6699 Clouds 22 1013 64 10000 2.6 340 12:18 06.10.2019
6700 Clouds 21 1013 68 10000 2.6 350 11:42 06.10.2019
6701 Clouds 20 1013 72 10000 2.6 330 11:24 06.10.2019
6702 Clouds 20 1013 72 10000 2.6 330 10:56 06.10.2019
6703 Clouds 20 1013 72 10000 2.1 10 10:37 06.10.2019
6704 Clouds 19 1013 77 10000 1.5 350 10:19 06.10.2019
6705 Clouds 18 1012 82 10000<